# Wetter Temperatur Luftdruck Luftfeuchtigkeit Sichtweite Windgeschwindigkeit Windrichtung Zeit
1 Clear 0 1037 58 10000 1.5 20 07:18 11.07.2020
2 Clear 0 1037 61 10000 1.5 20 06:28 11.07.2020
3 Clear -3 1037 53 10000 1.5 40 05:59 11.07.2020
4 Clear -3 1037 53 10000 1.5 40 05:20 11.07.2020
5 Clear -1 1037 58 10000 1 0 04:50 11.07.2020
6 Clear -1 1037 58 10000 1 0 04:20 11.07.2020
7 Clouds 3 1036 34 10000 3.1 90 02:55 11.07.2020
8 Clouds 3 1036 34 10000 3.1 90 02:27 11.07.2020
9 Clouds 8 1035 17 10000 2.1 320 01:25 11.07.2020
10 Clouds 12 1035 10 10000 4.1 290 00:57 11.07.2020
11 Clouds 12 1035 10 10000 4.1 290 00:38 11.07.2020
12 Clouds 12 1035 10 10000 4.1 290 00:18 11.07.2020
13 Clouds 13 1035 9 10000 4.6 280 23:45 10.07.2020
14 Clouds 13 1035 9 10000 4.6 280 23:26 10.07.2020
15 Clouds 15 1035 15 10000 4.6 260 22:57 10.07.2020
16 Clouds 14 1035 12 10000 5.1 290 22:38 10.07.2020
17 Clouds 14 1035 12 10000 5.1 290 22:19 10.07.2020
18 Clouds 14 1035 12 10000 5.1 290 21:39 10.07.2020
19 Clouds 14 1035 12 10000 5.1 290 21:20 10.07.2020
20 Clouds 13 1036 10 10000 4.6 250 20:56 10.07.2020
21 Clouds 13 1036 10 10000 4.6 250 20:37 10.07.2020
22 Clouds 13 1036 10 10000 4.6 250 20:19 10.07.2020
23 Clouds 11 1037 14 10000 3.6 260 19:55 10.07.2020
24 Clouds 11 1037 14 10000 3.6 260 19:36 10.07.2020
25 Clouds 11 1038 21 10000 4.6 280 19:18 10.07.2020
26 Clouds 11 1038 21 10000 4.6 280 18:38 10.07.2020
27 Clouds 8 1039 26 10000 3.6 260 18:19 10.07.2020
28 Clouds 8 1039 26 10000 3.6 260 17:55 10.07.2020
29 Clouds 8 1039 26 10000 3.6 260 17:37 10.07.2020
30 Clouds 8 1039 26 10000 3.6 260 17:18 10.07.2020
31 Clouds 5 1039 27 10000 2.1 250 16:40 10.07.2020
32 Clouds 5 1039 27 10000 2.1 250 16:19 10.07.2020
33 Clouds 1 1038 34 10000 1 0 15:44 10.07.2020
34 Clouds 1 1038 34 10000 1 0 15:44 10.07.2020
35 Clouds 1 1038 34 10000 1 0 15:22 10.07.2020
36 Clouds -2 1038 39 10000 1 0 14:55 10.07.2020
37 Clouds -2 1038 39 10000 1 0 14:36 10.07.2020
38 Clouds -2 1038 39 10000 1 0 14:18 10.07.2020
39 Clouds -3 1037 38 10000 1.5 20 13:55 10.07.2020
40 Clouds -3 1037 38 10000 1.5 20 13:36 10.07.2020
41 Clouds -3 1037 38 10000 1.5 20 13:36 10.07.2020
42 Clouds -2 1037 36 10000 2.1 360 13:18 10.07.2020
43 Clouds -2 1037 36 10000 2.1 360 12:43 10.07.2020
44 Clouds -2 1037 36 10000 2.1 360 12:24 10.07.2020
45 Clouds -1 1036 36 10000 1.5 360 11:58 10.07.2020
46 Clouds -1 1036 36 10000 1.5 360 11:38 10.07.2020
47 Clouds -1 1036 36 10000 1.5 360 11:18 10.07.2020
48 Clouds 2 1020 81 0 0.52 263 10:42 10.07.2020
49 Clouds -5 1036 41 10000 1 0 10:21 10.07.2020
50 Clouds -5 1036 41 10000 1 0 09:59 10.07.2020
51 Clouds -5 1036 41 10000 1 0 09:37 10.07.2020
52 Clouds -5 1036 41 10000 1 0 09:19 10.07.2020
53 Clouds -3 1037 38 10000 1.5 50 08:55 10.07.2020
54 Clouds -3 1037 38 10000 1.5 50 08:36 10.07.2020
55 Clouds -5 1037 41 10000 2.1 50 08:18 10.07.2020
56 Clouds -5 1037 41 10000 2.1 50 07:41 10.07.2020
57 Clouds -5 1037 41 10000 2.1 50 07:20 10.07.2020
58 Clouds -3 1038 35 10000 2.1 60 06:48 10.07.2020
59 Clouds 1 1038 34 10000 2.6 50 05:55 10.07.2020
60 Clouds 1 1038 29 10000 1.5 90 04:32 10.07.2020
61 Clouds 1 1037 22 10000 2.1 60 03:31 10.07.2020
62 Clouds 5 1037 18 10000 1 0 02:49 10.07.2020
63 Clouds 5 1036 12 10000 4.1 100 01:47 10.07.2020
64 Clouds 5 1018 66 0 2.83 46 00:45 10.07.2020
65 Clouds 12 1035 8 10000 3.6 120 00:18 10.07.2020
66 Clouds 12 1035 8 10000 3.6 120 23:45 09.07.2020
67 Clouds 12 1035 8 10000 3.6 120 23:21 09.07.2020
68 Clouds 13 1036 7 10000 2.6 120 22:58 09.07.2020
69 Clouds 13 1036 7 10000 2.6 120 22:39 09.07.2020
70 Clouds 13 1036 7 10000 2.6 120 22:21 09.07.2020
71 Clouds 12 1036 8 10000 2.1 140 21:56 09.07.2020
72 Clouds 12 1036 8 10000 2.1 140 21:37 09.07.2020
73 Clouds 12 1036 8 10000 2.1 140 21:37 09.07.2020
74 Clouds 12 1036 8 10000 2.1 140 21:18 09.07.2020
75 Clouds 11 1016 34 0 2.49 125 20:42 09.07.2020
76 Clouds 11 1016 34 0 2.49 125 20:42 09.07.2020
77 Clouds 11 1017 32 0 2.32 142 20:24 09.07.2020
78 Clouds 11 1017 32 0 2.32 142 19:56 09.07.2020
79 Clouds 10 1039 9 10000 3.1 110 19:38 09.07.2020
80 Clouds 10 1039 9 10000 3.1 110 19:19 09.07.2020
81 Clouds 10 1039 9 10000 3.1 110 18:41 09.07.2020
82 Clouds 8 1040 6 10000 3.1 130 18:20 09.07.2020
83 Clouds 8 1040 6 10000 3.1 130 17:55 09.07.2020
84 Clouds 6 1040 7 10000 1 0 17:37 09.07.2020
85 Clouds 6 1040 7 10000 1 0 17:18 09.07.2020
86 Clouds 6 1040 7 10000 1 0 16:44 09.07.2020
87 Clouds 6 1040 7 10000 1 0 16:20 09.07.2020
88 Clouds 3 1039 10 10000 0.92 214 15:59 09.07.2020
89 Clouds 3 1039 10 10000 0.92 214 15:41 09.07.2020
90 Clouds 3 1039 10 10000 0.61 253 15:23 09.07.2020
91 Snow 0 1039 35 10000 1 0 14:59 09.07.2020
92 Clouds -6 1038 15 10000 1.5 10 14:40 09.07.2020
93 Clouds -6 1038 15 10000 1.5 10 14:22 09.07.2020
94 Clouds -9 1038 21 10000 1.5 10 13:57 09.07.2020
95 Clouds -9 1038 21 10000 1.5 10 13:57 09.07.2020
96 Clouds -9 1038 21 10000 1.5 10 13:38 09.07.2020
97 Clouds -9 1038 21 10000 1.5 10 13:20 09.07.2020
98 Clouds -11 1037 30 10000 0.47 297 12:43 09.07.2020
99 Clouds -11 1037 30 10000 0.77 320 12:24 09.07.2020
100 Clouds -11 1037 30 10000 0.77 320 12:24 09.07.2020
101 Clouds -11 1037 27 10000 1.5 20 11:59 09.07.2020
102 Clouds -11 1037 27 10000 1.5 20 11:41 09.07.2020
103 Clear -11 1037 27 10000 1.5 20 11:21 09.07.2020
104 Clear -10 1037 28 10000 0.55 278 10:56 09.07.2020
105 Clear -10 1037 28 10000 0.55 278 10:38 09.07.2020
106 Clear -10 1037 28 10000 0.88 235 10:20 09.07.2020
107 Clear -10 1037 25 10000 0.88 235 09:43 09.07.2020
108 Clear -10 1037 25 10000 0.55 263 09:23 09.07.2020
109 Clear -9 1038 21 10000 2.1 30 08:52 09.07.2020
110 Clear -9 1038 21 10000 2.1 30 08:27 09.07.2020
111 Clear -4 1038 14 10000 2.6 20 07:56 09.07.2020
112 Clear -4 1038 14 10000 2.6 20 07:38 09.07.2020
113 Clear -4 1038 14 10000 2.6 20 07:20 09.07.2020
114 Clear -2 1038 15 10000 2.6 20 06:21 09.07.2020
115 Clear 0 1038 63 10000 1.5 240 05:53 09.07.2020
116 Clear 0 1038 60 10000 1 0 04:29 09.07.2020
117 Clear -1 1037 15 10000 1 0 03:19 09.07.2020
118 Clear -1 1037 15 10000 1 0 03:19 09.07.2020
119 Clear 6 1036 11 10000 2.1 240 01:55 09.07.2020
120 Clear 10 1035 5 10000 4.6 250 00:59 09.07.2020
121 Clear 10 1035 5 10000 4.6 250 00:38 09.07.2020
122 Clouds 12 1035 5 10000 4.6 240 00:19 09.07.2020
123 Clouds 12 1035 5 10000 4.6 240 23:43 08.07.2020
124 Clouds 12 1035 5 10000 4.6 240 23:24 08.07.2020
125 Clouds 12 1035 4 10000 5.1 230 22:55 08.07.2020
126 Clouds 12 1035 4 10000 5.1 230 22:36 08.07.2020
127 Clouds 12 1035 4 10000 5.1 230 22:18 08.07.2020
128 Clouds 12 1036 5 10000 4.1 230 21:39 08.07.2020
129 Clouds 12 1036 5 10000 4.1 230 21:39 08.07.2020
130 Clouds 12 1036 5 10000 4.1 230 21:21 08.07.2020
131 Clouds 12 1037 4 10000 4.6 240 20:59 08.07.2020
132 Clouds 12 1037 4 10000 4.6 240 20:41 08.07.2020
133 Clouds 12 1037 4 10000 4.6 240 20:23 08.07.2020
134 Clouds 11 1038 4 10000 3.1 280 19:43 08.07.2020
135 Clouds 11 1038 4 10000 3.1 280 19:25 08.07.2020
136 Clear 10 1039 4 10000 2.6 260 18:58 08.07.2020
137 Clear 10 1039 4 10000 2.6 260 18:40 08.07.2020
138 Clear 10 1039 4 10000 2.6 260 18:21 08.07.2020
139 Clear 9 1039 4 10000 1 0 17:56 08.07.2020
140 Clear 9 1039 4 10000 1 0 17:38 08.07.2020
141 Clear 9 1039 4 10000 1 0 17:19 08.07.2020
142 Clear 7 1039 8 10000 1 0 16:54 08.07.2020
143 Clear 7 1039 8 10000 1 0 16:36 08.07.2020
144 Clouds 7 1039 8 10000 1 0 16:18 08.07.2020
145 Clouds 3 1039 13 10000 1 0 15:41 08.07.2020
146 Clear 3 1039 13 10000 1 0 15:20 08.07.2020
147 Clear -1 1038 15 10000 1 0 14:59 08.07.2020
148 Clear -1 1038 15 10000 1 0 14:41 08.07.2020
149 Clear -1 1038 15 10000 1 0 14:19 08.07.2020
150 Clear -3 1037 19 10000 2.6 360 13:45 08.07.2020
151 Clear -3 1037 19 10000 2.6 360 13:26 08.07.2020
152 Clear -5 1037 24 10000 2.1 360 12:46 08.07.2020
153 Clear -5 1037 24 10000 2.1 360 12:22 08.07.2020
154 Clear -3 1037 21 10000 2.1 360 11:59 08.07.2020
155 Clear -3 1037 21 10000 2.1 360 11:38 08.07.2020
156 Clear -3 1037 21 10000 2.1 360 11:20 08.07.2020
157 Clear -4 1037 27 10000 2.1 10 10:45 08.07.2020
158 Clear -4 1037 27 10000 2.1 10 10:26 08.07.2020
159 Clear -4 1037 23 10000 1 0 09:59 08.07.2020
160 Clear -4 1037 23 10000 1 0 09:40 08.07.2020
161 Clear -4 1037 23 10000 1 0 09:20 08.07.2020
162 Clear -8 1037 26 10000 1.5 360 08:42 08.07.2020
163 Clear -8 1037 26 10000 1.5 360 08:24 08.07.2020
164 Clear -4 1037 27 10000 1.5 20 07:46 08.07.2020
165 Clear -4 1037 27 10000 1.5 20 07:23 08.07.2020
166 Clear -2 1037 18 10000 2.1 10 06:54 08.07.2020
167 Clear -2 1037 18 10000 2.1 10 06:35 08.07.2020
168 Clear -3 1038 23 10000 1 0 05:54 08.07.2020
169 Clear 3 1037 13 10000 1 0 05:18 08.07.2020
170 Clear 3 1037 13 10000 1 0 04:20 08.07.2020
171 Clouds 6 1036 20 10000 6.2 220 02:20 08.07.2020
172 Clouds 11 1033 17 10000 6.2 300 01:39 08.07.2020
173 Clouds 11 1033 17 10000 6.2 300 00:59 08.07.2020
174 Clouds 11 1033 17 10000 6.2 300 00:22 08.07.2020
175 Clouds 11 1033 17 10000 6.2 300 00:22 08.07.2020
176 Clouds 13 1033 13 10000 6.7 290 23:44 07.07.2020
177 Clouds 13 1033 13 10000 6.7 290 23:24 07.07.2020
178 Clouds 12 1033 16 10000 7.2 300 22:58 07.07.2020
179 Clouds 12 1033 16 10000 7.2 300 22:40 07.07.2020
180 Clouds 12 1033 16 10000 7.2 300 22:20 07.07.2020
181 Clouds 12 1033 16 10000 7.2 300 22:20 07.07.2020
182 Clouds 13 1034 15 10000 7.7 300 21:58 07.07.2020
183 Clouds 13 1034 15 10000 7.7 300 21:38 07.07.2020
184 Clouds 13 1034 15 10000 7.7 300 21:38 07.07.2020
185 Clouds 13 1034 15 10000 7.7 300 21:38 07.07.2020
186 Clouds 13 1034 15 10000 7.7 300 21:19 07.07.2020
187 Clouds 14 1034 17 10000 10.3 290 20:55 07.07.2020
188 Clouds 14 1034 17 10000 10.3 290 20:36 07.07.2020
189 Clouds 14 1034 17 10000 10.3 290 20:18 07.07.2020
190 Clouds 14 1034 17 10000 10.3 290 20:18 07.07.2020
191 Clouds 14 1035 19 10000 9.8 290 19:39 07.07.2020
192 Clouds 13 1036 22 10000 8.2 290 19:20 07.07.2020
193 Clouds 13 1036 22 10000 8.2 290 18:55 07.07.2020
194 Clouds 13 1036 22 10000 8.2 290 18:37 07.07.2020
195 Clouds 13 1036 22 10000 8.2 290 18:19 07.07.2020
196 Clouds 11 1036 29 10000 7.2 300 17:55 07.07.2020
197 Clouds 11 1036 29 10000 7.2 300 17:36 07.07.2020
198 Clouds 11 1036 29 10000 7.2 300 17:18 07.07.2020
199 Clouds 9 1037 49 10000 5.1 290 16:42 07.07.2020
200 Clouds 9 1037 49 10000 5.1 290 16:22 07.07.2020
201 Clouds 5 1037 56 10000 3.6 270 15:55 07.07.2020
202 Clouds 5 1037 56 10000 3.6 270 15:37 07.07.2020
203 Clouds 5 1037 61 10000 3.6 270 15:18 07.07.2020
204 Clouds 3 1036 86 10000 3.1 270 14:42 07.07.2020
205 Clouds 3 1036 86 10000 3.1 270 14:24 07.07.2020
206 Clouds 3 1036 73 10000 2.6 310 13:43 07.07.2020
207 Clouds 3 1036 84 10000 2.6 310 13:20 07.07.2020
208 Clouds 2 1036 84 10000 1 0 12:56 07.07.2020
209 Clouds 2 1036 84 10000 1 0 12:36 07.07.2020
210 Clouds 2 1036 84 10000 1 0 12:36 07.07.2020
211 Clouds 2 1036 84 10000 1 0 12:36 07.07.2020
212 Clouds 1 1036 84 10000 1 0 12:18 07.07.2020
213 Clouds 1 1036 84 10000 1 0 11:42 07.07.2020
214 Clouds 1 1036 82 10000 1 0 11:22 07.07.2020
215 Fog 1 1036 100 3000 2.1 80 10:58 07.07.2020
216 Fog 1 1036 100 3000 2.1 80 10:39 07.07.2020
217 Fog 1 1036 100 3000 2.1 80 10:20 07.07.2020
218 Fog 1 1036 81 3000 2.1 100 09:42 07.07.2020
219 Fog 1 1036 81 3000 2.1 100 09:21 07.07.2020
220 Fog 2 1036 100 3000 4.1 90 08:43 07.07.2020
221 Fog 2 1036 100 3000 4.1 90 08:25 07.07.2020
222 Fog 2 1036 100 3000 3.1 80 07:58 07.07.2020
223 Fog 2 1036 100 3000 3.1 80 07:37 07.07.2020
224 Fog 2 1036 100 3000 3.1 80 07:19 07.07.2020
225 Fog 2 1036 100 2000 3.6 70 06:40 07.07.2020
226 Fog 2 1036 100 2000 3.6 70 06:22 07.07.2020
227 Fog 1 1036 67 4000 2.6 70 05:24 07.07.2020
228 Clouds 1 1036 67 10000 3.6 70 04:43 07.07.2020
229 Clouds 4 1035 80 10000 5.1 80 03:42 07.07.2020
230 Clouds 5 1034 75 10000 4.6 90 02:41 07.07.2020
231 Clouds 7 1033 65 10000 5.1 80 01:28 07.07.2020
232 Clouds 13 1033 24 10000 4.1 320 00:56 07.07.2020
233 Clouds 13 1033 24 10000 4.1 320 00:38 07.07.2020
234 Clouds 13 1033 24 10000 4.1 320 00:19 07.07.2020
235 Clouds 15 1033 26 10000 6.2 300 23:42 06.07.2020
236 Clouds 15 1033 26 10000 6.2 300 23:23 06.07.2020
237 Clouds 15 1033 26 10000 6.7 290 22:55 06.07.2020
238 Clouds 15 1033 26 10000 6.7 290 22:37 06.07.2020
239 Clouds 15 1033 26 10000 6.7 290 22:18 06.07.2020
240 Clouds 16 1034 25 10000 5.7 280 21:55 06.07.2020
241 Clouds 16 1034 25 10000 5.7 280 21:36 06.07.2020
242 Clouds 16 1034 25 10000 5.7 280 21:18 06.07.2020
243 Clouds 15 1035 26 10000 5.1 270 20:40 06.07.2020
244 Clouds 15 1035 26 10000 5.1 270 20:20 06.07.2020
245 Clouds 16 1036 25 10000 6.2 270 19:58 06.07.2020
246 Clouds 16 1036 25 10000 6.2 270 19:58 06.07.2020
247 Clouds 16 1036 25 10000 6.2 270 19:39 06.07.2020
248 Clouds 16 1036 25 10000 6.2 270 19:21 06.07.2020
249 Clouds 13 1037 32 10000 5.1 260 18:56 06.07.2020
250 Clouds 13 1037 32 10000 5.1 260 18:56 06.07.2020
251 Clouds 13 1037 32 10000 5.1 260 18:38 06.07.2020
252 Clouds 11 1037 41 10000 2.6 110 18:19 06.07.2020
253 Clouds 11 1037 41 10000 2.6 110 17:42 06.07.2020
254 Clouds 11 1037 45 10000 2.6 110 17:24 06.07.2020
255 Clouds 7 1037 45 10000 3.6 90 16:58 06.07.2020
256 Clouds 7 1037 45 10000 3.6 90 16:40 06.07.2020
257 Clouds 7 1037 50 10000 3.6 90 16:21 06.07.2020
258 Fog 3 1037 86 3000 4.6 90 15:42 06.07.2020
259 Fog 3 1037 86 3000 4.6 90 15:42 06.07.2020
260 Fog 3 1037 86 3000 4.6 90 15:24 06.07.2020
261 Fog 3 1037 86 3000 4.6 90 15:24 06.07.2020
262 Fog 2 1036 58 2500 3.1 90 14:57 06.07.2020
263 Fog 2 1036 58 2500 3.1 90 14:38 06.07.2020
264 Fog 2 1036 69 2500 3.1 90 14:19 06.07.2020
265 Fog -3 1035 92 3000 2.1 80 13:51 06.07.2020
266 Fog -3 1035 92 3000 2.1 80 13:28 06.07.2020
267 Fog -2 1035 100 4000 4.1 90 12:58 06.07.2020
268 Fog -2 1035 100 4000 4.1 90 12:39 06.07.2020
269 Fog -2 1035 100 4000 4.1 90 12:18 06.07.2020
270 Fog -3 1035 92 4000 3.1 90 11:57 06.07.2020
271 Fog -3 1035 92 4000 3.1 90 11:37 06.07.2020
272 Fog -3 1035 92 4000 3.1 90 11:19 06.07.2020
273 Fog -3 1035 92 4000 1 0 10:42 06.07.2020
274 Fog -3 1035 92 4000 1 0 10:22 06.07.2020
275 Fog -4 1035 92 4000 3.1 90 09:57 06.07.2020
276 Fog -4 1035 92 4000 3.1 90 09:39 06.07.2020
277 Fog -4 1035 92 4000 3.1 90 09:21 06.07.2020
278 Fog 1 1035 77 4000 2.1 30 08:42 06.07.2020
279 Fog 1 1035 77 4000 2.1 30 08:24 06.07.2020
280 Fog 2 1035 93 4000 3.6 80 07:54 06.07.2020
281 Fog 2 1035 93 4000 3.6 80 07:36 06.07.2020
282 Fog 2 1035 100 2000 5.1 80 06:57 06.07.2020
283 Fog 2 1035 100 2000 5.1 80 06:39 06.07.2020
284 Fog 2 1035 100 2000 5.1 80 06:19 06.07.2020
285 Clouds 3 1035 86 10000 4.1 90 05:29 06.07.2020
286 Clear 3 1036 74 10000 4.6 90 04:36 06.07.2020
287 Clear 5 1035 32 10000 1.5 30 02:50 06.07.2020
288 Clear 5 1035 32 10000 1.5 30 02:19 06.07.2020
289 Clouds 14 1034 11 10000 2.1 240 00:52 06.07.2020
290 Clouds 14 1034 11 10000 2.1 240 00:28 06.07.2020
291 Clouds 17 1034 10 10000 3.1 320 23:58 05.07.2020
292 Clouds 17 1034 10 10000 4.1 300 23:39 05.07.2020
293 Clouds 17 1034 10 10000 4.1 300 23:21 05.07.2020
294 Clouds 17 1034 10 10000 4.1 300 22:57 05.07.2020
295 Clouds 17 1034 10 10000 4.1 300 22:37 05.07.2020
296 Clouds 17 1034 8 10000 2.6 300 22:18 05.07.2020
297 Clouds 17 1034 8 10000 2.6 300 21:41 05.07.2020
298 Clouds 17 1034 8 10000 2.6 300 21:19 05.07.2020
299 Clouds 16 1035 7 10000 2.6 260 20:59 05.07.2020
300 Clouds 16 1035 7 10000 2.6 260 20:40 05.07.2020
301 Clouds 16 1035 7 10000 2.6 260 20:22 05.07.2020
302 Clouds 14 1036 7 10000 2.6 240 19:57 05.07.2020
303 Clouds 14 1036 7 10000 2.6 240 19:38 05.07.2020
304 Clouds 14 1036 7 10000 2.6 240 19:19 05.07.2020
305 Clouds 13 1038 10 10000 2.1 260 18:42 05.07.2020
306 Clouds 13 1038 10 10000 2.1 260 18:23 05.07.2020
307 Clouds 10 1038 16 10000 2.6 250 17:57 05.07.2020
308 Clouds 10 1038 16 10000 2.6 250 17:38 05.07.2020
309 Clouds 10 1038 16 10000 2.6 250 17:19 05.07.2020
310 Clouds 8 1038 16 10000 3.1 240 16:44 05.07.2020
311 Clouds 8 1038 16 10000 3.1 240 16:25 05.07.2020
312 Clouds 6 1037 18 10000 1 0 15:58 05.07.2020
313 Clouds 6 1037 18 10000 1 0 15:37 05.07.2020
314 Clear 6 1037 18 10000 1 0 15:19 05.07.2020
315 Clear 3 1036 21 10000 1.5 10 14:42 05.07.2020
316 Clouds 3 1036 21 10000 1.5 10 14:23 05.07.2020
317 Clouds -1 1035 23 10000 1 0 13:54 05.07.2020
318 Clouds -1 1035 23 10000 1 0 13:36 05.07.2020
319 Clouds -1 1035 23 10000 1 0 13:18 05.07.2020
320 Clouds 1 1035 22 10000 3.1 10 12:38 05.07.2020
321 Clear 1 1035 22 10000 3.1 10 12:20 05.07.2020
322 Clear 0 1035 56 10000 2.6 360 11:54 05.07.2020
323 Clear 0 1035 56 10000 2.6 360 11:36 05.07.2020
324 Clear 0 1035 54 10000 2.6 360 11:18 05.07.2020
325 Clear 1 1035 26 10000 2.6 10 10:42 05.07.2020
326 Clear 1 1035 26 10000 2.6 10 10:19 05.07.2020
327 Clear 1 1035 29 10000 2.6 10 09:56 05.07.2020
328 Clear 1 1035 29 10000 2.6 10 09:37 05.07.2020
329 Clear 1 1035 29 10000 2.6 10 09:19 05.07.2020
330 Clear 2 1035 24 10000 3.1 10 08:46 05.07.2020
331 Clear 2 1035 24 10000 3.1 10 08:27 05.07.2020
332 Clear 3 1036 27 10000 2.6 10 07:48 05.07.2020
333 Clear 3 1036 27 10000 2.6 10 07:29 05.07.2020
334 Clear 3 1036 23 10000 2.1 360 06:51 05.07.2020
335 Clear 1 1036 26 10000 1 0 05:41 05.07.2020
336 Clear 7 1034 14 10000 2.1 10 03:31 05.07.2020
337 Clear 8 1034 17 10000 2.6 20 02:41 05.07.2020
338 Clear 8 1034 17 10000 2.6 20 02:18 05.07.2020
339 Clear 10 1034 18 10000 3.1 310 01:33 05.07.2020
340 Clear 14 1033 9 10000 3.6 270 00:58 05.07.2020
341 Clear 14 1033 9 10000 3.6 270 00:38 05.07.2020
342 Clear 14 1033 9 10000 3.6 270 00:20 05.07.2020
343 Clear 16 1033 10 10000 3.6 250 23:46 04.07.2020
344 Clear 16 1033 10 10000 3.6 250 23:28 04.07.2020
345 Clear 17 1033 10 10000 3.6 290 22:55 04.07.2020
346 Clear 17 1033 10 10000 3.6 290 22:37 04.07.2020
347 Clear 17 1033 10 10000 3.6 290 22:18 04.07.2020
348 Clear 16 1034 10 10000 4.6 300 21:40 04.07.2020
349 Clear 16 1034 10 10000 4.6 300 21:22 04.07.2020
350 Clear 16 1035 10 10000 4.6 270 20:55 04.07.2020
351 Clear 16 1035 10 10000 4.6 270 20:36 04.07.2020
352 Clear 16 1035 10 10000 4.6 270 20:18 04.07.2020
353 Clear 15 1036 10 10000 4.1 290 19:42 04.07.2020
354 Clear 13 1037 13 10000 4.1 270 19:22 04.07.2020
355 Clear 13 1037 13 10000 4.1 270 18:55 04.07.2020
356 Clear 13 1037 13 10000 4.1 270 18:37 04.07.2020
357 Clear 11 1037 18 10000 4.1 270 18:18 04.07.2020
358 Clear 11 1037 18 10000 4.1 270 17:42 04.07.2020
359 Clear 11 1037 18 10000 4.1 270 17:42 04.07.2020
360 Clear 11 1037 18 10000 4.1 270 17:22 04.07.2020
361 Clear 8 1037 16 10000 3.1 260 16:56 04.07.2020
362 Clear 8 1037 16 10000 3.1 260 16:37 04.07.2020
363 Clear 8 1037 16 10000 3.1 260 16:37 04.07.2020
364 Clear 8 1037 16 10000 3.1 260 16:37 04.07.2020
365 Clear 8 1037 16 10000 3.1 260 16:18 04.07.2020
366 Clear 5 1037 13 10000 2.1 260 15:45 04.07.2020
367 Clear 5 1037 13 10000 2.1 260 15:26 04.07.2020
368 Clear 2 1036 14 10000 2.1 360 14:59 04.07.2020
369 Clear 2 1036 14 10000 2.1 360 14:37 04.07.2020
370 Clear 2 1036 14 10000 2.1 360 14:19 04.07.2020
371 Clear -2 1035 15 10000 2.6 10 13:56 04.07.2020
372 Clear -2 1035 15 10000 2.6 10 13:36 04.07.2020
373 Clear -2 1035 15 10000 2.6 10 13:18 04.07.2020
374 Clear -1 1035 18 10000 2.6 360 12:40 04.07.2020
375 Clear -1 1035 18 10000 2.6 360 12:20 04.07.2020
376 Clear -1 1034 18 10000 2.6 360 11:45 04.07.2020
377 Clear -1 1034 18 10000 2.6 360 11:25 04.07.2020
378 Clear -1 1035 15 10000 2.6 10 10:59 04.07.2020
379 Clear -1 1035 15 10000 2.6 10 10:39 04.07.2020
380 Clear -1 1035 15 10000 2.6 10 10:20 04.07.2020
381 Clear -1 1035 14 10000 2.1 30 09:54 04.07.2020
382 Clear -1 1035 14 10000 2.1 30 09:36 04.07.2020
383 Clear -1 1035 14 10000 2.1 30 09:18 04.07.2020
384 Clear 2 1016 65 0 1.22 262 08:43 04.07.2020
385 Clear -1 1036 18 10000 1.1 269 08:24 04.07.2020
386 Clear -1 1036 18 10000 1.1 269 07:42 04.07.2020
387 Clear -1 1036 18 10000 1.04 289 07:20 04.07.2020
388 Clear 3 1036 21 10000 3.1 10 06:40 04.07.2020
389 Clear 3 1036 21 10000 3.1 10 06:20 04.07.2020
390 Clear 4 1036 25 10000 3.1 10 05:31 04.07.2020
391 Clear 5 1036 27 10000 3.1 10 04:22 04.07.2020
392 Clear 5 1035 25 10000 1.1 218 02:48 04.07.2020
393 Clear 3 1034 27 10000 3.6 90 01:51 04.07.2020
394 Clear 14 1033 7 10000 2.6 70 00:59 04.07.2020
395 Clear 14 1033 7 10000 2.6 70 00:40 04.07.2020
396 Clear 14 1033 7 10000 2.6 70 00:21 04.07.2020
397 Clear 18 1033 9 10000 1 0 23:39 03.07.2020
398 Clear 18 1033 9 10000 1 0 23:18 03.07.2020
399 Clear 18 1033 9 10000 1 0 23:18 03.07.2020
400 Clear 18 1033 9 10000 1 0 23:18 03.07.2020
401 Clouds 16 1033 6 10000 2.1 170 22:42 03.07.2020
402 Clouds 16 1033 6 10000 2.1 170 22:24 03.07.2020
403 Clear 16 1034 6 10000 2.6 280 21:59 03.07.2020
404 Clear 16 1034 6 10000 2.6 280 21:38 03.07.2020
405 Clear 16 1034 6 10000 2.6 280 21:19 03.07.2020
406 Clear 15 1035 11 10000 2.1 290 20:43 03.07.2020
407 Clear 15 1035 11 10000 2.1 290 20:25 03.07.2020
408 Clear 14 1036 11 10000 2.1 260 19:57 03.07.2020
409 Clear 12 1037 17 10000 2.1 260 19:39 03.07.2020
410 Clear 12 1037 17 10000 2.1 260 19:18 03.07.2020
411 Clear 12 1037 17 10000 2.1 260 18:45 03.07.2020
412 Clear 10 1037 19 10000 3.6 260 18:23 03.07.2020
413 Clear 10 1037 19 10000 3.6 260 17:56 03.07.2020
414 Clear 10 1037 19 10000 3.6 260 17:38 03.07.2020
415 Clear 10 1037 19 10000 3.6 260 17:19 03.07.2020
416 Clear 10 1037 19 10000 3.6 260 17:19 03.07.2020
417 Clear 7 1037 22 8000 2.1 250 16:40 03.07.2020
418 Clear 7 1037 22 8000 2.1 250 16:20 03.07.2020
419 Clear 5 1037 20 8000 2.6 250 15:44 03.07.2020
420 Clear 5 1037 20 8000 2.6 250 15:23 03.07.2020
421 Clear 3 1036 19 10000 2.1 10 14:55 03.07.2020
422 Clear 3 1036 19 10000 2.1 10 14:37 03.07.2020
423 Clear 3 1036 19 10000 2.1 10 14:19 03.07.2020
424 Clear -2 1035 23 10000 2.1 10 13:41 03.07.2020
425 Clear -2 1035 23 10000 2.1 10 13:23 03.07.2020
426 Clear -4 1035 25 10000 2.1 360 12:45 03.07.2020
427 Clear -4 1035 25 10000 2.1 360 12:23 03.07.2020
428 Clear -1 1034 22 10000 2.1 10 11:57 03.07.2020
429 Clear -1 1034 22 10000 2.1 10 11:39 03.07.2020
430 Clear -1 1034 22 10000 2.1 10 11:19 03.07.2020
431 Clear -2 1034 23 10000 2.1 360 10:54 03.07.2020
432 Clear -1 1035 18 10000 2.1 360 10:36 03.07.2020
433 Clouds -1 1035 18 10000 2.1 360 10:18 03.07.2020
434 Clouds -1 1035 18 10000 2.1 360 09:40 03.07.2020
435 Clouds -1 1035 18 10000 2.1 360 09:22 03.07.2020
436 Clouds 1 1035 15 10000 2.1 10 08:58 03.07.2020
437 Clouds 1 1035 15 10000 2.1 10 08:38 03.07.2020
438 Clouds 1 1035 15 10000 2.1 10 08:18 03.07.2020
439 Clouds 3 1035 10 10000 3.1 10 07:43 03.07.2020
440 Clouds 3 1035 10 10000 3.1 10 07:22 03.07.2020
441 Clouds 3 1036 11 10000 2.6 20 06:37 03.07.2020
442 Clouds 2 1036 16 10000 2.6 20 05:53 03.07.2020
443 Clouds 0 1035 58 10000 1.5 10 03:59 03.07.2020
444 Clouds 1 1035 24 10000 3.1 70 02:56 03.07.2020
445 Clouds 1 1035 24 10000 3.1 70 02:31 03.07.2020
446 Clear 9 1034 9 10000 2.1 310 01:41 03.07.2020
447 Clear 9 1034 9 10000 2.1 310 01:41 03.07.2020
448 Clear 9 1034 9 10000 2.1 310 01:20 03.07.2020
449 Clear 9 1034 9 10000 2.1 310 01:20 03.07.2020
450 Clear 14 1034 5 10000 3.1 290 00:41 03.07.2020
451 Clear 16 1034 4 10000 3.6 290 23:56 02.07.2020
452 Clear 16 1034 4 10000 3.6 290 23:37 02.07.2020
453 Clear 16 1034 4 10000 3.6 290 23:18 02.07.2020
454 Clear 17 1034 4 10000 3.6 280 22:54 02.07.2020
455 Clear 17 1034 4 10000 3.6 280 22:36 02.07.2020
456 Clear 17 1034 4 10000 3.6 280 22:18 02.07.2020
457 Clear 17 1034 3 10000 4.1 260 21:42 02.07.2020
458 Clear 17 1034 3 10000 4.1 260 21:20 02.07.2020
459 Clear 16 1035 2 10000 3.1 290 20:58 02.07.2020
460 Clear 16 1035 2 10000 3.1 290 20:40 02.07.2020
461 Clouds 16 1035 2 10000 3.1 290 20:20 02.07.2020
462 Clouds 14 1036 2 10000 2.6 260 19:43 02.07.2020
463 Clouds 14 1036 2 10000 2.6 260 19:24 02.07.2020
464 Clouds 13 1037 4 10000 3.1 260 18:59 02.07.2020
465 Clouds 13 1037 4 10000 3.1 260 18:40 02.07.2020
466 Clouds 13 1037 4 10000 3.1 260 18:22 02.07.2020
467 Clouds 11 1038 8 10000 2.6 270 17:57 02.07.2020
468 Clouds 11 1038 8 10000 2.6 270 17:38 02.07.2020
469 Clouds 11 1038 8 10000 2.6 270 17:18 02.07.2020
470 Clouds 8 1038 13 10000 2.6 240 16:42 02.07.2020
471 Clouds 8 1038 13 10000 2.6 240 16:21 02.07.2020
472 Clouds 6 1037 7 10000 1 0 15:58 02.07.2020
473 Clouds 6 1037 7 10000 1 0 15:38 02.07.2020
474 Clouds 6 1037 7 10000 1 0 15:20 02.07.2020
475 Clouds 1 1037 12 10000 1 0 14:45 02.07.2020
476 Clouds 1 1037 12 10000 1 0 14:23 02.07.2020
477 Clouds -2 1036 18 10000 2.6 10 13:57 02.07.2020
478 Clouds -2 1036 18 10000 2.6 10 13:38 02.07.2020
479 Clouds -2 1036 18 10000 2.6 10 13:19 02.07.2020
480 Clouds -2 1035 23 10000 2.6 10 12:42 02.07.2020
481 Clouds -2 1035 23 10000 2.6 10 12:22 02.07.2020
482 Clouds -5 1035 27 10000 2.1 360 11:59 02.07.2020
483 Clouds -5 1035 27 10000 2.1 360 11:40 02.07.2020
484 Clouds -5 1035 27 10000 2.1 360 11:22 02.07.2020
485 Clouds -1 1035 18 10000 2.6 20 10:44 02.07.2020
486 Clouds -1 1035 18 10000 2.6 20 10:26 02.07.2020
487 Clouds 0 1036 56 10000 3.1 10 09:56 02.07.2020
488 Clouds 1 1037 14 10000 2.1 350 09:37 02.07.2020
489 Clear 1 1037 14 10000 2.1 350 09:18 02.07.2020
490 Clear 1 1037 14 10000 2.1 350 08:42 02.07.2020
491 Clear 1 1037 14 10000 2.1 350 08:22 02.07.2020
492 Clear 1 1037 19 10000 1 0 07:43 02.07.2020
493 Clear 1 1037 19 10000 1 0 07:25 02.07.2020
494 Clear 1 1037 20 10000 2.1 310 06:53 02.07.2020
495 Clear 1 1037 20 10000 2.1 310 06:35 02.07.2020
496 Clear 0 1037 55 10000 1 0 05:50 02.07.2020
497 Clear 0 1037 56 10000 1 0 05:29 02.07.2020
498 Clear 3 1036 15 10000 1.53 252 03:35 02.07.2020
499 Clouds 10 1035 9 10000 3.1 300 01:53 02.07.2020
500 Clouds 13 1034 10 10000 4.6 290 00:46 02.07.2020
501 Clouds 13 1034 10 10000 4.6 290 00:22 02.07.2020
502 Clouds 14 1034 12 10000 5.1 300 23:45 01.07.2020
503 Clouds 14 1034 12 10000 5.1 300 23:26 01.07.2020
504 Clouds 14 1035 12 10000 5.7 300 22:55 01.07.2020
505 Clouds 14 1035 12 10000 5.7 300 22:37 01.07.2020
506 Clouds 14 1035 12 10000 5.7 300 22:19 01.07.2020
507 Clouds 15 1035 13 10000 7.2 280 21:58 01.07.2020
508 Clouds 15 1035 13 10000 7.2 280 21:39 01.07.2020
509 Clouds 15 1035 13 10000 7.2 280 21:20 01.07.2020
510 Clouds 14 1036 17 10000 7.7 270 20:46 01.07.2020
511 Clouds 14 1036 17 10000 7.7 270 20:28 01.07.2020
512 Clouds 13 1037 19 10000 6.2 280 19:58 01.07.2020
513 Clouds 13 1037 19 10000 6.2 280 19:40 01.07.2020
514 Clouds 13 1037 19 10000 6.2 280 19:20 01.07.2020
515 Clouds 12 1038 23 10000 5.1 290 18:56 01.07.2020
516 Clouds 12 1038 23 10000 5.1 290 18:38 01.07.2020
517 Clouds 12 1038 23 10000 5.1 290 18:20 01.07.2020
518 Clouds 10 1039 27 10000 4.1 270 17:41 01.07.2020
519 Clouds 10 1039 27 10000 4.1 270 17:20 01.07.2020
520 Clouds 8 1039 19 10000 3.1 270 16:56 01.07.2020
521 Clouds 8 1039 19 10000 3.1 270 16:38 01.07.2020
522 Clouds 8 1039 19 10000 3.1 270 16:20 01.07.2020
523 Clouds 6 1039 24 10000 2.6 300 15:41 01.07.2020
524 Clouds 6 1039 24 10000 2.6 300 15:22 01.07.2020
525 Clouds 2 1038 19 10000 1.5 10 14:56 01.07.2020
526 Clouds 2 1038 19 10000 1.5 10 14:37 01.07.2020
527 Clear 2 1038 19 10000 1.5 10 14:19 01.07.2020
528 Clear -1 1037 22 10000 2.6 10 13:40 01.07.2020
529 Clear -1 1037 22 10000 2.6 10 13:22 01.07.2020
530 Clear -4 1037 19 10000 1 0 12:59 01.07.2020
531 Clear -4 1037 19 10000 1 0 12:40 01.07.2020
532 Clear -4 1037 19 10000 1 0 12:22 01.07.2020
533 Clear -1 1037 16 10000 2.1 10 11:57 01.07.2020
534 Clear -1 1037 16 10000 2.1 10 11:38 01.07.2020
535 Clear -1 1037 16 10000 2.1 10 11:38 01.07.2020
536 Clear -1 1037 16 10000 2.1 10 11:19 01.07.2020
537 Clouds 20 1016 40 10000 7.7 180 10:43 01.07.2020
538 Clouds 20 1016 40 10000 7.7 180 10:23 01.07.2020
539 Clear 0 1037 61 10000 3.1 10 09:59 01.07.2020
540 Clear 0 1037 61 10000 3.1 10 09:59 01.07.2020
541 Clear 0 1037 62 10000 3.1 10 09:38 01.07.2020
542 Clear 0 1037 60 10000 3.1 10 09:19 01.07.2020
543 Clear 1 1037 14 10000 3.1 10 08:55 01.07.2020
544 Clear 1 1037 14 10000 3.1 10 08:37 01.07.2020
545 Clear 1 1037 14 10000 3.1 10 08:18 01.07.2020
546 Clear 0 1038 59 10000 1.5 10 07:39 01.07.2020
547 Clear 0 1038 57 10000 1.5 10 07:20 01.07.2020
548 Clear 2 1038 12 10000 2.6 360 06:50 01.07.2020
549 Clear 2 1038 12 10000 2.6 360 06:28 01.07.2020
550 Clear 3 1038 12 10000 3.6 10 05:23 01.07.2020
551 Clear 2 1037 10 10000 2.1 100 03:48 01.07.2020
552 Clear 2 1037 10 10000 2.1 100 03:27 01.07.2020
553 Clear 6 1037 11 10000 1 0 02:41 01.07.2020
554 Clear 9 1037 9 10000 3.1 300 01:48 01.07.2020
555 Clear 13 1036 4 10000 2.6 280 00:43 01.07.2020
556 Clear 13 1036 4 10000 2.6 280 00:25 01.07.2020
557 Clear 15 1036 2 10000 2.1 220 23:42 30.06.2020
558 Clear 15 1036 2 10000 2.1 220 23:22 30.06.2020
559 Clear 15 1036 2 10000 3.1 250 22:58 30.06.2020
560 Clear 15 1036 2 10000 3.1 250 22:39 30.06.2020
561 Clear 15 1036 2 10000 3.1 250 22:18 30.06.2020
562 Clear 15 1036 2 10000 3.6 240 21:41 30.06.2020
563 Clear 15 1036 2 10000 3.6 240 21:19 30.06.2020
564 Clear 14 1037 3 10000 3.1 200 20:44 30.06.2020
565 Clear 14 1037 3 10000 3.1 200 20:21 30.06.2020
566 Clear 14 1038 4 10000 2.6 280 19:59 30.06.2020
567 Clear 14 1038 4 10000 2.6 280 19:59 30.06.2020
568 Clear 14 1038 4 10000 2.6 280 19:39 30.06.2020
569 Clear 13 1039 4 10000 2.6 260 19:19 30.06.2020
570 Clear 13 1039 4 10000 2.6 260 18:42 30.06.2020
571 Clear 13 1039 4 10000 2.6 260 18:21 30.06.2020
572 Clear 10 1040 4 10000 2.1 180 17:57 30.06.2020
573 Clear 10 1040 4 10000 2.1 180 17:37 30.06.2020
574 Clear 9 1040 4 10000 1 0 17:18 30.06.2020
575 Clear 9 1040 4 10000 1 0 16:41 30.06.2020
576 Clear 9 1040 4 10000 1 0 16:21 30.06.2020
577 Clear 6 1040 6 10000 1 0 15:57 30.06.2020
578 Clear 6 1040 6 10000 1 0 15:38 30.06.2020
579 Clear 6 1040 6 10000 1 0 15:20 30.06.2020
580 Clear 2 1039 12 10000 2.6 10 14:44 30.06.2020
581 Clear 2 1039 12 10000 2.6 10 14:22 30.06.2020
582 Clear -2 1038 15 10000 3.1 10 13:59 30.06.2020
583 Clear -2 1038 15 10000 3.1 10 13:38 30.06.2020
584 Clear -2 1038 15 10000 3.1 10 13:19 30.06.2020
585 Clear -1 1037 14 10000 3.1 10 12:56 30.06.2020
586 Clear -1 1037 14 10000 3.1 10 12:56 30.06.2020
587 Clear -1 1037 14 10000 3.1 10 12:38 30.06.2020
588 Clear -1 1037 14 10000 3.1 10 12:19 30.06.2020
589 Clear -1 1037 14 10000 3.1 10 12:19 30.06.2020
590 Clear -1 1037 14 10000 3.1 360 11:56 30.06.2020
591 Clear -1 1037 14 10000 3.1 360 11:38 30.06.2020
592 Clear -1 1037 14 10000 3.1 360 11:18 30.06.2020
593 Clear 9 1037 21 10000 2.6 270 16:48 28.06.2020
594 Clear 9 1037 21 10000 2.6 270 16:28 28.06.2020
595 Clear 7 1037 17 10000 1 0 15:59 28.06.2020
596 Clear 7 1037 17 10000 1 0 15:59 28.06.2020
597 Clear 7 1037 17 10000 1 0 15:40 28.06.2020
598 Clear 7 1037 17 10000 1 0 15:20 28.06.2020
599 Clear 2 1036 22 10000 1 0 14:57 28.06.2020
600 Clear 2 1036 22 10000 1 0 14:38 28.06.2020
601 Clear -10 1035 36 10000 1.5 40 14:20 28.06.2020
602 Clear -10 1035 36 10000 1.5 40 13:40 28.06.2020
603 Clear -10 1035 36 10000 1.5 40 13:21 28.06.2020
604 Clear -7 1034 31 10000 1.5 40 12:58 28.06.2020
605 Clear -7 1034 31 10000 1.5 40 12:38 28.06.2020
606 Clear -7 1034 31 10000 1.5 40 12:19 28.06.2020
607 Clear -3 1034 21 10000 1.5 30 11:58 28.06.2020
608 Clear -3 1034 21 10000 1.5 30 11:39 28.06.2020
609 Clear -3 1034 21 10000 1.5 30 11:20 28.06.2020
610 Clear -3 1034 21 10000 1.5 30 11:20 28.06.2020
611 Clear -3 1034 23 10000 1.5 10 10:57 28.06.2020
612 Clear -3 1034 23 10000 1.5 10 10:38 28.06.2020
613 Clear -3 1034 23 10000 1.5 10 10:19 28.06.2020
614 Clear 1 1018 76 0 0.54 332 09:40 28.06.2020
615 Clear 1 1035 20 10000 3.1 20 09:21 28.06.2020
616 Clear 1 1035 20 10000 3.1 20 09:21 28.06.2020
617 Clear 1 1035 20 10000 3.1 20 08:48 28.06.2020
618 Clear 1 1035 20 10000 3.1 20 08:28 28.06.2020
619 Clear 1 1036 24 10000 2.6 20 07:50 28.06.2020
620 Clear 1 1036 24 10000 2.6 20 07:30 28.06.2020
621 Clear -3 1036 38 10000 1.5 30 06:44 28.06.2020
622 Clear -4 1036 38 10000 1.5 70 06:24 28.06.2020
623 Clear 3 1036 21 10000 2.1 20 05:26 28.06.2020
624 Clear -1 1036 39 10000 2.1 70 03:33 28.06.2020
625 Clear 5 1035 17 10000 2.6 30 02:40 28.06.2020
626 Clear 9 1034 9 10000 2.1 320 01:53 28.06.2020
627 Clear 9 1034 9 10000 2.1 320 01:26 28.06.2020
628 Clear 12 1034 6 10000 3.6 290 00:48 28.06.2020
629 Clear 12 1034 6 10000 3.6 290 00:24 28.06.2020
630 Clouds 14 1034 7 10000 4.6 310 23:42 27.06.2020
631 Clouds 14 1034 7 10000 4.6 310 23:23 27.06.2020
632 Clouds 14 1034 8 10000 4.6 280 22:58 27.06.2020
633 Clouds 14 1034 8 10000 4.6 280 22:40 27.06.2020
634 Clouds 14 1034 8 10000 4.6 280 22:20 27.06.2020
635 Clouds 15 1034 6 10000 4.1 270 21:54 27.06.2020
636 Clouds 14 1035 5 10000 4.6 270 21:36 27.06.2020
637 Clouds 14 1035 5 10000 4.6 270 21:18 27.06.2020
638 Clouds 14 1035 5 10000 4.6 270 20:41 27.06.2020
639 Clouds 14 1035 5 10000 4.6 270 20:18 27.06.2020
640 Clouds 14 1036 5 10000 4.1 280 19:54 27.06.2020
641 Clouds 14 1036 5 10000 4.1 280 19:36 27.06.2020
642 Clouds 11 1037 8 10000 3.6 280 19:18 27.06.2020
643 Clouds 11 1037 8 10000 3.6 280 18:43 27.06.2020
644 Clouds 11 1037 8 10000 3.6 280 18:22 27.06.2020
645 Clear 9 1038 9 10000 3.1 250 17:55 27.06.2020
646 Clear 9 1038 9 10000 3.1 250 17:37 27.06.2020
647 Clear 9 1038 9 10000 3.1 250 17:18 27.06.2020
648 Clear 7 1038 11 10000 3.1 260 16:42 27.06.2020
649 Clear 7 1038 11 10000 3.1 260 16:24 27.06.2020
650 Clear 5 1038 11 10000 2.1 290 15:46 27.06.2020
651 Clear 5 1038 11 10000 2.1 290 15:25 27.06.2020
652 Clear 2 1037 17 10000 2.6 360 14:59 27.06.2020
653 Clear 2 1037 17 10000 2.6 360 14:40 27.06.2020
654 Clear 2 1037 17 10000 2.6 360 14:21 27.06.2020
655 Clear -3 1036 21 10000 2.6 360 13:55 27.06.2020
656 Clear -3 1036 21 10000 2.6 360 13:37 27.06.2020
657 Clear -3 1036 23 10000 2.1 10 13:19 27.06.2020
658 Clear -3 1036 23 10000 2.1 10 12:41 27.06.2020
659 Clear -3 1036 23 10000 2.1 10 12:22 27.06.2020
660 Clear -3 1036 21 10000 2.1 10 11:59 27.06.2020
661 Clear -3 1036 21 10000 2.1 10 11:40 27.06.2020
662 Clear -3 1036 21 10000 2.1 10 11:22 27.06.2020
663 Clear -2 1036 21 10000 1.5 360 10:42 27.06.2020
664 Clear -2 1036 21 10000 1.5 360 10:20 27.06.2020
665 -273 0 0 0 0 0 09:59 27.06.2020
666 Clear -1 1037 18 10000 2.1 10 09:39 27.06.2020
667 Clear -1 1037 18 10000 2.1 10 09:20 27.06.2020
668 Clear 0 1037 66 10000 1.5 30 08:44 27.06.2020
669 Clear 0 1037 65 10000 1.5 30 08:23 27.06.2020
670 Clear 0 1037 65 10000 1.5 30 08:23 27.06.2020
671 Clear -3 1037 23 10000 1 0 07:48 27.06.2020
672 Clear 2 1037 17 10000 2.6 20 07:25 27.06.2020
673 Clear 2 1037 17 10000 2.6 20 06:51 27.06.2020
674 Clear 2 1037 17 10000 2.6 20 06:33 27.06.2020
675 Clear 5 1037 13 10000 2.1 330 04:44 27.06.2020
676 Clear 5 1037 13 10000 2.1 330 04:18 27.06.2020
677 Clear 6 1037 10 10000 2.6 230 03:43 27.06.2020
678 Clear 7 1036 19 10000 4.1 260 02:42 27.06.2020
679 Clear 7 1036 19 10000 4.1 260 02:22 27.06.2020
680 Clear 9 1035 18 10000 3.6 260 01:24 27.06.2020
681 Clear 12 1034 13 10000 4.6 300 00:42 27.06.2020
682 Clouds 14 1034 11 10000 5.1 310 23:47 26.06.2020
683 Clouds 14 1034 11 10000 5.1 310 23:27 26.06.2020
684 Clouds 14 1034 11 10000 5.1 310 23:27 26.06.2020
685 Clouds 15 1035 14 10000 5.7 290 22:58 26.06.2020
686 Clouds 15 1035 14 10000 5.7 290 22:39 26.06.2020
687 Clouds 15 1035 14 10000 5.7 290 22:20 26.06.2020
688 Clouds 15 1035 12 10000 7.7 290 21:58 26.06.2020
689 Clouds 15 1035 12 10000 7.7 290 21:39 26.06.2020
690 Clouds 15 1035 12 10000 7.7 290 21:20 26.06.2020
691 Clouds 14 1036 16 10000 7.2 290 20:47 26.06.2020
692 Clouds 14 1036 16 10000 7.2 290 20:26 26.06.2020
693 Clouds 14 1037 26 10000 7.7 280 19:47 26.06.2020
694 Clouds 14 1037 26 10000 7.7 280 19:24 26.06.2020
695 Clouds 12 1037 37 10000 6.7 280 18:58 26.06.2020
696 Clouds 12 1037 37 10000 6.7 280 18:38 26.06.2020
697 Clouds 10 1038 46 10000 6.2 280 18:20 26.06.2020
698 Clouds 10 1038 46 10000 6.2 280 17:44 26.06.2020
699 Clouds 10 1038 46 10000 6.2 280 17:26 26.06.2020
700 Clouds 7 1038 48 10000 3.1 260 16:51 26.06.2020
701 Clouds 7 1038 48 10000 3.1 260 16:28 26.06.2020
702 Clear 4 1038 48 10000 1 0 15:55 26.06.2020
703 Clear 4 1038 48 10000 1 0 15:37 26.06.2020
704 Clear 4 1038 48 10000 1 0 15:19 26.06.2020
705 Clouds -3 1037 79 10000 1 0 14:57 26.06.2020
706 Clouds -3 1037 79 10000 1 0 14:38 26.06.2020
707 Clouds -3 1037 79 10000 1 0 14:20 26.06.2020
708 Clouds -7 1037 73 10000 1 30 13:44 26.06.2020
709 Clouds -7 1037 73 10000 1 30 13:22 26.06.2020
710 Clouds -5 1036 79 10000 1.5 40 12:43 26.06.2020
711 Clouds -5 1036 79 10000 1.5 40 12:24 26.06.2020
712 Fog -4 1035 92 4000 1.5 20 11:59 26.06.2020
713 Fog -4 1035 92 4000 1.5 20 11:41 26.06.2020
714 Fog -4 1035 92 4000 1.5 20 11:23 26.06.2020
715 Fog -3 1035 92 300 1 100 10:59 26.06.2020
716 Fog -3 1035 92 300 1 100 10:40 26.06.2020
717 Fog -3 1035 92 300 1 100 10:19 26.06.2020
718 Clouds 2 1020 85 0 2.08 7 09:54 26.06.2020
719 Clouds -2 1036 100 10000 2.1 90 09:36 26.06.2020
720 Clouds -2 1036 100 10000 2.1 90 09:18 26.06.2020
721 Clouds -2 1036 100 10000 2.1 90 08:43 26.06.2020
722 Clouds -2 1036 100 10000 2.1 90 08:25 26.06.2020
723 Fog -2 1036 100 4000 3.1 60 07:45 26.06.2020
724 Fog -2 1036 100 4000 3.1 60 07:23 26.06.2020
725 Clouds -2 1036 92 10000 3.6 80 06:48 26.06.2020
726 Clouds -2 1036 92 10000 3.6 80 06:29 26.06.2020
727 Clear 1 1036 80 10000 3.6 90 05:51 26.06.2020
728 Clear 1 1036 74 10000 4.1 70 04:44 26.06.2020
729 Clear 3 1035 55 10000 2.1 80 02:27 26.06.2020
730 Clear 9 1035 36 10000 2.1 330 01:25 26.06.2020
731 Clouds 11 1034 21 10000 6.2 290 00:42 26.06.2020
732 Clouds 14 1034 11 10000 6.7 280 00:20 26.06.2020
733 Clouds 14 1034 11 10000 6.7 280 23:46 25.06.2020
734 Clouds 15 1034 9 10000 7.2 280 23:20 25.06.2020
735 Clouds 14 1034 11 10000 6.7 280 23:20 25.06.2020
736 Clouds 15 1034 9 10000 7.2 280 22:57 25.06.2020
737 Clouds 15 1034 9 10000 7.2 280 22:38 25.06.2020
738 Clouds 15 1034 9 10000 7.2 280 22:19 25.06.2020
739 Clouds 16 1034 8 10000 7.7 260 21:56 25.06.2020
740 Clouds 16 1034 8 10000 7.7 260 21:38 25.06.2020
741 Clouds 16 1034 8 10000 7.7 260 21:19 25.06.2020
742 Clouds 15 1035 6 10000 4.6 300 20:45 25.06.2020
743 Clouds 15 1035 6 10000 4.6 300 20:24 25.06.2020
744 Clouds 14 1036 7 10000 5.7 280 19:58 25.06.2020
745 Clouds 14 1036 7 10000 5.7 280 19:40 25.06.2020
746 Clear 13 1037 7 10000 6.2 280 19:19 25.06.2020
747 Clear 13 1037 7 10000 6.2 280 19:19 25.06.2020
748 Clear 13 1037 7 10000 6.2 280 19:19 25.06.2020
749 Clear 13 1037 7 10000 6.2 280 18:57 25.06.2020
750 Clear 13 1037 7 10000 6.2 280 18:37 25.06.2020
751 Clear 13 1037 7 10000 6.2 280 18:19 25.06.2020
752 Clear 13 1037 7 10000 6.2 280 18:19 25.06.2020
753 Clear 11 1038 13 10000 3.1 270 17:41 25.06.2020
754 Clear 11 1038 13 10000 3.1 270 17:19 25.06.2020
755 Clear 7 1038 11 10000 2.1 250 16:55 25.06.2020
756 Clear 7 1038 11 10000 2.1 250 16:36 25.06.2020
757 Clear 7 1038 11 10000 2.1 250 16:18 25.06.2020
758 Clear 6 1038 13 10000 1 0 15:41 25.06.2020
759 Clear 6 1038 13 10000 1 0 15:19 25.06.2020
760 Clouds 23 1011 94 10000 0.65 263 14:43 25.06.2020
761 Clouds 23 1011 94 10000 0.53 284 14:23 25.06.2020
762 Clear -2 1036 33 10000 2.6 10 13:56 25.06.2020
763 Clear -2 1036 33 10000 2.6 10 13:37 25.06.2020
764 Clear -2 1036 33 10000 2.6 10 13:19 25.06.2020
765 Clear -2 1036 28 10000 2.6 360 12:44 25.06.2020
766 Clear -1 1035 23 10000 2.6 10 12:20 25.06.2020
767 Clear -1 1035 23 10000 2.6 10 11:58 25.06.2020
768 Clear -1 1035 23 10000 2.6 10 11:38 25.06.2020
769 Clear -1 1035 23 10000 2.6 10 11:20 25.06.2020
770 Clear -1 1035 23 10000 2.6 10 11:20 25.06.2020
771 Clear -1 1035 23 10000 2.6 10 11:20 25.06.2020
772 Clear 0 1035 66 10000 1 0 10:42 25.06.2020
773 Clear 0 1035 65 10000 1 0 10:23 25.06.2020
774 Clear -2 1035 28 10000 2.1 350 09:41 25.06.2020
775 Clear -2 1035 28 10000 2.1 350 09:23 25.06.2020
776 Clear 1 1035 24 10000 2.1 10 08:47 25.06.2020
777 Clear 1 1035 24 10000 2.1 10 08:20 25.06.2020
778 Clear 0 1035 66 10000 2.1 10 07:46 25.06.2020
779 Clear 0 1035 66 10000 2.1 10 07:28 25.06.2020
780 Clear 3 1035 17 10000 2.6 10 06:54 25.06.2020
781 Clear 3 1035 17 10000 2.6 10 06:27 25.06.2020
782 Clear 2 1035 17 10000 2.1 10 05:51 25.06.2020
783 Clear -1 1035 22 10000 1 0 04:29 25.06.2020
784 Clear 7 1034 13 10000 3.1 310 03:35 25.06.2020
785 Clear 7 1034 13 10000 3.1 310 03:35 25.06.2020
786 Clear 7 1034 13 10000 3.1 310 02:43 25.06.2020
787 Clear 8 1033 19 10000 3.1 300 01:59 25.06.2020
788 Clear 11 1032 7 10000 5.1 300 01:26 25.06.2020
789 Clear 11 1032 7 10000 5.1 300 00:44 25.06.2020
790 Clear 13 1032 6 10000 5.7 300 00:21 25.06.2020
791 Clear 13 1032 6 10000 5.7 300 23:44 24.06.2020
792 Clear 13 1032 6 10000 5.7 300 23:26 24.06.2020
793 Clear 14 1033 7 10000 6.7 290 22:59 24.06.2020
794 Clear 14 1033 7 10000 6.7 290 22:41 24.06.2020
795 Clear 14 1033 7 10000 6.7 290 22:20 24.06.2020
796 Clear 13 1033 9 10000 6.2 280 21:56 24.06.2020
797 Clear 13 1033 9 10000 6.2 280 21:37 24.06.2020
798 Clear 12 1034 9 10000 6.2 300 21:18 24.06.2020
799 Clear 12 1034 9 10000 6.2 300 20:58 24.06.2020
800 Clear 12 1034 9 10000 6.2 300 20:38 24.06.2020
801 Clear 12 1034 9 10000 6.2 300 20:20 24.06.2020
802 Clear 13 1035 9 10000 6.2 290 19:55 24.06.2020
803 Clear 13 1035 9 10000 6.2 290 19:36 24.06.2020
804 Clear 13 1035 9 10000 6.2 290 19:36 24.06.2020
805 Clear 13 1035 9 10000 6.2 290 19:18 24.06.2020
806 Clear 11 1036 10 8000 5.1 300 18:57 24.06.2020
807 Clear 11 1036 10 8000 5.1 300 18:38 24.06.2020
808 Clear 11 1036 10 8000 5.1 300 18:19 24.06.2020
809 Clear 10 1036 11 8000 5.1 280 17:43 24.06.2020
810 Clear 10 1036 11 8000 5.1 280 17:19 24.06.2020
811 Clear 8 1036 11 8000 4.6 270 16:58 24.06.2020
812 Clear 8 1036 11 8000 4.6 270 16:39 24.06.2020
813 Clear 8 1036 11 8000 4.6 270 16:21 24.06.2020
814 Clear 6 1036 12 6000 3.1 300 15:57 24.06.2020
815 Clear 6 1036 12 6000 3.1 300 15:38 24.06.2020
816 Clear 6 1036 12 6000 3.1 300 15:19 24.06.2020
817 Smoke -4 1035 45 3000 1 0 14:43 24.06.2020
818 Smoke -4 1035 45 3000 1 0 14:24 24.06.2020
819 Smoke -7 1034 48 4000 1.5 260 13:43 24.06.2020
820 Smoke -7 1034 48 4000 1.5 260 13:23 24.06.2020
821 Clouds -8 1034 52 8000 2.16 305 12:59 24.06.2020
822 Clouds -8 1034 52 8000 2.16 305 12:41 24.06.2020
823 Clouds -8 1034 52 8000 2.14 286 12:20 24.06.2020
824 Clouds -5 1034 45 8000 2.14 286 11:56 24.06.2020
825 Clouds -5 1034 45 8000 2.14 286 11:38 24.06.2020
826 Clouds -5 1034 45 8000 2.09 279 11:18 24.06.2020
827 Clouds -1 1034 30 8000 1 0 10:43 24.06.2020
828 Clouds -1 1034 30 8000 1 0 10:19 24.06.2020
829 Clouds 1 1034 20 8000 2.6 10 09:43 24.06.2020
830 Clear 1 1034 20 8000 2.6 10 09:22 24.06.2020
831 Clear 0 1035 57 8000 1.5 360 08:43 24.06.2020
832 Clouds 0 1035 55 8000 1.5 360 08:21 24.06.2020
833 Clouds 2 1035 16 8000 2.6 10 07:51 24.06.2020
834 Clouds 2 1035 16 8000 2.6 10 07:31 24.06.2020
835 Clouds 2 1035 16 8000 1 0 06:51 24.06.2020
836 Clouds 2 1035 16 8000 1 0 06:26 24.06.2020
837 Clouds 4 1035 15 8000 2.1 250 05:57 24.06.2020
838 Smoke 5 1035 23 5000 2.6 310 04:46 24.06.2020
839 Smoke 5 1035 23 5000 2.6 310 04:28 24.06.2020
840 Smoke 7 1034 20 5000 2.6 310 03:35 24.06.2020
841 Clouds 8 1033 19 10000 3.1 350 02:50 24.06.2020
842 Clouds 9 1033 16 10000 3.6 320 01:41 24.06.2020
843 Clear 11 1033 15 10000 5.1 300 00:47 24.06.2020
844 Clear 11 1033 15 10000 5.1 300 00:27 24.06.2020
845 Clear 13 1033 15 10000 7.7 290 23:46 23.06.2020
846 Clear 13 1033 15 10000 7.7 290 23:20 23.06.2020
847 Clear 14 1033 16 10000 6.2 290 22:54 23.06.2020
848 Clear 14 1033 16 10000 6.2 290 22:36 23.06.2020
849 Clear 14 1033 16 10000 6.2 290 22:18 23.06.2020
850 Clear 14 1033 17 10000 5.7 280 22:18 23.06.2020
851 Clear 14 1033 17 10000 5.7 280 21:40 23.06.2020
852 Clear 14 1033 17 10000 5.7 280 21:19 23.06.2020
853 Clear 14 1034 15 10000 5.7 280 20:56 23.06.2020
854 Clear 14 1034 15 10000 5.7 280 20:37 23.06.2020
855 Clouds 13 1035 16 10000 4.6 280 20:18 23.06.2020
856 Clouds 13 1035 16 10000 4.6 280 19:45 23.06.2020
857 Clouds 13 1035 16 10000 4.6 280 19:27 23.06.2020
858 Clouds 13 1037 17 10000 2.6 280 18:42 23.06.2020
859 Clouds 10 1037 23 10000 2.1 270 18:19 23.06.2020
860 Clouds 10 1037 23 10000 2.1 270 17:57 23.06.2020
861 Clouds 10 1037 23 10000 2.1 270 17:38 23.06.2020
862 Clouds 10 1037 23 10000 2.1 270 17:20 23.06.2020
863 Clouds 7 1038 42 10000 2.1 240 16:55 23.06.2020
864 Clouds 7 1038 42 10000 2.1 240 16:36 23.06.2020
865 Clouds 6 1037 41 10000 1 0 16:18 23.06.2020
866 Clouds 6 1037 41 10000 1 0 15:43 23.06.2020
867 Clouds 6 1037 41 10000 1 0 15:24 23.06.2020
868 Clouds 2 1037 43 10000 2.1 20 14:56 23.06.2020
869 Clouds 2 1037 43 10000 2.1 20 14:37 23.06.2020
870 Clouds -2 1036 50 10000 2.1 10 14:18 23.06.2020
871 Clouds -2 1036 50 10000 2.1 10 13:45 23.06.2020
872 Clouds 0 1035 73 10000 2.1 340 13:25 23.06.2020
873 Clouds 0 1035 73 10000 2.1 340 12:55 23.06.2020
874 Clouds 0 1035 73 10000 2.1 340 12:37 23.06.2020
875 Clouds -3 1035 63 10000 1 0 12:18 23.06.2020
876 Clouds -3 1035 63 10000 1 0 11:42 23.06.2020
877 Clouds -3 1035 63 10000 1 0 11:22 23.06.2020
878 Clouds 0 1036 75 10000 2.1 360 10:58 23.06.2020
879 Clouds 0 1036 75 10000 2.1 360 10:39 23.06.2020
880 Clouds 0 1036 76 10000 2.1 360 10:21 23.06.2020
881 Clouds 2 1036 51 10000 2.1 20 09:55 23.06.2020
882 Clouds 2 1036 51 10000 2.1 20 09:37 23.06.2020
883 Clouds 2 1036 51 10000 2.1 20 09:18 23.06.2020
884 Clouds -2 1036 63 10000 1.5 40 08:42 23.06.2020
885 Clouds -2 1036 63 10000 1.5 40 08:22 23.06.2020
886 Clouds -1 1037 68 10000 1 0 07:45 23.06.2020
887 Clouds -1 1037 68 10000 1 0 07:24 23.06.2020
888 Clouds -3 1037 79 10000 1 0 06:51 23.06.2020
889 Clear -3 1037 79 10000 1 0 06:31 23.06.2020
890 Clear 0 1037 72 10000 1 0 05:48 23.06.2020
891 Clear 0 1037 69 10000 2.1 70 04:41 23.06.2020
892 Clear 2 1037 80 10000 3.1 80 03:19 23.06.2020
893 Clear 3 1036 69 10000 3.6 80 02:46 23.06.2020
894 Clouds 3 1036 69 10000 3.6 80 02:26 23.06.2020
895 Clouds 7 1036 56 10000 3.6 80 01:44 23.06.2020
896 Clouds 11 1035 43 10000 4.1 110 01:20 23.06.2020
897 Clouds 11 1035 43 10000 4.1 110 00:25 23.06.2020
898 Clouds 15 1035 13 10000 2.6 260 23:59 22.06.2020
899 Clouds 15 1035 13 10000 2.6 260 23:39 22.06.2020
900 Clouds 15 1035 13 10000 2.6 260 23:19 22.06.2020
901 Clouds 16 1035 8 10000 3.1 300 22:57 22.06.2020
902 Clouds 16 1035 8 10000 3.1 300 22:39 22.06.2020
903 Clouds 16 1035 8 10000 3.1 300 22:20 22.06.2020
904 Clouds 16 1036 7 10000 3.1 280 21:58 22.06.2020
905 Clouds 16 1036 7 10000 3.1 280 21:38 22.06.2020
906 Clouds 16 1036 7 10000 3.1 280 21:20 22.06.2020
907 Clouds 16 1037 6 10000 4.1 220 20:44 22.06.2020
908 Clouds 16 1037 6 10000 4.1 220 20:25 22.06.2020
909 Clouds 15 1038 10 10000 4.1 270 19:58 22.06.2020
910 Clouds 15 1038 10 10000 4.1 270 19:38 22.06.2020
911 Clouds 15 1038 10 10000 4.1 270 19:18 22.06.2020
912 Clouds 14 1039 17 10000 2.6 250 18:42 22.06.2020
913 Clouds 14 1039 17 10000 2.6 250 18:23 22.06.2020
914 Clear 13 1039 20 10000 1 0 17:57 22.06.2020
915 Clear 13 1039 20 10000 1 0 17:38 22.06.2020
916 Clear 13 1039 20 10000 1 0 17:20 22.06.2020
917 Clear 10 1040 27 10000 1 0 16:56 22.06.2020
918 Clear 10 1040 27 10000 1 0 16:38 22.06.2020
919 Clear 6 1039 35 10000 1.62 119 16:18 22.06.2020
920 Clear 6 1039 35 10000 1.62 119 15:44 22.06.2020
921 Clear 6 1039 35 10000 1.46 114 15:25 22.06.2020
922 Clear -1 1038 86 10000 1.5 70 14:57 22.06.2020
923 Clear -1 1038 86 10000 1.5 70 14:37 22.06.2020
924 Clouds -5 1038 92 10000 2.6 90 14:18 22.06.2020
925 Clouds -5 1038 92 10000 2.6 90 13:40 22.06.2020
926 Clouds -5 1038 92 10000 2.6 90 13:22 22.06.2020
927 Fog -4 1037 92 4000 3.1 90 12:59 22.06.2020
928 Fog -4 1037 92 4000 3.1 90 12:59 22.06.2020
929 Fog -4 1037 92 4000 3.1 90 12:40 22.06.2020
930 Fog -4 1037 92 4000 3.1 90 12:40 22.06.2020
931 Fog -4 1037 92 4000 3.1 90 12:22 22.06.2020
932 Fog -2 1037 92 4000 4.1 90 11:38 22.06.2020
933 Fog -2 1037 92 4000 4.1 90 11:38 22.06.2020
934 Clouds -1 1037 42 10000 1 0 11:19 22.06.2020
935 Clouds -1 1037 42 10000 1 0 10:57 22.06.2020
936 Clouds -1 1037 42 10000 1 0 10:38 22.06.2020
937 Clouds -1 1037 42 10000 1 0 10:19 22.06.2020
938 Clouds 0 1037 78 10000 2.6 40 09:57 22.06.2020
939 Clouds 0 1037 78 10000 2.6 40 09:38 22.06.2020
940 Clouds 3 1038 27 10000 3.1 10 09:19 22.06.2020
941 Clouds 3 1038 27 10000 3.1 10 08:56 22.06.2020
942 Clouds 3 1038 27 10000 3.1 10 08:37 22.06.2020
943 Clouds 0 1038 76 10000 2.1 30 08:18 22.06.2020
944 Clouds 0 1038 76 10000 2.1 30 08:18 22.06.2020
945 Clouds 0 1038 76 10000 2.1 30 07:46 22.06.2020
946 Clouds 0 1038 75 10000 2.1 30 07:25 22.06.2020
947 Clouds 3 1039 34 10000 1 0 06:39 22.06.2020
948 Clear 3 1039 34 10000 1 0 06:20 22.06.2020
949 Clear 5 1038 23 10000 2.6 10 05:42 22.06.2020
950 Clear 7 1037 22 10000 3.6 10 03:41 22.06.2020
951 Clear 6 1036 18 10000 2.6 120 01:48 22.06.2020
952 Clear 13 1036 9 10000 3.6 110 00:54 22.06.2020
953 Clear 13 1036 9 10000 3.6 110 00:29 22.06.2020
954 Clouds 16 1036 8 10000 3.1 80 23:56 21.06.2020
955 Clouds 16 1036 8 10000 3.1 80 23:37 21.06.2020
956 Clouds 16 1036 8 10000 3.1 80 23:19 21.06.2020
957 Clouds 17 1036 8 10000 2.6 70 22:55 21.06.2020
958 Clouds 17 1036 8 10000 2.6 70 22:36 21.06.2020
959 Clouds 16 1037 8 10000 3.6 150 22:18 21.06.2020
960 Clouds 16 1037 8 10000 3.6 150 21:55 21.06.2020
961 Clouds 16 1037 8 10000 3.6 150 21:37 21.06.2020
962 Clouds 16 1038 9 10000 4.6 210 21:18 21.06.2020
963 Clouds 16 1038 9 10000 4.6 210 20:40 21.06.2020
964 Clouds 15 1039 9 10000 2.6 160 20:20 21.06.2020
965 Clouds 15 1039 9 10000 2.6 160 19:59 21.06.2020
966 Clouds 15 1039 9 10000 2.6 160 19:40 21.06.2020
967 Clouds 15 1039 9 10000 2.6 160 19:20 21.06.2020
968 Clouds 14 1040 15 10000 3.1 260 18:55 21.06.2020
969 Clouds 14 1040 15 10000 3.1 260 18:37 21.06.2020
970 Clear 12 1041 18 10000 4.1 270 18:19 21.06.2020
971 Clear 12 1041 18 10000 4.1 270 18:19 21.06.2020
972 Clear 12 1041 18 10000 4.1 270 17:41 21.06.2020
973 Clear 12 1041 18 10000 4.1 270 17:21 21.06.2020
974 Clear 9 1041 31 10000 4.1 270 16:57 21.06.2020
975 Clear 9 1041 31 10000 4.1 270 16:39 21.06.2020
976 Clear 6 1040 35 10000 3.1 240 16:20 21.06.2020
977 Clear 6 1040 35 10000 3.1 240 15:40 21.06.2020
978 Clear 6 1040 35 10000 3.1 240 15:21 21.06.2020
979 Clear 4 1039 29 10000 2.6 360 14:55 21.06.2020
980 Clear 1 1039 43 10000 2.6 360 14:37 21.06.2020
981 Clear 1 1039 43 10000 2.6 360 14:18 21.06.2020
982 Clear 1 1039 43 10000 2.6 360 13:42 21.06.2020
983 Clear 1 1039 43 10000 2.6 360 13:42 21.06.2020
984 Clear 1 1039 43 10000 2.6 360 13:23 21.06.2020
985 Clear -2 1038 68 10000 1 0 12:58 21.06.2020
986 Clear -2 1038 68 10000 1 0 12:58 21.06.2020
987 Clear -2 1038 68 10000 1 0 12:58 21.06.2020
988 Clear -2 1038 68 10000 1 0 12:58 21.06.2020
989 Clear -2 1038 68 10000 1 0 12:39 21.06.2020
990 Clear -2 1038 68 10000 1 0 12:21 21.06.2020
991 Clear -1 1038 58 10000 1.5 200 11:42 21.06.2020
992 Clear -1 1038 58 10000 1.5 200 11:24 21.06.2020
993 Clear 2 1037 47 10000 3.6 10 10:58 21.06.2020
994 Clear 2 1037 47 10000 3.6 10 10:39 21.06.2020
995 Clear 2 1037 47 10000 3.6 10 10:21 21.06.2020
996 Clear 2 1038 43 10000 3.6 10 09:44 21.06.2020
997 Clear 2 1038 43 10000 3.6 10 09:24 21.06.2020
998 Clear -3 1039 53 10000 1.5 40 08:59 21.06.2020
999 Clear -3 1039 53 10000 1.5 40 08:41 21.06.2020
1000 Clouds -3 1039 53 10000 1.5 40 08:20 21.06.2020
1001 Clouds -2 1039 58 10000 1.5 60 07:58 21.06.2020
1002 Clouds -2 1039 58 10000 1.5 60 07:39 21.06.2020
1003 Clear -2 1039 50 10000 1 0 07:18 21.06.2020
1004 Clear -2 1039 50 10000 1 0 06:45 21.06.2020
1005 Clear 0 1039 76 10000 1 0 05:57 21.06.2020
1006 Clear 3 1039 47 10000 3.6 80 04:45 21.06.2020
1007 Clear 3 1038 34 10000 1 0 03:20 21.06.2020
1008 Clear 4 1038 29 10000 1.5 20 02:38 21.06.2020
1009 Clear 5 1038 25 10000 1 0 01:47 21.06.2020
1010 Clouds 12 1037 14 10000 3.6 80 01:20 21.06.2020
1011 Clouds 12 1037 14 10000 3.6 80 00:46 21.06.2020
1012 Clouds 12 1037 14 10000 3.6 80 00:26 21.06.2020
1013 Clouds 15 1037 9 10000 4.6 90 23:46 20.06.2020
1014 Clouds 15 1037 9 10000 4.6 90 23:23 20.06.2020
1015 Clouds 17 1037 7 10000 3.1 70 22:59 20.06.2020
1016 Clouds 17 1037 7 10000 3.1 70 22:59 20.06.2020
1017 Clouds 17 1037 7 10000 3.1 70 22:40 20.06.2020
1018 Clouds 17 1037 7 10000 3.1 70 22:20 20.06.2020
1019 Clouds 17 1037 7 10000 3.1 50 21:58 20.06.2020
1020 Clouds 17 1037 7 10000 3.1 50 21:40 20.06.2020
1021 Clouds 16 1038 10 10000 2.1 140 21:21 20.06.2020
1022 Clouds 16 1038 10 10000 2.1 140 20:58 20.06.2020
1023 Clouds 16 1038 10 10000 2.1 140 20:40 20.06.2020
1024 Clouds 16 1038 10 10000 2.1 140 20:20 20.06.2020
1025 Clouds 16 1039 12 10000 2.6 170 19:57 20.06.2020
1026 Clouds 16 1039 12 10000 2.6 170 19:38 20.06.2020
1027 Clouds 16 1039 12 10000 2.6 170 19:19 20.06.2020
1028 Clear 14 1016 32 0 2.16 170 18:42 20.06.2020
1029 Clear 12 1040 22 10000 3.1 250 18:20 20.06.2020
1030 Clear 12 1040 22 10000 3.1 250 17:57 20.06.2020
1031 Clear 12 1040 22 10000 3.1 250 17:39 20.06.2020
1032 Clear 12 1040 22 10000 3.1 250 17:20 20.06.2020
1033 Clouds 17 1027 35 10000 1.34 190 16:42 20.06.2020
1034 Clouds 17 1027 38 10000 1.16 211 16:19 20.06.2020
1035 Clear 8 1040 22 10000 1 0 15:57 20.06.2020
1036 Clear 8 1040 22 10000 1 0 15:39 20.06.2020
1037 Clouds 23 1014 83 10000 5.1 340 15:18 20.06.2020
1038 Clouds 23 1014 83 10000 5.1 340 14:42 20.06.2020
1039 Clear 1 1038 24 10000 2.6 10 14:21 20.06.2020
1040 Clear 1 1038 24 10000 2.6 10 13:42 20.06.2020
1041 Clear 1 1038 24 10000 2.6 10 13:23 20.06.2020
1042 Clear 1 1038 24 10000 3.1 10 12:57 20.06.2020
1043 Clear 1 1038 24 10000 3.1 10 12:38 20.06.2020
1044 Clear 1 1038 24 10000 3.1 10 12:19 20.06.2020
1045 Clear 1 1038 22 10000 2.6 10 11:55 20.06.2020
1046 Clear 1 1038 22 10000 2.6 10 11:36 20.06.2020
1047 Clear 2 1038 21 10000 3.1 30 11:18 20.06.2020
1048 Clear 2 1038 21 10000 3.1 30 10:42 20.06.2020
1049 Clear 2 1038 21 10000 3.1 30 10:20 20.06.2020
1050 Clear 1 1038 22 10000 3.1 20 09:43 20.06.2020
1051 Clear 1 1038 22 10000 3.1 20 09:25 20.06.2020
1052 -273 0 0 0 0 0 08:59 20.06.2020
1053 Clear -5 1038 32 10000 1 0 08:40 20.06.2020
1054 Clear -5 1038 32 10000 1 0 08:22 20.06.2020
1055 Clear -3 1038 30 10000 1 0 07:50 20.06.2020
1056 Clear -3 1038 30 10000 1 0 07:25 20.06.2020
1057 Clear -2 1039 28 10000 1.5 40 06:49 20.06.2020
1058 Clear -2 1039 28 10000 1.5 30 06:21 20.06.2020
1059 Clear -2 1039 28 10000 1.5 30 05:48 20.06.2020
1060 Clear 1 1039 15 10000 1.5 40 03:55 20.06.2020
1061 Clear 3 1037 11 10000 3.6 90 01:55 20.06.2020
1062 Clear 3 1037 11 10000 3.6 90 01:37 20.06.2020
1063 Clear 13 1037 3 10000 3.6 130 00:47 20.06.2020
1064 Clear 16 1037 1 10000 3.6 140 00:20 20.06.2020
1065 Clear 16 1037 1 10000 3.6 140 23:44 19.06.2020
1066 Clear 16 1037 1 10000 3.6 140 23:20 19.06.2020
1067 Clouds 16 1037 29 10000 3.6 140 22:56 19.06.2020
1068 Clouds 16 1037 29 10000 3.6 140 22:37 19.06.2020
1069 Clouds 16 1037 27 10000 3.6 140 22:19 19.06.2020
1070 Clouds 17 1038 3 10000 3.1 160 21:55 19.06.2020
1071 Clouds 17 1038 3 10000 3.1 160 21:37 19.06.2020
1072 Clear 16 1039 4 10000 2.6 160 21:18 19.06.2020
1073 Clear 16 1039 4 10000 2.6 160 20:56 19.06.2020
1074 Clear 16 1039 4 10000 2.6 160 20:38 19.06.2020
1075 Clear 14 1040 7 10000 2.1 250 20:20 19.06.2020
1076 Clear 14 1040 7 10000 2.1 250 19:42 19.06.2020
1077 Clear 14 1040 7 10000 2.1 250 19:23 19.06.2020
1078 Clear 14 1041 9 10000 1.5 320 18:59 19.06.2020
1079 Clear 14 1041 9 10000 1.5 320 18:39 19.06.2020
1080 Clear 11 1041 14 10000 2.1 250 18:20 19.06.2020
1081 Clear 11 1041 14 10000 2.1 250 18:20 19.06.2020
1082 Clear 11 1041 14 10000 2.1 250 17:42 19.06.2020
1083 Clear 11 1041 14 10000 2.1 250 17:23 19.06.2020
1084 Clear 9 1041 14 10000 2.1 260 16:58 19.06.2020
1085 Clear 9 1041 14 10000 2.1 260 16:39 19.06.2020
1086 Clouds 6 1041 15 8000 1 0 16:21 19.06.2020
1087 Clouds 6 1041 15 8000 1 0 15:45 19.06.2020
1088 Clouds 6 1041 15 8000 1 0 15:26 19.06.2020
1089 Clouds 4 1040 18 10000 1.5 10 14:58 19.06.2020
1090 Clouds 4 1040 18 10000 1.5 10 14:39 19.06.2020
1091 Clouds 4 1040 18 10000 1.5 10 14:21 19.06.2020
1092 Clouds -1 1039 23 10000 2.6 20 13:58 19.06.2020
1093 Clouds -1 1039 23 10000 2.6 20 13:39 19.06.2020
1094 Clouds -1 1039 23 10000 2.6 20 13:21 19.06.2020
1095 Clouds -4 1038 27 10000 1 0 12:44 19.06.2020
1096 Clouds -4 1038 27 10000 1 0 12:20 19.06.2020
1097 Clouds -1 1038 20 10000 1 0 11:41 19.06.2020
1098 Clouds -1 1038 20 10000 1 0 11:19 19.06.2020
1099 Clouds -1 1038 20 10000 1 0 10:59 19.06.2020
1100 Clouds 1 1019 76 0 0.82 302 10:41 19.06.2020
1101 Clouds 2 1019 76 0 0.52 241 10:21 19.06.2020
1102 Clouds 2 1019 76 0 0.52 241 09:45 19.06.2020
1103 Clouds 2 1038 17 10000 3.6 10 09:25 19.06.2020
1104 Clouds 2 1038 17 10000 3.6 10 09:25 19.06.2020
1105 Clouds 2 1038 17 10000 3.6 10 08:59 19.06.2020
1106 Clouds 2 1038 17 10000 3.6 10 08:39 19.06.2020
1107 Clouds 2 1038 17 10000 3.6 10 08:20 19.06.2020
1108 Clouds 2 1038 17 10000 3.6 10 08:20 19.06.2020
1109 Clouds 2 1039 19 10000 3.1 10 07:41 19.06.2020
1110 Clouds 2 1039 19 10000 3.1 10 07:21 19.06.2020
1111 Clouds -1 1039 22 10000 2.1 20 06:47 19.06.2020
1112 Clouds -1 1039 22 10000 2.1 20 06:21 19.06.2020
1113 Clouds 1 1039 19 10000 2.6 20 05:28 19.06.2020
1114 Clouds 6 1039 12 10000 2.6 330 03:37 19.06.2020
1115 Clouds 4 1038 12 10000 2.6 100 02:19 19.06.2020
1116 Clouds 13 1038 8 10000 3.6 100 00:44 19.06.2020
1117 Clouds 13 1038 8 10000 3.6 100 00:44 19.06.2020
1118 Clouds 13 1038 8 10000 3.6 100 00:22 19.06.2020
1119 Clouds 15 1038 6 10000 4.1 120 23:57 18.06.2020
1120 Clouds 15 1038 6 10000 4.1 120 23:38 18.06.2020
1121 Clouds 16 1038 6 10000 4.6 110 23:20 18.06.2020
1122 Clouds 16 1038 6 10000 4.6 110 22:40 18.06.2020
1123 Clouds 16 1038 8 10000 4.1 130 22:20 18.06.2020
1124 Clouds 16 1038 8 10000 4.1 130 22:20 18.06.2020
1125 Clouds 16 1038 8 10000 4.1 130 21:56 18.06.2020
1126 Clouds 16 1038 8 10000 4.1 130 21:37 18.06.2020
1127 Clouds 15 1039 8 10000 3.1 100 21:18 18.06.2020
1128 Clouds 15 1039 8 10000 3.1 100 20:40 18.06.2020
1129 Clouds 15 1040 8 10000 3.1 130 20:20 18.06.2020
1130 Clouds 15 1040 8 10000 3.1 130 19:57 18.06.2020
1131 Clouds 13 1041 9 10000 2.1 160 19:38 18.06.2020
1132 Clouds 13 1041 9 10000 2.1 160 19:19 18.06.2020
1133 Clouds 13 1041 9 10000 2.1 160 18:39 18.06.2020
1134 Clouds 13 1041 9 10000 2.1 160 18:21 18.06.2020
1135 Clouds 12 1042 14 10000 2.1 220 17:54 18.06.2020
1136 Clouds 12 1042 14 10000 2.1 220 17:36 18.06.2020
1137 Clouds 9 1042 21 10000 2.1 210 17:18 18.06.2020
1138 Clouds 9 1042 21 10000 2.1 210 16:41 18.06.2020
1139 Clouds 9 1042 21 10000 2.1 210 16:23 18.06.2020
1140 Clouds 6 1041 17 10000 1 0 15:57 18.06.2020
1141 Clouds 6 1041 17 10000 1 0 15:39 18.06.2020
1142 Clouds 6 1041 17 10000 1 0 15:39 18.06.2020
1143 Haze 2 1041 24 10000 2.1 10 15:19 18.06.2020
1144 Haze 2 1041 24 10000 2.1 10 14:56 18.06.2020
1145 Haze 2 1041 24 10000 2.1 10 14:37 18.06.2020
1146 Clouds -2 1039 30 10000 1 0 14:19 18.06.2020
1147 Clouds -2 1039 30 10000 1 0 13:47 18.06.2020
1148 Clouds -2 1039 30 10000 1 0 13:27 18.06.2020
1149 Clouds -2 1039 30 10000 1 0 12:56 18.06.2020
1150 Clouds -2 1039 30 10000 1 0 12:38 18.06.2020
1151 Clouds -4 1038 41 10000 1 0 12:19 18.06.2020
1152 Clouds -4 1038 41 10000 1 0 11:47 18.06.2020
1153 Clouds -4 1038 41 10000 1 0 11:21 18.06.2020
1154 Clouds 1 1038 29 10000 2.6 10 10:58 18.06.2020
1155 Clouds 1 1038 29 10000 2.6 10 10:38 18.06.2020
1156 Clouds 1 1039 34 10000 2.1 10 10:18 18.06.2020
1157 Clouds 1 1039 34 10000 2.1 10 09:44 18.06.2020
1158 Clouds 1 1039 34 10000 2.1 10 09:24 18.06.2020
1159 Clouds -2 1038 46 10000 1 20 08:42 18.06.2020
1160 Clouds -2 1038 46 10000 1 20 08:24 18.06.2020
1161 Clouds 3 1039 32 10000 2.1 20 07:59 18.06.2020
1162 Clouds 3 1039 32 10000 2.1 20 07:40 18.06.2020
1163 Clear 3 1039 32 10000 2.1 20 07:21 18.06.2020
1164 Clouds 2 1039 47 10000 1 0 06:28 18.06.2020
1165 Clouds 2 1039 55 10000 1 0 04:27 18.06.2020
1166 Clouds 6 1039 52 10000 1 0 03:26 18.06.2020
1167 Clouds 11 1037 27 10000 1.5 320 01:39 18.06.2020
1168 Clouds 13 1036 24 10000 3.6 310 01:18 18.06.2020
1169 Clouds 13 1036 24 10000 3.6 310 00:48 18.06.2020
1170 Clouds 13 1036 24 10000 3.6 310 00:24 18.06.2020
1171 Clouds 16 1037 19 10000 4.6 300 23:46 17.06.2020
1172 Clouds 16 1037 19 10000 4.6 300 23:22 17.06.2020
1173 Clouds 17 1037 17 10000 8.2 270 22:59 17.06.2020
1174 Clouds 17 1037 17 10000 8.2 270 22:40 17.06.2020
1175 Clouds 17 1037 17 10000 8.2 270 22:21 17.06.2020
1176 Clouds 17 1037 20 10000 5.1 270 21:57 17.06.2020
1177 Clouds 17 1037 20 10000 5.1 270 21:39 17.06.2020
1178 Clouds 17 1037 20 10000 5.1 270 21:20 17.06.2020
1179 Clouds 17 1038 18 10000 5.7 290 20:38 17.06.2020
1180 Clouds 17 1038 18 10000 5.7 290 20:20 17.06.2020
1181 Clouds 16 1039 19 10000 7.2 270 19:57 17.06.2020
1182 Clouds 16 1039 19 10000 7.2 270 19:39 17.06.2020
1183 Clear 15 1040 19 10000 3.1 250 19:19 17.06.2020
1184 Clear 15 1040 19 10000 3.1 250 18:45 17.06.2020
1185 Clear 15 1040 19 10000 3.1 250 18:27 17.06.2020
1186 Clear 13 1041 26 10000 3.1 230 17:46 17.06.2020
1187 Clear 13 1041 26 10000 3.1 230 17:23 17.06.2020
1188 Clear 10 1041 31 8000 1 0 16:58 17.06.2020
1189 Clear 10 1041 31 8000 1 0 16:39 17.06.2020
1190 Clear 10 1041 31 8000 1 0 16:21 17.06.2020
1191 Clear 8 1041 36 8000 1 0 15:57 17.06.2020
1192 Clear 8 1041 36 8000 1 0 15:39 17.06.2020
1193 Clear 8 1041 36 8000 1 0 15:19 17.06.2020
1194 Clear 6 1040 41 10000 2.1 20 14:57 17.06.2020
1195 Clear 6 1040 41 10000 2.1 20 14:39 17.06.2020
1196 Clouds 6 1040 41 10000 2.1 20 14:19 17.06.2020
1197 Clouds 2 1039 51 10000 3.1 360 13:55 17.06.2020
1198 Clouds 2 1039 51 10000 3.1 360 13:36 17.06.2020
1199 Clouds 2 1039 51 10000 2.6 10 13:18 17.06.2020
1200 Clouds 2 1039 51 10000 2.6 10 12:41 17.06.2020
1201 Clouds 2 1039 55 10000 2.6 10 12:21 17.06.2020
1202 Clouds 2 1039 55 10000 2.6 10 11:45 17.06.2020
1203 Clouds 2 1039 55 10000 2.6 10 11:26 17.06.2020
1204 Clouds 3 1038 47 10000 2.6 10 10:59 17.06.2020
1205 Clouds 3 1038 47 10000 2.6 10 10:38 17.06.2020
1206 Clouds 3 1039 47 10000 2.6 360 10:19 17.06.2020
1207 Clouds 3 1039 47 10000 2.6 360 10:19 17.06.2020
1208 Clouds 3 1039 47 10000 2.6 360 09:55 17.06.2020
1209 Clouds 3 1039 47 10000 2.6 360 09:37 17.06.2020
1210 Clouds 3 1039 47 10000 3.6 10 09:18 17.06.2020
1211 Clouds 3 1039 47 10000 3.6 10 09:18 17.06.2020
1212 Clouds 4 1020 72 0 0.27 215 08:42 17.06.2020
1213 Clouds 2 1039 71 10000 1 0 08:19 17.06.2020
1214 Clouds 2 1039 71 10000 1 0 07:44 17.06.2020
1215 Clouds 2 1039 73 10000 1 0 07:23 17.06.2020
1216 Clouds 1 1039 74 10000 1 0 06:59 17.06.2020
1217 Clouds 1 1039 74 10000 1 0 06:40 17.06.2020
1218 Clouds 1 1039 74 10000 1 0 06:22 17.06.2020
1219 Clouds 2 1038 64 10000 2.6 90 05:48 17.06.2020
1220 Clouds 2 1038 59 10000 3.1 60 04:38 17.06.2020
1221 Clouds 11 1038 29 10000 3.1 310 01:59 17.06.2020
1222 Clouds 14 1037 26 10000 3.1 280 00:49 17.06.2020
1223 Clouds 14 1037 26 10000 3.1 280 00:29 17.06.2020
1224 Clouds 16 1036 21 10000 3.1 300 23:57 16.06.2020
1225 Clouds 16 1036 21 10000 3.1 300 23:39 16.06.2020
1226 Clouds 16 1036 21 10000 3.1 300 23:21 16.06.2020
1227 Clouds 16 1036 21 10000 4.1 260 22:57 16.06.2020
1228 Clouds 16 1036 21 10000 4.1 260 22:38 16.06.2020
1229 Clouds 16 1037 23 10000 2.1 260 22:19 16.06.2020
1230 Clouds 16 1037 23 10000 2.1 260 21:54 16.06.2020
1231 Clouds 16 1037 23 10000 2.1 260 21:54 16.06.2020
1232 Clouds 16 1037 23 10000 2.1 260 21:36 16.06.2020
1233 Clouds 16 1038 23 10000 2.1 340 21:18 16.06.2020
1234 Clouds 16 1038 23 10000 2.1 340 20:42 16.06.2020
1235 Clouds 16 1038 23 10000 2.1 340 20:19 16.06.2020
1236 Clouds 16 1038 23 10000 2.1 340 20:19 16.06.2020
1237 Clouds 15 1039 26 10000 2.1 300 19:58 16.06.2020
1238 Clouds 15 1039 26 10000 2.1 300 19:58 16.06.2020
1239 Clouds 15 1039 26 10000 2.1 300 19:39 16.06.2020
1240 Clouds 14 1040 28 10000 2.6 290 19:21 16.06.2020
1241 Clouds 14 1040 28 10000 2.6 290 18:55 16.06.2020
1242 Clouds 14 1040 28 10000 2.6 290 18:37 16.06.2020
1243 Clouds 12 1041 40 10000 3.6 250 18:19 16.06.2020
1244 Clouds 12 1041 40 10000 3.6 250 17:55 16.06.2020
1245 Clouds 12 1041 40 10000 3.6 250 17:36 16.06.2020
1246 Clouds 10 1041 43 10000 3.1 280 17:18 16.06.2020
1247 Clouds 10 1041 43 10000 3.1 280 17:18 16.06.2020
1248 Clouds 10 1041 43 10000 3.1 280 16:42 16.06.2020
1249 Clouds 10 1041 43 10000 3.1 280 16:21 16.06.2020
1250 Clouds 8 1041 42 10000 2.6 290 15:59 16.06.2020
1251 Clouds 8 1041 42 10000 2.6 290 15:41 16.06.2020
1252 Clouds 8 1041 42 10000 2.6 290 15:23 16.06.2020
1253 Clouds 3 1040 51 10000 2.1 350 14:59 16.06.2020
1254 Clouds 3 1040 51 10000 2.1 350 14:41 16.06.2020
1255 Clouds 3 1040 51 10000 2.1 350 14:22 16.06.2020
1256 Clouds -3 1039 79 10000 1 0 13:48 16.06.2020
1257 Clouds -3 1039 79 10000 1 0 13:26 16.06.2020
1258 Fog 1 1039 86 4000 2.1 280 12:57 16.06.2020
1259 Fog 1 1039 86 4000 2.1 280 12:38 16.06.2020
1260 Fog 1 1039 86 4000 2.1 280 12:38 16.06.2020
1261 Fog 1 1039 86 4000 2.1 280 12:20 16.06.2020
1262 Fog -1 1039 92 4000 1 0 11:54 16.06.2020
1263 Fog -1 1039 92 4000 1 0 11:36 16.06.2020
1264 Fog -1 1039 92 4000 1 0 11:36 16.06.2020
1265 Fog 1 1038 100 3000 2.1 110 11:18 16.06.2020
1266 Fog 1 1038 100 3000 2.1 110 10:42 16.06.2020
1267 Fog 2 1039 100 3000 2.6 90 10:21 16.06.2020
1268 Fog 2 1039 100 3000 2.6 90 09:57 16.06.2020
1269 Fog 2 1039 100 3000 2.6 90 09:39 16.06.2020
1270 Fog 2 1039 100 3000 2.6 90 09:20 16.06.2020
1271 Fog 3 1039 93 3000 3.1 60 08:41 16.06.2020
1272 Fog 3 1039 93 3000 3.1 60 08:22 16.06.2020
1273 Fog 3 1040 93 4000 4.1 70 07:46 16.06.2020
1274 Fog 3 1040 93 4000 4.1 70 07:26 16.06.2020
1275 Fog 4 1040 100 2000 4.6 70 06:47 16.06.2020
1276 Fog 4 1040 100 2000 4.6 70 06:19 16.06.2020
1277 Fog 4 1040 100 3000 3.6 80 05:32 16.06.2020
1278 Clouds 4 1040 93 10000 3.6 70 04:27 16.06.2020
1279 Clouds 6 1039 70 10000 2.1 80 02:49 16.06.2020
1280 Clouds 9 1039 73 10000 3.1 100 01:44 16.06.2020
1281 Clouds 12 1038 67 10000 4.1 130 01:19 16.06.2020
1282 Clouds 12 1038 67 10000 4.1 130 00:37 16.06.2020
1283 Clouds 14 1038 33 10000 4.1 90 00:18 16.06.2020
1284 Clouds 14 1038 33 10000 4.1 90 23:41 15.06.2020
1285 Clouds 14 1038 33 10000 4.1 90 23:21 15.06.2020
1286 Clouds 15 1038 30 10000 4.6 110 22:42 15.06.2020
1287 Clouds 15 1038 30 10000 4.6 110 22:42 15.06.2020
1288 Clouds 15 1038 30 10000 4.6 110 22:23 15.06.2020
1289 Clouds 15 1039 30 10000 4.1 120 21:59 15.06.2020
1290 Clouds 15 1039 30 10000 4.1 120 21:38 15.06.2020
1291 Clouds 15 1039 30 10000 4.1 120 21:20 15.06.2020
1292 Clouds 15 1039 30 10000 4.1 130 20:59 15.06.2020
1293 Clouds 15 1039 30 10000 4.1 130 20:39 15.06.2020
1294 Clouds 15 1039 30 10000 4.1 130 20:19 15.06.2020
1295 Clouds 14 1040 35 10000 5.7 140 19:57 15.06.2020
1296 Clouds 14 1040 35 10000 5.7 140 19:39 15.06.2020
1297 Clouds 12 1042 37 10000 5.7 120 19:21 15.06.2020
1298 Clouds 12 1042 37 10000 5.7 120 18:56 15.06.2020
1299 Clouds 12 1042 37 10000 5.7 120 18:38 15.06.2020
1300 Clouds 11 1042 37 10000 5.1 140 18:19 15.06.2020
1301 Clouds 11 1042 37 10000 5.1 140 17:56 15.06.2020
1302 Clouds 11 1042 37 10000 5.1 140 17:37 15.06.2020
1303 Clouds 9 1042 45 10000 4.6 120 17:18 15.06.2020
1304 Clouds 9 1042 45 10000 4.6 120 16:41 15.06.2020
1305 Clouds 9 1042 45 10000 4.6 120 16:19 15.06.2020
1306 Clouds 5 1042 80 10000 3.6 130 15:56 15.06.2020
1307 Clouds 5 1042 80 10000 3.6 130 15:38 15.06.2020
1308 Clouds 2 1041 80 10000 1.5 60 15:19 15.06.2020
1309 Clouds 2 1041 80 10000 1.5 60 14:42 15.06.2020
1310 Clouds -3 1040 92 10000 1 0 14:21 15.06.2020
1311 Clouds -3 1040 92 10000 1 0 13:59 15.06.2020
1312 Clouds -3 1040 92 10000 1 0 13:41 15.06.2020
1313 Clouds -3 1040 92 10000 1 0 13:22 15.06.2020
1314 Clouds -2 1040 92 10000 1 0 12:58 15.06.2020
1315 Clouds -2 1040 92 10000 1 0 12:39 15.06.2020
1316 Clouds -1 1039 92 10000 2.6 60 12:21 15.06.2020
1317 Clouds -1 1039 92 10000 2.6 60 11:44 15.06.2020
1318 Clouds -1 1039 92 10000 2.6 60 11:25 15.06.2020
1319 Fog -1 1039 100 4000 2.6 90 10:45 15.06.2020
1320 Fog -1 1039 100 4000 2.6 90 10:23 15.06.2020
1321 Fog 1 1040 81 4000 2.6 80 09:57 15.06.2020
1322 Fog 1 1040 81 4000 2.6 80 09:39 15.06.2020
1323 Fog 1 1040 81 4000 2.6 80 09:20 15.06.2020
1324 Fog 4 1040 93 4000 3.6 80 08:41 15.06.2020
1325 Fog 4 1040 93 4000 3.6 80 08:23 15.06.2020
1326 Fog 5 1040 93 2000 4.1 100 07:47 15.06.2020
1327 Fog 5 1040 93 2000 4.1 100 07:28 15.06.2020
1328 Fog 5 1040 93 1200 4.1 80 06:49 15.06.2020
1329 Fog 5 1040 93 1200 4.1 80 06:25 15.06.2020
1330 Fog 5 1040 100 800 3.6 70 05:46 15.06.2020
1331 Fog 5 1040 100 800 3.6 70 05:26 15.06.2020
1332 Fog 4 1040 100 4000 3.6 70 04:20 15.06.2020
1333 Fog 3 1040 100 4000 4.1 60 03:41 15.06.2020
1334 Clouds 5 1039 86 10000 3.1 100 02:54 15.06.2020
1335 Clouds 6 1038 81 10000 4.1 70 01:57 15.06.2020
1336 Clouds 6 1038 81 10000 4.1 70 01:34 15.06.2020
1337 Clouds 11 1038 62 10000 4.1 110 00:58 15.06.2020
1338 Clouds 11 1038 62 10000 4.1 110 00:39 15.06.2020
1339 Clouds 12 1037 58 10000 4.6 100 00:20 15.06.2020
1340 Clouds 12 1037 58 10000 4.6 100 23:46 14.06.2020
1341 Clouds 12 1037 58 10000 4.6 100 23:24 14.06.2020
1342 Clouds 12 1037 50 10000 4.1 100 22:58 14.06.2020
1343 Clouds 12 1037 50 10000 4.1 100 22:39 14.06.2020
1344 Clouds 13 1038 47 10000 3.6 100 22:19 14.06.2020
1345 Clouds 13 1038 47 10000 3.6 100 21:57 14.06.2020
1346 Clouds 13 1038 47 10000 3.6 100 21:57 14.06.2020
1347 Clouds 13 1038 47 10000 3.6 100 21:38 14.06.2020
1348 Clouds 13 1039 47 10000 3.1 120 21:19 14.06.2020
1349 Clouds 13 1039 47 10000 3.1 120 21:19 14.06.2020
1350 Clouds 13 1039 47 10000 3.1 120 20:58 14.06.2020
1351 Clouds 13 1039 47 10000 3.1 120 20:38 14.06.2020
1352 Clouds 12 1040 50 10000 2.1 110 20:19 14.06.2020
1353 Clouds 12 1040 50 10000 2.1 110 19:58 14.06.2020
1354 Clouds 12 1040 50 10000 2.1 110 19:38 14.06.2020
1355 Clouds 11 1041 53 10000 1.5 160 19:19 14.06.2020
1356 Clouds 11 1041 53 10000 1.5 160 18:56 14.06.2020
1357 Clouds 11 1041 53 10000 1.5 160 18:56 14.06.2020
1358 Clouds 11 1041 53 10000 1.5 160 18:37 14.06.2020
1359 Clouds 9 1041 61 10000 1 0 18:19 14.06.2020
1360 Clouds 9 1041 61 10000 1 0 17:56 14.06.2020
1361 Clouds 9 1041 61 10000 1 0 17:38 14.06.2020
1362 Clouds 6 1042 70 10000 1 0 17:19 14.06.2020
1363 Clouds 6 1042 70 10000 1 0 16:40 14.06.2020
1364 Fog 3 1041 93 4000 1 0 16:20 14.06.2020
1365 Fog 3 1041 93 4000 1 0 15:58 14.06.2020
1366 Fog 3 1041 93 4000 1 0 15:58 14.06.2020
1367 Fog 3 1041 93 4000 1 0 15:40 14.06.2020
1368 Fog 1 1040 100 300 1 0 15:18 14.06.2020
1369 Fog 1 1040 100 300 1 0 14:57 14.06.2020
1370 Fog 1 1040 100 300 1 0 14:38 14.06.2020
1371 Fog 1 1040 100 700 1 0 14:18 14.06.2020
1372 Fog 1 1040 100 700 1 0 13:42 14.06.2020
1373 Fog 1 1040 100 700 1 0 13:22 14.06.2020
1374 Fog 1 1039 100 700 1 0 12:59 14.06.2020
1375 Fog 1 1039 100 700 1 0 12:41 14.06.2020
1376 Fog 1 1039 100 700 1 0 12:41 14.06.2020
1377 Fog 1 1039 100 700 1 0 12:23 14.06.2020
1378 Mist -2 1039 92 4000 1.5 10 11:59 14.06.2020
1379 Mist -2 1039 92 4000 1.5 10 11:40 14.06.2020
1380 Fog -2 1038 100 4000 1 0 11:22 14.06.2020
1381 Fog -2 1038 100 4000 1 0 10:59 14.06.2020
1382 Fog -2 1038 100 4000 1 0 10:39 14.06.2020
1383 Fog -2 1038 92 4000 1.5 50 10:18 14.06.2020
1384 Fog -2 1038 92 4000 1.5 50 09:43 14.06.2020
1385 Fog -2 1038 92 4000 1.5 50 09:23 14.06.2020
1386 Fog -1 1039 92 4000 1 0 08:42 14.06.2020
1387 Fog -1 1039 92 4000 1 0 08:22 14.06.2020
1388 Fog 1 1039 76 4000 1 0 07:53 14.06.2020
1389 Fog 1 1039 76 4000 1 0 07:35 14.06.2020
1390 Clouds 3 1039 86 10000 2.1 70 06:54 14.06.2020
1391 Clouds 4 1039 80 10000 4.1 70 05:54 14.06.2020
1392 Clouds 4 1039 80 10000 4.1 70 05:29 14.06.2020
1393 Clouds 4 1039 74 10000 3.1 70 04:38 14.06.2020
1394 Clouds 4 1039 69 10000 4.1 70 03:54 14.06.2020
1395 Clouds 4 1038 64 10000 3.6 70 02:35 14.06.2020
1396 Clouds 7 1037 56 10000 4.6 80 01:55 14.06.2020
1397 Clouds 7 1037 56 10000 4.6 80 01:26 14.06.2020
1398 Clouds 9 1036 49 10000 5.7 60 00:47 14.06.2020
1399 Clouds 11 1036 40 10000 6.2 50 00:20 14.06.2020
1400 Clouds 11 1036 40 10000 6.2 50 23:46 13.06.2020
1401 Clouds 11 1036 40 10000 6.2 50 23:25 13.06.2020
1402 Clouds 13 1036 35 10000 5.7 50 22:58 13.06.2020
1403 Clouds 13 1036 35 10000 5.7 50 22:38 13.06.2020
1404 Clouds 14 1036 30 10000 6.7 50 22:18 13.06.2020
1405 Clouds 14 1036 30 10000 6.7 50 21:56 13.06.2020
1406 Clouds 14 1036 30 10000 6.7 50 21:38 13.06.2020
1407 Clouds 15 1037 26 10000 6.7 70 21:20 13.06.2020
1408 Clouds 15 1037 26 10000 6.7 70 20:43 13.06.2020
1409 Clouds 16 1038 19 10000 6.2 60 20:19 13.06.2020
1410 Clouds 16 1038 19 10000 6.2 60 19:57 13.06.2020
1411 Clouds 16 1038 19 10000 6.2 60 19:36 13.06.2020
1412 Clouds 15 1038 22 10000 5.7 70 19:18 13.06.2020
1413 Clouds 15 1038 22 10000 5.7 70 18:55 13.06.2020
1414 Clouds 15 1038 22 10000 5.7 70 18:37 13.06.2020
1415 Clear 12 1039 32 10000 5.7 120 18:18 13.06.2020
1416 Clear 12 1039 32 10000 5.7 120 17:42 13.06.2020
1417 Clear 10 1039 34 10000 4.1 130 17:23 13.06.2020
1418 Clear 10 1039 34 10000 4.1 130 16:58 13.06.2020
1419 Clear 10 1039 34 10000 4.1 130 16:39 13.06.2020
1420 Clear 8 1039 39 10000 4.1 130 16:19 13.06.2020
1421 Clear 8 1039 39 10000 4.1 130 15:45 13.06.2020
1422 Clear 8 1039 39 10000 4.1 130 15:27 13.06.2020
1423 Clear 4 1038 51 10000 2.1 90 14:59 13.06.2020
1424 Clear 4 1038 51 10000 2.1 90 14:39 13.06.2020
1425 Clear -3 1037 63 10000 1.12 95 14:20 13.06.2020
1426 Clear -3 1037 63 10000 1.12 95 13:44 13.06.2020
1427 Clear -3 1037 63 10000 0.39 109 13:26 13.06.2020
1428 Clear 3 1018 80 0 0.39 109 12:45 13.06.2020
1429 Clear 0 1036 78 10000 2.1 10 12:27 13.06.2020
1430 Clear 0 1036 78 10000 2.1 10 11:59 13.06.2020
1431 Clear 0 1036 78 10000 2.1 10 11:40 13.06.2020
1432 Clear -3 1036 58 10000 1 0 11:19 13.06.2020
1433 Clear -3 1036 58 10000 1 0 10:57 13.06.2020
1434 Clear -3 1036 58 10000 1 0 10:38 13.06.2020
1435 Clear -2 1037 54 10000 1.5 20 10:19 13.06.2020
1436 Clear -2 1037 54 10000 1.5 20 09:45 13.06.2020
1437 Clear -2 1037 54 10000 1.5 20 09:27 13.06.2020
1438 Clear 1 1037 55 10000 1 0 08:55 13.06.2020
1439 Clear 1 1037 55 10000 1 0 08:37 13.06.2020
1440 Clouds 0 1037 75 10000 1 0 08:19 13.06.2020
1441 Clouds 0 1037 75 10000 1 0 07:42 13.06.2020
1442 Clouds 1 1037 59 10000 2.1 80 07:22 13.06.2020
1443 Clouds 1 1037 59 10000 2.1 80 06:38 13.06.2020
1444 Clouds 1 1037 69 10000 1 0 06:19 13.06.2020
1445 Clouds 1 1037 69 10000 1 0 05:27 13.06.2020
1446 Clouds 1 1036 55 10000 3.1 70 03:57 13.06.2020
1447 Clouds 3 1036 47 10000 2.6 90 02:55 13.06.2020
1448 Clouds 3 1036 47 10000 2.6 90 02:36 13.06.2020
1449 Clouds 8 1035 36 10000 3.1 80 01:47 13.06.2020
1450 Clouds 12 1035 17 10000 2.6 290 01:21 13.06.2020
1451 Clouds 12 1035 17 10000 2.6 290 00:44 13.06.2020
1452 Clouds 12 1035 17 10000 2.6 290 00:26 13.06.2020
1453 Clouds 16 1035 15 10000 1.5 220 23:42 12.06.2020
1454 Clouds 16 1035 14 10000 2.1 230 23:19 12.06.2020
1455 Clouds 16 1035 15 10000 1.5 220 23:19 12.06.2020
1456 Clouds 16 1035 14 10000 2.1 230 22:59 12.06.2020
1457 Clouds 16 1035 14 10000 2.1 230 22:40 12.06.2020
1458 Clouds 17 1036 14 10000 2.6 230 22:19 12.06.2020
1459 Clouds 17 1036 14 10000 2.6 230 21:49 12.06.2020
1460 Clouds 17 1036 14 10000 2.6 230 21:26 12.06.2020
1461 Clouds 16 1037 17 10000 3.1 270 20:58 12.06.2020
1462 Clouds 16 1037 17 10000 3.1 270 20:40 12.06.2020
1463 Clouds 16 1037 17 10000 3.1 270 20:40 12.06.2020
1464 Clouds 15 1038 19 10000 2.6 250 20:22 12.06.2020
1465 Clouds 15 1038 19 10000 2.6 250 19:56 12.06.2020
1466 Clouds 15 1038 19 10000 2.6 250 19:38 12.06.2020
1467 Clouds 14 1039 20 10000 2.1 250 19:18 12.06.2020
1468 Clouds 14 1039 20 10000 2.1 250 18:39 12.06.2020
1469 Clouds 12 1040 27 10000 2.1 200 18:18 12.06.2020
1470 Clouds 12 1040 27 10000 2.1 200 17:47 12.06.2020
1471 Clouds 12 1040 27 10000 2.1 200 17:27 12.06.2020
1472 Clouds 10 1040 31 10000 2.6 240 16:59 12.06.2020
1473 Clouds 10 1040 31 10000 2.6 240 16:40 12.06.2020
1474 Clouds 7 1040 39 10000 2.1 240 16:19 12.06.2020
1475 Clouds 7 1040 39 10000 2.1 240 15:45 12.06.2020
1476 Clouds 7 1040 39 10000 2.1 240 15:25 12.06.2020
1477 Clouds 5 1039 41 10000 1 0 14:55 12.06.2020
1478 Clouds 5 1039 41 10000 1 0 14:36 12.06.2020
1479 Clear 1 1038 47 10000 2.6 10 14:18 12.06.2020
1480 Clear 1 1038 47 10000 2.6 10 13:41 12.06.2020
1481 Clear 3 1037 44 10000 3.1 10 13:20 12.06.2020
1482 Clear 3 1037 44 10000 3.1 10 12:40 12.06.2020
1483 Clear 3 1037 44 10000 3.1 10 12:20 12.06.2020
1484 Clear 3 1037 44 10000 3.1 10 11:56 12.06.2020
1485 Clear 3 1037 44 10000 3.1 10 11:38 12.06.2020
1486 Clear 3 1038 44 10000 3.1 10 11:19 12.06.2020
1487 Clear 3 1038 44 10000 3.1 10 10:43 12.06.2020
1488 Clear 3 1038 44 10000 3.1 10 10:23 12.06.2020
1489 Clear 3 1038 51 10000 2.6 340 09:45 12.06.2020
1490 Clear 4 1038 48 10000 2.1 360 09:21 12.06.2020
1491 Clear 4 1038 48 10000 2.1 360 08:44 12.06.2020
1492 Clouds 4 1038 48 10000 2.1 360 08:25 12.06.2020
1493 Clouds 1 1039 50 10000 1 0 07:44 12.06.2020
1494 Clear 1 1039 50 10000 1 0 07:25 12.06.2020
1495 Clear 2 1038 51 10000 1 0 06:55 12.06.2020
1496 Clear 2 1038 51 10000 1 0 06:26 12.06.2020
1497 Clear 4 1038 48 10000 2.1 10 05:50 12.06.2020
1498 Clear 4 1038 48 10000 2.1 10 05:29 12.06.2020
1499 Clear 2 1038 59 10000 2.1 80 04:50 12.06.2020
1500 Clear 9 1037 31 10000 1 0 02:55 12.06.2020
1501 Clear 8 1037 36 10000 2.1 80 01:52 12.06.2020
1502 Clear 8 1037 36 10000 2.1 80 01:25 12.06.2020
1503 Clouds 14 1036 22 10000 2.1 120 00:42 12.06.2020
1504 Clouds 14 1036 22 10000 2.1 120 00:24 12.06.2020
1505 Clouds 17 1035 14 10000 2.1 260 23:59 11.06.2020
1506 Clouds 17 1035 14 10000 2.1 260 23:40 11.06.2020
1507 Clouds 17 1035 14 10000 2.1 260 23:21 11.06.2020
1508 Clouds 18 1035 13 10000 2.6 330 22:57 11.06.2020
1509 Clouds 18 1035 13 10000 2.6 330 22:38 11.06.2020
1510 Clouds 17 1036 14 10000 2.1 230 22:19 11.06.2020
1511 Clouds 17 1036 14 10000 2.1 230 21:54 11.06.2020
1512 Clouds 17 1036 14 10000 2.1 230 21:36 11.06.2020
1513 Clouds 17 1038 14 10000 2.1 260 21:18 11.06.2020
1514 Clouds 17 1038 14 10000 2.1 260 20:43 11.06.2020
1515 Clouds 17 1038 14 10000 2.1 260 20:21 11.06.2020
1516 Clouds 15 1039 18 10000 3.1 230 19:44 11.06.2020
1517 Clouds 14 1040 20 10000 2.6 230 19:23 11.06.2020
1518 Clouds 14 1040 20 10000 2.6 230 18:58 11.06.2020
1519 Clouds 14 1040 20 10000 2.6 230 18:40 11.06.2020
1520 Clouds 12 1041 30 10000 2.1 220 18:20 11.06.2020
1521 Clouds 12 1041 30 10000 2.1 220 17:56 11.06.2020
1522 Clouds 12 1041 30 10000 2.1 220 17:37 11.06.2020
1523 Clouds 12 1041 30 10000 2.1 220 17:19 11.06.2020
1524 Clouds 10 1041 43 10000 1 0 16:45 11.06.2020
1525 Clouds 10 1041 43 10000 1 0 16:45 11.06.2020
1526 Clouds 10 1041 43 10000 1 0 16:27 11.06.2020
1527 Clouds 7 1041 52 10000 1 0 15:59 11.06.2020
1528 Clouds 7 1041 52 10000 1 0 15:40 11.06.2020
1529 Clouds 7 1041 52 10000 1 0 15:22 11.06.2020
1530 Clouds 4 1040 48 10000 1.5 360 14:46 11.06.2020
1531 Clouds 4 1040 48 10000 1.5 360 14:46 11.06.2020
1532 Clouds 4 1040 48 10000 1.5 360 14:21 11.06.2020
1533 Clouds 1 1039 64 10000 1 0 13:57 11.06.2020
1534 Clouds 1 1039 64 10000 1 0 13:39 11.06.2020
1535 Clouds 3 1038 59 10000 3.1 10 13:21 11.06.2020
1536 Clouds 3 1038 59 10000 3.1 10 12:58 11.06.2020
1537 Clouds 3 1038 59 10000 3.1 10 12:39 11.06.2020
1538 Clouds 3 1038 59 10000 3.1 10 12:19 11.06.2020
1539 Clouds 3 1038 59 10000 3.1 10 11:57 11.06.2020
1540 Clouds 3 1038 59 10000 3.1 10 11:39 11.06.2020
1541 Clouds 3 1038 59 10000 3.1 10 11:20 11.06.2020
1542 Clouds 1 1038 64 10000 1 0 10:57 11.06.2020
1543 Clouds 1 1038 64 10000 1 0 10:38 11.06.2020
1544 Clouds 1 1038 64 10000 1 0 10:18 11.06.2020
1545 Clouds 4 1018 74 0 0.35 238 09:42 11.06.2020
1546 Clouds 1 1038 80 10000 1 0 09:23 11.06.2020
1547 Clouds 1 1038 80 10000 1 0 08:44 11.06.2020
1548 Clouds -2 1038 92 10000 2.6 80 08:20 11.06.2020
1549 Clouds -2 1038 92 10000 2.6 80 07:43 11.06.2020
1550 Clouds -2 1038 92 10000 2.6 80 07:25 11.06.2020
1551 Clouds 0 1039 69 10000 3.1 60 06:52 11.06.2020
1552 Clouds 0 1039 72 10000 3.1 60 06:28 11.06.2020
1553 Clouds 1 1039 72 10000 3.6 80 05:36 11.06.2020
1554 Clouds 3 1038 69 10000 3.6 70 03:30 11.06.2020
1555 Clouds 5 1037 48 10000 1 0 02:52 11.06.2020
1556 Clouds 5 1037 48 10000 1 0 02:32 11.06.2020
1557 Clouds 9 1037 34 10000 1 0 01:46 11.06.2020
1558 Clouds 9 1037 34 10000 1 0 01:23 11.06.2020
1559 Clouds 13 1036 22 10000 4.1 100 00:45 11.06.2020
1560 Clouds 16 1036 11 10000 4.1 110 00:26 11.06.2020
1561 Clouds 16 1036 11 10000 4.1 110 23:44 10.06.2020
1562 Clouds 16 1036 11 10000 4.1 110 23:25 10.06.2020
1563 Clouds 16 1036 11 10000 3.6 110 22:56 10.06.2020
1564 Clouds 16 1036 11 10000 3.6 110 22:37 10.06.2020
1565 Clouds 16 1036 11 10000 3.6 110 22:37 10.06.2020
1566 Clouds 16 1037 12 10000 3.1 140 22:19 10.06.2020
1567 Clouds 16 1037 12 10000 3.1 140 21:55 10.06.2020
1568 Clouds 16 1037 12 10000 3.1 140 21:37 10.06.2020
1569 Clouds 16 1037 12 10000 3.1 140 21:18 10.06.2020
1570 Clouds 16 1038 13 10000 3.1 110 20:56 10.06.2020
1571 Clouds 16 1038 13 10000 3.1 110 20:37 10.06.2020
1572 Clouds 14 1039 19 10000 3.6 140 20:19 10.06.2020
1573 Clouds 14 1039 19 10000 3.6 140 19:40 10.06.2020
1574 Clouds 13 1040 20 10000 3.6 130 19:19 10.06.2020
1575 Clouds 13 1040 20 10000 3.6 130 18:57 10.06.2020
1576 Clouds 13 1040 20 10000 3.6 130 18:39 10.06.2020
1577 Clouds 12 1040 27 10000 3.6 140 18:19 10.06.2020
1578 Clouds 12 1040 27 10000 3.6 140 17:55 10.06.2020
1579 Clouds 12 1040 27 10000 3.6 140 17:36 10.06.2020
1580 Clouds 10 1040 31 10000 2.1 160 17:18 10.06.2020
1581 Clouds 10 1040 31 10000 2.1 160 16:55 10.06.2020
1582 Clouds 10 1040 31 10000 2.1 160 16:37 10.06.2020
1583 Clouds 10 1040 31 10000 2.1 160 16:18 10.06.2020
1584 Clouds 7 1040 45 10000 1 0 15:39 10.06.2020
1585 Clouds 3 1039 64 10000 1 0 15:21 10.06.2020
1586 Clouds 3 1039 64 10000 1 0 14:55 10.06.2020
1587 Clouds 3 1039 64 10000 1 0 14:37 10.06.2020
1588 Clouds -1 1039 63 10000 1 0 14:19 10.06.2020
1589 Clouds -1 1039 63 10000 1 0 13:40 10.06.2020
1590 Clouds -3 1038 73 10000 1 0 13:21 10.06.2020
1591 Clouds -3 1038 73 10000 1 0 12:43 10.06.2020
1592 Clouds -3 1038 68 10000 1.5 30 12:20 10.06.2020
1593 Clouds -3 1038 68 10000 1.5 30 11:56 10.06.2020
1594 Clouds -3 1038 68 10000 1.5 30 11:38 10.06.2020
1595 Clouds -1 1037 58 10000 1.5 60 11:19 10.06.2020
1596 Clouds -1 1037 58 10000 1.5 60 10:55 10.06.2020
1597 Clouds -1 1037 58 10000 1.5 60 10:36 10.06.2020
1598 Clouds -1 1037 58 10000 1.5 60 10:36 10.06.2020
1599 Clouds 3 1037 47 10000 2.6 20 10:18 10.06.2020
1600 Clouds 3 1037 47 10000 2.6 20 09:39 10.06.2020
1601 Clouds 3 1037 47 10000 2.6 20 09:21 10.06.2020
1602 Clouds 2 1038 55 10000 2.6 30 08:44 10.06.2020
1603 Fog 2 1039 100 4000 2.6 50 08:23 10.06.2020
1604 Fog 2 1039 100 4000 2.6 50 07:43 10.06.2020
1605 Fog 2 1039 100 4000 2.6 50 07:24 10.06.2020
1606 Fog 2 1039 100 4000 2.6 50 06:59 10.06.2020
1607 Fog 2 1039 100 4000 2.6 50 06:40 10.06.2020
1608 Clouds 2 1038 69 10000 3.6 80 06:19 10.06.2020
1609 Clouds 2 1038 69 10000 3.6 80 05:54 10.06.2020
1610 Clouds 2 1038 69 10000 3.6 80 05:19 10.06.2020
1611 Clouds 4 1038 51 10000 4.1 80 04:29 10.06.2020
1612 Clouds 8 1038 31 10000 1 0 02:46 10.06.2020
1613 Clouds 10 1037 27 10000 3.1 120 01:48 10.06.2020
1614 Clouds 14 1037 14 10000 1 0 01:21 10.06.2020
1615 Clouds 14 1037 14 10000 1 0 00:38 10.06.2020
1616 Clouds 17 1037 11 10000 2.1 230 00:20 10.06.2020
1617 Clouds 17 1037 11 10000 2.1 230 23:43 09.06.2020
1618 Clouds 17 1037 11 10000 2.1 230 23:23 09.06.2020
1619 Clouds 16 1037 13 10000 4.6 210 22:57 09.06.2020
1620 Clouds 16 1037 13 10000 4.6 210 22:57 09.06.2020
1621 Clouds 16 1037 13 10000 4.6 210 22:39 09.06.2020
1622 Clouds 16 1037 13 10000 4.6 210 22:20 09.06.2020
1623 Clouds 16 1038 15 10000 3.6 220 21:57 09.06.2020
1624 Clouds 16 1038 15 10000 3.6 220 21:39 09.06.2020
1625 Clouds 16 1038 15 10000 3.6 220 21:21 09.06.2020
1626 Clouds 16 1039 15 10000 3.6 230 20:58 09.06.2020
1627 Clouds 16 1039 15 10000 3.6 230 20:39 09.06.2020
1628 Clouds 16 1039 15 10000 3.6 230 20:20 09.06.2020
1629 Clouds 15 1040 15 10000 2.1 250 19:59 09.06.2020
1630 Clouds 15 1040 15 10000 2.1 250 19:39 09.06.2020
1631 Clouds 15 1040 15 10000 2.1 250 19:20 09.06.2020
1632 Clouds 14 1041 26 10000 2.1 250 18:57 09.06.2020
1633 Clouds 14 1041 26 10000 2.1 250 18:39 09.06.2020
1634 Clouds 11 1042 32 10000 1.5 230 18:19 09.06.2020
1635 Clouds 11 1042 32 10000 1.5 230 17:55 09.06.2020
1636 Clouds 11 1042 32 10000 1.5 230 17:37 09.06.2020
1637 Clouds 11 1042 32 10000 1.5 230 17:18 09.06.2020
1638 Clouds 9 1042 31 10000 3.1 220 16:42 09.06.2020
1639 Clouds 9 1042 31 10000 3.1 220 16:23 09.06.2020
1640 Clear 8 1042 52 10000 2.1 230 15:56 09.06.2020
1641 Clear 8 1042 52 10000 2.1 230 15:37 09.06.2020
1642 Clear 8 1042 52 10000 2.1 230 15:19 09.06.2020
1643 Clouds 5 1041 56 10000 2.6 360 14:41 09.06.2020
1644 Clouds 5 1041 56 10000 2.6 360 14:21 09.06.2020
1645 Clouds 3 1040 59 10000 3.1 20 13:58 09.06.2020
1646 Clouds 3 1040 59 10000 3.1 20 13:40 09.06.2020
1647 Clouds -3 1040 79 10000 2.1 40 13:21 09.06.2020
1648 Clouds -3 1040 79 10000 2.1 40 12:44 09.06.2020
1649 Clouds -3 1040 79 10000 2.1 40 12:21 09.06.2020
1650 Clouds -3 1039 79 10000 1 0 11:59 09.06.2020
1651 Clouds -3 1039 79 10000 1 0 11:41 09.06.2020
1652 Clouds -3 1039 79 10000 1 0 11:20 09.06.2020
1653 Clouds -1 1039 74 10000 1 0 10:58 09.06.2020
1654 Clouds -1 1039 74 10000 1 0 10:40 09.06.2020
1655 Clouds -1 1039 74 10000 1 0 10:21 09.06.2020
1656 Clouds 0 1040 76 10000 2.1 50 09:43 09.06.2020
1657 Clouds 0 1040 76 10000 2.1 50 09:24 09.06.2020
1658 Clouds 0 1040 75 10000 1.5 70 08:56 09.06.2020
1659 Clouds 0 1040 75 10000 1.5 70 08:37 09.06.2020
1660 Clouds 0 1040 72 10000 1.5 70 08:19 09.06.2020
1661 Clouds 1 1040 80 10000 2.6 70 07:37 09.06.2020
1662 Clouds 1 1041 86 10000 1 0 07:19 09.06.2020
1663 Clouds 1 1041 86 10000 1 0 06:52 09.06.2020
1664 Clouds 1 1041 86 10000 1 0 06:33 09.06.2020
1665 Clouds 3 1040 69 10000 2.1 90 04:57 09.06.2020
1666 Clouds 7 1040 52 10000 2.6 70 02:52 09.06.2020
1667 Clouds 11 1039 40 10000 2.6 120 01:41 09.06.2020
1668 Clouds 13 1039 32 10000 4.1 140 01:19 09.06.2020
1669 Clouds 13 1039 32 10000 4.1 140 00:45 09.06.2020
1670 Clouds 16 1039 15 10000 3.6 180 00:20 09.06.2020
1671 Clouds 16 1039 15 10000 3.6 180 23:54 08.06.2020
1672 Clouds 16 1039 15 10000 3.6 180 23:36 08.06.2020
1673 Clouds 16 1039 15 10000 3.6 180 23:18 08.06.2020
1674 Clouds 18 1039 13 10000 2.1 200 22:39 08.06.2020
1675 Clouds 18 1039 13 10000 2.1 200 22:20 08.06.2020
1676 Clouds 17 1040 14 10000 2.1 240 21:57 08.06.2020
1677 Clouds 17 1040 14 10000 2.1 240 21:38 08.06.2020
1678 Clouds 17 1040 14 10000 2.1 240 21:20 08.06.2020
1679 Clouds 17 1041 17 10000 3.1 240 20:55 08.06.2020
1680 Clouds 17 1041 17 10000 3.1 240 20:37 08.06.2020
1681 Clouds 15 1042 22 10000 2.6 220 20:18 08.06.2020
1682 Clouds 15 1042 22 10000 2.6 220 19:43 08.06.2020
1683 Clouds 15 1043 26 10000 2.6 180 19:22 08.06.2020
1684 Clouds 15 1043 26 10000 2.6 180 18:44 08.06.2020
1685 Clouds 12 1043 37 10000 2.1 240 18:23 08.06.2020
1686 Clouds 12 1043 37 10000 2.1 240 17:58 08.06.2020
1687 Clouds 14 1019 39 0 1.97 166 17:40 08.06.2020
1688 Clouds 10 1043 44 10000 1 0 17:22 08.06.2020
1689 Clouds 10 1043 44 10000 1 0 16:59 08.06.2020
1690 Clouds 10 1043 44 10000 1 0 16:41 08.06.2020
1691 Clouds 10 1043 49 10000 1 0 16:22 08.06.2020
1692 Clouds 9 1043 49 10000 1 0 15:44 08.06.2020
1693 Clouds 9 1043 54 10000 1 0 15:22 08.06.2020
1694 Clouds 4 1042 64 10000 1 0 14:59 08.06.2020
1695 Clouds 4 1042 64 10000 1 0 14:39 08.06.2020
1696 Clouds 4 1042 64 10000 1 0 14:20 08.06.2020
1697 Clouds 4 1041 64 10000 2.6 10 13:44 08.06.2020
1698 Clouds 4 1041 64 10000 2.6 10 13:44 08.06.2020
1699 Clouds 4 1041 64 10000 2.6 10 13:24 08.06.2020
1700 Clouds 3 1040 69 10000 3.1 10 12:43 08.06.2020
1701 Clouds 4 1040 69 10000 2.1 10 12:21 08.06.2020
1702 Clouds 4 1040 69 10000 2.1 10 11:59 08.06.2020
1703 Clouds 4 1040 69 10000 2.1 10 11:40 08.06.2020
1704 Clouds 4 1040 69 10000 2.1 10 11:22 08.06.2020
1705 Clouds 3 1041 74 10000 2.1 20 10:58 08.06.2020
1706 Clouds 3 1041 74 10000 2.1 20 10:38 08.06.2020
1707 Clouds 3 1041 74 10000 2.1 20 10:20 08.06.2020
1708 Clouds 1 1041 80 10000 1.5 90 10:20 08.06.2020
1709 Clouds 1 1041 80 10000 1.5 90 09:57 08.06.2020
1710 Clouds 1 1041 80 10000 1.5 90 09:57 08.06.2020
1711 Clouds 1 1041 80 10000 1.5 90 09:57 08.06.2020
1712 Clouds 1 1041 80 10000 1.5 90 09:39 08.06.2020
1713 Clouds 1 1041 80 10000 1.5 90 09:20 08.06.2020
1714 Clouds 3 1041 74 10000 1.5 20 08:42 08.06.2020
1715 Clouds 4 1042 86 10000 2.6 50 08:20 08.06.2020
1716 Clouds 4 1042 86 10000 2.6 50 07:43 08.06.2020
1717 Clouds 6 1042 81 10000 2.6 60 07:21 08.06.2020
1718 Clouds 6 1042 81 10000 2.6 60 06:48 08.06.2020
1719 Clouds 6 1042 81 10000 2.6 60 06:28 08.06.2020
1720 Clouds 5 1041 60 10000 1 0 05:43 08.06.2020
1721 Clouds 8 1041 52 10000 2.6 10 04:27 08.06.2020
1722 Clouds 6 1040 60 10000 2.1 70 02:32 08.06.2020
1723 Clouds 10 1039 46 10000 3.1 110 01:45 08.06.2020
1724 Clouds 10 1039 46 10000 3.1 110 01:25 08.06.2020
1725 Clouds 13 1039 35 10000 3.1 280 00:28 08.06.2020
1726 Clouds 13 1039 35 10000 3.1 280 00:28 08.06.2020
1727 Clouds 16 1039 26 10000 4.6 280 23:41 07.06.2020
1728 Clouds 16 1039 26 10000 4.6 280 23:19 07.06.2020
1729 Clouds 17 1039 23 10000 3.1 260 22:59 07.06.2020
1730 Clouds 17 1039 23 10000 3.1 260 22:59 07.06.2020
1731 Clouds 17 1039 23 10000 3.1 260 22:39 07.06.2020
1732 Clouds 17 1039 23 10000 3.1 260 22:19 07.06.2020
1733 Clouds 17 1040 21 10000 4.1 270 21:58 07.06.2020
1734 Clouds 17 1040 21 10000 4.1 270 21:37 07.06.2020
1735 Clouds 17 1040 21 10000 4.1 270 21:19 07.06.2020
1736 Clouds 16 1040 25 10000 4.6 300 20:54 07.06.2020
1737 Clouds 16 1040 25 10000 4.6 300 20:36 07.06.2020
1738 Clouds 16 1040 25 10000 4.6 300 20:18 07.06.2020
1739 Clouds 15 1041 33 10000 2.1 270 19:54 07.06.2020
1740 Clouds 15 1041 33 10000 2.1 270 19:36 07.06.2020
1741 Clouds 13 1042 43 10000 3.6 290 19:18 07.06.2020
1742 Clouds 13 1042 43 10000 3.6 290 18:39 07.06.2020
1743 Clouds 11 1043 41 10000 4.1 290 18:21 07.06.2020
1744 Clouds 11 1043 41 10000 4.1 290 17:58 07.06.2020
1745 Clouds 11 1043 41 10000 4.1 290 17:38 07.06.2020
1746 Clouds 11 1043 45 10000 4.1 290 17:20 07.06.2020
1747 Clouds 9 1043 45 10000 1 0 16:43 07.06.2020
1748 Clouds 9 1043 49 10000 1 0 16:22 07.06.2020
1749 Clouds 7 1043 56 10000 1 0 15:44 07.06.2020
1750 Clouds 7 1043 56 10000 1 0 15:22 07.06.2020
1751 Clouds 3 1042 69 10000 1 0 14:41 07.06.2020
1752 Clouds 3 1042 69 10000 1 0 14:23 07.06.2020
1753 Clouds 3 1042 69 10000 1 0 14:23 07.06.2020
1754 Clouds 3 1042 69 10000 1 0 14:23 07.06.2020
1755 Clouds 3 1042 69 10000 1 0 14:23 07.06.2020
1756 Clouds 0 1041 59 10000 1 0 13:55 07.06.2020
1757 Clouds 0 1041 78 10000 1 0 13:24 07.06.2020
1758 Clouds 2 1041 74 10000 2.1 360 12:59 07.06.2020
1759 Clouds 2 1041 74 10000 2.1 360 12:40 07.06.2020
1760 Clouds 0 1041 76 10000 0.24 155 12:22 07.06.2020
1761 Clouds 0 1041 76 10000 0.24 155 12:22 07.06.2020
1762 Clouds 0 1041 76 10000 0.24 155 11:55 07.06.2020
1763 Clouds 0 1041 76 10000 0.24 155 11:37 07.06.2020
1764 Clouds 0 1041 75 10000 0.18 347 11:19 07.06.2020
1765 Clouds 0 1041 75 10000 0.18 347 11:19 07.06.2020
1766 Clouds 4 1022 75 0 0.18 347 10:45 07.06.2020
1767 Clouds 4 1041 100 10000 1.5 50 10:22 07.06.2020
1768 Clouds 4 1041 100 10000 1.5 50 09:59 07.06.2020
1769 Clouds 4 1041 100 10000 1.5 50 09:40 07.06.2020
1770 Clouds 4 1041 100 10000 1.5 50 09:21 07.06.2020
1771 Fog 1 1041 73 3000 3.1 80 08:58 07.06.2020
1772 Fog 1 1041 73 3000 3.1 80 08:40 07.06.2020
1773 Fog 1 1041 70 3000 3.1 80 08:21 07.06.2020
1774 Fog 3 1041 100 2500 3.1 70 07:39 07.06.2020
1775 Clouds 1 1041 86 10000 2.6 80 06:55 07.06.2020
1776 Clouds 6 1041 70 10000 2.6 20 05:54 07.06.2020
1777 Clouds 6 1041 87 10000 2.1 90 04:22 07.06.2020
1778 Clouds 6 1041 87 10000 2.1 90 03:48 07.06.2020
1779 Clouds 7 1040 70 10000 2.6 120 02:18 07.06.2020
1780 Clouds 9 1039 61 10000 2.6 130 01:25 07.06.2020
1781 Clouds 13 1038 26 10000 4.1 300 00:48 07.06.2020
1782 Clouds 13 1038 26 10000 4.1 300 00:20 07.06.2020
1783 Clouds 15 1038 24 10000 5.7 300 23:59 06.06.2020
1784 Clouds 15 1038 24 10000 5.7 300 23:38 06.06.2020
1785 Clouds 15 1038 24 10000 5.7 300 23:19 06.06.2020
1786 Clouds 14 1038 26 10000 7.2 300 22:56 06.06.2020
1787 Clouds 14 1038 26 10000 7.2 300 22:38 06.06.2020
1788 Clouds 14 1038 26 10000 7.2 300 22:19 06.06.2020
1789 Clouds 15 1039 28 10000 7.2 300 21:46 06.06.2020
1790 Clouds 15 1039 28 10000 7.2 300 21:22 06.06.2020
1791 Clouds 15 1039 28 10000 7.2 300 21:22 06.06.2020
1792 Clouds 12 1040 46 10000 6.2 290 20:58 06.06.2020
1793 Clouds 12 1040 46 10000 6.2 290 20:39 06.06.2020
1794 Clouds 11 1041 44 10000 5.1 330 20:18 06.06.2020
1795 Clouds 11 1041 44 10000 5.1 330 19:57 06.06.2020
1796 Clouds 11 1041 44 10000 5.1 330 19:38 06.06.2020
1797 Clouds 11 1042 46 10000 6.7 270 19:20 06.06.2020
1798 Clouds 11 1042 46 10000 6.7 270 18:43 06.06.2020
1799 Clouds 11 1042 51 10000 6.7 270 18:24 06.06.2020
1800 Clouds 12 1042 51 10000 3.1 290 17:58 06.06.2020
1801 Clouds 12 1042 51 10000 3.1 290 17:40 06.06.2020
1802 Clouds 9 1043 61 10000 4.1 290 17:19 06.06.2020
1803 Clouds 9 1043 61 10000 4.1 290 16:44 06.06.2020
1804 Clouds 9 1043 61 10000 4.1 290 16:22 06.06.2020
1805 Rain 7 1042 81 8000 2.6 260 15:58 06.06.2020
1806 Rain 7 1042 81 8000 2.6 260 15:40 06.06.2020
1807 Rain 7 1042 81 8000 2.6 260 15:20 06.06.2020
1808 Rain 5 1041 93 8000 1 0 14:43 06.06.2020
1809 Rain 5 1041 93 8000 1 0 14:25 06.06.2020
1810 Clouds 4 1040 86 8000 2.6 270 13:59 06.06.2020
1811 Clouds 4 1040 86 8000 2.6 270 13:40 06.06.2020
1812 Fog 5 1039 86 4000 2.6 50 13:18 06.06.2020
1813 Fog 5 1039 86 4000 2.6 50 13:18 06.06.2020
1814 Fog 5 1039 86 4000 2.6 50 12:43 06.06.2020
1815 Fog 5 1039 86 4000 2.6 50 12:23 06.06.2020
1816 Fog 5 1039 86 4000 1.5 70 11:58 06.06.2020
1817 Fog 5 1039 86 4000 1.5 70 11:38 06.06.2020
1818 Fog 5 1039 86 4000 1.5 70 11:20 06.06.2020
1819 Fog 4 1039 86 4000 1.5 70 10:58 06.06.2020
1820 Fog 4 1039 86 4000 1.5 70 10:39 06.06.2020
1821 Fog 4 1039 86 4000 1.5 70 10:21 06.06.2020
1822 Fog 5 1040 86 4000 1 0 09:46 06.06.2020
1823 Fog 5 1040 86 4000 1 0 09:27 06.06.2020
1824 Fog 5 1040 93 4000 2.6 90 08:58 06.06.2020
1825 Fog 5 1040 93 4000 2.6 90 08:40 06.06.2020
1826 Fog 5 1040 93 4000 2.6 90 08:19 06.06.2020
1827 Fog 5 1040 93 4000 1.5 70 08:19 06.06.2020
1828 Fog 5 1040 93 4000 1.5 70 07:45 06.06.2020
1829 Fog 5 1040 93 4000 1.5 70 07:21 06.06.2020
1830 Fog 5 1040 93 4000 3.6 90 06:46 06.06.2020
1831 Fog 5 1040 93 4000 3.6 90 06:27 06.06.2020
1832 Fog 6 1040 87 4000 3.6 80 05:52 06.06.2020
1833 Fog 6 1040 87 4000 3.6 80 05:26 06.06.2020
1834 Fog 5 1040 100 3000 4.1 90 04:42 06.06.2020
1835 Clouds 6 1038 81 10000 3.1 80 02:45 06.06.2020
1836 Clouds 8 1038 65 10000 2.6 70 01:45 06.06.2020
1837 Clouds 12 1038 70 10000 3.1 280 01:18 06.06.2020
1838 Clouds 12 1038 70 10000 3.1 280 00:43 06.06.2020
1839 Clouds 12 1038 64 10000 3.1 280 00:25 06.06.2020
1840 Clouds 14 1038 35 10000 5.7 290 23:40 05.06.2020
1841 Clouds 14 1038 35 10000 5.7 290 23:21 05.06.2020
1842 Clouds 15 1037 33 10000 5.7 290 22:59 05.06.2020
1843 Clouds 15 1037 33 10000 5.7 290 22:41 05.06.2020
1844 Clouds 15 1037 33 10000 5.7 290 22:23 05.06.2020
1845 Clouds 15 1037 33 10000 5.1 280 21:57 05.06.2020
1846 Clouds 15 1037 33 10000 5.1 280 21:57 05.06.2020
1847 Clouds 15 1037 33 10000 5.1 280 21:39 05.06.2020
1848 Clouds 15 1037 33 10000 5.1 280 21:19 05.06.2020
1849 Clouds 15 1038 33 10000 5.1 280 20:55 05.06.2020
1850 Clouds 15 1038 33 10000 5.1 280 20:37 05.06.2020
1851 Clouds 14 1039 33 10000 5.7 280 20:18 05.06.2020
1852 Clouds 14 1039 33 10000 5.7 280 19:40 05.06.2020
1853 Clouds 13 1040 32 10000 6.2 290 19:21 05.06.2020
1854 Clouds 13 1040 32 10000 6.2 290 18:40 05.06.2020
1855 Clouds 12 1041 37 10000 4.6 280 18:21 05.06.2020
1856 Clouds 12 1041 37 10000 4.6 280 17:59 05.06.2020
1857 Clouds 12 1041 37 10000 4.6 280 17:41 05.06.2020
1858 Clouds 12 1041 37 10000 4.6 280 17:21 05.06.2020
1859 Clouds 9 1041 45 10000 3.6 260 16:58 05.06.2020
1860 Clouds 9 1041 45 10000 3.6 260 16:37 05.06.2020
1861 Clouds 9 1041 45 10000 3.6 260 16:19 05.06.2020
1862 Clouds 7 1040 56 10000 2.6 260 15:39 05.06.2020
1863 Clouds 7 1040 56 10000 2.6 260 15:20 05.06.2020
1864 Clouds 3 1039 57 10000 1 0 14:57 05.06.2020
1865 Clouds 3 1039 57 10000 1 0 14:39 05.06.2020
1866 Clouds 3 1039 67 10000 1 0 14:21 05.06.2020
1867 Clouds 1 1039 67 10000 1.5 50 13:46 05.06.2020
1868 Clouds 1 1039 83 10000 1.5 50 13:27 05.06.2020
1869 Clouds 2 1038 80 10000 1.5 100 12:56 05.06.2020
1870 Clouds 2 1038 80 10000 1.5 100 12:37 05.06.2020
1871 Clouds 2 1038 80 10000 1.5 100 12:18 05.06.2020
1872 Clouds 3 1038 82 10000 1.5 90 11:42 05.06.2020
1873 Clouds 3 1038 83 10000 1.5 90 11:23 05.06.2020
1874 Clouds 3 1038 86 10000 2.1 70 10:57 05.06.2020
1875 Clouds 3 1038 86 10000 2.1 70 10:39 05.06.2020
1876 Clouds 3 1038 86 10000 2.1 70 10:19 05.06.2020
1877 Clouds 2 1038 80 10000 2.1 80 09:56 05.06.2020
1878 Clouds 2 1038 80 10000 2.1 80 09:37 05.06.2020
1879 Clouds 2 1038 80 10000 2.1 80 09:18 05.06.2020
1880 Clouds 4 1038 80 10000 2.6 70 08:56 05.06.2020
1881 Clouds 4 1038 80 10000 2.6 70 08:38 05.06.2020
1882 Clouds 5 1038 80 10000 2.1 80 08:18 05.06.2020
1883 Clouds 5 1038 80 10000 2.1 80 07:44 05.06.2020
1884 Clouds 6 1038 38 10000 2.1 150 07:25 05.06.2020
1885 Clouds 6 1038 38 10000 2.1 150 06:36 05.06.2020
1886 Clouds 4 1038 69 10000 1.5 80 05:22 05.06.2020
1887 Clouds 7 1038 26 10000 2.6 180 04:27 05.06.2020
1888 Clouds 8 1037 33 10000 3.1 220 03:19 05.06.2020
1889 Clouds 8 1036 45 10000 1 0 02:25 05.06.2020
1890 Clouds 8 1035 42 10000 2.6 300 01:56 05.06.2020
1891 Clouds 8 1035 42 10000 2.6 300 01:27 05.06.2020
1892 Clouds 9 1035 36 10000 5.7 300 00:42 05.06.2020
1893 Clouds 11 1035 29 10000 8.7 300 00:21 05.06.2020
1894 Clouds 11 1035 29 10000 8.7 300 23:46 04.06.2020
1895 Clouds 11 1035 29 10000 8.7 300 23:28 04.06.2020
1896 Clouds 13 1035 28 10000 9.8 290 22:56 04.06.2020
1897 Clouds 13 1035 28 10000 9.8 290 22:36 04.06.2020
1898 Clouds 12 1036 30 10000 10.8 300 22:18 04.06.2020
1899 Clouds 12 1036 30 10000 10.8 300 21:56 04.06.2020
1900 Clouds 12 1036 30 10000 10.8 300 21:36 04.06.2020
1901 Clouds 12 1036 30 10000 10.8 300 21:18 04.06.2020
1902 Clouds 13 1037 32 10000 8.7 290 20:40 04.06.2020
1903 Clouds 13 1037 32 10000 8.7 290 20:22 04.06.2020
1904 Clouds 11 1038 34 10000 9.3 290 19:59 04.06.2020
1905 Clouds 11 1038 34 10000 9.3 290 19:39 04.06.2020
1906 Clouds 11 1039 37 10000 8.2 290 19:21 04.06.2020
1907 Clouds 11 1039 37 10000 8.2 290 18:56 04.06.2020
1908 Clouds 11 1039 37 10000 8.2 290 18:37 04.06.2020
1909 Clouds 11 1039 34 10000 5.7 300 18:19 04.06.2020
1910 Clouds 11 1039 34 10000 5.7 300 17:42 04.06.2020
1911 Clouds 11 1039 34 10000 5.7 300 17:21 04.06.2020
1912 Clouds 9 1040 45 10000 4.1 280 16:55 04.06.2020
1913 Clouds 9 1040 45 10000 4.1 280 16:37 04.06.2020
1914 Clouds 9 1040 45 10000 4.1 280 16:18 04.06.2020
1915 Clouds 6 1039 56 10000 2.6 270 15:41 04.06.2020
1916 Clouds 6 1039 56 10000 2.6 270 15:22 04.06.2020
1917 Clouds 3 1038 69 10000 2.1 250 14:39 04.06.2020
1918 Clouds 3 1038 69 10000 2.1 250 14:20 04.06.2020
1919 Clouds 1 1037 80 10000 1.5 290 13:56 04.06.2020
1920 Clouds 1 1037 80 10000 1.5 290 13:37 04.06.2020
1921 Clouds -2 1036 86 10000 0.79 136 13:19 04.06.2020
1922 Clouds -2 1036 86 10000 0.79 136 12:54 04.06.2020
1923 Clouds -2 1036 86 10000 0.79 136 12:36 04.06.2020
1924 Clouds -1 1036 86 10000 1 0 12:18 04.06.2020
1925 Clouds -1 1036 86 10000 1 0 11:39 04.06.2020
1926 Clouds -1 1036 86 10000 1 0 11:20 04.06.2020
1927 Fog 0 1036 80 4000 1 0 10:58 04.06.2020
1928 Fog 0 1036 80 4000 1 0 10:38 04.06.2020
1929 Fog 0 1036 80 4000 1 0 10:19 04.06.2020
1930 Fog 1 1036 80 4000 1.5 70 09:45 04.06.2020
1931 Fog 1 1036 80 4000 1.5 70 09:45 04.06.2020
1932 Fog 1 1036 81 4000 1.5 70 09:27 04.06.2020
1933 Fog 0 1036 75 4000 2.1 70 08:46 04.06.2020
1934 Fog 0 1036 75 4000 2.1 70 08:27 04.06.2020
1935 Fog 0 1036 75 4000 2.1 80 07:52 04.06.2020
1936 Clouds 1 1037 47 10000 1 0 07:29 04.06.2020
1937 Clouds 1 1037 47 10000 1 0 06:44 04.06.2020
1938 Clouds 6 1037 33 10000 2.6 130 06:26 04.06.2020
1939 Clouds 6 1037 33 10000 2.6 130 05:39 04.06.2020
1940 Clouds 6 1037 33 10000 2.6 130 05:20 04.06.2020
1941 Clouds 7 1035 33 10000 4.1 240 03:25 04.06.2020
1942 Clouds 9 1034 34 10000 3.1 330 01:57 04.06.2020
1943 Clouds 10 1033 31 10000 5.7 310 01:20 04.06.2020
1944 Clouds 10 1033 31 10000 5.7 310 00:48 04.06.2020
1945 Clouds 11 1033 25 10000 7.7 300 23:44 03.06.2020
1946 Clouds 11 1033 25 10000 7.7 300 23:21 03.06.2020
1947 Clouds 12 1033 23 10000 10.8 290 22:59 03.06.2020
1948 Clouds 12 1033 23 10000 10.8 290 22:39 03.06.2020
1949 Clouds 13 1034 19 10000 10.3 280 22:19 03.06.2020
1950 Clouds 12 1033 23 10000 10.8 290 22:19 03.06.2020
1951 Clouds 13 1034 19 10000 10.3 280 21:57 03.06.2020
1952 Clouds 13 1034 19 10000 10.3 280 21:39 03.06.2020
1953 Clouds 13 1034 19 10000 10.3 280 21:20 03.06.2020
1954 Clouds 13 1035 19 10000 8.7 290 20:55 03.06.2020
1955 Clouds 13 1035 19 10000 8.7 290 20:37 03.06.2020
1956 Clouds 12 1035 20 10000 8.2 290 20:19 03.06.2020
1957 Clouds 12 1035 20 10000 8.2 290 19:55 03.06.2020
1958 Clouds 12 1035 20 10000 8.2 290 19:36 03.06.2020
1959 Clouds 11 1037 21 10000 7.2 290 19:18 03.06.2020
1960 Clouds 11 1037 21 10000 7.2 290 19:18 03.06.2020
1961 Clouds 11 1037 21 10000 7.2 290 18:41 03.06.2020
1962 Clouds 10 1038 25 10000 7.7 290 18:22 03.06.2020
1963 Clouds 10 1038 25 10000 7.7 290 17:57 03.06.2020
1964 Clouds 10 1038 25 10000 7.7 290 17:37 03.06.2020
1965 Clouds 10 1038 25 10000 7.7 290 17:18 03.06.2020
1966 Clouds 7 1038 33 10000 5.1 280 16:42 03.06.2020
1967 Clouds 7 1038 33 10000 5.1 280 16:20 03.06.2020
1968 Clouds 6 1038 33 10000 3.6 290 15:57 03.06.2020
1969 Clouds 6 1038 33 10000 3.6 290 15:38 03.06.2020
1970 Clouds 6 1038 33 10000 3.6 290 15:20 03.06.2020
1971 Clouds 1 1037 55 10000 1 0 14:46 03.06.2020
1972 Clouds 1 1037 55 10000 1 0 14:24 03.06.2020
1973 Clouds -4 1036 53 10000 1.66 274 13:55 03.06.2020
1974 Clouds -4 1036 53 10000 1.66 274 13:37 03.06.2020
1975 Clouds -1 1036 46 10000 1.5 10 13:18 03.06.2020
1976 Clouds -1 1036 46 10000 1.5 10 12:42 03.06.2020
1977 Clouds 0 1036 79 10000 1.5 350 12:20 03.06.2020
1978 Clouds 0 1036 79 10000 1.5 350 11:44 03.06.2020
1979 Clouds 0 1036 77 10000 1.5 350 11:26 03.06.2020
1980 Clear 0 1036 77 10000 2.1 350 10:55 03.06.2020
1981 Clear 0 1036 77 10000 2.1 350 10:36 03.06.2020
1982 Clouds 0 1036 76 10000 2.1 350 10:18 03.06.2020
1983 Clouds 1 1020 76 0 1.1 268 09:41 03.06.2020
1984 Clouds 1 1020 71 0 1.06 239 09:19 03.06.2020
1985 Clouds 1 1020 71 0 1.06 239 08:47 03.06.2020
1986 Clear 1 1036 40 10000 1.5 360 08:22 03.06.2020
1987 Clear 1 1036 40 10000 1.5 360 07:58 03.06.2020
1988 Clear -3 1037 45 10000 1 0 07:36 03.06.2020
1989 Clear -3 1037 45 10000 1 0 07:18 03.06.2020
1990 Clear -3 1037 45 10000 1 0 06:44 03.06.2020
1991 Clear 0 1037 65 10000 1 0 06:22 03.06.2020
1992 Clear 0 1037 65 10000 1 0 05:44 03.06.2020
1993 Clear 5 1036 30 10000 1.5 210 04:20 03.06.2020
1994 Clear 5 1036 30 10000 1.5 210 03:41 03.06.2020
1995 Clear 6 1035 26 10000 2.6 250 02:34 03.06.2020
1996 Clear 8 1034 24 10000 3.6 310 01:42 03.06.2020
1997 Clear 10 1034 16 10000 5.1 300 00:38 03.06.2020
1998 Clear 12 1035 14 10000 6.2 300 00:19 03.06.2020
1999 Clear 12 1035 14 10000 6.2 300 23:43 02.06.2020
2000 Clear 12 1035 14 10000 6.2 300 23:24 02.06.2020
2001 Clear 12 1034 14 10000 6.2 310 22:40 02.06.2020
2002 Clear 12 1034 14 10000 6.2 310 22:19 02.06.2020
2003 Clouds 13 1035 15 10000 5.7 300 21:57 02.06.2020
2004 Clouds 13 1035 15 10000 5.7 300 21:39 02.06.2020
2005 Clouds 13 1035 15 10000 5.7 300 21:21 02.06.2020
2006 Clouds 13 1035 15 10000 5.7 300 21:21 02.06.2020
2007 Clouds 13 1035 15 10000 5.7 300 21:21 02.06.2020
2008 Clouds 11 1036 17 10000 7.7 290 20:59 02.06.2020
2009 Clouds 11 1036 17 10000 7.7 290 20:40 02.06.2020
2010 Clouds 11 1036 17 10000 7.7 290 20:22 02.06.2020
2011 Clouds 11 1038 15 10000 7.7 290 19:45 02.06.2020
2012 Clouds 10 1039 21 10000 6.7 290 19:26 02.06.2020
2013 Clouds 10 1039 21 10000 6.7 290 18:59 02.06.2020
2014 Clouds 10 1039 21 10000 6.7 290 18:40 02.06.2020
2015 Clear 9 1040 24 10000 6.7 290 18:20 02.06.2020
2016 Clear 9 1040 24 10000 6.7 290 17:59 02.06.2020
2017 Clear 9 1040 24 10000 6.7 290 17:40 02.06.2020
2018 Clear 9 1040 24 10000 6.7 290 17:21 02.06.2020
2019 Clear 7 1040 33 10000 4.1 300 16:55 02.06.2020
2020 Clear 7 1040 33 10000 4.1 300 16:37 02.06.2020
2021 Clear 7 1040 33 10000 4.1 300 16:19 02.06.2020
2022 Clouds 5 1040 41 10000 2.1 250 15:40 02.06.2020
2023 Clouds 5 1040 41 10000 2.1 250 15:21 02.06.2020
2024 Clouds 0 1039 56 10000 1 0 14:47 02.06.2020
2025 Clouds 0 1039 63 10000 1 0 14:28 02.06.2020
2026 Clouds -3 1039 58 10000 1 0 13:55 02.06.2020
2027 Clouds -3 1039 58 10000 1 0 13:37 02.06.2020
2028 Clouds -2 1038 58 10000 1.5 290 13:18 02.06.2020
2029 Clouds -2 1038 58 10000 1.5 290 12:56 02.06.2020
2030 Clouds -2 1038 58 10000 1.5 290 12:37 02.06.2020
2031 Clouds -2 1038 58 10000 1.5 290 12:19 02.06.2020
2032 Clouds -4 1038 62 10000 0.75 288 11:41 02.06.2020
2033 Clouds -4 1038 62 10000 0.32 285 11:22 02.06.2020
2034 Clouds -2 1038 54 10000 1 0 10:56 02.06.2020
2035 Clouds -2 1038 54 10000 1 0 10:56 02.06.2020
2036 Clouds -1 1038 50 10000 0.32 285 10:38 02.06.2020
2037 Clouds -1 1038 50 10000 0.25 235 10:20 02.06.2020
2038 Clouds -1 1038 50 10000 0.25 235 09:43 02.06.2020
2039 Clouds -1 1038 50 10000 0.49 180 09:21 02.06.2020
2040 Clouds -1 1038 50 10000 0.49 180 09:21 02.06.2020
2041 Clouds 1 1039 47 10000 1 0 08:54 02.06.2020
2042 Clouds 1 1039 47 10000 1 0 08:28 02.06.2020
2043 Clouds 1 1039 47 10000 1 0 07:58 02.06.2020
2044 Clouds 2 1039 43 10000 1.5 100 07:33 02.06.2020
2045 Clouds 2 1040 43 10000 1.5 120 06:59 02.06.2020
2046 Clouds 2 1040 43 10000 1.5 120 06:37 02.06.2020
2047 Clouds 4 1040 38 10000 1.5 100 05:37 02.06.2020
2048 Clouds 4 1040 38 10000 1.5 220 04:20 02.06.2020
2049 Clouds 7 1038 30 10000 4.1 210 02:37 02.06.2020
2050 Clouds 9 1037 29 10000 7.7 240 01:48 02.06.2020
2051 Clouds 11 1035 25 10000 5.1 280 00:40 02.06.2020
2052 Clouds 13 1035 22 10000 6.7 290 00:20 02.06.2020
2053 Clouds 13 1035 22 10000 6.7 290 23:39 01.06.2020
2054 Clouds 13 1035 22 10000 6.7 290 23:19 01.06.2020
2055 Clouds 14 1035 19 10000 7.7 290 22:56 01.06.2020
2056 Clouds 14 1035 19 10000 7.7 290 22:56 01.06.2020
2057 Clouds 14 1035 19 10000 7.7 290 22:37 01.06.2020
2058 Clouds 14 1035 19 10000 7.7 290 22:18 01.06.2020
2059 Clouds 13 1035 22 10000 9.3 280 21:41 01.06.2020
2060 Clouds 13 1035 22 10000 9.3 280 21:20 01.06.2020
2061 Clouds 13 1037 26 10000 8.2 290 20:58 01.06.2020
2062 Clear 13 1014 36 0 10.05 290 20:40 01.06.2020
2063 Clouds 13 1038 28 10000 8.2 280 20:20 01.06.2020
2064 Clouds 13 1038 28 10000 8.2 280 20:20 01.06.2020
2065 Clouds 13 1038 28 10000 8.2 280 19:57 01.06.2020
2066 Clouds 13 1038 28 10000 8.2 280 19:39 01.06.2020
2067 Clouds 12 1039 30 10000 6.2 280 19:20 01.06.2020
2068 Clouds 12 1039 30 10000 6.2 280 18:56 01.06.2020
2069 Clouds 12 1039 30 10000 6.2 280 18:56 01.06.2020
2070 Clouds 12 1039 30 10000 6.2 280 18:38 01.06.2020
2071 Clouds 10 1040 34 10000 7.2 270 18:18 01.06.2020
2072 Clouds 10 1040 34 10000 7.2 270 17:41 01.06.2020
2073 Clouds 10 1040 34 10000 7.2 270 17:20 01.06.2020
2074 Clouds 8 1040 39 10000 2.1 260 16:42 01.06.2020
2075 Clouds 8 1040 39 10000 2.1 260 16:42 01.06.2020
2076 Clouds 8 1040 39 10000 2.1 260 16:24 01.06.2020
2077 Clouds 6 1040 45 10000 1 0 15:59 01.06.2020
2078 Clouds 6 1040 45 10000 1 0 15:40 01.06.2020
2079 Clouds 6 1040 45 10000 1 0 15:20 01.06.2020
2080 Clouds 3 1039 59 10000 2.1 10 14:58 01.06.2020
2081 Clouds 3 1039 59 10000 2.1 10 14:40 01.06.2020
2082 Clouds 3 1039 59 10000 2.1 10 14:21 01.06.2020
2083 Clouds 0 1038 67 10000 2.1 360 13:54 01.06.2020
2084 Clouds 0 1038 67 10000 2.1 360 13:36 01.06.2020
2085 Clouds 1 1038 64 10000 1.5 360 13:18 01.06.2020
2086 Clouds 1 1038 64 10000 1.5 360 12:54 01.06.2020
2087 Clouds 1 1038 64 10000 1.5 360 12:36 01.06.2020
2088 Clouds -3 1038 92 10000 1 0 12:18 01.06.2020
2089 Clouds -3 1038 92 10000 1 0 11:38 01.06.2020
2090 Fog -1 1037 100 4000 3.1 70 11:19 01.06.2020
2091 Fog -1 1037 100 4000 3.1 70 10:57 01.06.2020
2092 Fog -1 1037 100 4000 3.1 70 10:37 01.06.2020
2093 Fog 1 1038 84 4000 2.6 80 10:18 01.06.2020
2094 Fog 1 1038 84 4000 2.6 80 09:46 01.06.2020
2095 Fog 1 1038 82 4000 2.6 80 09:27 01.06.2020
2096 Fog 1 1038 100 4000 3.1 70 08:57 01.06.2020
2097 Fog 1 1038 100 4000 3.1 70 08:37 01.06.2020
2098 Fog 1 1038 100 4000 3.1 70 08:19 01.06.2020
2099 Fog 0 1039 78 4000 3.1 60 07:41 01.06.2020
2100 Fog 0 1039 74 4000 3.1 60 07:22 01.06.2020
2101 Clouds -1 1038 100 10000 3.1 70 06:49 01.06.2020
2102 Clouds 2 1038 74 10000 3.6 100 05:57 01.06.2020
2103 Clouds 2 1037 80 10000 3.6 70 04:58 01.06.2020
2104 Clouds 4 1036 69 10000 4.1 90 03:57 01.06.2020
2105 Clouds 4 1036 69 10000 4.1 90 03:39 01.06.2020
2106 Clouds 5 1035 67 10000 4.1 80 02:56 01.06.2020
2107 Clouds 11 1035 20 10000 3.6 320 01:40 01.06.2020
2108 Clouds 11 1035 20 10000 3.6 320 01:18 01.06.2020
2109 Clouds 13 1035 13 10000 5.1 290 00:46 01.06.2020
2110 Clouds 13 1035 13 10000 5.1 290 00:21 01.06.2020
2111 Clouds 14 1035 11 10000 8.2 280 23:59 31.05.2020
2112 Clouds 14 1035 11 10000 8.2 280 23:59 31.05.2020
2113 Clouds 14 1035 11 10000 8.2 280 23:40 31.05.2020
2114 Clouds 14 1035 11 10000 8.2 280 23:22 31.05.2020
2115 Clouds 15 1035 9 10000 7.7 290 22:58 31.05.2020
2116 Clouds 15 1035 9 10000 7.7 290 22:58 31.05.2020
2117 Clouds 15 1035 9 10000 7.7 290 22:58 31.05.2020
2118 Clouds 15 1035 9 10000 7.7 290 22:40 31.05.2020
2119 Clouds 15 1035 9 10000 7.7 290 22:21 31.05.2020
2120 Clouds 15 1036 6 10000 8.2 290 21:56 31.05.2020
2121 Clouds 15 1036 6 10000 8.2 290 21:38 31.05.2020
2122 Clouds 15 1036 6 10000 8.2 290 21:19 31.05.2020
2123 Clouds 16 1037 11 10000 6.7 280 20:42 31.05.2020
2124 Clouds 16 1037 11 10000 6.7 280 20:23 31.05.2020
2125 Clouds 15 1038 15 10000 6.2 290 19:56 31.05.2020
2126 Clouds 15 1038 15 10000 6.2 290 19:37 31.05.2020
2127 Clouds 15 1038 15 10000 6.2 290 19:19 31.05.2020
2128 Clouds 15 1038 15 10000 6.2 290 19:19 31.05.2020
2129 Clouds 13 1039 22 10000 4.6 260 18:44 31.05.2020
2130 Clouds 13 1039 22 10000 4.6 260 18:25 31.05.2020
2131 Clouds 12 1040 23 10000 2.6 240 17:57 31.05.2020
2132 Clouds 12 1040 23 10000 2.6 240 17:39 31.05.2020
2133 Clouds 12 1040 23 10000 2.6 240 17:19 31.05.2020
2134 Clouds 9 1040 26 10000 1 0 16:40 31.05.2020
2135 Clouds 9 1040 26 10000 1 0 16:21 31.05.2020
2136 Clouds 7 1039 30 10000 1 0 15:40 31.05.2020
2137 Clouds 7 1039 30 10000 1 0 15:22 31.05.2020
2138 Clouds 4 1039 38 10000 2.1 10 14:56 31.05.2020
2139 Clouds 4 1039 38 10000 2.1 10 14:38 31.05.2020
2140 Clouds 4 1039 38 10000 2.1 10 14:18 31.05.2020
2141 Clouds -1 1038 50 10000 1.5 10 13:54 31.05.2020
2142 Clouds -1 1038 50 10000 1.5 10 13:36 31.05.2020
2143 Clear -1 1038 50 10000 1.5 10 13:18 31.05.2020
2144 Clear 1 1038 47 10000 2.1 20 12:41 31.05.2020
2145 Clouds 1 1038 47 10000 2.1 20 12:22 31.05.2020
2146 Clouds 2 1037 40 10000 2.6 10 11:49 31.05.2020
2147 Clouds 2 1037 40 10000 2.6 10 11:24 31.05.2020
2148 Clouds 2 1037 40 10000 2.6 10 11:24 31.05.2020
2149 Clouds 2 1037 40 10000 2.6 20 10:58 31.05.2020
2150 Clouds 2 1037 40 10000 2.6 20 10:58 31.05.2020
2151 Clouds 2 1037 40 10000 2.6 20 10:39 31.05.2020
2152 Clouds 2 1037 40 10000 2.6 20 10:21 31.05.2020
2153 Clouds 2 1038 43 10000 2.6 360 09:46 31.05.2020
2154 Clouds 2 1038 43 10000 2.6 360 09:24 31.05.2020
2155 Clouds -3 1038 68 10000 1.5 50 08:59 31.05.2020
2156 Clouds -3 1038 68 10000 1.5 50 08:40 31.05.2020
2157 Clouds -3 1038 68 10000 1.5 50 08:22 31.05.2020
2158 Clouds 0 1038 76 10000 1 0 07:46 31.05.2020
2159 Clouds 0 1038 74 10000 1 0 07:21 31.05.2020
2160 Clouds 1 1038 69 10000 1 0 06:54 31.05.2020
2161 Clouds 1 1038 69 10000 1 0 06:32 31.05.2020
2162 Clouds 2 1037 74 10000 3.6 70 05:45 31.05.2020
2163 Clouds 2 1037 69 10000 4.1 80 04:33 31.05.2020
2164 Clouds 2 1037 47 10000 3.1 90 03:51 31.05.2020
2165 Clouds 3 1036 44 10000 3.1 80 02:59 31.05.2020
2166 Clouds 10 1036 29 10000 2.6 330 01:50 31.05.2020
2167 Clouds 10 1036 29 10000 2.6 330 01:28 31.05.2020
2168 Clouds 12 1036 22 10000 4.6 280 00:31 31.05.2020
2169 Clouds 15 1035 15 10000 5.7 280 23:59 30.05.2020
2170 Clouds 15 1035 15 10000 5.7 280 23:39 30.05.2020
2171 Clouds 15 1035 15 10000 5.7 280 23:21 30.05.2020
2172 Clouds 16 1035 11 10000 6.7 290 22:41 30.05.2020
2173 Clouds 16 1035 11 10000 6.7 290 22:23 30.05.2020
2174 Clouds 16 1036 17 10000 6.2 280 21:56 30.05.2020
2175 Clouds 16 1036 17 10000 6.2 280 21:37 30.05.2020
2176 Clouds 16 1036 17 10000 6.2 280 21:19 30.05.2020
2177 Clouds 16 1037 15 10000 4.6 270 20:56 30.05.2020
2178 Clouds 16 1037 15 10000 4.6 270 20:38 30.05.2020
2179 Clouds 16 1037 15 10000 4.6 270 20:20 30.05.2020
2180 Clouds 15 1038 16 10000 5.1 280 19:42 30.05.2020
2181 Clouds 15 1038 16 10000 5.1 280 19:22 30.05.2020
2182 Clouds 14 1038 16 10000 4.1 300 18:46 30.05.2020
2183 Clouds 14 1038 16 10000 4.1 300 18:24 30.05.2020
2184 Clouds 12 1039 18 10000 4.1 240 17:55 30.05.2020
2185 Clouds 12 1039 18 10000 4.1 240 17:37 30.05.2020
2186 Clouds 12 1039 18 10000 4.1 240 17:18 30.05.2020
2187 Clouds 11 1040 17 10000 3.1 250 16:43 30.05.2020
2188 Clouds 11 1040 17 10000 3.1 250 16:22 30.05.2020
2189 Clouds 9 1039 19 10000 2.1 260 15:49 30.05.2020
2190 Clouds 9 1039 19 10000 2.1 260 15:29 30.05.2020
2191 Clouds 5 1038 23 10000 2.6 10 14:59 30.05.2020
2192 Clouds 5 1038 23 10000 2.6 10 14:41 30.05.2020
2193 Clouds 5 1038 23 10000 2.6 10 14:18 30.05.2020
2194 Clouds 2 1037 31 10000 3.1 20 13:41 30.05.2020
2195 Clouds 2 1037 31 10000 3.1 20 13:18 30.05.2020
2196 Clouds 2 1037 34 10000 2.1 10 12:39 30.05.2020
2197 Clouds 2 1037 34 10000 2.1 10 12:20 30.05.2020
2198 Clouds 2 1037 31 10000 2.1 10 11:42 30.05.2020
2199 Clouds 2 1037 31 10000 2.1 10 11:23 30.05.2020
2200 Clouds -4 1037 49 10000 1 0 10:58 30.05.2020
2201 Clouds -4 1037 49 10000 1 0 10:38 30.05.2020
2202 Clouds -4 1037 49 10000 1 0 10:20 30.05.2020
2203 Clouds -4 1037 49 10000 1 0 10:20 30.05.2020
2204 Clouds -4 1037 53 10000 1 0 09:45 30.05.2020
2205 Clouds -4 1037 53 10000 1 0 09:26 30.05.2020
2206 Clouds -2 1037 68 10000 1 0 08:45 30.05.2020
2207 Clouds -2 1037 68 10000 1 0 08:27 30.05.2020
2208 Clouds -2 1037 74 10000 1.5 60 07:40 30.05.2020
2209 Clear -2 1037 74 10000 1.5 60 07:19 30.05.2020
2210 Clear -1 1037 63 10000 2.1 90 06:30 30.05.2020
2211 Clear 1 1037 50 10000 2.6 70 05:52 30.05.2020
2212 Clear 3 1037 37 10000 1.5 40 04:59 30.05.2020
2213 Clear 7 1037 33 10000 2.1 30 02:53 30.05.2020
2214 Clouds 7 1037 33 10000 2.1 30 02:23 30.05.2020
2215 Clouds 12 1036 16 10000 3.1 270 00:45 30.05.2020
2216 Clouds 12 1036 16 10000 3.1 270 00:25 30.05.2020
2217 Clouds 15 1035 13 10000 2.6 230 23:59 29.05.2020
2218 Clouds 15 1035 13 10000 2.6 230 23:38 29.05.2020
2219 Clouds 15 1035 13 10000 2.6 230 23:19 29.05.2020
2220 Clouds 16 1035 9 10000 3.1 220 22:55 29.05.2020
2221 Clouds 16 1035 9 10000 3.1 220 22:36 29.05.2020
2222 Clouds 16 1035 9 10000 3.1 220 22:18 29.05.2020
2223 Clouds 17 1036 10 10000 3.6 270 21:40 29.05.2020
2224 Clouds 17 1036 10 10000 3.6 270 21:21 29.05.2020
2225 Clouds 16 1037 14 10000 2.1 240 20:58 29.05.2020
2226 Clouds 16 1037 14 10000 2.1 240 20:39 29.05.2020
2227 Clouds 16 1038 14 10000 2.6 240 20:19 29.05.2020
2228 Clouds 16 1038 14 10000 2.6 240 19:43 29.05.2020
2229 Clouds 16 1038 14 10000 2.6 240 19:24 29.05.2020
2230 Clouds 15 1039 14 10000 1 0 18:48 29.05.2020
2231 Clouds 15 1039 14 10000 1 0 18:23 29.05.2020
2232 Clouds 12 1040 17 10000 2.6 230 17:59 29.05.2020
2233 Clouds 12 1040 17 10000 2.6 230 17:39 29.05.2020
2234 Clouds 12 1040 17 10000 2.6 230 17:20 29.05.2020
2235 Clouds 10 1040 18 10000 2.1 220 16:46 29.05.2020
2236 Clouds 10 1040 18 10000 2.1 220 16:46 29.05.2020
2237 Clouds 10 1040 18 10000 2.1 220 16:28 29.05.2020
2238 Clouds 8 1040 24 10000 1 0 15:59 29.05.2020
2239 Clouds 8 1040 24 10000 1 0 15:40 29.05.2020
2240 Clouds 8 1040 24 10000 1 0 15:21 29.05.2020
2241 Clouds 5 1039 35 10000 1 0 14:54 29.05.2020
2242 Clouds 5 1039 35 10000 1 0 14:36 29.05.2020
2243 Clouds 1 1039 47 10000 2.1 360 14:18 29.05.2020
2244 Clouds 1 1039 47 10000 2.1 360 13:41 29.05.2020
2245 Clouds 1 1039 47 10000 2.1 360 13:21 29.05.2020
2246 Clouds 2 1038 40 10000 3.1 10 12:46 29.05.2020
2247 Clouds 2 1038 40 10000 3.1 10 12:26 29.05.2020
2248 Clouds 2 1038 40 10000 3.1 10 12:26 29.05.2020
2249 Clouds 2 1037 40 10000 3.1 10 11:59 29.05.2020
2250 Clouds 2 1037 40 10000 3.1 10 11:41 29.05.2020
2251 Clouds 2 1037 40 10000 3.1 10 11:22 29.05.2020
2252 Clouds 3 1037 37 10000 2.6 10 10:43 29.05.2020
2253 Clouds 3 1037 37 10000 2.6 10 10:23 29.05.2020
2254 Clouds 3 1037 32 10000 3.1 10 09:56 29.05.2020
2255 Clouds 3 1038 32 10000 3.1 10 09:37 29.05.2020
2256 Clouds 3 1038 32 10000 3.1 10 09:18 29.05.2020
2257 Clouds 3 1038 32 10000 3.1 10 08:44 29.05.2020
2258 Clouds 3 1038 32 10000 3.1 10 08:22 29.05.2020
2259 Clouds 4 1038 29 10000 3.1 20 07:46 29.05.2020
2260 Clouds 4 1038 29 10000 3.1 20 07:27 29.05.2020
2261 Clouds 1 1038 34 10000 1 0 06:49 29.05.2020
2262 Clouds 1 1038 34 10000 1 0 06:29 29.05.2020
2263 Clouds 2 1038 31 10000 1 0 05:56 29.05.2020
2264 Clouds 7 1037 26 10000 3.1 30 03:55 29.05.2020
2265 Clouds 10 1036 23 10000 2.1 350 01:47 29.05.2020
2266 Clouds 10 1036 23 10000 2.1 350 01:25 29.05.2020
2267 Clouds 10 1036 23 10000 2.1 350 01:25 29.05.2020
2268 Clouds 14 1036 11 10000 2.6 250 00:47 29.05.2020
2269 Clouds 14 1036 11 10000 2.6 250 00:22 29.05.2020
2270 Clouds 15 1035 10 10000 3.6 220 23:40 28.05.2020
2271 Clouds 16 1036 10 10000 3.1 320 23:19 28.05.2020
2272 Clouds 16 1036 10 10000 3.1 320 22:45 28.05.2020
2273 Clouds 16 1036 10 10000 3.1 320 22:45 28.05.2020
2274 Clouds 16 1036 10 10000 3.1 320 22:45 28.05.2020
2275 Clouds 16 1036 10 10000 3.1 320 22:27 28.05.2020
2276 Clouds 16 1036 9 10000 3.6 260 21:59 28.05.2020
2277 Clouds 16 1036 9 10000 3.6 260 21:40 28.05.2020
2278 Clouds 16 1036 9 10000 3.6 260 21:20 28.05.2020
2279 Clouds 15 1037 9 10000 3.1 240 20:58 28.05.2020
2280 Clouds 15 1037 9 10000 3.1 240 20:39 28.05.2020
2281 Clouds 15 1037 9 10000 3.1 240 20:19 28.05.2020
2282 Clouds 15 1038 15 10000 3.1 230 19:56 28.05.2020
2283 Clouds 15 1038 15 10000 3.1 230 19:38 28.05.2020
2284 Clouds 14 1039 17 10000 2.1 230 19:20 28.05.2020
2285 Clouds 14 1039 17 10000 2.1 230 18:43 28.05.2020
2286 Clouds 14 1039 17 10000 2.1 230 18:25 28.05.2020
2287 Clear 12 1040 25 10000 3.1 270 17:56 28.05.2020
2288 Clear 12 1040 25 10000 3.1 270 17:38 28.05.2020
2289 Clear 12 1040 25 10000 3.1 270 17:18 28.05.2020
2290 Clear 10 1040 34 10000 2.6 250 16:44 28.05.2020
2291 Clouds 10 1040 34 10000 2.6 250 16:20 28.05.2020
2292 Clouds 7 1040 36 10000 1 0 15:46 28.05.2020
2293 Clouds 7 1040 36 10000 1 0 15:25 28.05.2020
2294 Clouds 7 1040 36 10000 1 0 15:25 28.05.2020
2295 Clouds 4 1039 41 10000 1 0 14:59 28.05.2020
2296 Clouds 4 1039 41 10000 1 0 14:40 28.05.2020
2297 Clouds 4 1039 41 10000 1 0 14:21 28.05.2020
2298 Clouds 1 1038 43 10000 3.6 30 13:44 28.05.2020
2299 Clouds 1 1038 43 10000 3.6 30 13:25 28.05.2020
2300 Clouds -5 1038 53 10000 1 0 12:43 28.05.2020
2301 Clouds -5 1038 53 10000 1 0 12:19 28.05.2020
2302 Clouds 0 1038 71 10000 2.6 10 11:54 28.05.2020
2303 Clouds 0 1038 71 10000 2.6 10 11:36 28.05.2020
2304 Clouds 0 1038 73 10000 2.6 10 11:18 28.05.2020
2305 Clouds 0 1037 73 10000 2.1 10 10:42 28.05.2020
2306 Clouds 0 1037 76 10000 2.1 10 10:23 28.05.2020
2307 Clouds -1 1037 42 10000 1 0 09:40 28.05.2020
2308 Clouds -1 1037 42 10000 1 0 09:22 28.05.2020
2309 Clouds -1 1037 42 10000 1 0 09:22 28.05.2020
2310 Clouds 0 1038 74 10000 2.1 30 08:52 28.05.2020
2311 Clouds 0 1038 74 10000 2.1 30 08:33 28.05.2020
2312 Clouds -1 1038 54 10000 1 0 07:59 28.05.2020
2313 Clouds -1 1038 54 10000 1 0 07:41 28.05.2020
2314 Clouds -1 1038 54 10000 1 0 07:23 28.05.2020
2315 Clouds -1 1038 54 10000 2.6 90 06:39 28.05.2020
2316 Clouds -1 1038 54 10000 2.6 90 06:39 28.05.2020
2317 Clouds -1 1038 54 10000 2.6 90 06:21 28.05.2020
2318 Clouds 1 1038 55 10000 4.1 60 05:38 28.05.2020
2319 Clouds 0 1038 70 10000 2.6 100 04:35 28.05.2020
2320 Clouds 1 1038 31 10000 3.1 80 03:52 28.05.2020
2321 Clear 8 1038 22 10000 1.5 10 02:52 28.05.2020
2322 Clear 9 1037 18 10000 1 0 01:57 28.05.2020
2323 Clear 9 1037 18 10000 1 0 01:29 28.05.2020
2324 Clouds 13 1037 10 10000 3.1 80 00:46 28.05.2020
2325 Clouds 13 1037 10 10000 3.1 80 00:19 28.05.2020
2326 Clouds 16 1037 9 10000 3.1 110 23:54 27.05.2020
2327 Clouds 16 1037 9 10000 3.1 110 23:36 27.05.2020
2328 Clouds 17 1037 8 10000 2.1 80 23:18 27.05.2020
2329 Clouds 17 1037 8 10000 2.1 80 23:18 27.05.2020
2330 Clouds 17 1037 8 10000 2.1 80 22:41 27.05.2020
2331 Clouds 17 1037 8 10000 2.1 80 22:22 27.05.2020
2332 Clear 17 1038 7 10000 3.1 110 21:55 27.05.2020
2333 Clear 17 1038 7 10000 3.1 110 21:37 27.05.2020
2334 Clear 17 1038 7 10000 3.1 110 21:18 27.05.2020
2335 Clear 16 1039 7 10000 2.6 120 20:54 27.05.2020
2336 Clear 16 1039 7 10000 2.6 120 20:36 27.05.2020
2337 Clear 14 1040 7 10000 3.1 140 20:18 27.05.2020
2338 Clear 14 1040 7 10000 3.1 140 19:41 27.05.2020
2339 Clear 13 1041 9 10000 4.1 150 19:19 27.05.2020
2340 Clear 13 1041 9 10000 4.1 150 19:19 27.05.2020
2341 Clear 13 1041 9 10000 4.1 150 18:41 27.05.2020
2342 Clear 11 1041 17 10000 1.5 220 18:20 27.05.2020
2343 Clear 11 1041 17 10000 1.5 220 17:57 27.05.2020
2344 Clear 11 1041 17 10000 1.5 220 17:38 27.05.2020
2345 Clear 11 1041 17 10000 1.5 220 17:19 27.05.2020
2346 Clear 9 1041 31 10000 1.5 240 16:55 27.05.2020
2347 Clear 9 1041 31 10000 1.5 240 16:37 27.05.2020
2348 Clear 7 1041 24 10000 2.1 280 16:18 27.05.2020
2349 Clear 7 1041 24 10000 2.1 280 15:41 27.05.2020
2350 Clear 3 1041 25 10000 1 0 15:21 27.05.2020
2351 Clear 3 1041 25 10000 1 0 14:45 27.05.2020
2352 Clear 3 1041 25 10000 1 0 14:22 27.05.2020
2353 Clear 3 1041 25 10000 1 0 14:22 27.05.2020
2354 Clear 3 1041 25 10000 1 0 14:22 27.05.2020
2355 Clear -2 1040 33 10000 1.39 282 13:57 27.05.2020
2356 Clear -2 1040 33 10000 1.39 282 13:38 27.05.2020
2357 Clear -2 1040 33 10000 1.01 298 13:20 27.05.2020
2358 Clear 0 1040 73 10000 2.6 10 12:41 27.05.2020
2359 Clear 0 1040 73 10000 2.6 10 12:22 27.05.2020
2360 Clear -1 1039 30 10000 1.5 360 11:41 27.05.2020
2361 Clear -1 1039 30 10000 1.5 360 11:22 27.05.2020
2362 Clear 1 1039 24 10000 3.1 10 10:59 27.05.2020
2363 Clear 1 1039 24 10000 3.1 10 10:40 27.05.2020
2364 Clear 1 1039 24 10000 3.1 10 10:22 27.05.2020
2365 Clear 2 1040 27 10000 3.6 10 09:42 27.05.2020
2366 Clear 2 1040 27 10000 3.6 10 09:23 27.05.2020
2367 Clear 1 1040 37 10000 3.1 10 08:58 27.05.2020
2368 Clear 1 1040 37 10000 3.1 10 08:38 27.05.2020
2369 Clear -4 1041 49 10000 2.6 60 08:19 27.05.2020
2370 Clear -4 1041 49 10000 2.6 60 07:51 27.05.2020
2371 Clear -4 1041 49 10000 2.6 60 07:51 27.05.2020
2372 Clear -4 1041 49 10000 2.6 60 07:33 27.05.2020
2373 Clear -3 1041 58 10000 1.5 50 06:52 27.05.2020
2374 Clear -3 1041 58 10000 1.5 50 06:24 27.05.2020
2375 Clear -2 1041 54 10000 1.5 60 05:49 27.05.2020
2376 Clear -2 1041 54 10000 1.5 60 05:22 27.05.2020
2377 Clear 1 1040 37 10000 2.6 60 02:36 27.05.2020
2378 Clear 4 1040 25 10000 3.6 80 01:55 27.05.2020
2379 Clear 4 1040 25 10000 3.6 80 01:30 27.05.2020
2380 Clear 10 1039 14 10000 4.1 100 00:47 27.05.2020
2381 Clear 10 1039 14 10000 4.1 100 00:20 27.05.2020
2382 Clear 14 1040 11 10000 3.6 110 23:57 26.05.2020
2383 Clear 14 1040 11 10000 3.6 110 23:38 26.05.2020
2384 Clouds 14 1040 9 10000 3.1 140 23:20 26.05.2020
2385 Clouds 14 1040 9 10000 3.1 140 22:41 26.05.2020
2386 Clouds 14 1040 9 10000 3.1 140 22:22 26.05.2020
2387 Clouds 14 1040 10 10000 3.6 130 21:59 26.05.2020
2388 Clouds 14 1040 10 10000 3.6 130 21:40 26.05.2020
2389 Clouds 14 1040 10 10000 3.6 130 21:40 26.05.2020
2390 Clouds 14 1040 10 10000 3.6 130 21:21 26.05.2020
2391 Clouds 14 1041 10 10000 3.6 140 20:56 26.05.2020
2392 Clouds 14 1041 10 10000 3.6 140 20:37 26.05.2020
2393 Clouds 14 1041 10 10000 3.6 140 20:19 26.05.2020
2394 Clear 13 1042 12 10000 1.5 90 19:40 26.05.2020
2395 Clear 12 1043 17 10000 1.5 180 19:20 26.05.2020
2396 Clear 12 1043 17 10000 1.5 180 18:43 26.05.2020
2397 Clear 12 1043 17 10000 1.5 180 18:24 26.05.2020
2398 Clear 10 1044 19 10000 2.6 240 17:59 26.05.2020
2399 Clear 10 1044 19 10000 2.6 240 17:38 26.05.2020
2400 Clear 10 1044 19 10000 2.6 240 17:20 26.05.2020
2401 Clear 8 1044 28 10000 3.6 270 16:45 26.05.2020
2402 Clear 8 1044 28 10000 3.6 270 16:20 26.05.2020
2403 Clear 7 1043 24 10000 2.1 290 15:55 26.05.2020
2404 Clear 7 1043 24 10000 2.1 290 15:37 26.05.2020
2405 Clear 3 1043 25 10000 1 0 15:19 26.05.2020
2406 Clear 3 1043 25 10000 1 0 14:43 26.05.2020
2407 Clear 3 1043 25 10000 1 0 14:23 26.05.2020
2408 Clear -1 1042 28 10000 1.5 10 13:56 26.05.2020
2409 Clear -1 1042 28 10000 1.5 10 13:37 26.05.2020
2410 Clear -1 1042 23 10000 2.6 10 13:18 26.05.2020
2411 Clear -1 1042 23 10000 2.6 10 12:42 26.05.2020
2412 Clear -1 1042 20 10000 2.1 10 12:20 26.05.2020
2413 Clear -1 1042 20 10000 2.1 10 11:58 26.05.2020
2414 Clear -1 1042 20 10000 2.1 10 11:40 26.05.2020
2415 Clear -1 1042 20 10000 2.1 10 11:18 26.05.2020
2416 Clear -4 1042 23 10000 1 0 10:41 26.05.2020
2417 Clear -4 1042 23 10000 1 0 10:41 26.05.2020
2418 Clear -1 1042 20 10000 2.1 310 10:19 26.05.2020
2419 Clear -1 1042 20 10000 2.1 310 09:39 26.05.2020
2420 Clear -1 1042 20 10000 2.1 310 09:20 26.05.2020
2421 Clear -1 1043 20 10000 2.1 350 08:43 26.05.2020
2422 Clear -1 1043 20 10000 2.1 350 08:22 26.05.2020
2423 Clear 1 1026 50 0 1.67 8 07:44 26.05.2020
2424 Clear 1 1043 10 10000 1 0 07:25 26.05.2020
2425 Clear 1 1043 10 10000 1 0 06:57 26.05.2020
2426 Clear 1 1043 10 10000 1 0 06:39 26.05.2020
2427 Clear 6 1043 6 10000 6.7 40 05:53 26.05.2020
2428 Clear 6 1043 6 10000 6.7 40 05:29 26.05.2020
2429 Clear 5 1043 9 10000 5.7 60 04:50 26.05.2020
2430 Clear 5 1043 9 10000 5.7 60 04:31 26.05.2020
2431 Clear 6 1043 7 10000 5.7 60 03:55 26.05.2020
2432 Clear 5 1043 11 10000 4.1 90 02:44 26.05.2020
2433 Clear 7 1042 12 10000 5.1 40 01:48 26.05.2020
2434 Clear 10 1042 7 10000 6.2 40 01:21 26.05.2020
2435 Clear 10 1042 7 10000 6.2 40 00:37 26.05.2020
2436 Clear 13 1041 6 10000 7.2 40 00:18 26.05.2020
2437 Clear 13 1041 6 10000 7.2 40 23:55 25.05.2020
2438 Clear 13 1041 6 10000 7.2 40 23:36 25.05.2020
2439 Clouds 14 1041 7 10000 6.2 40 23:18 25.05.2020
2440 Clouds 14 1041 7 10000 6.2 40 23:18 25.05.2020
2441 Clouds 14 1041 7 10000 6.2 40 22:54 25.05.2020
2442 Clouds 14 1041 7 10000 6.2 40 22:36 25.05.2020
2443 Clouds 16 1041 9 10000 5.1 100 22:18 25.05.2020
2444 Clouds 16 1041 9 10000 5.1 100 21:54 25.05.2020
2445 Clouds 16 1041 9 10000 5.1 100 21:36 25.05.2020
2446 Clear 16 1042 8 10000 4.1 100 21:18 25.05.2020
2447 Clear 16 1042 8 10000 4.1 100 20:41 25.05.2020
2448 Clear 16 1042 8 10000 4.1 100 20:21 25.05.2020
2449 Clear 15 1042 10 10000 5.7 150 19:58 25.05.2020
2450 Clear 15 1042 10 10000 5.7 150 19:39 25.05.2020
2451 Clear 14 1043 11 10000 4.6 150 19:18 25.05.2020
2452 Clear 14 1043 11 10000 4.6 150 18:45 25.05.2020
2453 Clear 14 1043 11 10000 4.6 150 18:22 25.05.2020
2454 Clear 12 1044 17 10000 2.6 190 17:58 25.05.2020
2455 Clear 12 1044 17 10000 2.6 190 17:39 25.05.2020
2456 Clear 12 1044 17 10000 2.6 190 17:21 25.05.2020
2457 Clear 10 1044 25 10000 2.1 220 16:56 25.05.2020
2458 Clear 10 1044 25 10000 2.1 220 16:56 25.05.2020
2459 Clear 8 1043 28 10000 1 0 16:37 25.05.2020
2460 Clear 8 1043 28 10000 1 0 16:19 25.05.2020
2461 Clear 8 1043 28 10000 1 0 15:42 25.05.2020
2462 Clear 8 1043 28 10000 1 0 15:19 25.05.2020
2463 Clear 3 1042 21 10000 3.1 360 14:44 25.05.2020
2464 Clear 3 1042 21 10000 3.1 360 14:25 25.05.2020
2465 Clear 1 1042 22 10000 3.6 10 13:59 25.05.2020
2466 Clear 1 1042 22 10000 3.6 10 13:39 25.05.2020
2467 Clear 1 1042 22 10000 3.6 10 13:20 25.05.2020
2468 Clear 0 1041 79 10000 2.6 10 12:57 25.05.2020
2469 Clear 0 1041 79 10000 2.6 10 12:37 25.05.2020
2470 Clear 0 1041 80 10000 2.6 10 12:19 25.05.2020
2471 Clear 0 1041 80 10000 2.1 360 11:39 25.05.2020
2472 Clear 0 1041 78 10000 2.1 360 11:19 25.05.2020
2473 Clear 1 1041 22 10000 2.6 10 11:19 25.05.2020
2474 Clear 1 1041 22 10000 2.6 10 10:54 25.05.2020
2475 Clear 1 1041 22 10000 2.6 10 10:36 25.05.2020
2476 Clear 2 1041 22 10000 3.1 10 10:18 25.05.2020
2477 Clear 2 1041 22 10000 3.1 10 09:41 25.05.2020
2478 Clear 2 1041 22 10000 3.1 10 09:41 25.05.2020
2479 Clear 2 1041 22 10000 3.1 10 09:19 25.05.2020
2480 Clear -4 1041 35 10000 1 0 08:59 25.05.2020
2481 Clear -4 1041 35 10000 1 0 08:37 25.05.2020
2482 Clear -4 1041 35 10000 1 0 08:18 25.05.2020
2483 Clear -4 1042 38 10000 2.1 40 07:45 25.05.2020
2484 Clear -1 1042 30 10000 2.1 30 07:21 25.05.2020
2485 Clear -1 1042 30 10000 2.1 30 06:52 25.05.2020
2486 Clear -1 1042 30 10000 2.1 30 06:31 25.05.2020
2487 Clear 2 1042 22 10000 2.6 30 04:18 25.05.2020
2488 Clear 6 1042 17 10000 2.1 310 03:23 25.05.2020
2489 Clear 3 1041 25 10000 3.1 50 02:45 25.05.2020
2490 Clear 5 1041 21 10000 4.1 70 01:54 25.05.2020
2491 Clear 5 1041 21 10000 4.1 70 01:28 25.05.2020
2492 Clear 5 1041 21 10000 4.1 70 01:28 25.05.2020
2493 Clear 12 1040 11 10000 4.1 110 00:38 25.05.2020
2494 Clear 12 1040 11 10000 4.1 110 00:19 25.05.2020
2495 Clouds 14 1039 9 10000 4.1 150 23:55 24.05.2020
2496 Clouds 14 1039 9 10000 4.1 150 23:36 24.05.2020
2497 Clouds 15 1040 8 10000 4.1 140 23:18 24.05.2020
2498 Clouds 15 1040 8 10000 4.1 140 22:41 24.05.2020
2499 Clouds 15 1040 8 10000 4.1 140 22:19 24.05.2020
2500 Clouds 15 1040 9 10000 4.6 130 21:56 24.05.2020
2501 Clouds 15 1040 9 10000 4.6 130 21:38 24.05.2020
2502 Clouds 15 1040 9 10000 4.6 130 21:38 24.05.2020
2503 Clouds 15 1040 9 10000 4.6 130 21:19 24.05.2020
2504 Clouds 14 1041 8 10000 5.1 130 20:44 24.05.2020
2505 Clouds 14 1041 8 10000 5.1 130 20:22 24.05.2020
2506 Clouds 13 1042 10 10000 4.1 140 19:59 24.05.2020
2507 Clouds 13 1042 10 10000 4.1 140 19:41 24.05.2020
2508 Clear 13 1042 8 10000 3.6 120 19:19 24.05.2020
2509 Clear 13 1042 8 10000 3.6 120 18:56 24.05.2020
2510 Clear 13 1042 8 10000 3.6 120 18:37 24.05.2020
2511 Clear 13 1042 8 10000 3.6 120 18:19 24.05.2020
2512 Clear 11 1043 9 10000 3.1 130 17:41 24.05.2020
2513 Clear 11 1043 9 10000 3.1 130 17:21 24.05.2020
2514 Clear 10 1043 9 10000 3.1 100 16:57 24.05.2020
2515 Clear 10 1043 9 10000 3.1 100 16:38 24.05.2020
2516 Clear 10 1043 9 10000 3.1 100 16:38 24.05.2020
2517 Clear 10 1043 9 10000 3.1 100 16:20 24.05.2020
2518 Clear 7 1043 14 10000 1 0 15:56 24.05.2020
2519 Clear 7 1043 14 10000 1 0 15:38 24.05.2020
2520 Clear 2 1042 21 10000 1.05 168 15:18 24.05.2020
2521 Clear 2 1042 21 10000 1.05 168 14:45 24.05.2020
2522 Clear 2 1042 21 10000 0.39 217 14:24 24.05.2020
2523 Clear 0 1041 46 10000 3.1 10 13:58 24.05.2020
2524 Clear 0 1041 46 10000 3.1 10 13:39 24.05.2020
2525 Clear 0 1041 58 10000 3.1 10 13:21 24.05.2020
2526 Clear 0 1041 58 10000 3.1 10 12:58 24.05.2020
2527 Clear 0 1041 58 10000 3.1 10 12:58 24.05.2020
2528 Clear 0 1041 58 10000 3.1 10 12:40 24.05.2020
2529 Clear 0 1041 57 10000 3.1 10 12:22 24.05.2020
2530 Clear 1 1040 19 10000 3.6 10 11:56 24.05.2020
2531 Clear 1 1040 19 10000 3.6 10 11:38 24.05.2020
2532 Clear 1 1040 19 10000 3.6 10 11:20 24.05.2020
2533 Clear 1 1040 19 10000 3.1 10 10:55 24.05.2020
2534 Clear 1 1040 19 10000 3.1 10 10:37 24.05.2020
2535 Clear 1 1040 19 10000 3.1 10 10:18 24.05.2020
2536 Clear 2 1041 19 10000 4.1 10 09:41 24.05.2020
2537 Clear 2 1041 24 10000 3.6 10 09:18 24.05.2020
2538 Clear 2 1041 24 10000 3.6 10 08:56 24.05.2020
2539 Clear 2 1041 24 10000 3.6 10 08:37 24.05.2020
2540 Clear 2 1041 24 10000 3.6 10 08:18 24.05.2020
2541 Clear 2 1042 27 10000 2.6 10 07:41 24.05.2020
2542 Clear 2 1042 27 10000 2.6 10 07:22 24.05.2020
2543 Clear 3 1042 25 10000 3.1 20 06:47 24.05.2020
2544 Clear 3 1042 29 10000 2.6 20 05:50 24.05.2020
2545 Clear 2 1041 34 10000 1 0 04:51 24.05.2020
2546 Clear 4 1041 80 10000 2.1 50 03:41 24.05.2020
2547 Clear 5 1040 38 10000 1 0 02:30 24.05.2020
2548 Clear 9 1038 24 10000 4.1 280 01:39 24.05.2020
2549 Clear 13 1037 9 10000 3.1 240 00:39 24.05.2020
2550 Clear 13 1037 9 10000 3.1 240 00:20 24.05.2020
2551 Clear 10 1019 44 0 1.3 239 23:43 23.05.2020
2552 Clouds 17 1037 13 10000 4.6 280 23:21 23.05.2020
2553 Clouds 17 1037 13 10000 4.6 280 22:57 23.05.2020
2554 Clouds 17 1037 13 10000 4.6 280 22:38 23.05.2020
2555 Clouds 17 1037 13 10000 4.6 280 22:19 23.05.2020
2556 Clouds 17 1038 13 10000 5.1 280 21:57 23.05.2020
2557 Clouds 17 1038 13 10000 5.1 280 21:37 23.05.2020
2558 Clouds 17 1038 13 10000 5.1 280 21:19 23.05.2020
2559 Clouds 17 1038 13 10000 5.1 280 21:19 23.05.2020
2560 Clouds 16 1039 17 10000 5.7 300 20:56 23.05.2020
2561 Clouds 16 1039 17 10000 5.7 300 20:37 23.05.2020
2562 Clouds 16 1039 17 10000 5.7 300 20:18 23.05.2020
2563 Clouds 15 1040 21 10000 6.7 270 19:41 23.05.2020
2564 Clouds 15 1040 21 10000 6.7 270 19:19 23.05.2020
2565 Clouds 15 1041 26 10000 7.2 260 18:57 23.05.2020
2566 Clouds 15 1041 26 10000 7.2 260 18:39 23.05.2020
2567 Clouds 15 1041 26 10000 7.2 260 18:20 23.05.2020
2568 Clouds 13 1042 35 10000 6.2 290 17:54 23.05.2020
2569 Clouds 13 1042 35 10000 6.2 290 17:36 23.05.2020
2570 Clouds 13 1042 35 10000 6.2 290 17:36 23.05.2020
2571 Clouds 11 1042 50 10000 5.1 290 17:18 23.05.2020
2572 Clouds 11 1042 50 10000 5.1 290 16:55 23.05.2020
2573 Clouds 11 1042 50 10000 5.1 290 16:37 23.05.2020
2574 Clouds 9 1042 57 10000 2.1 310 16:18 23.05.2020
2575 Clouds 9 1042 57 10000 2.1 310 15:41 23.05.2020
2576 Clouds 9 1042 57 10000 2.1 310 15:23 23.05.2020
2577 Clouds 4 1041 69 10000 1 0 14:43 23.05.2020
2578 Clouds 4 1041 69 10000 1 0 14:24 23.05.2020
2579 Clouds 0 1040 63 10000 1.5 360 13:57 23.05.2020
2580 Clouds 0 1040 63 10000 1.5 360 13:38 23.05.2020
2581 Clouds 0 1040 77 10000 1.5 360 13:18 23.05.2020
2582 Clouds -1 1040 74 10000 1.5 200 12:41 23.05.2020
2583 Clouds -1 1040 74 10000 1.5 200 12:20 23.05.2020
2584 Clouds 0 1039 74 10000 0.96 285 11:59 23.05.2020
2585 Clouds 0 1039 74 10000 0.96 285 11:40 23.05.2020
2586 Clouds 3 1039 59 10000 1.5 40 11:19 23.05.2020
2587 Clouds 3 1039 59 10000 1.5 40 10:55 23.05.2020
2588 Clouds 3 1039 59 10000 1.5 40 10:37 23.05.2020
2589 Clouds 3 1039 59 10000 1.5 40 10:37 23.05.2020
2590 Clouds 4 1040 51 10000 1.5 10 10:18 23.05.2020
2591 Clouds 4 1040 51 10000 1.5 10 09:43 23.05.2020
2592 Clouds 4 1040 51 10000 1.5 10 09:24 23.05.2020
2593 Clouds 3 1040 55 10000 2.6 30 08:58 23.05.2020
2594 Clouds 3 1040 55 10000 2.6 30 08:38 23.05.2020
2595 Clouds 3 1040 55 10000 2.6 30 08:19 23.05.2020
2596 Clouds 3 1041 68 10000 1.5 20 07:44 23.05.2020
2597 Clouds 3 1041 69 10000 1.5 20 07:23 23.05.2020
2598 Clouds 1 1041 86 10000 2.6 80 06:43 23.05.2020
2599 Clouds 1 1041 69 10000 2.1 100 05:55 23.05.2020
2600 Clouds 1 1041 69 10000 2.1 100 05:55 23.05.2020
2601 Clouds 5 1040 44 10000 2.1 50 03:52 23.05.2020
2602 Clouds 5 1040 44 10000 2.1 50 03:24 23.05.2020
2603 Clouds 8 1039 31 10000 2.1 40 02:33 23.05.2020
2604 Clouds 11 1039 27 10000 2.1 300 01:46 23.05.2020
2605 Clouds 12 1038 22 10000 3.6 280 01:18 23.05.2020
2606 Clouds 12 1038 22 10000 3.6 280 00:41 23.05.2020
2607 Clouds 13 1038 20 10000 4.1 280 23:59 22.05.2020
2608 Clouds 13 1038 20 10000 4.1 280 23:40 22.05.2020
2609 Clouds 13 1038 20 10000 4.1 280 23:20 22.05.2020
2610 Clouds 15 1038 15 10000 6.7 290 22:58 22.05.2020
2611 Clouds 15 1038 15 10000 6.7 290 22:39 22.05.2020
2612 Clouds 15 1038 15 10000 6.7 290 22:20 22.05.2020
2613 Clouds 15 1038 15 10000 6.2 260 21:46 22.05.2020
2614 Clouds 15 1038 15 10000 6.2 260 21:22 22.05.2020
2615 Clouds 15 1039 19 10000 5.7 300 20:55 22.05.2020
2616 Clouds 15 1039 19 10000 5.7 300 20:37 22.05.2020
2617 Clouds 14 1040 17 10000 5.1 280 20:18 22.05.2020
2618 Clouds 14 1040 17 10000 5.1 280 19:44 22.05.2020
2619 Clouds 14 1040 17 10000 5.1 280 19:25 22.05.2020
2620 Clouds 13 1041 26 10000 3.1 160 18:41 22.05.2020
2621 Clouds 13 1041 26 10000 3.1 160 18:22 22.05.2020
2622 Clouds 12 1042 27 10000 2.1 290 17:59 22.05.2020
2623 Clouds 12 1042 27 10000 2.1 290 17:39 22.05.2020
2624 Clouds 12 1042 27 10000 2.1 290 17:19 22.05.2020
2625 Clouds 10 1043 31 10000 2.6 200 16:55 22.05.2020
2626 Clouds 10 1043 31 10000 2.6 200 16:37 22.05.2020
2627 Clouds 8 1042 36 10000 1 0 16:18 22.05.2020
2628 Clouds 8 1042 36 10000 1 0 15:41 22.05.2020
2629 Clouds 8 1042 36 10000 1 0 15:21 22.05.2020
2630 Clouds 5 1041 41 10000 2.1 20 14:45 22.05.2020
2631 Clouds 5 1041 41 10000 2.1 20 14:25 22.05.2020
2632 Clouds 2 1040 51 10000 2.1 20 13:49 22.05.2020
2633 Clouds 3 1040 47 10000 2.1 10 13:22 22.05.2020
2634 Clouds 3 1040 47 10000 2.1 10 12:59 22.05.2020
2635 Clouds 3 1040 47 10000 2.1 10 12:39 22.05.2020
2636 Clouds 3 1040 47 10000 2.1 10 12:20 22.05.2020
2637 Clouds 3 1040 47 10000 1 0 11:44 22.05.2020
2638 Clouds 3 1040 47 10000 1 0 11:21 22.05.2020
2639 Clouds 3 1040 47 10000 1 0 11:21 22.05.2020
2640 Clouds 3 1040 47 10000 1 0 11:21 22.05.2020
2641 Clouds 1 1040 55 10000 1 0 10:55 22.05.2020
2642 Clouds 1 1040 55 10000 1 0 10:37 22.05.2020
2643 Clouds 4 1040 48 10000 2.1 350 10:18 22.05.2020
2644 Clouds 4 1040 48 10000 2.1 350 09:42 22.05.2020
2645 Clouds 4 1040 48 10000 2.1 350 09:19 22.05.2020
2646 Clouds 6 1040 35 10000 1 0 08:45 22.05.2020
2647 Clouds 6 1040 35 10000 1 0 08:22 22.05.2020
2648 Clouds 4 1040 48 10000 1 0 07:57 22.05.2020
2649 Clouds 4 1040 48 10000 1 0 07:27 22.05.2020
2650 Clouds 6 1040 38 10000 1 0 06:59 22.05.2020
2651 Clouds 6 1040 38 10000 1 0 06:40 22.05.2020
2652 Clouds 6 1039 22 10000 1 0 05:53 22.05.2020
2653 Clouds 6 1039 22 10000 1 0 05:32 22.05.2020
2654 Clouds 7 1039 19 10000 2.6 230 04:44 22.05.2020
2655 Clouds 8 1039 26 10000 3.1 170 03:49 22.05.2020
2656 Clouds 8 1039 26 10000 3.1 170 03:23 22.05.2020
2657 Clouds 11 1036 27 10000 1 0 01:57 22.05.2020
2658 Clouds 11 1036 27 10000 1 0 01:29 22.05.2020
2659 Clouds 14 1036 20 10000 5.1 320 00:49 22.05.2020
2660 Clouds 14 1036 20 10000 5.1 320 00:28 22.05.2020
2661 Clouds 15 1036 14 10000 7.2 320 23:45 21.05.2020
2662 Clouds 15 1036 14 10000 7.2 320 23:26 21.05.2020
2663 Clouds 15 1036 18 10000 9.3 290 22:59 21.05.2020
2664 Clouds 15 1036 18 10000 9.3 290 22:41 21.05.2020
2665 Clouds 15 1036 18 10000 9.3 290 22:23 21.05.2020
2666 Clouds 16 1037 21 10000 8.2 290 21:59 21.05.2020
2667 Clouds 16 1037 21 10000 8.2 290 21:59 21.05.2020
2668 Clouds 16 1037 21 10000 8.2 290 21:41 21.05.2020
2669 Clouds 16 1037 21 10000 8.2 290 21:22 21.05.2020
2670 Clouds 16 1037 26 10000 6.7 300 20:45 21.05.2020
2671 Clouds 16 1037 26 10000 6.7 300 20:22 21.05.2020
2672 Clouds 15 1038 33 10000 6.2 290 19:55 21.05.2020
2673 Clouds 15 1038 33 10000 6.2 290 19:36 21.05.2020
2674 Clouds 14 1039 33 10000 7.7 280 19:18 21.05.2020
2675 Clouds 14 1039 33 10000 7.7 280 18:40 21.05.2020
2676 Clouds 14 1039 35 10000 7.7 280 18:19 21.05.2020
2677 Clouds 12 1040 46 10000 6.2 290 17:58 21.05.2020
2678 Clouds 12 1040 46 10000 6.2 290 17:58 21.05.2020
2679 Clouds 12 1040 46 10000 6.2 290 17:39 21.05.2020
2680 Clouds 12 1040 46 10000 6.2 290 17:21 21.05.2020
2681 Clouds 10 1040 53 10000 5.1 270 16:46 21.05.2020
2682 Clouds 10 1040 53 10000 5.1 270 16:24 21.05.2020
2683 Clouds 8 1040 52 10000 3.6 250 15:47 21.05.2020
2684 Clouds 8 1040 52 10000 3.6 250 15:24 21.05.2020
2685 Clouds 3 1039 64 10000 1.62 266 14:56 21.05.2020
2686 Clouds 3 1039 64 10000 2.02 277 14:37 21.05.2020
2687 Clouds 3 1039 64 10000 0.88 304 14:18 21.05.2020
2688 Clouds -2 1038 86 10000 1 250 13:40 21.05.2020
2689 Clouds -2 1038 86 10000 1 250 13:22 21.05.2020
2690 Clouds -2 1037 74 10000 0.86 305 12:55 21.05.2020
2691 Clouds -2 1037 74 10000 0.86 305 12:36 21.05.2020
2692 Clouds 1 1037 74 10000 0.37 289 12:18 21.05.2020
2693 Clouds 1 1037 74 10000 0.37 289 11:41 21.05.2020
2694 Clouds 1 1037 74 10000 0.51 227 11:23 21.05.2020
2695 Clouds -1 1037 86 10000 1 0 10:55 21.05.2020
2696 Clouds -1 1037 86 10000 1 0 10:37 21.05.2020
2697 Clouds 2 1038 100 10000 3.1 40 10:18 21.05.2020
2698 Clouds 2 1038 100 10000 3.1 40 09:42 21.05.2020
2699 Clouds 2 1038 100 10000 3.1 40 09:24 21.05.2020
2700 Clouds 2 1038 100 10000 3.1 40 09:24 21.05.2020
2701 Fog 2 1039 93 4000 2.1 80 08:58 21.05.2020
2702 Fog 2 1039 93 4000 2.1 80 08:39 21.05.2020
2703 Fog 2 1039 93 4000 2.1 80 08:21 21.05.2020
2704 Fog 4 1039 100 4000 2.1 90 07:43 21.05.2020
2705 Fog 4 1039 100 4000 2.1 90 07:22 21.05.2020
2706 Fog 4 1040 100 3000 3.1 70 06:44 21.05.2020
2707 Fog 3 1039 100 4000 3.6 70 05:50 21.05.2020
2708 Clouds 3 1039 93 10000 3.1 70 04:25 21.05.2020
2709 Clear 6 1037 70 10000 3.6 80 03:21 21.05.2020
2710 Clear 4 1038 86 10000 3.6 70 03:21 21.05.2020
2711 Clear 4 1038 86 10000 3.6 70 03:21 21.05.2020
2712 Clear 6 1037 70 10000 3.6 80 02:31 21.05.2020
2713 Clouds 10 1037 31 10000 3.1 310 01:52 21.05.2020
2714 Clouds 10 1037 31 10000 3.1 310 01:24 21.05.2020
2715 Clouds 12 1036 32 10000 4.6 300 00:59 21.05.2020
2716 Clouds 12 1036 32 10000 4.6 300 00:41 21.05.2020
2717 Clouds 15 1036 24 10000 6.2 300 00:19 21.05.2020
2718 Clouds 15 1036 24 10000 6.2 300 23:40 20.05.2020
2719 Clouds 16 1037 23 10000 6.2 280 23:19 20.05.2020
2720 Clouds 16 1037 23 10000 6.2 280 22:43 20.05.2020
2721 Clouds 16 1037 23 10000 6.2 280 22:25 20.05.2020
2722 Clouds 16 1037 23 10000 5.7 270 21:58 20.05.2020
2723 Clouds 16 1037 23 10000 5.7 270 21:38 20.05.2020
2724 Clouds 16 1037 23 10000 5.7 270 21:19 20.05.2020
2725 Clouds 16 1038 23 10000 4.1 300 20:44 20.05.2020
2726 Clouds 16 1038 23 10000 4.1 300 20:23 20.05.2020
2727 Clouds 15 1039 21 10000 2.6 290 19:44 20.05.2020
2728 Clouds 15 1039 21 10000 2.6 290 19:25 20.05.2020
2729 Clouds 12 1040 30 10000 3.1 220 18:59 20.05.2020
2730 Clouds 12 1040 30 10000 3.1 220 18:40 20.05.2020
2731 Clouds 11 1041 40 10000 1 0 18:20 20.05.2020
2732 Clouds 11 1041 40 10000 1 0 18:20 20.05.2020
2733 Clouds 11 1041 40 10000 1 0 17:40 20.05.2020
2734 Clouds 9 1041 49 10000 2.1 180 17:21 20.05.2020
2735 Clouds 9 1041 49 10000 2.1 180 16:55 20.05.2020
2736 Clouds 9 1041 49 10000 2.1 180 16:36 20.05.2020
2737 Clouds 7 1040 56 10000 1 0 16:18 20.05.2020
2738 Clouds 7 1040 56 10000 1 0 15:42 20.05.2020
2739 Clouds 7 1040 56 10000 1 0 15:23 20.05.2020
2740 Clear 4 1039 60 10000 1 0 14:44 20.05.2020
2741 Clouds 4 1039 60 10000 1 0 14:21 20.05.2020
2742 Clouds 1 1038 69 10000 1.5 10 13:43 20.05.2020
2743 Clouds 1 1038 69 10000 1.5 10 13:21 20.05.2020
2744 Clouds 1 1038 59 10000 2.1 10 12:59 20.05.2020
2745 Clouds 1 1038 59 10000 2.1 10 12:39 20.05.2020
2746 Clouds 1 1038 59 10000 2.1 10 12:20 20.05.2020
2747 Clouds 2 1038 51 10000 2.6 10 11:36 20.05.2020
2748 Clouds 2 1038 51 10000 2.6 10 11:18 20.05.2020
2749 Clouds 0 1038 74 10000 1.5 20 10:43 20.05.2020
2750 Clouds 0 1038 74 10000 1.5 20 10:21 20.05.2020
2751 Clouds -2 1038 79 10000 0.41 71 09:46 20.05.2020
2752 Clouds -2 1038 79 10000 0.41 71 09:46 20.05.2020
2753 Clear -2 1038 79 10000 0.55 153 09:22 20.05.2020
2754 Clear -2 1038 79 10000 0.55 153 09:22 20.05.2020
2755 Clear -1 1038 58 10000 1 0 08:58 20.05.2020
2756 Clear -1 1038 58 10000 1 0 08:40 20.05.2020
2757 Clear -1 1038 58 10000 1 0 08:18 20.05.2020
2758 Clear -1 1039 80 10000 1.5 60 07:47 20.05.2020
2759 Clear 0 1039 72 10000 2.1 90 07:21 20.05.2020
2760 Clear 0 1039 72 10000 2.1 90 06:43 20.05.2020
2761 Clear 0 1039 66 10000 1 0 05:24 20.05.2020
2762 Clear 3 1039 51 10000 2.6 60 04:33 20.05.2020
2763 Clear 6 1038 35 10000 1 0 03:52 20.05.2020
2764 Clouds 8 1038 39 10000 1 0 02:31 20.05.2020
2765 Clouds 10 1037 37 10000 3.1 280 01:30 20.05.2020
2766 Clouds 12 1037 27 10000 5.1 300 00:45 20.05.2020
2767 Clouds 12 1037 27 10000 5.1 300 00:24 20.05.2020
2768 Clouds 14 1037 20 10000 6.2 290 23:42 19.05.2020
2769 Clouds 15 1037 22 10000 6.7 260 23:19 19.05.2020
2770 Clouds 15 1037 22 10000 6.7 260 23:19 19.05.2020
2771 Clouds 15 1037 22 10000 6.7 260 22:56 19.05.2020
2772 Clouds 15 1037 22 10000 6.7 260 22:38 19.05.2020
2773 Clouds 15 1037 22 10000 6.7 260 22:19 19.05.2020
2774 Clear 14 1013 37 0 6.25 285 21:57 19.05.2020
2775 Clouds 15 1039 22 10000 5.1 290 21:37 19.05.2020
2776 Clouds 15 1039 22 10000 5.1 290 21:19 19.05.2020
2777 Clouds 15 1039 22 10000 5.1 290 20:57 19.05.2020
2778 Clouds 15 1039 22 10000 5.1 290 20:38 19.05.2020
2779 Clouds 14 1039 24 10000 4.1 250 20:19 19.05.2020
2780 Clouds 14 1039 24 10000 4.1 250 19:39 19.05.2020
2781 Clouds 13 1040 26 10000 2.1 240 19:21 19.05.2020
2782 Clouds 13 1040 26 10000 2.1 240 18:57 19.05.2020
2783 Clouds 13 1040 26 10000 2.1 240 18:38 19.05.2020
2784 Clouds 13 1040 26 10000 2.1 240 18:20 19.05.2020
2785 Clouds 11 1041 21 10000 2.6 170 17:41 19.05.2020
2786 Clouds 11 1041 21 10000 2.6 170 17:21 19.05.2020
2787 Clouds 9 1041 23 10000 2.1 220 16:58 19.05.2020
2788 Clouds 9 1041 23 10000 2.1 220 16:38 19.05.2020
2789 Clouds 9 1041 23 10000 2.1 220 16:19 19.05.2020
2790 Clouds 7 1041 26 10000 1 0 15:44 19.05.2020
2791 Clouds 7 1041 26 10000 1 0 15:21 19.05.2020
2792 Clouds 4 1040 44 10000 2.1 360 14:56 19.05.2020
2793 Clouds 4 1040 44 10000 2.1 360 14:38 19.05.2020
2794 Clouds 2 1040 47 10000 2.1 20 14:20 19.05.2020
2795 Clouds 2 1040 47 10000 2.1 20 13:56 19.05.2020
2796 Clouds 2 1040 47 10000 2.1 20 13:37 19.05.2020
2797 Clouds 2 1039 47 10000 2.6 360 13:19 19.05.2020
2798 Clouds 2 1039 47 10000 2.6 360 12:56 19.05.2020
2799 Clouds 2 1039 47 10000 2.6 360 12:36 19.05.2020
2800 Clouds 2 1039 47 10000 2.6 360 12:36 19.05.2020
2801 Clouds 2 1039 47 10000 2.6 360 12:18 19.05.2020
2802 Clouds 2 1039 47 10000 2.1 360 11:42 19.05.2020
2803 Clouds 2 1039 47 10000 2.1 360 11:22 19.05.2020
2804 Clouds 2 1039 47 10000 2.1 350 10:57 19.05.2020
2805 Clouds 2 1039 47 10000 2.1 350 10:38 19.05.2020
2806 Clouds 2 1039 47 10000 2.1 350 10:38 19.05.2020
2807 Clouds 2 1039 47 10000 2.1 350 10:18 19.05.2020
2808 Clouds 2 1039 47 10000 2.1 310 10:18 19.05.2020
2809 Clouds 2 1039 47 10000 2.1 310 09:43 19.05.2020
2810 Clouds 2 1039 47 10000 2.1 310 09:25 19.05.2020
2811 Clouds 2 1039 47 10000 2.1 310 09:25 19.05.2020
2812 Clouds 3 1039 47 10000 2.6 360 08:47 19.05.2020
2813 Clouds 3 1039 47 10000 2.6 360 08:25 19.05.2020
2814 Clouds 2 1039 51 10000 1.5 10 07:48 19.05.2020
2815 Clouds 2 1039 51 10000 1.5 10 07:28 19.05.2020
2816 Clouds 2 1040 51 10000 1 0 06:55 19.05.2020
2817 Clouds 2 1040 51 10000 1 0 06:31 19.05.2020
2818 Clear 4 1040 44 10000 0.58 186 05:43 19.05.2020
2819 Clear 2 1039 59 10000 2.6 70 05:19 19.05.2020
2820 Clear 2 1039 59 10000 2.6 70 04:35 19.05.2020
2821 Clouds 9 1038 29 10000 3.6 330 02:23 19.05.2020
2822 Clouds 12 1037 17 10000 6.7 290 00:48 19.05.2020
2823 Clouds 12 1037 17 10000 6.7 290 00:29 19.05.2020
2824 Clouds 14 1037 20 10000 6.2 290 23:59 18.05.2020
2825 Clouds 14 1037 20 10000 6.2 290 23:40 18.05.2020
2826 Clouds 14 1037 20 10000 6.2 290 23:20 18.05.2020
2827 Clouds 15 1037 21 10000 5.1 290 22:41 18.05.2020
2828 Clouds 15 1037 21 10000 5.1 290 22:22 18.05.2020
2829 Clouds 14 1038 22 10000 4.6 260 21:58 18.05.2020
2830 Clouds 14 1038 22 10000 4.6 260 21:40 18.05.2020
2831 Clouds 14 1039 22 10000 4.6 250 21:20 18.05.2020
2832 Clouds 14 1039 22 10000 4.6 250 20:56 18.05.2020
2833 Clouds 14 1039 22 10000 4.6 250 20:36 18.05.2020
2834 Clouds 14 1040 22 10000 3.6 240 20:18 18.05.2020
2835 Clouds 14 1040 22 10000 3.6 240 19:41 18.05.2020
2836 Clouds 14 1041 22 10000 2.6 220 19:19 18.05.2020
2837 Clouds 14 1041 22 10000 2.6 220 18:46 18.05.2020
2838 Clouds 14 1041 22 10000 2.6 220 18:25 18.05.2020
2839 Clouds 11 1042 25 10000 3.6 130 17:55 18.05.2020
2840 Clouds 11 1042 25 10000 3.6 130 17:37 18.05.2020
2841 Clouds 10 1042 27 10000 3.1 140 17:18 18.05.2020
2842 Clouds 10 1042 27 10000 3.1 140 16:44 18.05.2020
2843 Clouds 10 1042 27 10000 3.1 140 16:22 18.05.2020
2844 Clouds 8 1042 33 10000 1 0 15:59 18.05.2020
2845 Clouds 8 1042 33 10000 1 0 15:41 18.05.2020
2846 Clouds 8 1042 33 10000 1 0 15:22 18.05.2020
2847 Clouds 4 1041 48 10000 1 0 14:57 18.05.2020
2848 Clouds 4 1041 48 10000 1 0 14:38 18.05.2020
2849 Clouds 4 1041 48 10000 1 0 14:20 18.05.2020
2850 Clouds 2 1040 51 10000 2.1 360 13:41 18.05.2020
2851 Clouds 2 1040 51 10000 2.1 360 13:21 18.05.2020
2852 Clouds -1 1040 63 10000 1.52 308 12:58 18.05.2020
2853 Clouds -1 1040 63 10000 1.52 308 12:40 18.05.2020
2854 Clouds -1 1040 63 10000 1.36 314 12:19 18.05.2020
2855 Clouds -1 1039 68 10000 1 0 11:57 18.05.2020
2856 Clouds -1 1039 68 10000 1 0 11:38 18.05.2020
2857 Clouds -1 1039 68 10000 1 0 11:20 18.05.2020
2858 Clouds 1 1039 64 10000 0.91 297 10:42 18.05.2020
2859 Clouds 1 1039 64 10000 0.82 253 10:22 18.05.2020
2860 Clouds 1 1039 64 10000 1 0 09:44 18.05.2020
2861 Clouds 1 1039 64 10000 1 0 09:25 18.05.2020
2862 Clouds -1 1040 80 10000 2.6 50 08:46 18.05.2020
2863 Clouds -1 1040 80 10000 2.6 50 08:27 18.05.2020
2864 Clouds 1 1040 69 10000 3.6 50 07:58 18.05.2020
2865 Clouds 1 1040 69 10000 3.6 50 07:39 18.05.2020
2866 Clouds 1 1040 69 10000 3.6 50 07:20 18.05.2020
2867 Clouds 0 1040 71 10000 1.5 110 06:45 18.05.2020
2868 Clouds 1 1040 64 10000 1 0 05:50 18.05.2020
2869 Clouds 1 1040 64 10000 1 0 05:26 18.05.2020
2870 Clouds 3 1039 55 10000 2.1 90 03:37 18.05.2020
2871 Clouds 5 1039 52 10000 3.6 70 02:30 18.05.2020
2872 Clouds 8 1038 39 10000 3.1 80 01:23 18.05.2020
2873 Clouds 11 1037 29 10000 3.6 280 00:27 18.05.2020
2874 Clouds 13 1037 26 10000 5.1 280 23:57 17.05.2020
2875 Clouds 13 1037 26 10000 5.1 280 23:39 17.05.2020
2876 Clouds 13 1037 26 10000 5.1 280 23:20 17.05.2020
2877 Clouds 14 1037 24 10000 4.6 270 22:56 17.05.2020
2878 Clouds 14 1037 24 10000 4.6 270 22:37 17.05.2020
2879 Clouds 14 1037 24 10000 4.6 270 22:19 17.05.2020
2880 Clouds 15 1037 26 10000 4.1 290 21:55 17.05.2020
2881 Clouds 15 1037 26 10000 4.1 290 21:36 17.05.2020
2882 Clouds 17 1038 20 10000 3.6 250 21:18 17.05.2020
2883 Clouds 17 1038 20 10000 3.6 250 20:41 17.05.2020
2884 Clouds 17 1038 20 10000 3.6 250 20:20 17.05.2020
2885 Clouds 15 1039 26 10000 3.1 250 19:57 17.05.2020
2886 Clouds 15 1039 26 10000 3.1 250 19:37 17.05.2020
2887 Clouds 15 1039 26 10000 3.1 250 19:19 17.05.2020
2888 Clouds 15 1040 26 10000 2.6 290 18:41 17.05.2020
2889 Clouds 15 1040 26 10000 2.6 290 18:23 17.05.2020
2890 Clouds 13 1041 30 10000 2.6 240 17:58 17.05.2020
2891 Clouds 13 1041 30 10000 2.6 240 17:39 17.05.2020
2892 Clouds 13 1041 30 10000 2.6 240 17:18 17.05.2020
2893 Clouds 12 1041 34 10000 2.1 260 16:40 17.05.2020
2894 Clouds 12 1041 34 10000 2.1 260 16:20 17.05.2020
2895 Clouds 12 1041 34 10000 2.1 260 16:20 17.05.2020
2896 Clouds 11 1041 32 10000 1 0 15:56 17.05.2020
2897 Clouds 11 1041 32 10000 1 0 15:37 17.05.2020
2898 Clouds 6 1040 41 10000 1 0 15:19 17.05.2020
2899 Clouds 6 1040 41 10000 1 0 14:43 17.05.2020
2900 Clouds 6 1040 41 10000 1 0 14:24 17.05.2020
2901 Clouds 6 1040 41 10000 1 0 14:24 17.05.2020
2902 Clouds 1 1039 55 10000 1 0 13:57 17.05.2020
2903 Clouds 1 1039 55 10000 1 0 13:37 17.05.2020
2904 Clouds 2 1039 51 10000 1.5 20 13:18 17.05.2020
2905 Clear 2 1040 59 10000 2.6 90 04:21 17.05.2020
2906 Clear 5 1039 48 10000 3.6 70 02:29 17.05.2020
2907 Clear 5 1039 48 10000 3.6 70 02:29 17.05.2020
2908 Clouds 7 1038 42 10000 3.6 50 01:56 17.05.2020
2909 Clouds 11 1038 32 10000 3.6 50 00:58 17.05.2020
2910 Clouds 11 1038 32 10000 3.6 50 00:40 17.05.2020
2911 Clouds 14 1038 28 10000 5.1 70 23:57 16.05.2020
2912 Clouds 14 1038 28 10000 5.1 70 23:39 16.05.2020
2913 Clouds 14 1038 22 10000 3.6 70 23:20 16.05.2020
2914 Clouds 14 1038 22 10000 3.6 70 22:58 16.05.2020
2915 Clouds 14 1038 22 10000 3.6 70 22:39 16.05.2020
2916 Clouds 14 1038 20 10000 3.6 100 22:19 16.05.2020
2917 Clouds 14 1038 20 10000 3.6 100 21:45 16.05.2020
2918 Clouds 14 1038 20 10000 3.6 100 21:25 16.05.2020
2919 Clouds 14 1039 17 10000 2.6 140 20:57 16.05.2020
2920 Clouds 14 1039 17 10000 2.6 140 20:39 16.05.2020
2921 Clouds 14 1039 17 10000 2.6 140 20:20 16.05.2020
2922 Clouds 13 1040 20 10000 1 0 19:56 16.05.2020
2923 Clouds 13 1040 20 10000 1 0 19:37 16.05.2020
2924 Clouds 13 1040 20 10000 1 0 19:19 16.05.2020
2925 Clouds 12 1041 22 10000 2.1 220 18:41 16.05.2020
2926 Clouds 12 1041 22 10000 2.1 220 18:22 16.05.2020
2927 Clear 10 1042 25 10000 2.1 210 17:42 16.05.2020
2928 Clear 8 1042 31 10000 1 0 17:22 16.05.2020
2929 Clear 8 1042 31 10000 1 0 16:59 16.05.2020
2930 Clear 8 1042 31 10000 1 0 16:39 16.05.2020
2931 Clear 8 1042 31 10000 1 0 16:19 16.05.2020
2932 Clear 6 1042 41 10000 1 0 15:54 16.05.2020
2933 Clear 6 1042 41 10000 1 0 15:54 16.05.2020
2934 Clear 6 1042 41 10000 1 0 15:36 16.05.2020
2935 Clouds 2 1041 59 10000 1 0 15:18 16.05.2020
2936 Clouds 2 1041 59 10000 1 0 14:42 16.05.2020
2937 Clouds -6 1040 73 10000 1.5 80 14:20 16.05.2020
2938 Clouds -6 1040 73 10000 1.5 80 13:55 16.05.2020
2939 Clouds -6 1040 73 10000 1.5 80 13:36 16.05.2020
2940 Clouds -4 1039 73 10000 2.6 70 13:18 16.05.2020
2941 Clouds -4 1039 73 10000 2.6 70 12:42 16.05.2020
2942 Clouds -4 1039 73 10000 2.6 70 12:19 16.05.2020
2943 Clouds -5 1039 73 10000 1.5 50 11:42 16.05.2020
2944 Clouds -5 1039 73 10000 1.5 50 11:23 16.05.2020
2945 Clouds -5 1039 85 10000 3.6 80 10:58 16.05.2020
2946 Clouds -5 1039 85 10000 3.6 80 10:39 16.05.2020
2947 Clouds -5 1039 85 10000 3.6 80 10:21 16.05.2020
2948 Clouds -3 1039 79 10000 2.1 60 09:47 16.05.2020
2949 Clouds -3 1039 79 10000 2.1 60 09:28 16.05.2020
2950 Clouds -3 1039 86 10000 3.1 80 08:56 16.05.2020
2951 Clouds -3 1039 86 10000 3.1 80 08:36 16.05.2020
2952 Clouds -1 1040 80 10000 2.6 70 08:18 16.05.2020
2953 Clouds -1 1040 80 10000 2.6 70 08:18 16.05.2020
2954 Clouds -1 1040 80 10000 2.6 70 07:42 16.05.2020
2955 Clouds -1 1040 74 10000 3.1 70 07:21 16.05.2020
2956 Clouds -1 1040 74 10000 3.1 70 06:47 16.05.2020
2957 Clouds 2 1040 55 10000 3.6 70 06:20 16.05.2020
2958 Clouds 2 1040 55 10000 3.6 70 05:42 16.05.2020
2959 Clouds 2 1040 55 10000 3.6 70 05:22 16.05.2020
2960 Clouds 1 1039 37 10000 3.1 50 03:28 16.05.2020
2961 Clouds 3 1038 29 10000 2.1 50 02:45 16.05.2020
2962 Clouds 3 1038 29 10000 2.1 50 02:19 16.05.2020
2963 Clouds 7 1037 22 10000 4.1 80 01:40 16.05.2020
2964 Clouds 12 1037 9 10000 1 0 00:57 16.05.2020
2965 Clouds 12 1037 9 10000 1 0 00:39 16.05.2020
2966 Clouds 12 1037 9 10000 1 0 00:19 16.05.2020
2967 Clouds 14 1037 9 10000 1 0 23:39 15.05.2020
2968 Clouds 14 1037 9 10000 1 0 23:19 15.05.2020
2969 Clouds 14 1037 7 10000 3.6 270 22:42 15.05.2020
2970 Clouds 14 1037 7 10000 3.6 270 22:20 15.05.2020
2971 Clouds 14 1038 9 10000 2.6 310 21:57 15.05.2020
2972 Clouds 14 1038 9 10000 2.6 310 21:38 15.05.2020
2973 Clouds 14 1038 9 10000 2.6 310 21:20 15.05.2020
2974 Clouds 13 1039 8 10000 4.1 290 20:54 15.05.2020
2975 Clouds 13 1039 8 10000 4.1 290 20:36 15.05.2020
2976 Clouds 13 1040 9 10000 2.6 240 20:18 15.05.2020
2977 Clouds 13 1040 9 10000 2.6 240 19:42 15.05.2020
2978 Clouds 13 1040 9 10000 2.6 240 19:23 15.05.2020
2979 Clouds 12 1040 11 10000 2.6 270 18:48 15.05.2020
2980 Clouds 12 1040 11 10000 2.6 270 18:28 15.05.2020
2981 Clouds 11 1041 11 10000 2.1 290 17:59 15.05.2020
2982 Clouds 11 1041 11 10000 2.1 290 17:37 15.05.2020
2983 Clouds 9 1041 15 10000 1 0 17:18 15.05.2020
2984 Clouds 9 1041 15 10000 1 0 17:18 15.05.2020
2985 Clouds 9 1041 15 10000 1 0 16:55 15.05.2020
2986 Clouds 9 1041 15 10000 1 0 16:37 15.05.2020
2987 Clouds 6 1041 30 10000 1 0 16:18 15.05.2020
2988 Clouds 6 1041 30 10000 1 0 15:40 15.05.2020
2989 Clouds 6 1041 30 10000 1 0 15:20 15.05.2020
2990 Clouds 1 1040 43 10000 1.5 110 14:56 15.05.2020
2991 Clouds 1 1040 43 10000 1.5 110 14:38 15.05.2020
2992 Clouds 1 1040 43 10000 1.5 110 14:19 15.05.2020
2993 Clouds -1 1039 39 10000 2.6 10 13:41 15.05.2020
2994 Clouds -1 1039 39 10000 2.6 10 13:22 15.05.2020
2995 Clouds -5 1039 53 10000 1.5 20 12:42 15.05.2020
2996 Clouds -5 1039 53 10000 1.5 20 12:21 15.05.2020
2997 Clouds -5 1038 57 10000 1 0 11:59 15.05.2020
2998 Clouds -5 1038 57 10000 1 0 11:40 15.05.2020
2999 Clouds -5 1038 57 10000 1 0 11:21 15.05.2020
3000 Clouds -5 1038 57 10000 1 0 11:21 15.05.2020
3001 Clouds -5 1038 57 10000 1 0 11:21 15.05.2020
3002 Clouds -1 1038 46 10000 2.6 20 10:59 15.05.2020
3003 Clouds -1 1038 46 10000 2.6 20 10:40 15.05.2020
3004 Clouds -1 1038 46 10000 2.6 20 10:22 15.05.2020
3005 Clouds -3 1039 73 10000 1.5 20 09:59 15.05.2020
3006 Clouds -3 1039 73 10000 1.5 20 09:37 15.05.2020
3007 Clear -3 1039 73 10000 1.5 20 09:19 15.05.2020
3008 Fog -3 1039 92 4000 2.6 60 08:57 15.05.2020
3009 Fog -3 1039 92 4000 2.6 60 08:37 15.05.2020
3010 Fog -1 1039 92 4000 2.6 70 08:18 15.05.2020
3011 Fog -1 1039 92 4000 2.6 70 07:43 15.05.2020
3012 Fog -1 1039 92 4000 2.6 70 07:24 15.05.2020
3013 Fog -1 1039 92 4000 2.6 70 07:24 15.05.2020
3014 Fog 1 1039 73 4000 3.6 100 06:38 15.05.2020
3015 Fog 1 1040 100 3000 1.5 100 05:49 15.05.2020
3016 Fog 1 1039 76 4000 2.6 70 04:27 15.05.2020
3017 Clouds 2 1039 74 10000 3.1 90 03:40 15.05.2020
3018 Clouds 8 1037 22 10000 2.1 330 02:26 15.05.2020
3019 Clear 11 1036 17 10000 3.6 280 01:19 15.05.2020
3020 Clear 11 1036 17 10000 3.6 280 00:45 15.05.2020
3021 Clear 11 1036 17 10000 3.6 280 00:25 15.05.2020
3022 Clouds 13 1036 15 10000 4.1 300 23:43 14.05.2020
3023 Clouds 13 1036 16 10000 6.7 300 23:20 14.05.2020
3024 Clouds 13 1036 16 10000 6.7 300 22:55 14.05.2020
3025 Clouds 13 1036 16 10000 6.7 300 22:37 14.05.2020
3026 Clouds 14 1036 11 10000 6.2 290 22:19 14.05.2020
3027 Clouds 14 1036 11 10000 6.2 290 21:42 14.05.2020
3028 Clouds 14 1036 11 10000 6.2 290 21:20 14.05.2020
3029 Clouds 14 1037 20 10000 6.2 290 20:59 14.05.2020
3030 Clouds 14 1037 20 10000 6.2 290 20:40 14.05.2020
3031 Clouds 14 1037 20 10000 6.2 290 20:20 14.05.2020
3032 Clouds 13 1038 24 10000 6.2 290 19:57 14.05.2020
3033 Clouds 13 1038 24 10000 6.2 290 19:39 14.05.2020
3034 Clouds 11 1039 29 10000 5.1 280 19:20 14.05.2020
3035 Clouds 11 1039 29 10000 5.1 280 18:57 14.05.2020
3036 Clouds 11 1039 29 10000 5.1 280 18:38 14.05.2020
3037 Clouds 11 1039 29 10000 5.1 280 18:19 14.05.2020
3038 Clouds 11 1040 27 10000 5.1 260 17:56 14.05.2020
3039 Clouds 11 1040 27 10000 5.1 260 17:37 14.05.2020
3040 Clouds 9 1040 36 10000 3.6 250 17:18 14.05.2020
3041 Clouds 9 1040 36 10000 3.6 250 16:39 14.05.2020
3042 Clouds 9 1040 36 10000 3.6 250 16:39 14.05.2020
3043 Clouds 9 1040 36 10000 3.6 250 16:21 14.05.2020
3044 Clouds 6 1040 45 10000 1 0 15:59 14.05.2020
3045 Clouds 6 1040 45 10000 1 0 15:40 14.05.2020
3046 Clouds 1 1039 64 10000 1.83 252 15:20 14.05.2020
3047 Clouds 1 1039 64 10000 1.83 252 14:56 14.05.2020
3048 Clouds 1 1039 64 10000 1.83 252 14:38 14.05.2020
3049 Clouds -4 1038 68 10000 1.69 300 14:20 14.05.2020
3050 Clouds -4 1038 68 10000 1.69 300 13:56 14.05.2020
3051 Clouds -4 1038 68 10000 1.69 300 13:38 14.05.2020
3052 Clouds -4 1037 62 10000 1.52 314 13:18 14.05.2020
3053 Clouds -4 1037 62 10000 1.52 314 12:57 14.05.2020
3054 Clouds -4 1037 62 10000 1.52 314 12:37 14.05.2020
3055 Clouds -4 1037 62 10000 1.03 309 12:18 14.05.2020
3056 Clouds -4 1037 62 10000 1.03 309 12:18 14.05.2020
3057 Clouds -4 1037 68 10000 1 0 11:55 14.05.2020
3058 Clouds -4 1037 68 10000 1 0 11:37 14.05.2020
3059 Clouds -3 1037 58 10000 1 0 11:19 14.05.2020
3060 Clouds -3 1037 58 10000 1 0 10:42 14.05.2020
3061 Clouds -3 1037 58 10000 1 0 10:23 14.05.2020
3062 Clouds -4 1037 62 10000 1 0 09:45 14.05.2020
3063 Clouds -4 1037 62 10000 1 0 09:25 14.05.2020
3064 Clouds -2 1038 54 10000 1 0 08:59 14.05.2020
3065 Clouds -2 1038 54 10000 1 0 08:37 14.05.2020
3066 Clouds -2 1038 54 10000 1 0 08:18 14.05.2020
3067 Clouds 3 1038 40 10000 2.1 10 07:44 14.05.2020
3068 Clouds 3 1038 40 10000 2.1 10 07:21 14.05.2020
3069 Clouds 3 1039 34 10000 2.1 360 06:43 14.05.2020
3070 Clouds 3 1039 34 10000 2.1 360 06:24 14.05.2020
3071 Clouds 3 1039 40 10000 1 0 05:42 14.05.2020
3072 Clouds 5 1039 30 10000 1 0 04:45 14.05.2020
3073 Clouds 7 1039 20 10000 2.6 310 03:39 14.05.2020
3074 Clouds 7 1039 20 10000 2.6 310 03:19 14.05.2020
3075 Clear 8 1038 17 10000 3.1 310 02:34 14.05.2020
3076 Clouds 9 1037 19 10000 2.6 330 01:48 14.05.2020
3077 Clouds 11 1036 17 10000 4.6 320 00:53 14.05.2020
3078 Clouds 11 1036 17 10000 4.6 320 00:27 14.05.2020
3079 Clouds 9 1016 48 0 2.2 342 23:45 13.05.2020
3080 Clouds 14 1036 12 10000 6.7 290 23:23 13.05.2020
3081 Clouds 14 1036 12 10000 6.7 290 22:59 13.05.2020
3082 Clouds 14 1036 12 10000 6.7 290 22:40 13.05.2020
3083 Clouds 13 1037 12 10000 5.1 290 22:21 13.05.2020
3084 Clouds 13 1037 12 10000 5.1 290 22:21 13.05.2020
3085 Clouds 13 1037 12 10000 5.1 290 21:57 13.05.2020
3086 Clouds 13 1037 12 10000 5.1 290 21:39 13.05.2020
3087 Clear 13 1038 10 10000 5.1 280 21:19 13.05.2020
3088 Clear 13 1038 10 10000 5.1 280 20:41 13.05.2020
3089 Clear 13 1038 10 10000 5.1 280 20:23 13.05.2020
3090 Clear 12 1039 12 10000 5.7 290 19:56 13.05.2020
3091 Clear 12 1039 12 10000 5.7 290 19:38 13.05.2020
3092 Clear 12 1039 12 10000 5.7 290 19:19 13.05.2020
3093 Clear 11 1040 17 10000 5.1 280 18:42 13.05.2020
3094 Clouds 11 1040 17 10000 5.1 280 18:21 13.05.2020
3095 Clouds 9 1041 19 10000 3.6 290 17:40 13.05.2020
3096 Clouds 9 1041 19 10000 3.6 290 17:20 13.05.2020
3097 Clouds 6 1041 22 10000 2.1 270 16:58 13.05.2020
3098 Clouds 6 1041 22 10000 2.1 270 16:39 13.05.2020
3099 Clouds 6 1041 22 10000 2.1 270 16:19 13.05.2020
3100 Clouds 4 1041 25 10000 2.1 270 16:19 13.05.2020
3101 Clouds 4 1041 25 10000 2.1 270 15:43 13.05.2020
3102 Clouds 4 1041 25 10000 2.1 270 15:20 13.05.2020
3103 Clouds 2 1041 31 10000 2.1 360 14:58 13.05.2020
3104 Clouds 2 1041 31 10000 2.1 360 14:40 13.05.2020
3105 Clouds 2 1041 31 10000 2.1 360 14:22 13.05.2020
3106 Clouds -1 1041 39 10000 2.1 10 13:57 13.05.2020
3107 Clouds -1 1041 39 10000 2.1 10 13:39 13.05.2020
3108 Clouds -1 1040 36 10000 2.1 10 13:20 13.05.2020
3109 Clouds -1 1040 36 10000 2.1 10 12:54 13.05.2020
3110 Clouds -1 1040 36 10000 2.1 10 12:36 13.05.2020
3111 Clouds -1 1040 39 10000 2.1 10 12:18 13.05.2020
3112 Clouds -1 1040 39 10000 2.1 10 11:54 13.05.2020
3113 Clouds -1 1040 39 10000 2.1 10 11:36 13.05.2020
3114 Clouds -3 1039 42 10000 1 0 11:18 13.05.2020
3115 Clouds -3 1039 42 10000 1 0 10:54 13.05.2020
3116 Clouds -3 1039 42 10000 1 0 10:36 13.05.2020
3117 Clouds -1 1039 39 10000 1.5 360 10:18 13.05.2020
3118 Clouds -1 1039 39 10000 1.5 360 09:40 13.05.2020
3119 Clouds -1 1039 39 10000 1.5 360 09:22 13.05.2020
3120 Clouds 2 1021 68 0 1.35 258 08:42 13.05.2020
3121 Clouds 0 1041 66 10000 1 0 08:22 13.05.2020
3122 Clouds 0 1041 66 10000 1 0 07:59 13.05.2020
3123 Clouds 0 1041 66 10000 1 0 07:59 13.05.2020
3124 Clouds 0 1041 66 10000 1 0 07:36 13.05.2020
3125 Clouds 3 1041 25 10000 2.1 160 06:59 13.05.2020
3126 Clouds 3 1041 25 10000 2.1 160 06:41 13.05.2020
3127 Clouds 2 1040 24 10000 1 0 05:50 13.05.2020
3128 Clouds 5 1039 18 10000 4.1 250 04:22 13.05.2020
3129 Clear 8 1038 26 10000 4.1 250 02:59 13.05.2020
3130 Clear 8 1038 26 10000 4.1 250 02:20 13.05.2020
3131 Clear 13 1036 19 10000 4.6 290 01:21 13.05.2020
3132 Clear 13 1036 19 10000 4.6 290 00:39 13.05.2020
3133 Clear 13 1036 19 10000 4.6 290 00:18 13.05.2020
3134 Clouds 15 1036 16 10000 5.7 280 23:39 12.05.2020
3135 Clouds 15 1036 16 10000 5.7 280 23:21 12.05.2020
3136 Clouds 16 1036 18 10000 6.2 270 22:55 12.05.2020
3137 Clouds 16 1036 18 10000 6.2 270 22:36 12.05.2020
3138 Clouds 16 1036 18 10000 6.2 270 22:18 12.05.2020
3139 Clouds 15 1037 21 10000 7.2 290 21:54 12.05.2020
3140 Clouds 15 1037 21 10000 7.2 290 21:36 12.05.2020
3141 Clouds 15 1037 21 10000 7.2 290 21:36 12.05.2020
3142 Clouds 15 1037 21 10000 6.2 290 21:18 12.05.2020
3143 Clouds 15 1037 21 10000 6.2 290 20:41 12.05.2020
3144 Clouds 15 1037 21 10000 6.2 290 20:23 12.05.2020
3145 Clouds 14 1038 20 10000 4.6 280 19:59 12.05.2020
3146 Clouds 14 1038 20 10000 4.6 280 19:40 12.05.2020
3147 Clouds 13 1040 19 10000 4.6 260 19:21 12.05.2020
3148 Clouds 13 1040 19 10000 4.6 260 18:57 12.05.2020
3149 Clouds 13 1040 19 10000 4.6 260 18:38 12.05.2020
3150 Clouds 13 1040 19 10000 4.6 260 18:20 12.05.2020
3151 Clouds 11 1040 20 10000 3.1 230 17:43 12.05.2020
3152 Clouds 11 1040 20 10000 3.1 230 17:24 12.05.2020
3153 Clear 9 1041 18 10000 2.6 250 16:47 12.05.2020
3154 Clear 9 1041 18 10000 2.6 250 16:26 12.05.2020
3155 Clear 7 1040 19 10000 2.6 230 15:57 12.05.2020
3156 Clear 7 1040 19 10000 2.6 230 15:39 12.05.2020
3157 Clear 7 1040 19 10000 2.6 230 15:39 12.05.2020
3158 Clear 7 1040 19 10000 2.6 230 15:19 12.05.2020
3159 Clear 5 1040 30 10000 1.5 360 14:57 12.05.2020
3160 Clear 5 1040 30 10000 1.5 360 14:38 12.05.2020
3161 Clear 1 1039 37 10000 2.1 10 14:20 12.05.2020
3162 Clear 1 1039 37 10000 2.1 10 13:58 12.05.2020
3163 Clear 1 1039 37 10000 2.1 10 13:39 12.05.2020
3164 Clear 1 1039 43 10000 1.5 10 13:19 12.05.2020
3165 Clear 1 1039 43 10000 1.5 10 12:57 12.05.2020
3166 Clear 1 1039 43 10000 1.5 10 12:39 12.05.2020
3167 Clear 1 1039 43 10000 1.5 10 12:21 12.05.2020
3168 Clear 1 1039 50 10000 1 0 11:58 12.05.2020
3169 Clear 1 1039 50 10000 1 0 11:38 12.05.2020
3170 Clouds 1 1039 50 10000 1 0 11:20 12.05.2020
3171 Clouds 2 1038 37 10000 1.06 289 10:58 12.05.2020
3172 Clouds 2 1038 37 10000 1.06 289 10:39 12.05.2020
3173 Clouds 2 1038 37 10000 1.09 266 10:21 12.05.2020
3174 Clouds 3 1038 47 10000 1 0 09:58 12.05.2020
3175 Clouds 3 1038 47 10000 1 0 09:39 12.05.2020
3176 Clear 3 1038 47 10000 1 0 09:20 12.05.2020
3177 Clear -1 1038 54 10000 1 0 08:42 12.05.2020
3178 Clear 1 1039 50 10000 2.1 40 08:22 12.05.2020
3179 Clear 1 1039 50 10000 2.1 40 07:58 12.05.2020
3180 Clear 1 1039 50 10000 2.1 40 07:40 12.05.2020
3181 Clear 1 1039 50 10000 2.1 40 07:40 12.05.2020
3182 Clear 1 1039 50 10000 2.1 40 07:20 12.05.2020
3183 Clear 4 1039 35 10000 1 0 06:38 12.05.2020
3184 Clear 4 1039 55 10000 1 0 06:20 12.05.2020
3185 Clear 4 1039 55 10000 1 0 05:46 12.05.2020
3186 Clear 5 1039 60 10000 1 0 04:41 12.05.2020
3187 Clear 6 1038 33 10000 3.1 40 03:22 12.05.2020
3188 Clear 9 1037 29 10000 2.1 340 02:27 12.05.2020
3189 Clear 10 1037 27 10000 3.1 310 01:46 12.05.2020
3190 Clear 13 1036 19 10000 4.6 290 00:59 12.05.2020
3191 Clear 13 1036 19 10000 4.6 290 00:24 12.05.2020
3192 Clouds 16 1036 15 10000 5.1 290 23:57 11.05.2020
3193 Clouds 16 1036 15 10000 5.1 290 23:38 11.05.2020
3194 Clouds 17 1036 14 10000 6.7 290 23:19 11.05.2020
3195 Clouds 17 1036 14 10000 6.7 290 22:57 11.05.2020
3196 Clouds 17 1036 14 10000 6.7 290 22:39 11.05.2020
3197 Clouds 17 1036 14 10000 6.7 290 22:39 11.05.2020
3198 Clouds 17 1036 14 10000 6.7 290 22:19 11.05.2020
3199 Clouds 17 1037 14 10000 4.1 280 21:55 11.05.2020
3200 Clouds 17 1037 14 10000 4.1 280 21:36 11.05.2020
3201 Clouds 17 1037 14 10000 4.1 280 21:36 11.05.2020
3202 Clouds 17 1037 14 10000 4.1 280 21:18 11.05.2020
3203 Clouds 17 1037 16 10000 4.6 260 20:54 11.05.2020
3204 Clouds 17 1037 16 10000 4.6 260 20:36 11.05.2020
3205 Clouds 16 1039 15 10000 3.6 280 20:18 11.05.2020
3206 Clouds 16 1039 15 10000 3.6 280 19:41 11.05.2020
3207 Clouds 16 1039 15 10000 3.6 280 19:22 11.05.2020
3208 Clouds 14 1040 16 10000 2.6 250 18:57 11.05.2020
3209 Clouds 14 1040 16 10000 2.6 250 18:38 11.05.2020
3210 Clouds 13 1041 15 10000 2.6 240 18:19 11.05.2020
3211 Clouds 13 1041 15 10000 2.6 240 17:57 11.05.2020
3212 Clouds 13 1041 15 10000 2.6 240 17:39 11.05.2020
3213 Clouds 13 1041 15 10000 2.6 240 17:20 11.05.2020
3214 Clear 12 1041 16 10000 2.1 170 16:56 11.05.2020
3215 Clear 12 1041 16 10000 2.1 170 16:37 11.05.2020
3216 Clear 12 1041 16 10000 2.1 170 16:18 11.05.2020
3217 Clear 10 1040 23 10000 1 0 15:42 11.05.2020
3218 Clear 10 1040 23 10000 1 0 15:20 11.05.2020
3219 Clear 7 1040 28 10000 1 0 14:58 11.05.2020
3220 Clear 7 1040 28 10000 1 0 14:40 11.05.2020
3221 Clear 7 1040 28 10000 1 0 14:21 11.05.2020
3222 Clear 3 1039 34 10000 3.1 10 13:42 11.05.2020
3223 Clear 3 1039 34 10000 3.1 10 13:22 11.05.2020
3224 Clear 3 1038 34 10000 3.1 20 12:59 11.05.2020
3225 Clear 3 1038 34 10000 3.1 20 12:41 11.05.2020
3226 Clear 3 1038 34 10000 3.1 20 12:22 11.05.2020
3227 Clear 3 1038 37 10000 2.6 10 11:57 11.05.2020
3228 Clear 3 1038 37 10000 2.6 10 11:39 11.05.2020
3229 Clear 3 1038 37 10000 2.6 10 11:21 11.05.2020
3230 Clear 4 1038 41 10000 2.6 350 10:56 11.05.2020
3231 Clear 4 1038 41 10000 2.6 350 10:38 11.05.2020
3232 Clear 2 1038 64 10000 1.5 20 10:20 11.05.2020
3233 Clear 2 1038 64 10000 1.5 20 09:56 11.05.2020
3234 Clear 2 1038 64 10000 1.5 20 09:37 11.05.2020
3235 Clouds 2 1038 64 10000 1.5 20 09:18 11.05.2020
3236 Clouds 5 1039 56 10000 2.1 10 09:18 11.05.2020
3237 Clouds 5 1039 56 10000 2.1 10 08:42 11.05.2020
3238 Clouds 5 1039 56 10000 2.1 10 08:23 11.05.2020
3239 Clouds 2 1039 69 10000 1.5 20 07:56 11.05.2020
3240 Clouds 2 1039 69 10000 1.5 20 07:38 11.05.2020
3241 Clouds 2 1039 69 10000 1.5 20 07:19 11.05.2020
3242 Clouds 3 1039 74 10000 1 0 06:33 11.05.2020
3243 Clouds 4 1038 80 10000 1 0 05:49 11.05.2020
3244 Clouds 8 1038 70 10000 1 0 05:20 11.05.2020
3245 Clouds 7 1038 70 10000 2.1 100 03:51 11.05.2020
3246 Clouds 8 1037 65 10000 1 0 02:36 11.05.2020
3247 Clouds 11 1036 53 10000 2.6 90 01:55 11.05.2020
3248 Rain 15 1036 38 8000 3.1 100 00:55 11.05.2020
3249 Rain 15 1036 38 8000 3.1 100 00:30 11.05.2020
3250 Rain 18 1036 27 8000 4.1 290 23:59 10.05.2020
3251 Rain 18 1036 27 8000 4.1 290 23:39 10.05.2020
3252 Rain 18 1036 27 8000 4.1 290 23:19 10.05.2020
3253 Clouds 17 1036 33 10000 3.1 180 22:42 10.05.2020
3254 Clouds 17 1036 33 10000 3.1 180 22:24 10.05.2020
3255 Clouds 16 1036 38 10000 3.1 190 21:55 10.05.2020
3256 Clouds 16 1036 38 10000 3.1 190 21:37 10.05.2020
3257 Clouds 15 1037 38 10000 6.7 200 21:18 10.05.2020
3258 Clouds 15 1037 38 10000 6.7 200 20:41 10.05.2020
3259 Clouds 15 1037 38 10000 6.7 200 20:23 10.05.2020
3260 Clouds 16 1038 40 10000 3.6 220 19:56 10.05.2020
3261 Clouds 16 1038 40 10000 3.6 220 19:38 10.05.2020
3262 Clouds 16 1038 40 10000 3.6 220 19:20 10.05.2020
3263 Clouds 15 1040 41 10000 3.1 240 18:54 10.05.2020
3264 Clouds 15 1040 41 10000 3.1 240 18:36 10.05.2020
3265 Clouds 15 1040 41 10000 3.1 240 18:36 10.05.2020
3266 Clouds 15 1040 41 10000 3.1 240 18:36 10.05.2020
3267 Clouds 15 1040 44 10000 3.6 240 18:18 10.05.2020
3268 Clouds 15 1040 44 10000 3.6 240 17:55 10.05.2020
3269 Clouds 15 1040 44 10000 3.6 240 17:36 10.05.2020
3270 Clouds 13 1040 54 10000 3.6 280 17:18 10.05.2020
3271 Clouds 13 1040 54 10000 3.6 280 16:41 10.05.2020
3272 Clouds 11 1040 62 10000 4.1 290 16:20 10.05.2020
3273 Clouds 11 1040 62 10000 4.1 290 15:57 10.05.2020
3274 Clouds 11 1040 62 10000 4.1 290 15:36 10.05.2020
3275 Clouds 11 1040 62 10000 4.1 290 15:36 10.05.2020
3276 Clouds 7 1039 70 10000 1 0 15:18 10.05.2020
3277 Clouds 7 1039 70 10000 1 0 14:55 10.05.2020
3278 Clouds 7 1039 70 10000 1 0 14:37 10.05.2020
3279 Clouds 4 1039 86 10000 1.5 350 14:18 10.05.2020
3280 Clouds 4 1039 86 10000 1.5 350 13:39 10.05.2020
3281 Clouds 4 1039 86 10000 1.5 350 13:21 10.05.2020
3282 Clouds 1 1039 80 10000 1 0 12:59 10.05.2020
3283 Clouds 1 1039 80 10000 1 0 12:41 10.05.2020
3284 Clouds 1 1039 80 10000 1 0 12:21 10.05.2020
3285 Clouds 5 1038 75 10000 1 0 11:58 10.05.2020
3286 Clouds 5 1038 75 10000 1 0 11:40 10.05.2020
3287 Clouds 5 1038 75 10000 1 0 11:20 10.05.2020
3288 Clouds 7 1038 70 10000 1 0 10:48 10.05.2020
3289 Clouds 7 1038 70 10000 1 0 10:29 10.05.2020
3290 Clouds 8 1038 61 10000 3.6 320 09:59 10.05.2020
3291 Clouds 8 1038 61 10000 3.6 320 09:40 10.05.2020
3292 Clouds 8 1038 61 10000 3.6 320 09:21 10.05.2020
3293 Clouds 8 1039 61 10000 4.1 320 08:52 10.05.2020
3294 Clouds 8 1039 61 10000 4.1 320 08:24 10.05.2020
3295 Clouds 9 1040 65 10000 4.1 330 07:56 10.05.2020
3296 Clouds 9 1040 65 10000 4.1 330 07:37 10.05.2020
3297 Clouds 9 1040 67 10000 4.1 330 07:19 10.05.2020
3298 Clouds 8 1040 52 10000 2.1 350 06:48 10.05.2020
3299 Clouds 8 1040 52 10000 2.1 350 06:21 10.05.2020
3300 Clouds 5 1040 60 10000 1 0 05:43 10.05.2020
3301 Clouds 4 1039 55 10000 1.5 100 04:41 10.05.2020
3302 Clouds 4 1039 55 10000 1.5 100 04:22 10.05.2020
3303 Clouds 5 1039 52 10000 2.1 50 03:41 10.05.2020
3304 Clouds 7 1038 42 10000 1 0 02:54 10.05.2020
3305 Clouds 7 1038 42 10000 1 0 02:24 10.05.2020
3306 Clouds 7 1038 42 10000 1 0 02:24 10.05.2020
3307 Clouds 9 1037 31 10000 3.1 80 01:43 10.05.2020
3308 Clouds 9 1037 31 10000 3.1 80 01:23 10.05.2020
3309 Clouds 14 1037 20 10000 3.6 130 00:57 10.05.2020
3310 Clouds 14 1037 20 10000 3.6 130 00:36 10.05.2020
3311 Clouds 17 1037 14 10000 3.1 110 00:18 10.05.2020
3312 Clouds 17 1037 14 10000 3.1 110 23:39 09.05.2020
3313 Clouds 17 1037 14 10000 3.1 110 23:20 09.05.2020
3314 Clouds 18 1037 15 10000 3.6 50 22:44 09.05.2020
3315 Clouds 18 1037 15 10000 3.6 50 22:25 09.05.2020
3316 Clouds 18 1037 15 10000 3.6 50 22:25 09.05.2020
3317 Clouds 19 1038 13 10000 3.1 40 21:59 09.05.2020
3318 Clouds 19 1038 13 10000 3.1 40 21:41 09.05.2020
3319 Clouds 19 1038 13 10000 3.1 40 21:22 09.05.2020
3320 Clouds 18 1039 15 10000 2.6 290 20:58 09.05.2020
3321 Clouds 18 1039 15 10000 2.6 290 20:39 09.05.2020
3322 Clouds 18 1039 15 10000 2.6 290 20:20 09.05.2020
3323 Clouds 17 1040 20 10000 2.1 300 19:58 09.05.2020
3324 Clouds 17 1040 20 10000 2.1 300 19:38 09.05.2020
3325 Clouds 17 1040 20 10000 2.1 300 19:19 09.05.2020
3326 Clouds 15 1041 24 10000 2.6 200 18:44 09.05.2020
3327 Clouds 15 1041 24 10000 2.6 200 18:26 09.05.2020
3328 Clouds 13 1042 28 10000 1 0 17:46 09.05.2020
3329 Clouds 13 1042 28 10000 1 0 17:23 09.05.2020
3330 Clouds 11 1042 32 10000 2.1 230 16:58 09.05.2020
3331 Clouds 11 1042 32 10000 2.1 230 16:58 09.05.2020
3332 Clouds 11 1042 32 10000 2.1 230 16:40 09.05.2020
3333 Clouds 11 1042 32 10000 2.1 230 16:19 09.05.2020
3334 Clouds 8 1042 49 10000 1 0 15:45 09.05.2020
3335 Clouds 8 1042 49 10000 1 0 15:26 09.05.2020
3336 Clouds 6 1042 52 10000 1 0 14:57 09.05.2020
3337 Clouds 6 1042 52 10000 1 0 14:39 09.05.2020
3338 Clouds 6 1042 52 10000 1 0 14:18 09.05.2020
3339 Clouds 2 1041 51 10000 1.5 10 13:56 09.05.2020
3340 Clouds 2 1041 51 10000 1.5 10 13:38 09.05.2020
3341 Clouds -2 1040 68 10000 1.5 20 13:18 09.05.2020
3342 Clouds -2 1040 68 10000 1.5 20 12:41 09.05.2020
3343 Clouds 1 1040 50 10000 1.5 30 12:22 09.05.2020
3344 Clouds 1 1040 50 10000 1.5 30 11:45 09.05.2020
3345 Clouds -3 1040 79 10000 1.5 60 11:20 09.05.2020
3346 Clouds -3 1040 79 10000 1.5 60 10:56 09.05.2020
3347 Clouds -3 1040 79 10000 1.5 60 10:38 09.05.2020
3348 Clouds -1 1040 74 10000 1.5 80 10:20 09.05.2020
3349 Clouds -1 1040 74 10000 1.5 80 09:54 09.05.2020
3350 Clouds -1 1040 74 10000 1.5 80 09:36 09.05.2020
3351 Clouds 4 1040 64 10000 1.5 320 09:18 09.05.2020
3352 Clouds 4 1021 72 0 0.53 26 08:43 09.05.2020
3353 Clouds 5 1022 69 0 1.04 53 08:25 09.05.2020
3354 Clouds 5 1022 69 0 1.04 53 07:48 09.05.2020
3355 Clouds 3 1040 64 10000 3.1 60 07:30 09.05.2020
3356 Clouds 3 1040 64 10000 3.1 60 06:45 09.05.2020
3357 Clouds 3 1040 64 10000 3.1 60 06:21 09.05.2020
3358 Clear 6 1022 71 0 1.38 62 05:44 09.05.2020
3359 Clouds 5 1040 38 10000 3.1 80 03:44 09.05.2020
3360 Clouds 9 1040 31 10000 2.1 50 02:55 09.05.2020
3361 Clouds 9 1040 31 10000 2.1 50 02:30 09.05.2020
3362 Clouds 9 1038 34 10000 4.6 70 01:51 09.05.2020
3363 Clouds 9 1038 34 10000 4.6 70 01:23 09.05.2020
3364 Clouds 13 1038 22 10000 5.1 110 00:44 09.05.2020
3365 Clouds 16 1038 18 10000 4.1 110 00:24 09.05.2020
3366 Clouds 16 1038 18 10000 4.1 110 23:48 08.05.2020
3367 Clouds 16 1038 18 10000 4.1 110 23:28 08.05.2020
3368 Clouds 16 1038 19 10000 3.6 110 22:57 08.05.2020
3369 Clouds 16 1038 19 10000 3.6 110 22:39 08.05.2020
3370 Clouds 17 1039 14 10000 5.1 140 22:19 08.05.2020
3371 Clouds 17 1039 14 10000 5.1 140 21:55 08.05.2020
3372 Clouds 17 1039 14 10000 5.1 140 21:37 08.05.2020
3373 Clouds 16 1040 9 10000 4.6 130 21:18 08.05.2020
3374 Clouds 16 1040 9 10000 4.6 130 20:56 08.05.2020
3375 Clouds 16 1040 9 10000 4.6 130 20:38 08.05.2020
3376 Clouds 16 1040 9 10000 4.6 130 20:19 08.05.2020
3377 Clouds 16 1041 10 10000 4.1 130 20:19 08.05.2020
3378 Clouds 16 1041 10 10000 4.1 130 19:42 08.05.2020
3379 Clouds 15 1042 22 10000 2.6 140 19:21 08.05.2020
3380 Clouds 15 1042 22 10000 2.6 140 18:50 08.05.2020
3381 Clouds 15 1042 22 10000 2.6 140 18:31 08.05.2020
3382 Clouds 14 1020 37 0 2.69 154 17:43 08.05.2020
3383 Clouds 13 1043 43 10000 1.5 150 17:20 08.05.2020
3384 Clouds 13 1043 43 10000 1.5 150 16:56 08.05.2020
3385 Clouds 13 1043 43 10000 1.5 150 16:38 08.05.2020
3386 Clouds 10 1042 53 10000 2.07 153 16:19 08.05.2020
3387 Clouds 10 1042 53 10000 2.07 153 15:43 08.05.2020
3388 Clouds 10 1042 53 10000 1.46 135 15:22 08.05.2020
3389 Clouds 6 1041 70 10000 1 0 14:57 08.05.2020
3390 Clouds 6 1041 70 10000 1 0 14:39 08.05.2020
3391 Clouds 2 1040 57 10000 1 0 14:19 08.05.2020
3392 Clouds 2 1040 57 10000 1 0 13:56 08.05.2020
3393 Clouds 2 1040 57 10000 1 0 13:38 08.05.2020
3394 Clouds -1 1039 86 10000 1 0 13:18 08.05.2020
3395 Clouds -1 1039 86 10000 1 0 12:44 08.05.2020
3396 Clouds -1 1039 86 10000 1 0 12:23 08.05.2020
3397 Clouds -1 1039 86 10000 1 0 11:54 08.05.2020
3398 Clouds -1 1039 86 10000 1 0 11:36 08.05.2020
3399 Clouds 0 1040 71 10000 1 0 11:18 08.05.2020
3400 Clouds 0 1040 71 10000 1 0 10:42 08.05.2020
3401 Fog 1 1040 74 4000 2.6 110 10:20 08.05.2020
3402 Fog 1 1040 74 4000 2.6 110 09:58 08.05.2020
3403 Fog 1 1040 74 4000 2.6 110 09:39 08.05.2020
3404 Fog 4 1040 93 2000 2.6 90 09:18 08.05.2020
3405 Fog 4 1040 93 2000 2.6 90 08:45 08.05.2020
3406 Fog 4 1040 93 2000 2.6 90 08:22 08.05.2020
3407 Fog 4 1040 100 300 4.1 90 07:44 08.05.2020
3408 Fog 4 1040 100 300 4.1 90 07:25 08.05.2020
3409 Fog 4 1040 100 300 4.1 80 06:51 08.05.2020
3410 Fog 4 1040 100 300 4.1 80 06:24 08.05.2020
3411 Fog 4 1041 100 600 4.1 70 05:52 08.05.2020
3412 Clouds 4 1040 93 10000 3.6 70 04:41 08.05.2020
3413 Clouds 5 1039 86 10000 2.1 70 02:35 08.05.2020
3414 Clouds 7 1038 75 10000 3.1 70 01:56 08.05.2020
3415 Clouds 7 1038 75 10000 3.1 70 01:28 08.05.2020
3416 Clouds 11 1037 57 10000 4.6 100 00:55 08.05.2020
3417 Clouds 11 1037 57 10000 4.6 100 00:32 08.05.2020
3418 Clouds 15 1037 57 10000 4.6 120 23:59 07.05.2020
3419 Clouds 15 1037 57 10000 4.6 120 23:40 07.05.2020
3420 Clouds 15 1037 43 10000 4.6 120 23:22 07.05.2020
3421 Clouds 16 1037 43 10000 4.6 140 22:57 07.05.2020
3422 Clouds 16 1037 43 10000 4.6 140 22:38 07.05.2020
3423 Clouds 16 1037 43 10000 4.6 140 22:38 07.05.2020
3424 Clouds 15 1038 38 10000 3.6 140 22:19 07.05.2020
3425 Clouds 15 1038 38 10000 3.6 140 21:55 07.05.2020
3426 Clouds 15 1038 38 10000 3.6 140 21:36 07.05.2020
3427 Clouds 15 1039 44 10000 3.1 90 21:18 07.05.2020
3428 Clouds 15 1039 44 10000 3.1 90 20:42 07.05.2020
3429 Clouds 15 1039 44 10000 3.1 90 20:23 07.05.2020
3430 Clouds 15 1040 44 10000 2.6 100 19:56 07.05.2020
3431 Clouds 15 1040 44 10000 2.6 100 19:38 07.05.2020
3432 Clouds 15 1040 44 10000 2.6 100 19:38 07.05.2020
3433 Clouds 15 1040 44 10000 2.6 100 19:19 07.05.2020
3434 Clouds 14 1040 54 10000 3.1 80 18:44 07.05.2020
3435 Clouds 14 1040 54 10000 3.1 80 18:26 07.05.2020
3436 Clouds 11 1041 66 10000 3.1 120 17:44 07.05.2020
3437 Clouds 9 1041 76 10000 2.6 140 17:21 07.05.2020
3438 Clouds 9 1041 76 10000 2.6 140 16:59 07.05.2020
3439 Clouds 9 1041 76 10000 2.6 140 16:40 07.05.2020
3440 Clouds 9 1040 76 6000 1 0 16:18 07.05.2020
3441 Clouds 9 1040 76 6000 1 0 15:56 07.05.2020
3442 Clouds 9 1040 76 6000 1 0 15:37 07.05.2020
3443 Fog 6 1040 100 4000 2.1 70 15:18 07.05.2020
3444 Fog 6 1040 100 4000 2.1 70 14:43 07.05.2020
3445 Fog 6 1040 100 4000 2.1 70 14:20 07.05.2020
3446 Fog 4 1039 100 3000 2.6 70 13:44 07.05.2020
3447 Fog 4 1039 100 3000 2.6 70 13:25 07.05.2020
3448 Fog 6 1039 93 4000 1.5 70 12:45 07.05.2020
3449 Fog 6 1039 93 4000 1.5 70 12:20 07.05.2020
3450 Fog 5 1039 100 4000 2.1 70 11:59 07.05.2020
3451 Fog 5 1039 100 4000 2.1 70 11:39 07.05.2020
3452 Fog 5 1039 100 4000 2.1 70 11:21 07.05.2020
3453 Fog 5 1039 93 4000 1.5 80 10:43 07.05.2020
3454 Fog 5 1039 93 4000 1.5 80 10:24 07.05.2020
3455 Fog 6 1039 93 4000 1.5 70 09:41 07.05.2020
3456 Fog 5 1040 93 4000 2.6 60 09:21 07.05.2020
3457 Fog 5 1040 93 4000 2.6 60 08:59 07.05.2020
3458 Fog 5 1040 93 4000 2.6 60 08:59 07.05.2020
3459 Fog 5 1040 93 4000 2.6 60 08:41 07.05.2020
3460 Clouds 7 1022 80 0 0.75 71 08:21 07.05.2020
3461 Clouds 7 1022 80 0 0.75 71 07:49 07.05.2020
3462 Fog 7 1040 93 4000 2.6 120 07:31 07.05.2020
3463 Fog 7 1040 93 4000 2.6 120 06:56 07.05.2020
3464 Fog 7 1040 93 4000 2.6 120 06:35 07.05.2020
3465 Fog 6 1040 93 3000 2.6 80 05:38 07.05.2020
3466 Fog 6 1039 100 4000 4.1 70 04:26 07.05.2020
3467 Clouds 6 1038 81 10000 2.6 90 03:26 07.05.2020
3468 Clouds 7 1038 75 10000 3.1 70 02:55 07.05.2020
3469 Clouds 10 1037 66 10000 2.6 100 01:46 07.05.2020
3470 Clouds 10 1037 66 10000 2.6 100 01:24 07.05.2020
3471 Clouds 14 1036 35 10000 4.1 310 00:50 07.05.2020
3472 Clouds 14 1036 35 10000 4.1 310 00:28 07.05.2020
3473 Clouds 16 1036 29 10000 3.1 290 23:48 06.05.2020
3474 Clouds 16 1036 29 10000 3.1 290 23:26 06.05.2020
3475 Clouds 17 1036 27 10000 5.1 270 22:58 06.05.2020
3476 Clouds 17 1036 27 10000 5.1 270 22:40 06.05.2020
3477 Clouds 15 1037 30 10000 5.1 270 22:20 06.05.2020
3478 Clouds 15 1037 30 10000 5.1 270 21:58 06.05.2020
3479 Clouds 15 1037 30 10000 5.1 270 21:40 06.05.2020
3480 Clouds 15 1037 30 10000 5.1 270 21:21 06.05.2020
3481 Clouds 16 1038 45 10000 4.6 280 20:43 06.05.2020
3482 Clouds 16 1038 46 10000 4.6 280 20:25 06.05.2020
3483 Clouds 16 1039 46 10000 4.6 290 19:59 06.05.2020
3484 Clouds 16 1039 46 10000 4.6 290 19:39 06.05.2020
3485 Clouds 15 1040 38 10000 4.1 300 19:20 06.05.2020
3486 Clouds 15 1040 38 10000 4.1 300 18:59 06.05.2020
3487 Clouds 15 1040 38 10000 4.1 300 18:41 06.05.2020
3488 Clouds 15 1040 38 10000 4.1 300 18:21 06.05.2020
3489 Clouds 13 1041 47 10000 3.6 290 17:59 06.05.2020
3490 Clouds 13 1041 47 10000 3.6 290 17:39 06.05.2020
3491 Clouds 9 1041 66 10000 2.6 260 17:21 06.05.2020
3492 Clouds 13 1041 47 10000 3.6 290 17:21 06.05.2020
3493 Clouds 9 1041 66 10000 2.6 260 16:58 06.05.2020
3494 Clouds 9 1041 66 10000 2.6 260 16:40 06.05.2020
3495 Clouds 9 1041 66 10000 2.6 260 16:21 06.05.2020
3496 Clouds 7 1040 70 10000 1 0 15:58 06.05.2020
3497 Clouds 7 1040 70 10000 1 0 15:40 06.05.2020
3498 Clouds 7 1040 70 10000 1 0 15:20 06.05.2020
3499 Clouds 6 1040 75 10000 1 0 14:45 06.05.2020
3500 Clouds 6 1040 75 10000 1 0 14:20 06.05.2020
3501 Fog 2 1039 93 4000 2.1 70 13:59 06.05.2020
3502 Fog 2 1039 93 4000 2.1 70 13:41 06.05.2020
3503 Fog 2 1039 93 4000 2.1 70 13:22 06.05.2020
3504 Fog 4 1038 93 4000 1.5 60 12:54 06.05.2020
3505 Fog 4 1038 93 4000 1.5 60 12:36 06.05.2020
3506 Fog 2 1038 100 4000 2.6 60 12:18 06.05.2020
3507 Fog 2 1038 100 4000 2.6 60 11:40 06.05.2020
3508 Fog 2 1038 100 4000 2.6 60 11:21 06.05.2020
3509 Fog 4 1037 100 4000 3.1 100 10:57 06.05.2020
3510 Fog 4 1037 100 4000 3.1 100 10:37 06.05.2020
3511 Fog 5 1038 86 4000 2.1 80 10:18 06.05.2020
3512 Fog 5 1038 86 4000 2.1 80 09:41 06.05.2020
3513 Fog 5 1038 86 4000 2.1 80 09:22 06.05.2020
3514 Clouds 6 1038 93 10000 3.1 50 08:45 06.05.2020
3515 Clouds 6 1038 93 10000 3.1 50 08:23 06.05.2020
3516 Clouds 6 1038 93 10000 3.1 50 08:23 06.05.2020
3517 Clouds 7 1039 87 10000 1.5 50 07:59 06.05.2020
3518 Clouds 7 1039 87 10000 1.5 50 07:39 06.05.2020
3519 Clouds 7 1039 87 10000 1.5 50 07:20 06.05.2020
3520 Clouds 7 1039 81 10000 2.1 150 06:51 06.05.2020
3521 Clouds 7 1039 81 10000 2.1 150 06:21 06.05.2020
3522 Clouds 6 1039 81 10000 2.1 90 05:52 06.05.2020
3523 Clouds 6 1039 81 10000 2.1 90 05:34 06.05.2020
3524 Clouds 5 1038 80 10000 4.1 60 04:31 06.05.2020
3525 Clouds 7 1038 65 10000 2.6 80 03:36 06.05.2020
3526 Clouds 9 1037 57 10000 3.1 80 02:58 06.05.2020
3527 Clouds 9 1037 57 10000 3.1 80 02:29 06.05.2020
3528 Clouds 10 1036 46 10000 2.1 290 01:53 06.05.2020
3529 Clouds 10 1036 46 10000 2.1 290 01:28 06.05.2020
3530 Clouds 12 1035 34 10000 4.1 260 00:46 06.05.2020
3531 Clouds 12 1035 34 10000 4.1 260 00:23 06.05.2020
3532 Clouds 15 1035 28 10000 5.7 250 23:42 05.05.2020
3533 Clouds 15 1035 28 10000 5.7 250 23:20 05.05.2020
3534 Clouds 16 1035 29 10000 5.7 270 22:57 05.05.2020
3535 Clouds 16 1035 29 10000 5.7 270 22:39 05.05.2020
3536 Clouds 15 1035 33 10000 2.1 320 22:19 05.05.2020
3537 Clouds 15 1035 33 10000 2.1 320 21:55 05.05.2020
3538 Clouds 15 1035 33 10000 2.1 320 21:55 05.05.2020
3539 Clouds 15 1035 33 10000 2.1 320 21:37 05.05.2020
3540 Clouds 15 1035 33 10000 2.1 320 21:19 05.05.2020
3541 Clouds 15 1036 33 10000 2.6 190 20:42 05.05.2020
3542 Clouds 15 1036 33 10000 2.6 190 20:20 05.05.2020
3543 Clouds 15 1036 33 10000 2.6 190 20:20 05.05.2020
3544 Clouds 13 1037 43 10000 2.1 210 19:59 05.05.2020
3545 Clouds 13 1037 43 10000 2.1 210 19:41 05.05.2020
3546 Clouds 13 1038 47 10000 1 0 19:23 05.05.2020
3547 Clouds 13 1038 47 10000 1 0 18:57 05.05.2020
3548 Clouds 13 1038 47 10000 1 0 18:39 05.05.2020
3549 Clouds 12 1039 50 10000 2.6 100 18:19 05.05.2020
3550 Clouds 12 1039 50 10000 2.6 100 17:56 05.05.2020
3551 Clouds 12 1039 50 10000 2.6 100 17:38 05.05.2020
3552 Clouds 12 1039 50 10000 2.6 100 17:38 05.05.2020
3553 Clouds 10 1039 61 10000 4.1 120 17:20 05.05.2020
3554 Clouds 10 1039 61 10000 4.1 120 16:38 05.05.2020
3555 Clouds 10 1039 61 10000 4.1 120 16:20 05.05.2020
3556 Clouds 10 1038 66 10000 1 0 15:58 05.05.2020
3557 Clouds 10 1038 66 10000 1 0 15:39 05.05.2020
3558 Clouds 7 1038 65 10000 1 0 15:20 05.05.2020
3559 Clouds 7 1038 65 10000 1 0 14:55 05.05.2020
3560 Clouds 7 1038 65 10000 1 0 14:37 05.05.2020
3561 Clouds 7 1038 65 10000 1 0 14:37 05.05.2020
3562 Clouds 7 1038 65 10000 1 0 14:18 05.05.2020
3563 Clouds 7 1037 70 10000 1 0 13:55 05.05.2020
3564 Clouds 7 1037 70 10000 1 0 13:36 05.05.2020
3565 Clouds 7 1036 75 10000 1 0 13:18 05.05.2020
3566 Clouds 7 1036 75 10000 1 0 12:41 05.05.2020
3567 Clouds 7 1036 75 10000 1 0 12:22 05.05.2020
3568 Clouds 6 1036 75 10000 1 0 11:59 05.05.2020
3569 Clouds 6 1036 75 10000 1 0 11:40 05.05.2020
3570 Clouds 5 1036 80 10000 1.56 292 11:19 05.05.2020
3571 Clouds 5 1036 80 10000 1.56 292 10:55 05.05.2020
3572 Clouds 5 1036 80 10000 1.56 292 10:36 05.05.2020
3573 Clouds 5 1036 75 10000 1.5 40 10:18 05.05.2020
3574 Clouds 5 1036 75 10000 1.5 40 09:44 05.05.2020
3575 Clouds 5 1036 75 10000 1.5 40 09:26 05.05.2020
3576 Clouds 6 1037 81 10000 1 0 08:56 05.05.2020
3577 Clouds 6 1037 81 10000 1 0 08:37 05.05.2020
3578 Clouds 7 1037 87 10000 1 0 08:18 05.05.2020
3579 Clouds 7 1037 87 10000 1 0 07:43 05.05.2020
3580 Clouds 5 1037 80 10000 1.31 318 07:20 05.05.2020
3581 Clouds 5 1037 80 10000 1.31 318 06:51 05.05.2020
3582 Clouds 5 1037 80 10000 1.31 318 06:31 05.05.2020
3583 Clouds 5 1037 75 10000 1 0 05:51 05.05.2020
3584 Clouds 7 1037 70 10000 1 0 04:54 05.05.2020
3585 Clouds 10 1036 61 10000 2.1 320 02:37 05.05.2020
3586 Rain 11 1035 62 8000 5.1 300 00:56 05.05.2020
3587 Rain 11 1035 62 8000 5.1 300 00:28 05.05.2020
3588 Clouds 12 1035 54 10000 5.7 280 23:48 04.05.2020
3589 Clouds 12 1035 54 10000 5.7 280 23:25 04.05.2020
3590 Clouds 14 1034 47 10000 3.6 270 22:58 04.05.2020
3591 Clouds 14 1034 47 10000 3.6 270 22:40 04.05.2020
3592 Clouds 15 1035 44 10000 3.1 290 22:21 04.05.2020
3593 Clouds 15 1035 44 10000 3.1 290 21:57 04.05.2020
3594 Clouds 15 1035 44 10000 3.1 290 21:57 04.05.2020
3595 Clouds 15 1035 44 10000 3.1 290 21:36 04.05.2020
3596 Clouds 14 1036 44 10000 4.1 290 21:18 04.05.2020
3597 Clouds 14 1036 44 10000 4.1 290 20:40 04.05.2020
3598 Clouds 14 1036 44 10000 4.1 290 20:40 04.05.2020
3599 Clouds 14 1036 44 10000 4.1 290 20:40 04.05.2020
3600 Clouds 14 1036 44 10000 4.1 290 20:40 04.05.2020
3601 Clouds 14 1036 44 10000 4.1 290 20:40 04.05.2020
3602 Clouds 14 1036 44 10000 4.1 290 20:19 04.05.2020
3603 Clouds 14 1037 50 10000 4.1 290 19:43 04.05.2020
3604 Clouds 14 1037 50 10000 4.1 290 19:24 04.05.2020
3605 Clouds 13 1038 54 10000 4.6 270 18:59 04.05.2020
3606 Clouds 13 1038 54 10000 4.6 270 18:38 04.05.2020
3607 Clouds 13 1038 54 10000 4.6 270 18:38 04.05.2020
3608 Clouds 13 1038 54 10000 4.6 270 18:19 04.05.2020
3609 Clouds 12 1039 62 10000 3.1 280 18:19 04.05.2020
3610 Clouds 12 1039 62 10000 3.1 280 17:56 04.05.2020
3611 Clouds 12 1039 62 10000 3.1 280 17:37 04.05.2020
3612 Clouds 10 1039 66 10000 3.1 290 17:19 04.05.2020
3613 Clouds 10 1039 66 10000 3.1 290 16:43 04.05.2020
3614 Clouds 10 1039 66 10000 3.1 290 16:22 04.05.2020
3615 Clouds 8 1039 81 10000 2.6 260 15:57 04.05.2020
3616 Clouds 8 1039 81 10000 2.6 260 15:38 04.05.2020
3617 Clouds 8 1038 75 10000 2.1 260 15:18 04.05.2020
3618 Clouds 8 1038 75 10000 2.1 260 14:48 04.05.2020
3619 Clouds 8 1038 75 10000 2.1 260 14:48 04.05.2020
3620 Clouds 8 1038 75 10000 2.1 260 14:48 04.05.2020
3621 Clouds 8 1038 75 10000 2.1 260 14:48 04.05.2020
3622 Clouds 8 1038 75 10000 2.1 260 14:48 04.05.2020
3623 Clouds 8 1038 75 10000 2.1 260 14:20 04.05.2020
3624 Clouds 7 1038 75 10000 2.1 280 12:57 04.05.2020
3625 Clouds 7 1038 75 10000 2.1 280 12:35 04.05.2020
3626 Clouds 7 1038 75 10000 2.1 280 12:35 04.05.2020
3627 Clouds 7 1038 75 10000 2.1 280 12:35 04.05.2020
3628 Clouds 7 1038 75 10000 2.1 280 12:35 04.05.2020
3629 Clouds 7 1038 75 10000 2.1 280 12:35 04.05.2020
3630 Clouds 7 1037 70 10000 3.1 310 10:37 04.05.2020
3631 Clouds 7 1037 65 10000 2.6 320 09:26 04.05.2020
3632 Clouds 7 1037 65 10000 2.6 320 09:26 04.05.2020
3633 Clouds 7 1037 65 10000 2.6 320 09:26 04.05.2020
3634 Clouds 7 1037 65 10000 2.6 320 09:26 04.05.2020
3635 Clouds 6 1038 81 10000 2.1 260 07:53 04.05.2020
3636 Clouds 6 1038 81 10000 2.1 260 07:33 04.05.2020
3637 Clouds 6 1038 81 10000 2.1 260 07:33 04.05.2020
3638 Clouds 6 1038 81 10000 2.1 260 07:33 04.05.2020
3639 Clouds 6 1038 81 10000 2.1 260 07:33 04.05.2020
3640 Clouds 6 1038 81 10000 2.1 260 07:33 04.05.2020
3641 Clouds 6 1039 81 10000 1 0 04:59 04.05.2020
3642 Clouds 6 1039 75 10000 2.1 40 03:29 04.05.2020
3643 Clouds 5 1038 86 10000 7.7 50 02:32 04.05.2020
3644 Thunderstorm 8 1037 61 10000 6.2 140 01:19 04.05.2020
3645 Thunderstorm 12 1036 34 10000 4.6 30 23:57 03.05.2020
3646 Thunderstorm 12 1036 34 10000 4.6 30 23:57 03.05.2020
3647 Thunderstorm 12 1036 34 10000 4.6 30 23:39 03.05.2020
3648 Thunderstorm 12 1036 34 10000 4.6 30 23:39 03.05.2020
3649 Clouds 11 1036 40 10000 6.7 50 23:19 03.05.2020
3650 Clouds 11 1036 40 10000 6.7 50 22:41 03.05.2020
3651 Clouds 11 1036 40 10000 6.7 50 22:41 03.05.2020
3652 Clouds 11 1036 40 10000 6.7 50 22:22 03.05.2020
3653 Clouds 13 1037 30 10000 7.7 50 21:42 03.05.2020
3654 Clouds 16 1038 38 10000 3.6 100 21:21 03.05.2020
3655 Clouds 13 1037 30 10000 7.7 50 21:21 03.05.2020
3656 Clouds 16 1038 38 10000 3.6 100 20:48 03.05.2020
3657 Clouds 16 1038 38 10000 3.6 100 20:23 03.05.2020
3658 Clouds 16 1039 16 10000 3.1 290 19:57 03.05.2020
3659 Clouds 16 1039 16 10000 3.1 290 19:38 03.05.2020
3660 Clouds 15 1040 38 10000 2.1 240 19:18 03.05.2020
3661 Clouds 15 1040 38 10000 2.1 240 18:39 03.05.2020
3662 Clouds 15 1040 38 10000 2.1 240 18:20 03.05.2020
3663 Clouds 15 1040 38 10000 2.1 240 18:20 03.05.2020
3664 Clouds 14 1041 41 10000 2.1 220 17:56 03.05.2020
3665 Clouds 14 1041 41 10000 2.1 220 17:38 03.05.2020
3666 Clouds 14 1041 41 10000 2.1 220 17:19 03.05.2020
3667 Clouds 12 1041 50 10000 1 0 17:19 03.05.2020
3668 Clouds 14 1041 41 10000 2.1 220 17:19 03.05.2020
3669 Clouds 12 1041 50 10000 1 0 16:40 03.05.2020
3670 Clouds 12 1041 50 10000 1 0 16:40 03.05.2020
3671 Clouds 12 1041 50 10000 1 0 16:19 03.05.2020
3672 Clouds 10 1041 61 10000 3.6 310 15:57 03.05.2020
3673 Clouds 10 1041 61 10000 3.6 310 15:38 03.05.2020
3674 Clouds 10 1041 61 10000 3.6 310 15:38 03.05.2020
3675 Clouds 8 1041 70 10000 2.1 310 15:19 03.05.2020
3676 Clouds 8 1041 70 10000 2.1 310 14:55 03.05.2020
3677 Clouds 8 1041 70 10000 2.1 310 14:37 03.05.2020
3678 Clouds 6 1040 81 10000 2.1 310 14:18 03.05.2020
3679 Clouds 6 1040 81 10000 2.1 310 14:18 03.05.2020
3680 Clouds 6 1040 81 10000 2.1 310 13:37 03.05.2020
3681 Clouds 6 1040 81 10000 2.1 310 13:37 03.05.2020
3682 Clouds 7 1040 75 10000 2.1 310 12:52 03.05.2020
3683 Clouds 7 1040 75 10000 2.1 310 12:28 03.05.2020
3684 Clouds 7 1040 75 10000 2.1 310 12:28 03.05.2020
3685 Clouds 7 1039 75 10000 2.1 310 11:58 03.05.2020
3686 Clouds 7 1039 75 10000 2.1 310 11:39 03.05.2020
3687 Clouds 7 1039 75 10000 2.1 310 11:39 03.05.2020
3688 Clouds 7 1040 75 10000 2.6 300 11:20 03.05.2020
3689 Clouds 7 1040 75 10000 2.6 300 10:54 03.05.2020
3690 Clouds 7 1040 75 10000 2.6 300 10:25 03.05.2020
3691 Clouds 7 1040 75 10000 2.6 300 09:40 03.05.2020
3692 Clouds 7 1040 75 10000 2.6 300 09:40 03.05.2020
3693 Clouds 8 1040 65 10000 2.1 310 08:59 03.05.2020
3694 Clouds 8 1040 65 10000 2.1 310 08:59 03.05.2020
3695 Clouds 7 1041 75 10000 1 0 08:35 03.05.2020
3696 Clouds 7 1021 25 0 1.27 51 07:44 03.05.2020
3697 Clouds 7 1021 25 0 1.27 51 07:44 03.05.2020
3698 Clouds 7 1021 25 0 1.27 51 07:44 03.05.2020
3699 Clouds 7 1021 25 0 1.27 51 07:44 03.05.2020
3700 Clouds 7 1021 25 0 1.27 51 07:44 03.05.2020
3701 Clouds 6 1041 93 10000 2.1 60 06:44 03.05.2020
3702 Fog 8 1042 87 4000 2.6 100 05:54 03.05.2020
3703 Fog 8 1042 87 4000 2.6 130 05:35 03.05.2020
3704 Clouds 9 1041 25 10000 1 0 04:28 03.05.2020
3705 Clouds 9 1041 25 10000 1 0 03:38 03.05.2020
3706 Clouds 10 1039 53 10000 3.6 30 02:31 03.05.2020
3707 Clouds 7 1039 56 10000 2.6 50 01:59 03.05.2020
3708 Clouds 7 1039 56 10000 2.6 50 01:39 03.05.2020
3709 Clouds 9 1039 49 10000 4.6 200 01:20 03.05.2020
3710 Clouds 9 1039 49 10000 4.6 200 00:38 03.05.2020
3711 Clouds 11 1039 43 10000 7.2 210 00:20 03.05.2020
3712 Clouds 11 1039 43 10000 7.2 210 23:45 02.05.2020
3713 Clouds 11 1039 43 10000 7.2 210 23:27 02.05.2020
3714 Clouds 15 1038 20 10000 2.1 110 22:56 02.05.2020
3715 Clouds 15 1038 20 10000 2.1 110 22:56 02.05.2020
3716 Clouds 15 1038 20 10000 2.1 110 22:37 02.05.2020
3717 Clouds 13 1039 54 10000 3.6 90 22:19 02.05.2020
3718 Clouds 13 1039 54 10000 3.6 90 21:40 02.05.2020
3719 Clouds 13 1039 54 10000 3.6 90 21:20 02.05.2020
3720 Clouds 13 1040 50 10000 4.1 70 20:58 02.05.2020
3721 Clouds 13 1040 50 10000 4.1 70 20:38 02.05.2020
3722 Clouds 13 1040 50 10000 4.1 70 20:19 02.05.2020
3723 Clouds 14 1041 54 10000 3.6 120 19:57 02.05.2020
3724 Clouds 14 1041 54 10000 3.6 120 19:39 02.05.2020
3725 Clouds 13 1042 54 10000 3.1 120 19:20 02.05.2020
3726 Clouds 13 1042 54 10000 3.1 120 18:56 02.05.2020
3727 Clouds 13 1042 54 10000 3.1 120 18:37 02.05.2020
3728 Clouds 13 1042 54 10000 3.1 120 18:19 02.05.2020
3729 Clouds 13 1043 54 10000 2.6 100 17:54 02.05.2020
3730 Clouds 13 1043 54 10000 2.6 100 17:36 02.05.2020
3731 Clouds 11 1043 62 10000 2.1 100 17:18 02.05.2020
3732 Clouds 11 1043 62 10000 2.1 100 16:41 02.05.2020
3733 Clouds 11 1043 62 10000 2.1 100 16:23 02.05.2020
3734 Clouds 8 1043 75 6000 1.5 129 15:44 02.05.2020
3735 Clouds 8 1043 75 6000 0.94 116 15:21 02.05.2020
3736 Fog 6 1043 87 4000 1 0 14:59 02.05.2020
3737 Fog 6 1043 87 4000 1 0 14:40 02.05.2020
3738 Fog 6 1043 87 4000 1 0 14:22 02.05.2020
3739 Fog 5 1042 93 4000 1 0 13:41 02.05.2020
3740 Fog 5 1042 93 4000 1 0 13:22 02.05.2020
3741 Fog 3 1041 100 4000 1.5 60 12:56 02.05.2020
3742 Fog 3 1041 100 4000 1.5 60 12:38 02.05.2020
3743 Fog 3 1041 100 4000 1.5 60 12:19 02.05.2020
3744 Fog 3 1041 93 4000 2.1 70 11:42 02.05.2020
3745 Fog 3 1041 93 4000 2.1 70 11:22 02.05.2020
3746 Fog 5 1041 93 4000 2.1 70 10:59 02.05.2020
3747 Fog 5 1041 93 4000 2.1 70 10:39 02.05.2020
3748 Fog 5 1041 93 4000 2.1 70 10:21 02.05.2020
3749 Fog 6 1041 87 4000 2.6 70 09:57 02.05.2020
3750 Fog 6 1041 87 4000 2.6 70 09:38 02.05.2020
3751 Fog 6 1042 93 4000 3.6 100 09:20 02.05.2020
3752 Fog 6 1042 93 4000 3.6 100 09:20 02.05.2020
3753 Fog 6 1042 93 4000 3.6 100 09:20 02.05.2020
3754 Fog 6 1042 93 4000 3.6 100 08:49 02.05.2020
3755 Fog 6 1042 93 4000 3.6 100 08:30 02.05.2020
3756 Fog 6 1042 93 3000 4.6 90 07:48 02.05.2020
3757 Fog 6 1042 93 3000 4.6 90 07:29 02.05.2020
3758 Fog 5 1042 93 4000 3.1 70 06:52 02.05.2020
3759 Fog 4 1042 93 4000 3.1 80 05:30 02.05.2020
3760 Clouds 5 1042 86 10000 1 0 04:59 02.05.2020
3761 Clouds 5 1042 86 10000 1 0 04:25 02.05.2020
3762 Clouds 7 1041 70 10000 2.6 90 03:18 02.05.2020
3763 Clouds 7 1041 70 10000 2.6 90 02:26 02.05.2020
3764 Clouds 10 1040 57 10000 2.6 70 01:50 02.05.2020
3765 Thunderstorm 12 1039 50 10000 5.1 120 00:49 02.05.2020
3766 Thunderstorm 12 1039 50 10000 5.1 120 00:29 02.05.2020
3767 Thunderstorm 13 1039 43 10000 5.1 110 23:59 01.05.2020
3768 Clouds 14 1039 41 10000 5.1 110 23:39 01.05.2020
3769 Clouds 16 1039 36 10000 4.6 110 23:20 01.05.2020
3770 Clouds 16 1039 36 10000 4.6 110 22:55 01.05.2020
3771 Clouds 16 1039 36 10000 4.6 110 22:37 01.05.2020
3772 Clouds 16 1040 36 10000 4.6 120 22:18 01.05.2020
3773 Clouds 16 1040 36 10000 4.6 120 22:18 01.05.2020
3774 Clouds 16 1040 36 10000 4.6 120 21:55 01.05.2020
3775 Clouds 16 1040 36 10000 4.6 120 21:36 01.05.2020
3776 Clouds 16 1041 36 10000 3.1 130 21:18 01.05.2020
3777 Clouds 16 1041 36 10000 3.1 130 20:54 01.05.2020
3778 Clouds 16 1041 36 10000 3.1 130 20:36 01.05.2020
3779 Clouds 13 1041 43 10000 4.1 150 20:18 01.05.2020
3780 Clouds 13 1041 43 10000 4.1 150 19:41 01.05.2020
3781 Clouds 13 1041 43 10000 4.1 150 19:22 01.05.2020
3782 Clouds 14 1043 47 10000 3.6 120 18:57 01.05.2020
3783 Clouds 14 1043 47 10000 3.6 120 18:38 01.05.2020
3784 Clouds 14 1043 47 10000 3.6 120 18:19 01.05.2020
3785 Clouds 12 1044 54 10000 3.6 130 17:54 01.05.2020
3786 Clouds 12 1044 54 10000 3.6 130 17:36 01.05.2020
3787 Clouds 10 1044 61 10000 4.6 90 17:18 01.05.2020
3788 Clouds 10 1044 61 10000 4.6 90 16:40 01.05.2020
3789 Clouds 8 1043 75 6000 3.6 110 16:21 01.05.2020
3790 Clouds 8 1043 75 6000 3.6 110 15:58 01.05.2020
3791 Clouds 8 1043 75 6000 3.6 110 15:40 01.05.2020
3792 Clouds 8 1043 75 6000 3.6 110 15:20 01.05.2020
3793 Fog 5 1042 100 4000 3.1 70 14:44 01.05.2020
3794 Fog 5 1042 100 4000 3.1 70 14:25 01.05.2020
3795 Fog 1 1041 100 3000 2.6 90 13:57 01.05.2020
3796 Fog 1 1041 100 3000 2.6 90 13:39 01.05.2020
3797 Fog 1 1041 23 4000 2.6 80 13:21 01.05.2020
3798 Fog 1 1041 23 4000 2.6 80 12:56 01.05.2020
3799 Fog 1 1041 23 4000 2.6 80 12:37 01.05.2020
3800 Fog 1 1040 23 4000 2.1 90 12:18 01.05.2020
3801 Fog 1 1040 23 4000 2.1 90 11:42 01.05.2020
3802 Fog 1 1040 23 4000 2.1 90 11:42 01.05.2020
3803 Fog 1 1040 23 4000 2.1 90 11:23 01.05.2020
3804 Fog 1 1040 100 4000 3.1 70 10:58 01.05.2020
3805 Fog 1 1040 100 4000 3.1 70 10:38 01.05.2020
3806 Fog 2 1041 93 4000 2.6 80 10:20 01.05.2020
3807 Fog 2 1041 93 4000 2.6 80 09:44 01.05.2020
3808 Fog 2 1041 93 4000 2.6 80 09:20 01.05.2020
3809 Fog 4 1041 93 4000 2.1 90 08:57 01.05.2020
3810 Fog 4 1041 93 4000 2.1 90 08:39 01.05.2020
3811 Fog 4 1041 93 4000 2.1 90 08:21 01.05.2020
3812 Fog 6 1041 93 4000 2.6 70 07:44 01.05.2020
3813 Fog 6 1041 93 4000 2.6 70 07:22 01.05.2020
3814 Fog 6 1041 87 4000 3.6 100 06:39 01.05.2020
3815 Clouds 6 1041 87 10000 3.1 80 05:34 01.05.2020
3816 Clouds 6 1041 87 10000 2.6 80 04:21 01.05.2020
3817 Clouds 6 1041 75 10000 3.1 90 03:23 01.05.2020
3818 Clouds 7 1040 56 10000 2.6 80 02:42 01.05.2020
3819 Clouds 11 1039 43 10000 2.6 30 01:59 01.05.2020
3820 Clouds 11 1039 43 10000 2.6 30 01:28 01.05.2020
3821 Clouds 14 1038 30 10000 4.6 130 00:56 01.05.2020
3822 Clouds 14 1038 30 10000 4.6 130 00:36 01.05.2020
3823 Clouds 16 1038 21 10000 4.1 120 00:18 01.05.2020
3824 Clouds 16 1038 21 10000 4.1 120 23:54 30.04.2020
3825 Clouds 16 1038 21 10000 4.1 120 23:36 30.04.2020
3826 Clouds 17 1038 20 10000 4.6 160 23:18 30.04.2020
3827 Clouds 17 1038 20 10000 4.6 160 22:40 30.04.2020
3828 Clouds 17 1039 18 10000 4.1 130 22:19 30.04.2020
3829 Clouds 17 1039 18 10000 4.1 130 21:55 30.04.2020
3830 Clouds 17 1039 18 10000 4.1 130 21:37 30.04.2020
3831 Clouds 16 1040 26 10000 4.1 150 21:18 30.04.2020
3832 Clouds 16 1040 26 10000 4.1 150 20:41 30.04.2020
3833 Clouds 16 1040 26 10000 4.1 150 20:19 30.04.2020
3834 Clouds 16 1041 26 10000 4.6 140 19:58 30.04.2020
3835 Clouds 16 1041 26 10000 4.6 140 19:38 30.04.2020
3836 Clouds 15 1042 33 10000 3.1 120 19:18 30.04.2020
3837 Clouds 15 1042 33 10000 3.1 120 18:40 30.04.2020
3838 Clouds 13 1043 47 10000 1 0 18:21 30.04.2020
3839 Clouds 13 1043 47 10000 1 0 17:59 30.04.2020
3840 Clouds 13 1043 47 10000 1 0 17:40 30.04.2020
3841 Clouds 11 1043 57 10000 2.6 260 17:22 30.04.2020
3842 Clouds 11 1043 57 10000 2.6 260 16:57 30.04.2020
3843 Clouds 11 1043 57 10000 2.6 260 16:39 30.04.2020
3844 Clouds 9 1043 66 10000 1 203 16:19 30.04.2020
3845 Clouds 9 1043 66 10000 1 203 15:48 30.04.2020
3846 Clouds 9 1043 66 10000 0.75 230 15:25 30.04.2020
3847 Clouds 9 1043 66 10000 0.75 230 15:25 30.04.2020
3848 Clouds 7 1042 75 10000 1 0 14:58 30.04.2020
3849 Clouds 7 1042 75 10000 1 0 14:39 30.04.2020
3850 Clouds 7 1042 75 10000 1 0 14:19 30.04.2020
3851 Fog 3 1041 86 4000 1.5 10 13:55 30.04.2020
3852 Fog 3 1041 86 4000 1.5 10 13:37 30.04.2020
3853 Fog 4 1041 86 4000 1 0 13:19 30.04.2020
3854 Fog 4 1041 86 4000 1 0 12:41 30.04.2020
3855 Fog 6 1040 87 4000 1 0 12:20 30.04.2020
3856 Fog 6 1040 87 4000 1 0 11:58 30.04.2020
3857 Fog 6 1040 87 4000 1 0 11:36 30.04.2020
3858 Fog 6 1040 87 4000 1 0 11:18 30.04.2020
3859 Fog 6 1040 87 4000 1 0 10:41 30.04.2020
3860 Fog 6 1040 87 4000 1 0 10:21 30.04.2020
3861 Clouds 5 1022 27 0 0.45 19 09:57 30.04.2020
3862 Clouds 5 1022 27 0 0.45 19 09:39 30.04.2020
3863 Clouds 5 1021 27 0 1.13 47 09:20 30.04.2020
3864 Clouds 5 1021 27 0 1.13 47 08:46 30.04.2020
3865 Fog 6 1041 93 4000 2.6 90 08:26 30.04.2020
3866 Fog 6 1041 93 4000 2.6 90 07:44 30.04.2020
3867 Fog 6 1041 93 4000 2.6 90 07:26 30.04.2020
3868 Fog 5 1041 93 4000 1 0 06:54 30.04.2020
3869 Fog 5 1041 93 4000 1 0 06:26 30.04.2020
3870 Clouds 6 1041 87 10000 4.6 100 05:46 30.04.2020
3871 Clouds 6 1041 75 10000 3.6 80 04:43 30.04.2020
3872 Clouds 7 1041 87 10000 4.6 80 04:19 30.04.2020
3873 Clouds 8 1040 75 10000 2.6 120 02:48 30.04.2020
3874 Clouds 8 1040 75 10000 2.6 120 02:26 30.04.2020
3875 Clouds 9 1039 66 10000 1 0 01:36 30.04.2020
3876 Clouds 11 1038 57 10000 5.1 110 00:42 30.04.2020
3877 Clouds 11 1038 57 10000 5.1 110 00:20 30.04.2020
3878 Clouds 15 1037 44 10000 5.7 90 23:57 29.04.2020
3879 Clouds 15 1037 44 10000 5.7 90 23:37 29.04.2020
3880 Clouds 16 1037 38 10000 4.6 100 23:19 29.04.2020
3881 Clouds 16 1037 38 10000 4.6 100 22:41 29.04.2020
3882 Clouds 16 1037 38 10000 4.6 100 22:22 29.04.2020
3883 Clouds 15 1038 41 10000 4.1 120 21:59 29.04.2020
3884 Clouds 15 1038 41 10000 4.1 120 21:37 29.04.2020
3885 Clouds 15 1038 41 10000 4.1 120 21:19 29.04.2020
3886 Clouds 15 1039 44 10000 4.1 130 20:55 29.04.2020
3887 Clouds 15 1039 44 10000 4.1 130 20:36 29.04.2020
3888 Clouds 15 1040 47 10000 3.1 80 20:18 29.04.2020
3889 Clouds 15 1040 47 10000 3.1 80 20:18 29.04.2020
3890 Clouds 15 1040 47 10000 3.1 80 19:42 29.04.2020
3891 Clouds 15 1040 47 10000 3.1 80 19:20 29.04.2020
3892 Clouds 14 1041 54 10000 4.1 110 18:43 29.04.2020
3893 Clouds 14 1041 54 10000 4.1 110 18:25 29.04.2020
3894 Clouds 12 1041 62 10000 3.6 120 17:59 29.04.2020
3895 Clouds 12 1041 62 10000 3.6 120 17:41 29.04.2020
3896 Clouds 10 1042 66 10000 3.6 120 17:21 29.04.2020
3897 Clouds 10 1042 66 10000 3.6 120 16:39 29.04.2020
3898 Clouds 10 1042 66 10000 3.6 120 16:20 29.04.2020
3899 Clouds 9 1041 70 10000 2.6 100 15:58 29.04.2020
3900 Clouds 9 1041 70 10000 2.6 100 15:40 29.04.2020
3901 Clouds 8 1041 81 10000 3.6 100 15:21 29.04.2020
3902 Clouds 8 1041 81 10000 3.6 100 14:57 29.04.2020
3903 Clouds 8 1041 81 10000 3.6 100 14:39 29.04.2020
3904 Fog 5 1040 86 0 2.1 80 14:20 29.04.2020
3905 Fog 5 1040 86 0 2.1 80 13:42 29.04.2020
3906 Fog 5 1040 86 0 2.1 80 13:21 29.04.2020
3907 Fog 5 1039 93 3000 2.6 80 12:59 29.04.2020
3908 Fog 5 1039 93 3000 2.6 80 12:40 29.04.2020
3909 Fog 5 1039 93 3000 5.1 80 12:19 29.04.2020
3910 Fog 5 1039 93 3000 5.1 80 11:58 29.04.2020
3911 Fog 5 1039 93 3000 5.1 80 11:36 29.04.2020
3912 Mist 4 1039 100 3000 3.1 70 11:18 29.04.2020
3913 Mist 4 1039 100 3000 3.1 70 10:37 29.04.2020
3914 Fog 0 1039 26 4000 2.1 60 10:19 29.04.2020
3915 Fog 0 1039 26 4000 2.1 60 09:42 29.04.2020
3916 Fog 0 1039 26 4000 2.1 60 09:24 29.04.2020
3917 Clouds 2 1039 100 10000 2.6 60 08:59 29.04.2020
3918 Clouds 2 1039 100 10000 2.6 60 08:59 29.04.2020
3919 Clouds 2 1039 100 10000 2.6 60 08:41 29.04.2020
3920 Clouds 2 1039 100 10000 2.6 60 08:23 29.04.2020
3921 Fog 4 1040 100 4000 2.1 70 07:47 29.04.2020
3922 Fog 4 1040 100 4000 2.1 70 07:24 29.04.2020
3923 Clouds 6 1019 27 0 0.4 63 06:51 29.04.2020
3924 Clouds 6 1040 81 10000 1 0 06:31 29.04.2020
3925 Clouds 6 1040 81 10000 1 0 05:21 29.04.2020
3926 Clouds 6 1040 87 10000 3.1 60 04:45 29.04.2020
3927 Clouds 8 1040 81 10000 6.2 130 04:18 29.04.2020
3928 Clouds 9 1038 66 10000 3.1 40 02:42 29.04.2020
3929 Clouds 10 1038 66 10000 5.1 100 01:44 29.04.2020
3930 Clouds 10 1038 66 10000 5.1 100 01:23 29.04.2020
3931 Clouds 12 1038 50 10000 5.1 120 00:41 29.04.2020
3932 Thunderstorm 14 1037 41 10000 2.6 200 00:19 29.04.2020
3933 Thunderstorm 14 1037 41 10000 2.6 200 00:19 29.04.2020
3934 Thunderstorm 14 1037 41 10000 2.6 200 23:50 28.04.2020
3935 Thunderstorm 14 1037 41 10000 2.6 200 23:24 28.04.2020
3936 Clouds 15 1037 17 8000 2.6 100 22:55 28.04.2020
3937 Clouds 15 1037 17 8000 2.6 100 22:37 28.04.2020
3938 Thunderstorm 15 1037 16 10000 2.6 80 22:18 28.04.2020
3939 Thunderstorm 15 1037 16 10000 2.6 80 21:54 28.04.2020
3940 Clouds 18 1037 27 10000 3.1 90 21:36 28.04.2020
3941 Clouds 17 1038 33 10000 2.1 150 21:18 28.04.2020
3942 Clouds 17 1038 33 10000 2.1 150 20:54 28.04.2020
3943 Clouds 17 1038 33 10000 2.1 150 20:36 28.04.2020
3944 Clouds 16 1040 36 10000 2.1 160 20:18 28.04.2020
3945 Clouds 16 1040 36 10000 2.1 160 19:42 28.04.2020
3946 Clouds 14 1041 44 10000 2.1 210 19:22 28.04.2020
3947 Clouds 16 1040 36 10000 2.1 160 19:22 28.04.2020
3948 Clouds 14 1041 44 10000 2.1 210 18:58 28.04.2020
3949 Clouds 14 1041 44 10000 2.1 210 18:38 28.04.2020
3950 Clouds 13 1041 47 10000 2.1 240 18:19 28.04.2020
3951 Clouds 13 1041 47 10000 2.1 240 17:39 28.04.2020
3952 Clouds 13 1041 47 10000 2.1 240 17:20 28.04.2020
3953 Clouds 13 1041 47 10000 2.1 240 17:20 28.04.2020
3954 Clouds 12 1042 58 10000 1.5 270 16:59 28.04.2020
3955 Clouds 12 1042 58 10000 1.5 270 16:40 28.04.2020
3956 Clouds 9 1042 70 6000 1 0 16:22 28.04.2020
3957 Clouds 9 1042 70 6000 1 0 15:57 28.04.2020
3958 Clouds 9 1042 70 6000 1 0 15:39 28.04.2020
3959 Clouds 9 1042 70 6000 1 0 15:20 28.04.2020
3960 Fog 5 1041 93 4000 2.6 70 14:57 28.04.2020
3961 Fog 5 1041 93 4000 2.6 70 14:38 28.04.2020
3962 Fog 5 1041 93 4000 2.6 70 14:19 28.04.2020
3963 Fog 2 1040 93 4000 2.1 80 13:57 28.04.2020
3964 Fog 2 1040 93 4000 2.1 80 13:37 28.04.2020
3965 Fog 3 1040 100 3000 2.6 80 13:19 28.04.2020
3966 Fog 3 1040 100 3000 2.6 80 12:43 28.04.2020
3967 Fog 3 1040 100 3000 2.6 80 12:23 28.04.2020
3968 Fog 4 1039 93 3000 2.6 80 11:43 28.04.2020
3969 Fog 4 1039 93 3000 2.6 80 11:24 28.04.2020
3970 Fog 4 1040 100 3000 1.5 70 10:58 28.04.2020
3971 Fog 4 1040 100 3000 1.5 70 10:38 28.04.2020
3972 Fog 4 1040 100 3000 1.5 70 10:38 28.04.2020
3973 Fog 4 1040 100 2000 2.6 90 10:19 28.04.2020
3974 Fog 4 1040 100 2000 2.6 90 09:55 28.04.2020
3975 Fog 4 1040 100 2000 2.6 90 09:37 28.04.2020
3976 Fog 4 1040 100 2000 2.6 90 09:18 28.04.2020
3977 Fog 3 1040 93 3000 1.5 110 08:40 28.04.2020
3978 Fog 3 1040 93 3000 1.5 110 08:22 28.04.2020
3979 Clouds 4 1041 86 10000 2.1 90 07:44 28.04.2020
3980 Clouds 4 1041 86 10000 2.1 90 07:44 28.04.2020
3981 Clouds 6 1041 81 10000 2.1 70 07:19 28.04.2020
3982 Clouds 6 1041 81 10000 2.1 70 06:44 28.04.2020
3983 Clouds 7 1041 75 10000 2.1 120 05:56 28.04.2020
3984 Clouds 7 1041 75 10000 2.1 120 05:37 28.04.2020
3985 Clouds 4 1041 86 10000 3.6 70 04:39 28.04.2020
3986 Clouds 7 1040 75 10000 2.6 60 02:39 28.04.2020
3987 Clouds 10 1039 61 10000 2.1 100 01:58 28.04.2020
3988 Clouds 10 1039 61 10000 2.1 100 01:22 28.04.2020
3989 Clouds 11 1038 57 10000 3.1 120 00:45 28.04.2020
3990 Clouds 12 1038 54 10000 3.6 120 00:18 28.04.2020
3991 Clouds 12 1038 54 10000 3.6 120 23:43 27.04.2020
3992 Clouds 14 1038 44 10000 4.1 90 23:21 27.04.2020
3993 Clouds 14 1038 44 10000 4.1 90 22:43 27.04.2020
3994 Clouds 14 1038 44 10000 4.1 90 22:23 27.04.2020
3995 Clouds 14 1038 44 10000 4.1 90 22:23 27.04.2020
3996 Clouds 13 1039 47 10000 4.1 120 21:57 27.04.2020
3997 Clouds 13 1039 47 10000 4.1 120 21:39 27.04.2020
3998 Clouds 14 1040 44 10000 4.1 120 21:20 27.04.2020
3999 Clouds 14 1040 44 10000 4.1 120 20:57 27.04.2020
4000 Clouds 14 1040 44 10000 4.1 120 20:39 27.04.2020
4001 Clouds 14 1040 44 10000 4.1 120 20:21 27.04.2020
4002 Clouds 13 1041 47 10000 3.6 130 19:56 27.04.2020
4003 Clouds 13 1041 47 10000 3.6 130 19:37 27.04.2020
4004 Clouds 13 1041 47 10000 3.6 130 19:37 27.04.2020
4005 Clouds 12 1042 54 10000 3.1 120 19:19 27.04.2020
4006 Clouds 12 1042 54 10000 3.1 120 18:41 27.04.2020
4007 Clouds 11 1043 57 10000 3.6 120 18:20 27.04.2020
4008 Clouds 11 1043 57 10000 3.6 120 17:59 27.04.2020
4009 Clouds 11 1043 57 10000 3.6 120 17:40 27.04.2020
4010 Clouds 10 1043 61 10000 3.6 80 17:19 27.04.2020
4011 Clouds 10 1043 61 10000 3.6 80 16:41 27.04.2020
4012 Clouds 10 1043 61 10000 3.6 80 16:41 27.04.2020
4013 Clouds 10 1043 61 10000 3.6 80 16:22 27.04.2020
4014 Clouds 7 1042 75 6000 4.1 80 15:57 27.04.2020
4015 Clouds 7 1042 75 6000 4.1 80 15:38 27.04.2020
4016 Clouds 7 1042 75 6000 4.1 80 15:19 27.04.2020
4017 Fog 5 1041 86 4000 3.6 80 14:58 27.04.2020
4018 Fog 5 1041 86 4000 3.6 80 14:40 27.04.2020
4019 Fog 5 1041 86 4000 3.6 80 14:19 27.04.2020
4020 Fog 3 1041 93 4000 2.1 80 13:55 27.04.2020
4021 Fog 3 1041 93 4000 2.1 80 13:36 27.04.2020
4022 Fog 3 1040 100 3000 3.1 70 13:18 27.04.2020
4023 Fog 3 1040 100 3000 3.1 70 12:42 27.04.2020
4024 Fog 3 1040 100 3000 3.1 70 12:20 27.04.2020
4025 Fog 3 1040 100 3000 3.1 80 11:42 27.04.2020
4026 Fog 3 1040 100 3000 3.1 80 11:22 27.04.2020
4027 Fog 2 1040 93 4000 2.6 70 10:58 27.04.2020
4028 Fog 2 1040 93 4000 2.6 70 10:39 27.04.2020
4029 Fog 2 1040 93 4000 2.6 70 10:21 27.04.2020
4030 Fog 4 1041 93 3000 1 90 09:54 27.04.2020
4031 Fog 4 1041 93 3000 1 90 09:36 27.04.2020
4032 Fog 4 1041 100 3000 1 0 09:18 27.04.2020
4033 Fog 4 1041 100 3000 1 0 08:43 27.04.2020
4034 Fog 4 1041 100 3000 1 0 08:25 27.04.2020
4035 Clouds 5 1023 27 0 2.18 49 07:44 27.04.2020
4036 Clouds 5 1023 27 0 2.18 49 07:22 27.04.2020
4037 Clouds 5 1023 27 0 2.18 49 06:56 27.04.2020
4038 Clouds 7 1023 25 0 2.27 50 06:27 27.04.2020
4039 Clouds 7 1023 25 0 2.27 50 05:50 27.04.2020
4040 Clouds 5 1042 86 10000 2.6 70 04:49 27.04.2020
4041 Clouds 6 1041 75 10000 4.1 70 03:59 27.04.2020
4042 Clouds 6 1041 75 10000 4.1 70 03:35 27.04.2020
4043 Clouds 7 1039 70 10000 4.1 80 01:41 27.04.2020
4044 Clouds 10 1039 53 10000 5.1 50 00:58 27.04.2020
4045 Clouds 10 1039 53 10000 5.1 50 00:20 27.04.2020
4046 Clouds 11 1038 53 10000 6.2 40 23:56 26.04.2020
4047 Clouds 11 1038 53 10000 6.2 40 23:38 26.04.2020
4048 Clouds 13 1038 50 10000 4.6 70 23:19 26.04.2020
4049 Clouds 13 1038 50 10000 4.6 70 22:58 26.04.2020
4050 Clouds 13 1038 50 10000 4.6 70 22:39 26.04.2020
4051 Clouds 13 1038 50 10000 4.6 70 22:39 26.04.2020
4052 Clouds 13 1038 50 10000 4.6 70 22:19 26.04.2020
4053 Clouds 13 1039 50 10000 4.1 80 21:57 26.04.2020
4054 Clouds 13 1039 50 10000 4.1 80 21:37 26.04.2020
4055 Clouds 12 1040 54 10000 4.1 100 21:18 26.04.2020
4056 Clouds 12 1040 54 10000 4.1 100 20:42 26.04.2020
4057 Clouds 12 1040 54 10000 4.1 100 20:23 26.04.2020
4058 Clouds 12 1040 58 10000 5.1 90 19:59 26.04.2020
4059 Clouds 12 1040 58 10000 5.1 90 19:38 26.04.2020
4060 Clouds 12 1041 58 10000 5.1 130 19:20 26.04.2020
4061 Clouds 12 1041 58 10000 5.1 130 18:54 26.04.2020
4062 Clouds 12 1041 58 10000 5.1 130 18:36 26.04.2020
4063 Clouds 12 1041 58 10000 5.1 130 18:36 26.04.2020
4064 Clouds 11 1042 62 10000 4.6 110 18:18 26.04.2020
4065 Clouds 11 1042 62 10000 4.6 110 17:40 26.04.2020
4066 Clouds 11 1042 62 10000 4.6 110 17:22 26.04.2020
4067 Clouds 10 1041 66 10000 4.6 120 16:43 26.04.2020
4068 Clouds 10 1041 66 10000 4.6 120 16:24 26.04.2020
4069 Clouds 8 1041 75 6000 3.6 90 15:59 26.04.2020
4070 Clouds 8 1041 75 6000 3.6 90 15:41 26.04.2020
4071 Clouds 8 1041 75 6000 3.6 90 15:41 26.04.2020
4072 Clouds 8 1041 75 6000 3.6 90 15:22 26.04.2020
4073 Fog 5 1041 100 4000 2.6 120 14:58 26.04.2020
4074 Fog 5 1041 100 4000 2.6 120 14:39 26.04.2020
4075 Fog 3 1040 93 4000 2.1 80 14:18 26.04.2020
4076 Fog 3 1040 93 4000 2.1 80 13:56 26.04.2020
4077 Fog 3 1040 93 4000 2.1 80 13:38 26.04.2020
4078 Fog 2 1039 93 4000 2.1 80 13:19 26.04.2020
4079 Fog 2 1039 93 4000 2.1 80 12:41 26.04.2020
4080 Fog 2 1039 93 4000 2.1 80 12:41 26.04.2020
4081 Fog 2 1039 93 4000 2.1 80 12:41 26.04.2020
4082 Fog 2 1039 93 4000 2.1 80 12:22 26.04.2020
4083 Fog 5 1039 93 4000 2.6 80 11:59 26.04.2020
4084 Fog 5 1039 93 4000 2.6 80 11:40 26.04.2020
4085 Fog 5 1039 93 4000 2.6 80 11:22 26.04.2020
4086 Fog 6 1039 93 4000 2.1 80 10:57 26.04.2020
4087 Fog 6 1039 93 4000 2.1 80 10:57 26.04.2020
4088 Fog 6 1039 93 4000 2.1 80 10:39 26.04.2020
4089 Fog 3 1039 86 4000 1 0 10:21 26.04.2020
4090 Fog 3 1039 86 4000 1 0 09:41 26.04.2020
4091 Fog 6 1039 93 4000 1.5 70 09:22 26.04.2020
4092 Fog 6 1039 93 4000 1.5 70 08:59 26.04.2020
4093 Fog 6 1039 93 4000 1.5 70 08:40 26.04.2020
4094 Fog 7 1040 93 3000 2.1 90 08:20 26.04.2020
4095 Fog 7 1040 93 3000 2.1 90 07:47 26.04.2020
4096 Fog 6 1039 100 3000 3.6 80 07:21 26.04.2020
4097 Fog 6 1039 100 3000 3.6 80 06:45 26.04.2020
4098 Fog 6 1039 93 4000 3.1 80 05:59 26.04.2020
4099 Fog 6 1039 93 4000 3.1 80 05:41 26.04.2020
4100 Fog 6 1039 93 4000 3.1 80 05:22 26.04.2020
4101 Clouds 6 1039 93 10000 4.1 80 04:23 26.04.2020
4102 Clouds 7 1038 75 10000 2.6 60 02:53 26.04.2020
4103 Clouds 7 1038 75 10000 2.6 60 02:32 26.04.2020
4104 Clouds 10 1037 25 10000 3.1 110 01:51 26.04.2020
4105 Clouds 10 1037 25 10000 3.1 110 01:27 26.04.2020
4106 Clouds 13 1036 37 10000 4.1 120 00:40 26.04.2020
4107 Clouds 16 1036 19 10000 4.6 110 00:19 26.04.2020
4108 Clouds 16 1036 19 10000 4.6 110 23:39 25.04.2020
4109 Clouds 16 1036 19 10000 4.6 110 23:21 25.04.2020
4110 Clouds 15 1036 30 10000 4.1 120 22:58 25.04.2020
4111 Clouds 15 1036 30 10000 4.1 120 22:40 25.04.2020
4112 Clouds 15 1036 30 10000 4.1 120 22:19 25.04.2020
4113 Clouds 15 1037 30 10000 3.6 130 21:54 25.04.2020
4114 Clouds 15 1037 30 10000 3.6 130 21:54 25.04.2020
4115 Clouds 15 1037 30 10000 3.6 130 21:36 25.04.2020
4116 Clouds 17 1038 29 10000 3.1 210 21:18 25.04.2020
4117 Clouds 17 1038 29 10000 3.1 210 20:42 25.04.2020
4118 Clouds 17 1038 29 10000 3.1 210 20:22 25.04.2020
4119 Clouds 15 1038 30 10000 3.6 140 19:55 25.04.2020
4120 Clouds 15 1038 30 10000 3.6 140 19:37 25.04.2020
4121 Clouds 14 1039 44 10000 3.1 110 19:19 25.04.2020
4122 Clouds 14 1039 44 10000 3.1 110 18:41 25.04.2020
4123 Clouds 12 1040 54 10000 3.6 150 18:21 25.04.2020
4124 Clouds 12 1040 54 10000 3.6 150 17:58 25.04.2020
4125 Clouds 12 1040 54 10000 3.6 150 17:38 25.04.2020
4126 Clouds 12 1040 54 10000 3.6 150 17:19 25.04.2020
4127 Clouds 10 1040 66 10000 3.1 130 16:57 25.04.2020
4128 Clouds 10 1040 66 10000 3.1 130 16:38 25.04.2020
4129 Clouds 10 1040 66 10000 3.1 130 16:19 25.04.2020
4130 Clouds 8 1039 81 10000 4.1 100 15:41 25.04.2020
4131 Clouds 8 1039 81 10000 4.1 100 15:21 25.04.2020
4132 Clouds 6 1039 87 6000 3.6 90 14:58 25.04.2020
4133 Clouds 6 1039 87 6000 3.6 90 14:39 25.04.2020
4134 Clouds 6 1039 87 6000 3.6 90 14:20 25.04.2020
4135 Fog 1 1038 23 4000 3.6 70 13:44 25.04.2020
4136 Fog 1 1038 23 4000 3.6 70 13:22 25.04.2020
4137 Fog 1 1037 23 4000 3.1 70 12:59 25.04.2020
4138 Fog 1 1037 23 4000 3.1 70 12:41 25.04.2020
4139 Fog 0 1037 26 4000 3.1 80 12:21 25.04.2020
4140 Fog 0 1037 26 4000 3.1 80 11:59 25.04.2020
4141 Fog 0 1037 26 4000 3.1 80 11:40 25.04.2020
4142 Fog 0 1037 26 4000 3.1 80 11:22 25.04.2020
4143 Fog 0 1037 26 4000 3.1 80 11:22 25.04.2020
4144 Fog 1 1037 26 4000 2.1 90 10:45 25.04.2020
4145 Fog 2 1037 100 3000 3.6 80 10:25 25.04.2020
4146 Fog 2 1037 100 3000 3.6 80 09:55 25.04.2020
4147 Fog 2 1037 100 3000 3.6 80 09:36 25.04.2020
4148 Fog 2 1037 100 4000 2.1 70 09:18 25.04.2020
4149 Fog 2 1037 100 4000 2.1 70 08:40 25.04.2020
4150 Fog 3 1038 93 4000 2.6 80 08:21 25.04.2020
4151 Fog 3 1038 93 4000 2.6 80 07:58 25.04.2020
4152 Fog 3 1038 93 4000 2.6 80 07:40 25.04.2020
4153 Fog 5 1038 100 4000 1 0 06:55 25.04.2020
4154 Fog 5 1038 100 4000 1 0 06:36 25.04.2020
4155 Clouds 6 1038 93 10000 3.6 70 05:42 25.04.2020
4156 Clouds 6 1038 93 10000 3.6 70 05:21 25.04.2020
4157 Clouds 10 1037 61 10000 2.1 350 02:59 25.04.2020
4158 Clouds 10 1037 61 10000 2.1 350 02:25 25.04.2020
4159 Clouds 11 1036 50 10000 2.1 10 01:54 25.04.2020
4160 Clouds 11 1036 50 10000 2.1 10 01:34 25.04.2020
4161 Clouds 14 1035 35 10000 3.1 130 00:58 25.04.2020
4162 Clouds 14 1035 35 10000 3.1 130 00:34 25.04.2020
4163 Clouds 17 1035 21 10000 2.1 270 23:45 24.04.2020
4164 Clouds 17 1035 21 10000 2.1 270 23:27 24.04.2020
4165 Clouds 18 1035 22 10000 1 0 22:59 24.04.2020
4166 Clouds 18 1035 22 10000 1 0 22:39 24.04.2020
4167 Clouds 17 1036 25 10000 3.1 270 22:19 24.04.2020
4168 Clouds 17 1036 25 10000 3.1 270 21:55 24.04.2020
4169 Clouds 17 1036 25 10000 3.1 270 21:37 24.04.2020
4170 Clouds 16 1037 26 10000 1.5 20 21:19 24.04.2020
4171 Clouds 16 1037 26 10000 1.5 20 20:55 24.04.2020
4172 Clouds 16 1037 26 10000 1.5 20 20:37 24.04.2020
4173 Clouds 15 1038 28 10000 3.1 170 20:18 24.04.2020
4174 Clouds 15 1038 28 10000 3.1 170 19:40 24.04.2020
4175 Clouds 15 1038 28 10000 3.1 170 19:40 24.04.2020
4176 Clouds 15 1038 28 10000 3.1 170 19:21 24.04.2020
4177 Clouds 14 1039 35 10000 2.1 140 18:45 24.04.2020
4178 Clouds 14 1039 35 10000 2.1 140 18:26 24.04.2020
4179 Clouds 13 1040 47 10000 2.1 120 17:57 24.04.2020
4180 Clouds 13 1040 47 10000 2.1 120 17:37 24.04.2020
4181 Clouds 11 1040 53 10000 1 0 17:19 24.04.2020
4182 Clouds 11 1040 53 10000 1 0 16:58 24.04.2020
4183 Clouds 11 1040 53 10000 1 0 16:58 24.04.2020
4184 Clouds 11 1040 53 10000 1 0 16:39 24.04.2020
4185 Clouds 8 1039 65 10000 1 0 16:20 24.04.2020
4186 Clouds 8 1039 65 10000 1 0 15:42 24.04.2020
4187 Clouds 8 1039 65 10000 1 0 15:42 24.04.2020
4188 Clouds 8 1039 65 10000 1 0 15:21 24.04.2020
4189 Fog 4 1038 100 4000 1 0 14:56 24.04.2020
4190 Fog 4 1038 100 4000 1 0 14:37 24.04.2020
4191 Fog 0 1037 23 4000 2.6 80 14:18 24.04.2020
4192 Fog 0 1037 23 4000 2.6 80 13:41 24.04.2020
4193 Fog 0 1037 23 4000 2.6 80 13:21 24.04.2020
4194 Fog 1 1037 100 4000 3.1 70 13:21 24.04.2020
4195 Fog 0 1037 23 4000 2.6 80 13:21 24.04.2020
4196 Fog 1 1037 100 4000 3.1 70 12:58 24.04.2020
4197 Fog 1 1037 100 4000 3.1 70 12:39 24.04.2020
4198 Fog 3 1036 93 2500 3.6 80 12:19 24.04.2020
4199 Fog 3 1036 93 2500 3.6 80 11:43 24.04.2020
4200 Fog 3 1036 93 2500 3.6 80 11:22 24.04.2020
4201 Clouds 0 1036 27 10000 3.1 90 10:57 24.04.2020
4202 Clouds 0 1036 27 10000 3.1 90 10:38 24.04.2020
4203 Clouds 0 1036 27 10000 3.1 90 10:20 24.04.2020
4204 Fog 2 1036 100 4000 2.1 70 09:54 24.04.2020
4205 Fog 2 1036 100 4000 2.1 70 09:36 24.04.2020
4206 Fog 1 1037 100 4000 2.6 60 09:18 24.04.2020
4207 Clear 5 1017 25 0 0.18 305 08:41 24.04.2020
4208 Fog 5 1037 93 4000 2.1 140 08:19 24.04.2020
4209 Fog 5 1037 93 4000 2.1 140 07:47 24.04.2020
4210 Fog 5 1037 93 4000 2.1 140 07:27 24.04.2020
4211 Clouds 3 1037 93 10000 3.1 80 06:59 24.04.2020
4212 Clouds 3 1037 93 10000 3.1 80 06:40 24.04.2020
4213 Clouds 2 1038 93 10000 3.6 70 05:49 24.04.2020
4214 Clouds 3 1038 24 10000 2.6 90 04:46 24.04.2020
4215 Clouds 5 1037 25 10000 1.5 30 03:27 24.04.2020
4216 Clouds 8 1037 52 10000 1 0 02:44 24.04.2020
4217 Clouds 8 1037 52 10000 1 0 02:20 24.04.2020
4218 Clouds 10 1036 46 10000 2.6 130 01:37 24.04.2020
4219 Clouds 12 1036 40 10000 3.6 100 00:43 24.04.2020
4220 Clouds 14 1036 35 10000 3.6 150 00:18 24.04.2020
4221 Clouds 14 1036 35 10000 3.6 150 23:44 23.04.2020
4222 Clouds 14 1036 35 10000 3.6 150 23:26 23.04.2020
4223 Clouds 15 1036 30 10000 2.6 170 22:55 23.04.2020
4224 Clouds 15 1036 30 10000 2.6 170 22:37 23.04.2020
4225 Clouds 14 1037 18 10000 2.1 150 22:18 23.04.2020
4226 Clouds 14 1037 18 10000 2.1 150 21:56 23.04.2020
4227 Clouds 14 1037 17 10000 2.1 150 21:38 23.04.2020
4228 Clouds 14 1037 18 10000 2.1 150 21:20 23.04.2020
4229 Clouds 14 1038 35 10000 2.6 130 20:43 23.04.2020
4230 Clouds 13 1039 35 10000 3.1 130 20:22 23.04.2020
4231 Clouds 13 1039 35 10000 3.1 130 19:59 23.04.2020
4232 Clouds 13 1039 35 10000 3.1 130 19:40 23.04.2020
4233 Clouds 13 1039 35 10000 3.1 130 19:21 23.04.2020
4234 Clouds 12 1040 50 10000 3.1 160 18:56 23.04.2020
4235 Clouds 12 1040 50 10000 3.1 160 18:38 23.04.2020
4236 Clouds 11 1040 57 10000 2.6 130 18:19 23.04.2020
4237 Clouds 11 1040 57 10000 2.6 130 18:19 23.04.2020
4238 Clouds 11 1040 57 10000 2.6 130 17:55 23.04.2020
4239 Clouds 11 1040 57 10000 2.6 130 17:36 23.04.2020
4240 Clouds 9 1040 61 10000 2.6 100 17:18 23.04.2020
4241 Clouds 9 1040 61 10000 2.6 100 16:43 23.04.2020
4242 Clouds 8 1040 75 6000 3.1 90 16:19 23.04.2020
4243 Clouds 8 1040 75 6000 3.1 90 15:43 23.04.2020
4244 Clouds 8 1040 75 6000 3.1 90 15:23 23.04.2020
4245 Clouds 4 1039 93 6000 2.1 80 14:58 23.04.2020
4246 Clouds 4 1039 93 6000 2.1 80 14:38 23.04.2020
4247 Clouds 4 1039 93 6000 2.1 80 14:20 23.04.2020
4248 Clouds 4 1039 93 6000 2.1 80 14:20 23.04.2020
4249 Fog 1 1039 23 4000 2.1 70 13:57 23.04.2020
4250 Fog 1 1039 23 4000 2.1 70 13:38 23.04.2020
4251 Fog 1 1039 23 4000 2.1 70 13:38 23.04.2020
4252 Fog 2 1038 100 4000 2.6 60 13:19 23.04.2020
4253 Fog 2 1038 100 4000 2.6 60 12:44 23.04.2020
4254 Fog 2 1038 100 4000 2.6 60 12:25 23.04.2020
4255 Fog 4 1038 93 4000 2.1 70 11:58 23.04.2020
4256 Fog 4 1038 93 4000 2.1 70 11:40 23.04.2020
4257 Fog 4 1038 93 4000 2.1 70 11:21 23.04.2020
4258 Fog 4 1038 100 4000 3.1 80 10:42 23.04.2020
4259 Fog 4 1038 100 4000 3.1 80 10:22 23.04.2020
4260 Fog 5 1038 93 2500 3.6 70 09:55 23.04.2020
4261 Fog 5 1038 93 2500 3.6 70 09:37 23.04.2020
4262 Fog 4 1038 100 3000 3.1 60 09:18 23.04.2020
4263 Fog 4 1038 100 3000 3.1 60 08:42 23.04.2020
4264 Fog 4 1038 93 4000 3.1 70 08:23 23.04.2020
4265 Fog 4 1038 93 4000 3.1 70 07:43 23.04.2020
4266 Fog 4 1038 93 4000 3.1 70 07:23 23.04.2020
4267 Clouds 3 1039 93 10000 3.6 70 06:49 23.04.2020
4268 Clouds 3 1039 93 10000 3.1 80 06:22 23.04.2020
4269 Clouds 3 1039 93 10000 3.1 80 05:29 23.04.2020
4270 Clouds 4 1039 86 10000 2.6 90 04:51 23.04.2020
4271 Clouds 7 1038 65 10000 2.1 60 02:24 23.04.2020
4272 Clouds 10 1037 22 10000 2.6 120 01:49 23.04.2020
4273 Clouds 10 1037 22 10000 2.6 120 01:25 23.04.2020
4274 Clouds 13 1037 35 10000 4.1 100 00:45 23.04.2020
4275 Clouds 15 1037 24 10000 4.1 90 00:18 23.04.2020
4276 Clouds 15 1037 24 10000 4.1 90 00:18 23.04.2020
4277 Clouds 15 1037 24 10000 4.1 90 23:47 22.04.2020
4278 Clouds 15 1037 24 10000 4.1 90 23:23 22.04.2020
4279 Clouds 15 1037 21 10000 4.6 160 22:55 22.04.2020
4280 Clouds 15 1037 21 10000 4.6 160 22:36 22.04.2020
4281 Clouds 15 1038 24 10000 3.6 110 22:18 22.04.2020
4282 Clouds 15 1038 24 10000 3.6 110 21:55 22.04.2020
4283 Clouds 15 1038 24 10000 3.6 110 21:55 22.04.2020
4284 Clouds 15 1038 24 10000 3.6 110 21:36 22.04.2020
4285 Clouds 14 1039 35 10000 5.1 130 21:18 22.04.2020
4286 Clouds 14 1039 35 10000 5.1 130 20:43 22.04.2020
4287 Clouds 13 1040 47 10000 4.1 140 20:19 22.04.2020
4288 Clouds 13 1040 47 10000 4.1 140 19:57 22.04.2020
4289 Clouds 13 1040 47 10000 4.1 140 19:38 22.04.2020
4290 Clouds 12 1041 54 10000 4.1 140 19:18 22.04.2020
4291 Clouds 12 1041 54 10000 4.1 140 19:18 22.04.2020
4292 Clouds 12 1041 54 10000 4.1 140 18:58 22.04.2020
4293 Clouds 12 1041 54 10000 4.1 140 18:40 22.04.2020
4294 Clouds 11 1041 43 10000 3.6 120 18:21 22.04.2020
4295 Clouds 11 1041 43 10000 3.6 120 17:44 22.04.2020
4296 Clouds 9 1041 57 10000 2.6 100 17:26 22.04.2020
4297 Clouds 9 1041 57 10000 2.6 100 16:58 22.04.2020
4298 Clouds 9 1041 57 10000 2.6 100 16:58 22.04.2020
4299 Clouds 9 1041 57 10000 2.6 100 16:40 22.04.2020
4300 Clouds 9 1041 57 10000 2.6 100 16:21 22.04.2020
4301 Clouds 7 1041 81 10000 3.6 100 15:41 22.04.2020
4302 Clouds 7 1041 81 10000 3.6 100 15:22 22.04.2020
4303 Clouds 3 1040 93 6000 4.6 100 14:58 22.04.2020
4304 Clouds 3 1040 93 6000 4.6 100 14:38 22.04.2020
4305 Clouds 3 1040 93 6000 4.6 100 14:19 22.04.2020
4306 Fog 0 1040 23 700 3.1 100 13:45 22.04.2020
4307 Rain -2 1039 92 10000 2.1 80 13:21 22.04.2020
4308 Rain -2 1039 92 10000 2.1 80 12:57 22.04.2020
4309 Rain -2 1039 92 10000 2.1 80 12:39 22.04.2020
4310 Rain -2 1039 92 10000 2.1 80 12:21 22.04.2020
4311 Rain -1 1039 92 10000 1.5 90 11:40 22.04.2020
4312 Rain -1 1039 92 10000 1.5 90 11:20 22.04.2020
4313 Rain -1 1039 92 10000 2.1 80 10:58 22.04.2020
4314 Rain -1 1039 92 10000 2.1 80 10:38 22.04.2020
4315 Clouds 1 1039 86 10000 2.1 30 10:18 22.04.2020
4316 Clouds 1 1039 86 10000 2.1 30 09:39 22.04.2020
4317 Clouds 1 1039 86 10000 2.1 30 09:20 22.04.2020
4318 Clouds 3 1040 27 10000 2.1 10 08:55 22.04.2020
4319 Clouds 3 1040 27 10000 2.1 10 08:37 22.04.2020
4320 Clouds 1 1040 86 10000 1.5 30 08:18 22.04.2020
4321 Clouds 1 1040 86 10000 1.5 30 07:51 22.04.2020
4322 Clouds 1 1040 86 10000 1.5 30 07:23 22.04.2020
4323 Clouds 1 1041 86 10000 1.5 40 06:52 22.04.2020
4324 Clouds 1 1041 27 10000 1 0 05:47 22.04.2020
4325 Clouds 1 1041 27 10000 1 0 05:27 22.04.2020
4326 Clouds 4 1040 80 10000 2.1 40 04:18 22.04.2020
4327 Clouds 4 1039 86 10000 2.6 80 02:39 22.04.2020
4328 Clouds 5 1039 86 10000 3.1 70 01:43 22.04.2020
4329 Clouds 5 1039 86 10000 3.1 70 01:24 22.04.2020
4330 Clouds 8 1038 70 10000 5.1 60 00:46 22.04.2020
4331 Clouds 8 1038 70 10000 5.1 60 00:21 22.04.2020
4332 Clouds 9 1038 76 10000 6.2 70 23:56 21.04.2020
4333 Clouds 9 1038 76 10000 6.2 70 23:36 21.04.2020
4334 Clouds 9 1038 70 8000 5.1 120 23:18 21.04.2020
4335 Clouds 9 1038 70 8000 5.1 120 22:39 21.04.2020
4336 Thunderstorm 10 1039 66 6000 2.1 70 22:21 21.04.2020
4337 Thunderstorm 10 1039 66 6000 2.1 70 21:57 21.04.2020
4338 Thunderstorm 10 1039 66 6000 2.1 70 21:39 21.04.2020
4339 Thunderstorm 10 1039 66 6000 2.1 70 21:39 21.04.2020
4340 Rain 12 1039 54 8000 4.1 70 21:21 21.04.2020
4341 Rain 12 1039 54 8000 4.1 70 20:41 21.04.2020
4342 Clouds 13 1040 43 10000 3.6 90 20:23 21.04.2020
4343 Clouds 13 1040 43 10000 3.6 90 19:59 21.04.2020
4344 Clouds 13 1040 43 10000 3.6 90 19:39 21.04.2020
4345 Clouds 12 1041 58 10000 2.1 120 19:19 21.04.2020
4346 Clouds 12 1041 58 10000 2.1 120 18:55 21.04.2020
4347 Clouds 12 1041 58 10000 2.1 120 18:37 21.04.2020
4348 Clouds 12 1041 58 10000 2.1 120 18:37 21.04.2020
4349 Clouds 12 1041 58 10000 2.1 120 18:37 21.04.2020
4350 Clouds 10 1042 61 10000 2.1 170 18:18 21.04.2020
4351 Clouds 10 1042 61 10000 2.1 170 17:40 21.04.2020
4352 Clouds 10 1042 61 10000 2.6 100 17:20 21.04.2020
4353 Clouds 10 1042 61 10000 2.6 100 16:57 21.04.2020
4354 Clouds 10 1042 61 10000 2.6 100 16:37 21.04.2020
4355 Clouds 8 1041 65 8000 1.5 100 16:18 21.04.2020
4356 Clouds 8 1041 65 8000 1.5 100 15:55 21.04.2020
4357 Clouds 8 1041 65 8000 1.5 100 15:37 21.04.2020
4358 Clouds 6 1041 87 10000 0.48 15 15:18 21.04.2020
4359 Clouds 6 1041 87 10000 0.48 15 14:45 21.04.2020
4360 Clouds 6 1041 87 10000 0.11 82 14:23 21.04.2020
4361 Clouds 2 1040 93 10000 1.5 30 13:55 21.04.2020
4362 Clouds 2 1040 93 10000 1.5 30 13:37 21.04.2020
4363 Clouds 2 1040 93 10000 0.11 82 13:18 21.04.2020
4364 Clouds 2 1040 93 10000 0.11 82 12:38 21.04.2020
4365 Clouds 2 1040 93 10000 1.35 156 12:19 21.04.2020
4366 Clouds 2 1039 93 10000 1 0 11:57 21.04.2020
4367 Clouds 2 1039 93 10000 1 0 11:38 21.04.2020
4368 Clouds 3 1040 93 10000 0.5 0 11:19 21.04.2020
4369 Clouds 3 1040 93 10000 0.5 0 10:58 21.04.2020
4370 Clouds 3 1040 93 10000 0.5 0 10:39 21.04.2020
4371 Clouds 3 1040 93 10000 0.5 0 10:39 21.04.2020
4372 Clouds 1 1040 100 10000 1.35 156 10:20 21.04.2020
4373 Clouds 1 1040 100 10000 1.35 156 09:55 21.04.2020
4374 Clouds 1 1040 100 10000 1.35 156 09:36 21.04.2020
4375 Clouds 1 1040 100 10000 1.35 156 09:36 21.04.2020
4376 Clouds 1 1040 100 10000 1.35 156 09:36 21.04.2020
4377 Clouds 1 1041 27 10000 1.5 80 09:18 21.04.2020
4378 Clouds 1 1041 27 10000 1.5 80 08:42 21.04.2020
4379 Clouds 1 1041 27 10000 1.5 80 08:23 21.04.2020
4380 Clouds 3 1041 86 10000 1.5 80 07:50 21.04.2020
4381 Clouds 3 1041 86 10000 1.5 80 07:26 21.04.2020
4382 Clouds 6 1042 81 10000 0.73 94 06:50 21.04.2020
4383 Clouds 6 1042 81 10000 0.16 93 06:24 21.04.2020
4384 Clouds 6 1042 81 10000 1 0 05:49 21.04.2020
4385 Clouds 6 1042 81 10000 1 0 04:54 21.04.2020
4386 Clouds 7 1041 75 10000 2.1 220 03:45 21.04.2020
4387 Clouds 8 1039 61 10000 2.6 10 01:53 21.04.2020
4388 Clouds 8 1039 61 10000 2.6 10 01:29 21.04.2020
4389 Clouds 8 1039 61 10000 2.1 50 00:38 21.04.2020
4390 Clouds 9 1039 61 10000 4.1 130 23:48 20.04.2020
4391 Clouds 9 1039 61 10000 4.1 130 23:26 20.04.2020
4392 Clouds 8 1039 65 10000 5.1 120 22:59 20.04.2020
4393 Clouds 8 1039 65 10000 5.1 120 22:41 20.04.2020
4394 Rain 7 1040 81 8000 5.7 10 22:21 20.04.2020
4395 Clouds 8 1039 65 10000 5.1 120 22:21 20.04.2020
4396 Rain 7 1040 81 8000 5.7 10 21:58 20.04.2020
4397 Rain 7 1040 81 8000 5.7 10 21:39 20.04.2020
4398 Thunderstorm 11 1040 16 10000 3.1 90 21:19 20.04.2020
4399 Thunderstorm 11 1040 16 10000 3.1 90 20:58 20.04.2020
4400 Thunderstorm 11 1040 16 10000 3.1 90 20:39 20.04.2020
4401 Clouds 12 1041 46 10000 3.6 130 20:19 20.04.2020
4402 Clouds 12 1041 46 10000 3.6 130 20:19 20.04.2020
4403 Clouds 12 1041 46 10000 3.6 130 19:58 20.04.2020
4404 Clouds 12 1041 46 10000 3.6 130 19:39 20.04.2020
4405 Clouds 12 1042 50 10000 3.1 240 19:19 20.04.2020
4406 Clouds 12 1042 50 10000 3.1 240 18:43 20.04.2020
4407 Clouds 12 1042 50 10000 3.1 240 18:23 20.04.2020
4408 Clouds 11 1043 53 10000 2.6 250 17:56 20.04.2020
4409 Clouds 11 1043 53 10000 2.6 250 17:38 20.04.2020
4410 Clouds 9 1043 61 10000 2.6 230 17:19 20.04.2020
4411 Clouds 9 1043 61 10000 2.6 230 16:58 20.04.2020
4412 Clouds 9 1043 61 10000 2.6 230 16:39 20.04.2020
4413 Clouds 8 1042 65 10000 1 0 16:18 20.04.2020
4414 Clouds 8 1042 65 10000 1 0 15:43 20.04.2020
4415 Clouds 6 1041 70 10000 1 0 15:23 20.04.2020
4416 Clouds 6 1041 70 10000 1 0 14:58 20.04.2020
4417 Clouds 6 1041 70 10000 1 0 14:40 20.04.2020
4418 Clouds 3 1040 18 10000 1 0 14:18 20.04.2020
4419 Clouds 3 1040 18 10000 1 0 13:54 20.04.2020
4420 Clouds 3 1040 18 10000 1 0 13:36 20.04.2020
4421 Clouds -1 1040 92 10000 1 0 13:18 20.04.2020
4422 Clouds -1 1040 92 10000 1 0 12:42 20.04.2020
4423 Clouds 1 1039 24 10000 2.1 30 12:19 20.04.2020
4424 Clouds 3 1023 24 0 0.8 31 11:41 20.04.2020
4425 Clouds 1 1040 24 10000 1 0 11:22 20.04.2020
4426 Clouds 1 1040 24 10000 1 0 10:57 20.04.2020
4427 Clouds 1 1040 24 10000 1 0 10:38 20.04.2020
4428 Clouds 1 1040 24 10000 1 0 10:19 20.04.2020
4429 Clouds 2 1040 24 10000 1.5 30 09:55 20.04.2020
4430 Clouds 2 1040 24 10000 1.5 30 09:36 20.04.2020
4431 Clouds 4 1040 86 10000 1 0 09:18 20.04.2020
4432 Clouds 4 1040 86 10000 1 0 08:41 20.04.2020
4433 Clouds 4 1040 86 10000 1 0 08:21 20.04.2020
4434 Clouds 5 1041 80 10000 1 0 07:52 20.04.2020
4435 Clouds 5 1041 80 10000 1 0 07:29 20.04.2020
4436 Clouds 5 1042 80 10000 1.37 28 06:57 20.04.2020
4437 Clouds 5 1042 80 10000 1.37 28 06:36 20.04.2020
4438 Clouds 6 1042 75 10000 1.5 230 05:41 20.04.2020
4439 Clouds 6 1040 70 10000 1.91 45 03:49 20.04.2020
4440 Clouds 6 1040 75 10000 2.1 280 02:44 20.04.2020
4441 Clouds 8 1039 61 10000 1.5 130 01:37 20.04.2020
4442 Clouds 8 1039 61 10000 1.5 130 01:19 20.04.2020
4443 Clouds 8 1039 65 10000 4.6 190 00:35 20.04.2020
4444 Clouds 11 1039 50 10000 3.6 340 23:57 19.04.2020
4445 Clouds 11 1039 50 10000 3.6 340 23:38 19.04.2020
4446 Clouds 11 1039 50 10000 3.6 340 23:19 19.04.2020
4447 Clouds 13 1038 43 10000 4.6 350 22:40 19.04.2020
4448 Clouds 13 1038 43 10000 4.6 350 22:22 19.04.2020
4449 Clouds 13 1039 43 10000 4.1 60 21:58 19.04.2020
4450 Clouds 13 1039 43 10000 4.1 60 21:39 19.04.2020
4451 Clouds 13 1039 43 10000 4.1 60 21:39 19.04.2020
4452 Clouds 13 1039 43 10000 4.1 60 21:20 19.04.2020
4453 Clouds 12 1040 50 10000 4.6 10 20:55 19.04.2020
4454 Clouds 12 1040 50 10000 4.6 10 20:36 19.04.2020
4455 Clouds 12 1040 46 10000 4.1 150 20:18 19.04.2020
4456 Clouds 12 1040 46 10000 4.1 150 19:41 19.04.2020
4457 Clouds 12 1040 46 10000 4.1 150 19:22 19.04.2020
4458 Clouds 11 1041 50 10000 2.1 130 18:58 19.04.2020
4459 Clouds 11 1041 50 10000 2.1 130 18:39 19.04.2020
4460 Clouds 10 1042 61 10000 2.6 140 18:20 19.04.2020
4461 Clouds 10 1042 61 10000 2.6 140 17:57 19.04.2020
4462 Clouds 10 1042 61 10000 2.6 140 17:39 19.04.2020
4463 Clouds 10 1042 61 10000 2.6 140 17:21 19.04.2020
4464 Clouds 8 1042 70 10000 3.1 110 16:58 19.04.2020
4465 Clouds 8 1042 70 10000 3.1 110 16:38 19.04.2020
4466 Clouds 8 1042 70 10000 3.1 110 16:20 19.04.2020
4467 Clouds 5 1042 86 6000 3.1 100 15:43 19.04.2020
4468 Clouds 5 1041 86 6000 2.1 70 15:22 19.04.2020
4469 Clouds 5 1041 86 6000 2.1 70 14:55 19.04.2020
4470 Clouds 5 1041 86 6000 2.1 70 14:37 19.04.2020
4471 Fog 3 1040 93 4000 2.6 80 14:18 19.04.2020
4472 Fog 3 1040 93 4000 2.6 80 13:39 19.04.2020
4473 Fog 3 1040 93 4000 2.6 80 13:20 19.04.2020
4474 Fog 3 1040 93 4000 2.1 100 12:50 19.04.2020
4475 Fog 3 1040 93 4000 2.1 100 12:25 19.04.2020
4476 Fog 3 1040 93 4000 2.1 100 12:25 19.04.2020
4477 Fog 4 1040 93 4000 3.6 110 11:56 19.04.2020
4478 Fog 4 1040 93 4000 3.6 110 11:37 19.04.2020
4479 Fog 3 1040 93 4000 3.1 110 11:19 19.04.2020
4480 Fog 3 1040 93 4000 3.1 110 10:55 19.04.2020
4481 Fog 3 1040 93 4000 3.1 110 10:37 19.04.2020
4482 Fog 3 1040 93 4000 3.1 120 10:18 19.04.2020
4483 Fog 3 1040 93 4000 3.1 120 09:44 19.04.2020
4484 Fog 3 1040 93 4000 3.1 120 09:25 19.04.2020
4485 Fog 4 1040 93 3000 1.5 90 08:41 19.04.2020
4486 Fog 4 1040 93 3000 1.5 90 08:41 19.04.2020
4487 Fog 4 1041 93 3000 2.6 90 08:21 19.04.2020
4488 Fog 4 1041 93 3000 2.6 90 07:58 19.04.2020
4489 Fog 4 1041 93 3000 2.6 90 07:40 19.04.2020
4490 Fog 4 1041 93 3000 2.6 90 07:21 19.04.2020
4491 Fog 4 1041 93 3000 2.6 110 06:27 19.04.2020
4492 Fog 3 1041 93 4000 1 0 05:46 19.04.2020
4493 Clouds 3 1041 93 10000 3.1 100 04:22 19.04.2020
4494 Clouds 4 1039 86 10000 2.6 60 02:55 19.04.2020
4495 Clouds 4 1039 86 10000 2.6 60 02:20 19.04.2020
4496 Clouds 5 1039 80 10000 4.6 70 01:37 19.04.2020
4497 Clouds 7 1039 70 8000 3.6 360 00:41 19.04.2020
4498 Clouds 7 1039 70 8000 3.6 360 00:22 19.04.2020
4499 Rain 8 1039 65 8000 4.1 80 23:44 18.04.2020
4500 Rain 8 1039 61 8000 3.6 10 23:21 18.04.2020
4501 Rain 8 1039 61 8000 3.6 10 22:56 18.04.2020
4502 Rain 8 1039 61 8000 3.6 10 22:38 18.04.2020
4503 Rain 8 1039 61 8000 3.6 10 22:19 18.04.2020
4504 Clouds 14 1039 41 10000 4.6 90 21:55 18.04.2020
4505 Clouds 14 1039 41 10000 4.6 90 21:36 18.04.2020
4506 Clouds 12 1040 50 10000 4.6 110 21:18 18.04.2020
4507 Clouds 12 1041 54 10000 4.1 110 20:40 18.04.2020
4508 Clouds 12 1041 54 10000 4.1 110 20:21 18.04.2020
4509 Clouds 12 1041 54 10000 4.1 110 19:44 18.04.2020
4510 Clouds 12 1041 54 10000 4.1 110 19:25 18.04.2020
4511 Clouds 10 1041 53 10000 5.7 120 18:58 18.04.2020
4512 Clouds 10 1041 53 10000 5.7 120 18:36 18.04.2020
4513 Clouds 8 1042 65 10000 4.1 130 18:18 18.04.2020
4514 Clouds 8 1042 65 10000 4.1 130 17:41 18.04.2020
4515 Clouds 8 1042 65 10000 4.1 130 17:41 18.04.2020
4516 Clouds 8 1042 65 10000 4.1 130 17:21 18.04.2020
4517 Clouds 7 1042 70 6000 2.1 120 16:56 18.04.2020
4518 Clouds 7 1042 70 6000 2.1 120 16:36 18.04.2020
4519 Clouds 5 1042 86 6000 1 0 16:18 18.04.2020
4520 Clouds 5 1042 86 6000 1 0 15:38 18.04.2020
4521 Clouds 5 1042 86 6000 1 0 15:38 18.04.2020
4522 Clouds 3 1042 93 6000 1 0 15:19 18.04.2020
4523 Clouds 3 1042 93 6000 1 0 14:44 18.04.2020
4524 Clouds 3 1042 93 6000 1 0 14:24 18.04.2020
4525 Fog 1 1041 25 4000 2.1 70 13:44 18.04.2020
4526 Fog 1 1041 25 4000 2.1 70 13:25 18.04.2020
4527 Fog 3 1041 93 4000 1 0 12:56 18.04.2020
4528 Fog 3 1041 93 4000 1 0 12:56 18.04.2020
4529 Fog 3 1041 93 4000 1 0 12:38 18.04.2020
4530 Fog 4 1040 86 4000 2.6 80 12:19 18.04.2020
4531 Fog 4 1040 86 4000 2.6 80 11:42 18.04.2020
4532 Fog 4 1040 86 4000 2.6 80 11:22 18.04.2020
4533 Fog 3 1040 93 4000 2.6 110 10:57 18.04.2020
4534 Fog 3 1040 93 4000 2.6 110 10:37 18.04.2020
4535 Fog 3 1040 93 4000 2.6 120 10:18 18.04.2020
4536 Fog 3 1040 93 4000 2.6 120 09:41 18.04.2020
4537 Fog 3 1040 93 4000 2.6 120 09:41 18.04.2020
4538 Fog 3 1040 93 4000 2.6 120 09:23 18.04.2020
4539 Fog 3 1041 100 4000 2.6 120 08:43 18.04.2020
4540 Fog 3 1041 100 4000 2.6 120 08:25 18.04.2020
4541 Fog 4 1041 86 4000 2.6 130 07:52 18.04.2020
4542 Fog 4 1041 86 4000 2.6 130 07:33 18.04.2020
4543 Fog 4 1041 86 4000 3.6 140 06:53 18.04.2020
4544 Fog 4 1041 93 4000 2.6 80 05:50 18.04.2020
4545 Fog 4 1041 93 4000 2.6 80 05:23 18.04.2020
4546 Fog 4 1041 93 4000 3.1 80 04:45 18.04.2020
4547 Fog 4 1041 93 4000 3.1 80 04:24 18.04.2020
4548 Fog 4 1039 93 4000 4.6 90 02:45 18.04.2020
4549 Fog 4 1039 93 4000 4.6 90 02:21 18.04.2020
4550 Fog 4 1039 93 4000 4.6 90 02:21 18.04.2020
4551 Clouds 5 1039 86 10000 5.1 90 01:51 18.04.2020
4552 Clouds 5 1039 86 10000 5.1 90 01:28 18.04.2020
4553 Clouds 6 1039 81 10000 6.7 100 00:38 18.04.2020
4554 Clouds 9 1039 61 10000 5.1 90 00:20 18.04.2020
4555 Clouds 9 1039 61 10000 5.1 90 23:41 17.04.2020
4556 Clouds 8 1039 70 10000 3.6 70 23:20 17.04.2020
4557 Clouds 8 1039 70 10000 3.6 70 23:00 17.04.2020
4558 Clouds 8 1039 70 10000 3.6 70 22:40 17.04.2020
4559 Clouds 8 1039 70 10000 3.6 70 22:21 17.04.2020
4560 Clouds 6 1040 81 8000 3.1 60 21:58 17.04.2020
4561 Clouds 6 1040 81 8000 3.1 60 21:40 17.04.2020
4562 Clouds 6 1040 81 8000 3.1 60 21:20 17.04.2020
4563 Thunderstorm 8 1040 65 10000 6.7 290 20:56 17.04.2020
4564 Thunderstorm 8 1040 65 10000 6.7 290 20:56 17.04.2020
4565 Thunderstorm 8 1040 65 10000 6.7 290 20:37 17.04.2020
4566 Clouds 9 1041 70 10000 3.1 100 20:18 17.04.2020
4567 Clouds 9 1041 70 10000 3.1 100 19:55 17.04.2020
4568 Clouds 9 1041 70 10000 3.1 100 19:37 17.04.2020
4569 Clouds 5 1042 80 10000 2.1 60 19:18 17.04.2020
4570 Clouds 5 1042 80 10000 2.1 60 18:40 17.04.2020
4571 Rain 5 1043 80 7000 1.5 320 18:20 17.04.2020
4572 Rain 5 1043 80 7000 1.5 320 17:38 17.04.2020
4573 Rain 5 1043 80 7000 1.5 320 17:20 17.04.2020
4574 Rain 5 1043 80 6000 1 0 17:20 17.04.2020
4575 Rain 5 1043 80 6000 1 0 16:58 17.04.2020
4576 Rain 5 1043 80 6000 1 0 16:39 17.04.2020
4577 Rain 5 1043 80 6000 1 0 16:21 17.04.2020
4578 Rain 5 1042 86 4000 2.1 90 15:39 17.04.2020
4579 Rain 5 1042 86 4000 2.1 90 15:21 17.04.2020
4580 Fog 4 1041 86 4000 1 0 14:42 17.04.2020
4581 Fog 4 1041 86 4000 1 0 14:24 17.04.2020
4582 Fog 3 1041 93 4000 1 0 13:59 17.04.2020
4583 Fog 3 1041 93 4000 1 0 13:59 17.04.2020
4584 Fog 3 1041 93 4000 1 0 13:39 17.04.2020
4585 Fog 3 1041 93 4000 1 0 13:20 17.04.2020
4586 Rain 2 1040 93 6000 2.1 90 12:48 17.04.2020
4587 Rain 2 1040 93 6000 2.1 90 12:26 17.04.2020
4588 Rain 2 1040 93 6000 1 0 11:58 17.04.2020
4589 Rain 2 1040 93 6000 1 0 11:37 17.04.2020
4590 Rain 2 1040 93 6000 1.5 190 11:18 17.04.2020
4591 Rain 2 1040 93 6000 1.5 190 10:40 17.04.2020
4592 Fog 4 1040 93 4000 2.6 160 10:19 17.04.2020
4593 Fog 4 1040 93 4000 2.6 160 09:54 17.04.2020
4594 Fog 4 1040 93 4000 2.6 160 09:36 17.04.2020
4595 Fog 4 1040 93 4000 3.1 130 09:18 17.04.2020
4596 Fog 4 1040 93 4000 3.1 130 09:18 17.04.2020
4597 Fog 4 1040 93 4000 3.1 130 08:44 17.04.2020
4598 Fog 4 1040 93 4000 3.1 130 08:24 17.04.2020
4599 Fog 4 1041 86 4000 3.6 120 07:44 17.04.2020
4600 Fog 4 1041 86 4000 3.6 100 07:24 17.04.2020
4601 Fog 4 1041 86 4000 3.6 100 06:52 17.04.2020
4602 Fog 4 1041 86 4000 3.6 100 06:23 17.04.2020
4603 Fog 5 1041 80 4000 5.1 100 05:38 17.04.2020
4604 Fog 5 1040 93 4000 3.6 160 03:21 17.04.2020
4605 Clouds 5 1038 75 10000 2.6 80 02:34 17.04.2020
4606 Clouds 7 1037 65 10000 5.1 80 01:30 17.04.2020
4607 Clouds 10 1036 43 10000 5.1 80 00:53 17.04.2020
4608 Clouds 12 1036 40 10000 4.6 60 00:19 17.04.2020
4609 Clouds 12 1036 40 10000 4.6 60 23:45 16.04.2020
4610 Clouds 12 1036 40 10000 4.6 60 23:23 16.04.2020
4611 Clouds 12 1037 37 10000 4.6 50 22:58 16.04.2020
4612 Clouds 12 1037 37 10000 4.6 50 22:37 16.04.2020
4613 Clouds 12 1037 37 10000 4.6 50 22:19 16.04.2020
4614 Clouds 13 1037 32 10000 3.1 90 21:43 16.04.2020
4615 Clouds 13 1037 32 10000 3.1 90 21:21 16.04.2020
4616 Clouds 14 1038 28 10000 4.6 110 20:59 16.04.2020
4617 Clouds 14 1038 28 10000 4.6 110 20:40 16.04.2020
4618 Clouds 14 1038 28 10000 4.6 110 20:20 16.04.2020
4619 Clouds 13 1038 32 10000 5.1 120 19:55 16.04.2020
4620 Clouds 13 1038 32 10000 5.1 120 19:37 16.04.2020
4621 Clouds 13 1039 32 10000 2.6 120 19:18 16.04.2020
4622 Clouds 13 1039 32 10000 2.6 120 18:42 16.04.2020
4623 Clouds 12 1041 22 10000 1 0 18:24 16.04.2020
4624 Clouds 12 1041 22 10000 1 0 17:57 16.04.2020
4625 Clouds 12 1041 22 10000 1 0 17:39 16.04.2020
4626 Clouds 12 1041 22 10000 1 0 17:18 16.04.2020
4627 Clouds 9 1041 29 10000 1 0 16:42 16.04.2020
4628 Clouds 9 1041 29 10000 1 0 16:24 16.04.2020
4629 Clouds 7 1040 14 10000 1 0 15:46 16.04.2020
4630 Clouds 7 1040 14 10000 1 0 15:46 16.04.2020
4631 Clouds 7 1040 24 10000 1 0 15:20 16.04.2020
4632 Clouds 7 1040 24 10000 1 0 15:20 16.04.2020
4633 Fog 4 1039 86 4000 2.6 80 14:59 16.04.2020
4634 Fog 4 1039 86 4000 2.6 80 14:40 16.04.2020
4635 Fog 4 1039 86 4000 2.6 80 14:22 16.04.2020
4636 Fog 1 1039 23 4000 2.6 80 13:58 16.04.2020
4637 Fog 1 1039 23 4000 2.6 80 13:58 16.04.2020
4638 Fog 1 1039 23 4000 2.6 80 13:40 16.04.2020
4639 Fog 1 1039 23 4000 2.6 80 13:21 16.04.2020
4640 Fog 0 1038 23 4000 2.1 70 12:57 16.04.2020
4641 Fog 0 1038 23 4000 2.1 70 12:38 16.04.2020
4642 Fog 0 1038 27 4000 2.1 70 12:19 16.04.2020
4643 Fog 1 1038 27 4000 2.1 60 11:56 16.04.2020
4644 Fog 1 1038 27 4000 2.1 60 11:37 16.04.2020
4645 Fog 0 1037 27 4000 2.6 80 11:18 16.04.2020
4646 Fog 0 1037 27 4000 2.6 80 11:18 16.04.2020
4647 Fog 0 1037 27 4000 2.6 80 10:40 16.04.2020
4648 Fog 0 1037 27 4000 2.6 80 10:19 16.04.2020
4649 Fog 0 1037 27 4000 2.6 80 10:19 16.04.2020
4650 Fog 2 1037 93 4000 3.1 70 09:59 16.04.2020
4651 Fog 2 1037 93 4000 3.1 70 09:38 16.04.2020
4652 Fog 3 1037 93 4000 3.1 70 09:20 16.04.2020
4653 Fog 3 1037 93 4000 3.1 70 08:43 16.04.2020
4654 Fog 3 1037 93 4000 3.1 70 08:23 16.04.2020
4655 Fog 4 1037 93 4000 3.6 100 07:46 16.04.2020
4656 Fog 4 1037 93 4000 3.6 100 07:28 16.04.2020
4657 Fog 5 1038 86 4000 4.1 100 06:46 16.04.2020
4658 Fog 5 1037 86 4000 2.6 120 06:27 16.04.2020
4659 Fog 5 1037 86 4000 2.6 120 05:59 16.04.2020
4660 Fog 4 1037 93 4000 3.6 70 04:44 16.04.2020
4661 Clouds 5 1036 86 10000 4.1 70 03:24 16.04.2020
4662 Clouds 8 1035 61 10000 4.1 120 02:55 16.04.2020
4663 Clouds 8 1035 61 10000 4.1 120 02:33 16.04.2020
4664 Clouds 11 1035 25 10000 3.1 340 01:21 16.04.2020
4665 Clouds 14 1034 15 10000 2.6 320 00:38 16.04.2020
4666 Clouds 16 1034 14 10000 4.1 280 00:00 16.04.2020
4667 Clouds 16 1034 14 10000 4.1 280 23:41 15.04.2020
4668 Clouds 16 1034 14 10000 4.1 280 23:22 15.04.2020
4669 Clouds 16 1034 14 10000 5.1 250 22:41 15.04.2020
4670 Clouds 16 1034 14 10000 5.1 250 22:22 15.04.2020
4671 Clouds 16 1034 14 10000 5.1 250 22:22 15.04.2020
4672 Clouds 16 1035 21 10000 4.1 280 22:00 15.04.2020
4673 Clouds 16 1035 21 10000 4.1 280 21:41 15.04.2020
4674 Clouds 16 1035 21 10000 4.1 280 21:23 15.04.2020
4675 Clouds 16 1036 15 10000 5.7 280 20:59 15.04.2020
4676 Clouds 16 1036 15 10000 5.7 280 20:40 15.04.2020
4677 Clouds 16 1036 15 10000 5.7 280 20:22 15.04.2020
4678 Clouds 15 1037 18 10000 3.6 300 19:46 15.04.2020
4679 Clouds 14 1038 20 10000 3.6 240 19:21 15.04.2020
4680 Clouds 14 1038 20 10000 3.6 240 18:58 15.04.2020
4681 Clouds 14 1038 20 10000 3.6 240 18:40 15.04.2020
4682 Clouds 12 1038 30 10000 2.6 250 18:21 15.04.2020
4683 Clouds 12 1038 30 10000 2.6 250 17:55 15.04.2020
4684 Clouds 12 1038 30 10000 2.6 250 17:36 15.04.2020
4685 Clouds 12 1038 30 10000 2.6 250 17:36 15.04.2020
4686 Clouds 10 1038 34 10000 1 0 17:18 15.04.2020
4687 Clouds 10 1038 34 10000 1 0 17:18 15.04.2020
4688 Clouds 10 1038 34 10000 1 0 16:54 15.04.2020
4689 Clouds 10 1038 34 10000 1 0 16:36 15.04.2020
4690 Clouds 10 1038 34 10000 1 0 16:18 15.04.2020
4691 Clouds 8 1038 49 10000 1 0 15:55 15.04.2020
4692 Clouds 8 1038 49 10000 1 0 15:36 15.04.2020
4693 Clouds 5 1037 80 10000 1 0 15:18 15.04.2020
4694 Clouds 5 1037 80 10000 1 0 14:41 15.04.2020
4695 Clouds 5 1037 80 10000 1 0 14:23 15.04.2020
4696 Clouds -2 1037 92 10000 1.5 80 13:59 15.04.2020
4697 Clouds -2 1037 92 10000 1.5 80 13:40 15.04.2020
4698 Fog -1 1036 92 4000 2.1 60 13:21 15.04.2020
4699 Fog -1 1036 92 4000 2.1 60 12:57 15.04.2020
4700 Fog -1 1036 92 4000 2.1 60 12:39 15.04.2020
4701 Fog 0 1035 28 4000 2.6 70 12:21 15.04.2020
4702 Fog 0 1035 28 4000 2.6 70 11:45 15.04.2020
4703 Fog 0 1035 28 4000 2.6 70 11:25 15.04.2020
4704 Fog 1 1035 28 4000 2.1 70 10:59 15.04.2020
4705 Fog 1 1035 28 4000 2.1 70 10:37 15.04.2020
4706 Fog 1 1035 28 4000 2.1 70 10:19 15.04.2020
4707 Fog 2 1036 93 4000 1.5 80 09:56 15.04.2020
4708 Fog 2 1036 93 4000 1.5 80 09:37 15.04.2020
4709 Fog 2 1036 93 4000 1.5 80 09:19 15.04.2020
4710 Fog 4 1036 86 4000 2.6 80 08:42 15.04.2020
4711 Fog 4 1036 86 4000 2.6 80 08:23 15.04.2020
4712 Fog 5 1036 93 4000 3.6 90 07:57 15.04.2020
4713 Fog 5 1036 93 4000 3.6 90 07:38 15.04.2020
4714 Fog 5 1036 100 4000 3.1 80 06:49 15.04.2020
4715 Fog 5 1036 100 4000 3.1 80 06:24 15.04.2020
4716 Clouds 5 1036 86 10000 1 0 05:22 15.04.2020
4717 Clouds 3 1036 86 10000 2.6 70 04:46 15.04.2020
4718 Clouds 4 1035 69 10000 2.1 80 03:55 15.04.2020
4719 Clouds 4 1035 69 10000 2.1 80 03:20 15.04.2020
4720 Clouds 8 1034 49 10000 1 0 02:39 15.04.2020
4721 Clouds 10 1034 39 10000 4.1 310 01:50 15.04.2020
4722 Clouds 10 1034 39 10000 4.1 310 01:22 15.04.2020
4723 Clouds 12 1034 20 10000 5.7 300 00:39 15.04.2020
4724 Clouds 15 1034 21 10000 6.2 280 00:20 15.04.2020
4725 Clouds 15 1034 21 10000 6.2 280 23:55 14.04.2020
4726 Clouds 15 1034 21 10000 6.2 280 23:36 14.04.2020
4727 Clouds 15 1034 21 10000 6.2 280 23:36 14.04.2020
4728 Clouds 15 1034 21 10000 6.2 280 23:18 14.04.2020
4729 Clouds 16 1034 15 10000 5.7 290 22:55 14.04.2020
4730 Clouds 16 1034 15 10000 5.7 290 22:37 14.04.2020
4731 Clouds 17 1034 11 10000 5.1 290 22:19 14.04.2020
4732 Clouds 17 1034 11 10000 5.1 290 21:55 14.04.2020
4733 Clouds 17 1034 11 10000 5.1 290 21:37 14.04.2020
4734 Clouds 17 1034 11 10000 5.1 290 21:18 14.04.2020
4735 Clouds 17 1034 11 10000 5.1 290 21:18 14.04.2020
4736 Clouds 17 1035 13 10000 4.1 320 20:41 14.04.2020
4737 Clouds 17 1035 13 10000 4.1 320 20:22 14.04.2020
4738 Clouds 16 1036 14 10000 2.6 320 19:58 14.04.2020
4739 Clouds 16 1036 14 10000 2.6 320 19:40 14.04.2020
4740 Clouds 14 1037 15 10000 1 0 19:21 14.04.2020
4741 Clouds 14 1037 15 10000 1 0 18:56 14.04.2020
4742 Clouds 14 1037 15 10000 1 0 18:56 14.04.2020
4743 Clouds 14 1037 15 10000 1 0 18:38 14.04.2020
4744 Clouds 13 1038 12 10000 2.1 300 18:19 14.04.2020
4745 Clouds 13 1038 12 10000 2.1 300 17:56 14.04.2020
4746 Clouds 13 1038 12 10000 2.1 300 17:37 14.04.2020
4747 Clouds 13 1038 12 10000 2.1 300 17:19 14.04.2020
4748 Clear 11 1039 15 10000 1 0 16:41 14.04.2020
4749 Clear 11 1039 15 10000 1 0 16:23 14.04.2020
4750 Clear 8 1039 15 10000 1 0 15:58 14.04.2020
4751 Clear 8 1039 15 10000 1 0 15:39 14.04.2020
4752 Clouds 8 1039 15 10000 1 0 15:20 14.04.2020
4753 Clouds 23 1016 69 10000 10.3 180 14:57 14.04.2020
4754 Clouds 23 1016 69 10000 10.3 180 14:39 14.04.2020
4755 Clouds 23 1016 69 10000 10.3 180 14:21 14.04.2020
4756 Clouds 2 1038 29 10000 2.6 10 13:55 14.04.2020
4757 Clouds 2 1038 29 10000 2.6 10 13:37 14.04.2020
4758 Clouds 0 1037 11 10000 2.1 20 13:19 14.04.2020
4759 Clouds 0 1037 11 10000 2.1 20 12:40 14.04.2020
4760 Clouds 2 1037 31 10000 2.1 360 12:20 14.04.2020
4761 Clouds 2 1037 31 10000 2.1 360 11:54 14.04.2020
4762 Clouds 2 1037 31 10000 2.1 360 11:36 14.04.2020
4763 Clouds 2 1037 31 10000 2.1 360 11:18 14.04.2020
4764 Clouds 1 1037 34 10000 1.5 20 10:41 14.04.2020
4765 Clouds 1 1037 34 10000 1.5 20 10:23 14.04.2020
4766 Clouds 2 1037 34 10000 1.5 360 09:42 14.04.2020
4767 Clouds 2 1037 34 10000 1.5 360 09:24 14.04.2020
4768 Clouds 2 1037 37 10000 1 0 08:57 14.04.2020
4769 Clouds 2 1037 37 10000 1 0 08:39 14.04.2020
4770 Clouds 4 1018 13 0 0.41 306 08:21 14.04.2020
4771 Clouds 4 1038 29 10000 2.6 10 07:51 14.04.2020
4772 Clouds 4 1038 29 10000 2.6 10 07:27 14.04.2020
4773 Clouds 5 1039 27 10000 2.1 20 06:45 14.04.2020
4774 Clouds 6 1039 22 10000 2.1 10 05:52 14.04.2020
4775 Clouds 8 1038 36 10000 4.6 260 03:50 14.04.2020
4776 Clouds 11 1037 32 10000 3.6 260 02:40 14.04.2020
4777 Clouds 12 1036 27 10000 3.6 290 01:29 14.04.2020
4778 Clouds 15 1035 21 10000 3.6 280 00:59 14.04.2020
4779 Clouds 15 1035 21 10000 3.6 280 00:32 14.04.2020
4780 Clouds 16 1035 18 10000 3.6 310 23:59 13.04.2020
4781 Clouds 16 1035 18 10000 3.6 310 23:39 13.04.2020
4782 Clouds 16 1035 18 10000 3.6 310 23:20 13.04.2020
4783 Clouds 17 1035 17 10000 5.1 270 22:54 13.04.2020
4784 Clouds 17 1035 17 10000 5.1 270 22:36 13.04.2020
4785 Clouds 17 1035 17 10000 5.1 270 22:18 13.04.2020
4786 Clouds 16 1036 19 10000 6.2 300 21:41 13.04.2020
4787 Clouds 16 1036 19 10000 6.2 300 21:21 13.04.2020
4788 Clouds 17 1037 20 10000 6.2 250 20:58 13.04.2020
4789 Clouds 17 1037 20 10000 6.2 250 20:40 13.04.2020
4790 Clouds 17 1037 20 10000 6.2 250 20:19 13.04.2020
4791 Clouds 16 1038 25 10000 6.2 260 19:58 13.04.2020
4792 Clouds 16 1038 25 10000 6.2 260 19:37 13.04.2020
4793 Clouds 15 1039 26 10000 5.7 260 19:18 13.04.2020
4794 Clouds 15 1039 26 10000 5.7 260 18:57 13.04.2020
4795 Clouds 15 1039 26 10000 5.7 260 18:37 13.04.2020
4796 Clouds 14 1040 28 10000 4.1 280 18:18 13.04.2020
4797 Clouds 14 1040 28 10000 4.1 280 17:56 13.04.2020
4798 Clouds 14 1040 28 10000 4.1 280 17:37 13.04.2020
4799 Clouds 14 1040 28 10000 4.1 280 17:18 13.04.2020
4800 Clouds 13 1040 19 10000 2.6 240 16:57 13.04.2020
4801 Clouds 13 1040 19 10000 2.6 240 16:37 13.04.2020
4802 Clouds 10 1040 23 10000 1 0 16:19 13.04.2020
4803 Clouds 13 1040 19 10000 2.6 240 16:19 13.04.2020
4804 Clouds 10 1040 23 10000 1 0 15:46 13.04.2020
4805 Clouds 10 1040 23 10000 1 0 15:28 13.04.2020
4806 Clouds 6 1039 38 10000 1.5 350 14:58 13.04.2020
4807 Clouds 6 1039 38 10000 1.5 350 14:40 13.04.2020
4808 Clouds 6 1039 38 10000 1.5 350 14:21 13.04.2020
4809 Clouds 2 1039 51 10000 2.6 10 13:56 13.04.2020
4810 Clouds 2 1039 51 10000 2.6 10 13:38 13.04.2020
4811 Clouds 2 1038 51 10000 2.1 30 13:19 13.04.2020
4812 Clouds 2 1038 51 10000 2.1 30 12:58 13.04.2020
4813 Clouds 2 1038 51 10000 2.1 30 12:39 13.04.2020
4814 Clouds 2 1038 47 10000 2.1 350 12:19 13.04.2020
4815 Clouds 2 1038 51 10000 2.1 30 12:19 13.04.2020
4816 Clouds 2 1038 47 10000 2.1 350 11:44 13.04.2020
4817 Clouds 2 1038 47 10000 2.1 350 11:19 13.04.2020
4818 Clouds 2 1038 47 10000 2.1 350 11:19 13.04.2020
4819 Clouds 4 1038 44 10000 2.6 360 10:56 13.04.2020
4820 Clouds 4 1038 44 10000 2.6 360 10:38 13.04.2020
4821 Clouds 4 1038 44 10000 2.6 360 10:20 13.04.2020
4822 Clouds 5 1038 41 10000 2.1 10 09:56 13.04.2020
4823 Clouds 5 1038 41 10000 2.1 10 09:38 13.04.2020
4824 Clear 5 1038 41 10000 2.1 10 09:19 13.04.2020
4825 Clear 5 1038 44 10000 2.6 10 08:44 13.04.2020
4826 Clear 5 1038 44 10000 2.6 10 08:26 13.04.2020
4827 Clear 5 1039 52 10000 3.1 10 07:44 13.04.2020
4828 Clear 5 1039 52 10000 3.1 10 07:44 13.04.2020
4829 Clear 5 1039 52 10000 3.1 10 07:25 13.04.2020
4830 Clear 5 1019 22 0 0.42 266 06:48 13.04.2020
4831 Clear 7 1039 45 10000 3.6 180 06:29 13.04.2020
4832 Clear 7 1039 45 10000 3.6 180 05:40 13.04.2020
4833 Clear 7 1039 45 10000 3.6 180 05:18 13.04.2020
4834 Clear 2 1038 59 10000 2.6 90 04:28 13.04.2020
4835 Clear 6 1038 38 10000 2.1 70 03:50 13.04.2020
4836 Clear 6 1038 38 10000 2.1 70 03:31 13.04.2020
4837 Clouds 10 1038 31 10000 3.6 10 02:39 13.04.2020
4838 Clouds 12 1037 20 10000 4.6 300 01:45 13.04.2020
4839 Clouds 12 1037 20 10000 4.6 300 01:25 13.04.2020
4840 Clouds 15 1037 13 10000 5.7 280 00:44 13.04.2020
4841 Clouds 15 1037 13 10000 5.7 280 00:22 13.04.2020
4842 Clouds 16 1037 14 10000 4.6 280 23:49 12.04.2020
4843 Clouds 16 1037 14 10000 4.6 280 23:23 12.04.2020
4844 Clouds 17 1037 14 10000 5.1 300 22:59 12.04.2020
4845 Clouds 17 1037 14 10000 5.1 300 22:38 12.04.2020
4846 Clouds 17 1037 14 10000 5.1 300 22:19 12.04.2020
4847 Clouds 17 1037 14 10000 5.1 300 22:19 12.04.2020
4848 Clouds 17 1038 12 10000 6.2 270 21:41 12.04.2020
4849 Clouds 17 1038 12 10000 6.2 270 21:22 12.04.2020
4850 Clouds 16 1038 14 10000 3.6 280 20:59 12.04.2020
4851 Clouds 16 1038 14 10000 3.6 280 20:40 12.04.2020
4852 Clouds 16 1038 14 10000 3.6 280 20:22 12.04.2020
4853 Clouds 16 1039 15 10000 5.1 260 19:56 12.04.2020
4854 Clouds 16 1039 15 10000 5.1 260 19:37 12.04.2020
4855 Clouds 16 1039 15 10000 5.1 260 19:37 12.04.2020
4856 Clouds 15 1040 16 10000 3.1 190 19:18 12.04.2020
4857 Clouds 15 1040 16 10000 3.1 190 19:18 12.04.2020
4858 Clouds 15 1040 16 10000 3.1 190 18:41 12.04.2020
4859 Clear 13 1041 19 10000 2.6 220 18:22 12.04.2020
4860 Clear 13 1041 19 10000 2.6 220 17:57 12.04.2020
4861 Clear 13 1041 19 10000 2.6 220 17:38 12.04.2020
4862 Clear 13 1041 19 10000 2.6 220 17:38 12.04.2020
4863 Clear 13 1041 19 10000 2.6 220 17:20 12.04.2020
4864 Clear 11 1041 21 10000 2.1 190 16:56 12.04.2020
4865 Clear 11 1041 21 10000 2.1 190 16:37 12.04.2020
4866 Clear 11 1041 21 10000 2.1 190 16:19 12.04.2020
4867 Clear 7 1040 26 10000 1 0 15:42 12.04.2020
4868 Clear 7 1040 26 10000 1 0 15:24 12.04.2020
4869 Clear 5 1040 38 10000 1 0 14:41 12.04.2020
4870 Clear 5 1040 38 10000 1 0 14:22 12.04.2020
4871 Clouds -1 1039 58 10000 1.5 10 13:58 12.04.2020
4872 Clouds -1 1039 58 10000 1.5 10 13:40 12.04.2020
4873 Clouds -1 1039 58 10000 1.5 10 13:21 12.04.2020
4874 Clouds -1 1038 46 10000 2.1 10 12:47 12.04.2020
4875 Clouds -1 1038 46 10000 2.1 10 12:22 12.04.2020
4876 Clear 2 1039 37 10000 2.1 360 11:59 12.04.2020
4877 Clear 2 1039 37 10000 2.1 360 11:59 12.04.2020
4878 Clear 2 1039 37 10000 2.1 360 11:39 12.04.2020
4879 Clear 2 1039 37 10000 2.1 360 11:20 12.04.2020
4880 Clear 2 1039 40 10000 2.1 330 10:57 12.04.2020
4881 Clear 2 1039 40 10000 2.1 330 10:39 12.04.2020
4882 Clear 2 1039 40 10000 2.1 330 10:39 12.04.2020
4883 Clear 2 1039 40 10000 2.1 330 10:20 12.04.2020
4884 Clear 2 1039 40 10000 1.5 360 09:58 12.04.2020
4885 Clear 2 1039 40 10000 1.5 360 09:39 12.04.2020
4886 Clear 2 1039 40 10000 1.5 360 09:19 12.04.2020
4887 Clear 2 1039 43 10000 1 0 08:50 12.04.2020
4888 Clear 2 1039 43 10000 1 0 08:31 12.04.2020
4889 Clear 4 1039 38 10000 1.5 350 07:47 12.04.2020
4890 Clear 4 1039 38 10000 1.5 350 07:47 12.04.2020
4891 Clear 5 1039 32 10000 1 0 07:20 12.04.2020
4892 Clear 5 1039 32 10000 1 0 06:54 12.04.2020
4893 Clear 5 1039 32 10000 1 0 06:30 12.04.2020
4894 Clear 6 1040 26 10000 1.94 247 05:49 12.04.2020
4895 Clear 7 1040 26 10000 2.6 270 04:44 12.04.2020
4896 Clear 8 1039 36 10000 2.1 230 03:30 12.04.2020
4897 Clear 10 1038 29 10000 2.1 310 02:49 12.04.2020
4898 Clear 10 1038 29 10000 2.1 310 02:29 12.04.2020
4899 Clouds 12 1037 23 10000 3.1 320 01:23 12.04.2020
4900 Clouds 15 1036 19 10000 4.1 290 00:43 12.04.2020
4901 Clouds 15 1036 19 10000 4.1 290 00:21 12.04.2020
4902 Clouds 16 1036 15 10000 5.1 280 23:58 11.04.2020
4903 Clouds 16 1036 15 10000 5.1 280 23:40 11.04.2020
4904 Clouds 16 1036 15 10000 5.1 280 23:22 11.04.2020
4905 Clouds 17 1036 18 10000 6.2 290 22:38 11.04.2020
4906 Clouds 17 1036 18 10000 6.2 290 22:38 11.04.2020
4907 Clouds 17 1037 20 10000 6.2 270 22:20 11.04.2020
4908 Clouds 17 1037 20 10000 6.2 270 21:55 11.04.2020
4909 Clouds 17 1037 20 10000 6.2 270 21:36 11.04.2020
4910 Clouds 17 1037 20 10000 6.2 270 21:18 11.04.2020
4911 Clouds 16 1038 18 10000 6.7 270 20:55 11.04.2020
4912 Clouds 16 1038 18 10000 6.7 270 20:37 11.04.2020
4913 Clouds 16 1039 19 10000 5.7 260 20:19 11.04.2020
4914 Clouds 16 1038 18 10000 6.7 270 20:19 11.04.2020
4915 Clouds 16 1039 19 10000 5.7 260 19:56 11.04.2020
4916 Clouds 16 1039 19 10000 5.7 260 19:37 11.04.2020
4917 Clouds 14 1040 20 10000 4.1 260 19:18 11.04.2020
4918 Clouds 14 1040 20 10000 4.1 260 18:55 11.04.2020
4919 Clouds 14 1040 20 10000 4.1 260 18:36 11.04.2020
4920 Clouds 13 1040 22 10000 4.1 260 18:18 11.04.2020
4921 Clouds 13 1040 22 10000 4.1 260 17:56 11.04.2020
4922 Clouds 13 1040 22 10000 4.1 260 17:37 11.04.2020
4923 Clouds 13 1040 22 10000 4.1 260 17:18 11.04.2020
4924 Clouds 11 1040 25 10000 3.1 230 16:42 11.04.2020
4925 Clouds 11 1040 25 10000 3.1 230 16:21 11.04.2020
4926 Clouds 9 1040 29 10000 2.1 270 15:41 11.04.2020
4927 Clouds 9 1040 29 10000 2.1 270 15:21 11.04.2020
4928 Clouds 7 1039 39 10000 1 0 14:58 11.04.2020
4929 Clouds 7 1039 39 10000 1 0 14:39 11.04.2020
4930 Clouds 7 1039 39 10000 1 0 14:20 11.04.2020
4931 Clouds 4 1038 44 10000 2.6 20 13:42 11.04.2020
4932 Clouds 4 1038 44 10000 2.6 20 13:24 11.04.2020
4933 Clouds 3 1038 44 10000 2.6 20 12:59 11.04.2020
4934 Clouds 3 1038 44 10000 2.6 20 12:37 11.04.2020
4935 Clear 3 1037 44 10000 2.6 20 12:18 11.04.2020
4936 Clear 3 1037 44 10000 2.6 20 11:42 11.04.2020
4937 Clear 3 1037 44 10000 2.6 20 11:20 11.04.2020
4938 Clear 5 1018 19 0 1.3 244 10:56 11.04.2020
4939 Clear 5 1018 19 0 1.3 244 10:37 11.04.2020
4940 Clear 5 1018 19 0 1.3 244 10:18 11.04.2020
4941 Clear 5 1018 19 0 1.3 244 09:55 11.04.2020
4942 Clouds 5 1038 38 10000 2.1 10 09:37 11.04.2020
4943 Clouds 5 1038 38 10000 2.1 10 09:18 11.04.2020
4944 Clouds 5 1038 38 10000 2.1 10 08:42 11.04.2020
4945 Clouds 5 1038 38 10000 2.1 10 08:23 11.04.2020
4946 Clouds 5 1038 38 10000 1 0 07:43 11.04.2020
4947 Clouds 5 1038 38 10000 1 0 07:24 11.04.2020
4948 Clouds 5 1039 32 10000 1.39 233 06:37 11.04.2020
4949 Clouds 8 1039 26 10000 1.28 242 05:58 11.04.2020
4950 Clouds 10 1038 25 10000 2.1 190 04:26 11.04.2020
4951 Clouds 11 1037 32 10000 3.1 210 03:30 11.04.2020
4952 Clouds 12 1036 22 10000 3.1 320 01:41 11.04.2020
4953 Clouds 15 1035 21 10000 2.6 260 01:18 11.04.2020
4954 Clouds 15 1035 21 10000 2.6 260 00:42 11.04.2020
4955 Clouds 15 1035 21 10000 2.6 260 00:18 11.04.2020
4956 Clouds 16 1035 23 10000 3.6 290 23:42 10.04.2020
4957 Clouds 17 1036 25 10000 5.7 270 23:19 10.04.2020
4958 Clouds 17 1036 25 10000 5.7 270 22:58 10.04.2020
4959 Clouds 17 1036 25 10000 5.7 270 22:39 10.04.2020
4960 Clouds 17 1036 25 10000 5.7 270 22:20 10.04.2020
4961 Clouds 18 1036 25 10000 3.6 270 21:42 10.04.2020
4962 Clouds 18 1036 25 10000 3.6 270 21:42 10.04.2020
4963 Clouds 18 1036 25 10000 3.6 270 21:21 10.04.2020
4964 Clouds 16 1037 31 10000 4.1 270 20:59 10.04.2020
4965 Clouds 16 1037 31 10000 4.1 270 20:40 10.04.2020
4966 Clouds 16 1037 31 10000 4.1 270 20:20 10.04.2020
4967 Clouds 16 1038 31 10000 5.1 270 19:56 10.04.2020
4968 Clouds 16 1038 31 10000 5.1 270 19:38 10.04.2020
4969 Clouds 14 1039 14 10000 4.1 250 19:19 10.04.2020
4970 Clouds 14 1039 14 10000 4.1 250 18:56 10.04.2020
4971 Clouds 14 1039 14 10000 4.1 250 18:37 10.04.2020
4972 Clouds 13 1040 43 10000 1 0 18:19 10.04.2020
4973 Clouds 13 1040 43 10000 1 0 17:57 10.04.2020
4974 Clouds 13 1040 43 10000 1 0 17:38 10.04.2020
4975 Clouds 13 1040 43 10000 1 0 17:19 10.04.2020
4976 Clouds 11 1040 57 10000 1 0 16:44 10.04.2020
4977 Clouds 11 1040 57 10000 1 0 16:23 10.04.2020
4978 Clouds 9 1040 70 10000 1 0 15:58 10.04.2020
4979 Clouds 9 1040 70 10000 1 0 15:39 10.04.2020
4980 Clouds 9 1040 70 10000 1 0 15:21 10.04.2020
4981 Clouds 6 1040 87 6000 2.1 60 14:58 10.04.2020
4982 Clouds 6 1040 87 6000 2.1 60 14:39 10.04.2020
4983 Clouds 6 1040 87 6000 2.1 60 14:21 10.04.2020
4984 Fog 5 1039 93 4000 3.6 90 13:49 10.04.2020
4985 Fog 5 1039 93 4000 3.6 90 13:23 10.04.2020
4986 Fog 5 1038 86 4000 3.6 120 12:56 10.04.2020
4987 Fog 5 1038 86 4000 3.6 120 12:37 10.04.2020
4988 Fog 5 1038 100 2000 3.1 100 12:19 10.04.2020
4989 Fog 5 1038 100 2000 3.1 100 11:43 10.04.2020
4990 Fog 5 1038 100 2000 3.1 100 11:24 10.04.2020
4991 Fog 5 1038 100 500 2.1 80 10:57 10.04.2020
4992 Fog 5 1038 100 500 2.1 80 10:38 10.04.2020
4993 Fog 2 1038 100 2000 3.1 70 10:19 10.04.2020
4994 Fog 2 1038 100 2000 3.1 70 09:43 10.04.2020
4995 Fog 2 1038 100 2000 3.1 70 09:21 10.04.2020
4996 Clouds 2 1038 100 10000 1 0 08:48 10.04.2020
4997 Clouds 2 1038 100 10000 1 0 08:27 10.04.2020
4998 Clouds 4 1038 93 10000 2.1 80 07:54 10.04.2020
4999 Clouds 4 1038 93 10000 2.1 80 07:36 10.04.2020
5000 Clouds 4 1038 80 10000 3.1 90 07:18 10.04.2020
5001 Clouds 4 1038 80 10000 3.1 90 06:30 10.04.2020
5002 Clouds 8 1039 25 10000 2.6 30 05:59 10.04.2020
5003 Clouds 8 1039 25 10000 2.6 30 05:22 10.04.2020
5004 Clouds 6 1038 75 10000 2.1 50 04:42 10.04.2020
5005 Clouds 8 1038 65 10000 1 0 03:34 10.04.2020
5006 Clouds 8 1037 65 10000 3.1 70 02:50 10.04.2020
5007 Clouds 8 1037 65 10000 3.1 70 02:31 10.04.2020
5008 Clouds 13 1036 28 10000 2.6 300 01:31 10.04.2020
5009 Clouds 16 1036 25 10000 3.6 290 00:55 10.04.2020
5010 Clouds 16 1036 25 10000 3.6 290 00:37 10.04.2020
5011 Clouds 17 1036 27 10000 5.1 300 00:18 10.04.2020
5012 Clouds 17 1036 27 10000 5.1 300 23:41 09.04.2020
5013 Clouds 17 1036 27 10000 5.1 300 23:41 09.04.2020
5014 Clouds 17 1036 27 10000 5.1 300 23:22 09.04.2020
5015 Clouds 18 1036 23 10000 4.6 260 22:56 09.04.2020
5016 Clouds 18 1036 23 10000 4.6 260 22:38 09.04.2020
5017 Clouds 18 1036 23 10000 4.6 260 22:19 09.04.2020
5018 Clouds 17 1037 25 10000 4.1 240 21:38 09.04.2020
5019 Clouds 17 1037 25 10000 4.1 240 21:19 09.04.2020
5020 Clouds 17 1037 25 10000 4.1 240 21:19 09.04.2020
5021 Clouds 16 1038 25 10000 3.6 290 20:45 09.04.2020
5022 Clouds 16 1038 25 10000 3.6 290 20:22 09.04.2020
5023 Clouds 15 1069 30 10000 4.1 280 19:59 09.04.2020
5024 Clouds 15 1069 30 10000 4.1 280 19:38 09.04.2020
5025 Clouds 14 1040 35 10000 3.6 250 19:19 09.04.2020
5026 Clouds 14 1040 35 10000 3.6 250 18:42 09.04.2020
5027 Clouds 14 1040 35 10000 3.6 250 18:42 09.04.2020
5028 Clouds 12 1041 50 10000 2.1 200 18:20 09.04.2020
5029 Clouds 12 1041 50 10000 2.1 200 17:43 09.04.2020
5030 Clouds 12 1041 50 10000 2.1 200 17:24 09.04.2020
5031 Clouds 11 1041 57 10000 2.1 80 16:57 09.04.2020
5032 Clouds 11 1041 57 10000 2.1 80 16:38 09.04.2020
5033 Clouds 8 1041 75 10000 2.6 90 16:19 09.04.2020
5034 Clouds 8 1041 75 10000 2.6 90 15:55 09.04.2020
5035 Clouds 8 1041 75 10000 2.6 90 15:37 09.04.2020
5036 Clouds 8 1041 75 10000 2.6 90 15:18 09.04.2020
5037 Fog 5 1040 100 4000 3.1 70 14:41 09.04.2020
5038 Fog 5 1040 100 4000 3.1 70 14:21 09.04.2020
5039 Fog 1 1039 100 4000 2.6 80 13:54 09.04.2020
5040 Fog 1 1039 100 4000 2.6 80 13:54 09.04.2020
5041 Fog 1 1039 100 4000 2.6 80 13:36 09.04.2020
5042 Fog 1 1039 100 4000 2.6 80 13:18 09.04.2020
5043 Fog 1 1039 100 4000 2.6 80 12:42 09.04.2020
5044 Fog 1 1039 100 4000 2.6 80 12:21 09.04.2020
5045 Fog 2 1039 100 4000 2.6 80 11:58 09.04.2020
5046 Fog 2 1039 100 4000 2.6 80 11:38 09.04.2020
5047 Fog 2 1039 100 4000 2.6 80 11:20 09.04.2020
5048 Fog 3 1039 100 4000 3.1 100 10:56 09.04.2020
5049 Fog 3 1039 100 4000 3.1 100 10:37 09.04.2020
5050 Fog 3 1039 100 4000 3.1 100 10:18 09.04.2020
5051 Clouds 3 1039 100 10000 3.1 80 09:40 09.04.2020
5052 Clouds 3 1039 100 10000 3.1 80 09:21 09.04.2020
5053 Fog 4 1040 100 4000 4.1 90 08:59 09.04.2020
5054 Fog 4 1040 100 4000 4.1 90 08:40 09.04.2020
5055 Fog 4 1040 100 4000 4.1 90 08:22 09.04.2020
5056 Fog 4 1040 100 4000 2.6 90 07:50 09.04.2020
5057 Fog 3 1040 93 3000 1 0 07:22 09.04.2020
5058 Fog 3 1040 93 3000 1 0 06:48 09.04.2020
5059 Fog 3 1040 93 3000 1 0 06:48 09.04.2020
5060 Clouds 4 1040 100 10000 2.6 70 05:49 09.04.2020
5061 Clouds 4 1040 100 10000 2.6 70 05:26 09.04.2020
5062 Clouds 7 1038 87 10000 3.6 80 02:36 09.04.2020
5063 Clouds 10 1037 66 10000 3.6 100 01:46 09.04.2020
5064 Clouds 10 1037 66 10000 3.6 100 01:27 09.04.2020
5065 Clouds 15 1037 47 10000 3.1 250 00:55 09.04.2020
5066 Clouds 15 1037 47 10000 3.1 250 00:37 09.04.2020
5067 Clouds 16 1037 25 10000 5.1 270 00:18 09.04.2020
5068 Clouds 16 1037 25 10000 5.1 270 23:42 08.04.2020
5069 Clouds 16 1037 25 10000 5.1 270 23:23 08.04.2020
5070 Clouds 16 1037 25 10000 5.1 270 23:23 08.04.2020
5071 Clouds 16 1037 31 10000 4.6 250 22:54 08.04.2020
5072 Clouds 17 1038 27 10000 3.6 250 22:36 08.04.2020
5073 Clouds 17 1038 27 10000 3.6 250 22:18 08.04.2020
5074 Clouds 17 1038 27 10000 3.6 250 21:54 08.04.2020
5075 Clouds 17 1038 27 10000 3.6 250 21:54 08.04.2020
5076 Clouds 17 1038 27 10000 3.6 250 21:36 08.04.2020
5077 Clouds 15 1039 41 10000 3.1 220 21:18 08.04.2020
5078 Clouds 15 1039 41 10000 3.1 220 20:40 08.04.2020
5079 Clouds 15 1039 41 10000 3.1 220 20:21 08.04.2020
5080 Clouds 15 1040 33 10000 2.1 240 19:59 08.04.2020
5081 Clouds 15 1040 33 10000 2.1 240 19:40 08.04.2020
5082 Clouds 14 1041 41 10000 2.1 220 19:21 08.04.2020
5083 Clouds 14 1041 41 10000 2.1 220 18:45 08.04.2020
5084 Clouds 14 1041 41 10000 2.1 220 18:45 08.04.2020
5085 Clouds 14 1041 41 10000 2.1 220 18:26 08.04.2020
5086 Clouds 13 1042 54 10000 2.1 250 17:56 08.04.2020
5087 Clouds 13 1042 54 10000 2.1 250 17:38 08.04.2020
5088 Clouds 13 1042 54 10000 2.1 250 17:19 08.04.2020
5089 Clouds 11 1042 62 10000 2.1 260 16:43 08.04.2020
5090 Clouds 8 1041 70 10000 1 0 16:23 08.04.2020
5091 Clouds 8 1041 70 10000 1 0 15:58 08.04.2020
5092 Clouds 8 1041 70 10000 1 0 15:38 08.04.2020
5093 Clouds 8 1041 70 10000 1 0 15:20 08.04.2020
5094 Clouds 6 1041 81 10000 1 0 14:45 08.04.2020
5095 Clouds 6 1041 81 10000 1 0 14:25 08.04.2020
5096 Clouds 0 1040 28 10000 1.28 261 13:56 08.04.2020
5097 Clouds 0 1040 28 10000 1.28 261 13:37 08.04.2020
5098 Clouds 0 1040 28 10000 1 0 13:19 08.04.2020
5099 Clouds 0 1040 28 10000 1 0 12:42 08.04.2020
5100 Clouds 0 1039 28 10000 1.5 100 12:18 08.04.2020
5101 Clouds 0 1039 28 10000 1.5 100 11:58 08.04.2020
5102 Clouds 0 1039 28 10000 1.5 100 11:39 08.04.2020
5103 Clouds 0 1039 28 10000 1.5 100 11:21 08.04.2020
5104 Clouds 0 1039 28 10000 1.5 100 11:21 08.04.2020
5105 Clouds 1 1039 28 10000 0.51 333 10:55 08.04.2020
5106 Clouds 1 1039 28 10000 0.51 333 10:37 08.04.2020
5107 Clouds 2 1040 93 10000 0.51 333 10:18 08.04.2020
5108 Clouds 2 1040 93 10000 0.51 333 10:18 08.04.2020
5109 Clouds 2 1040 93 10000 0.51 333 09:42 08.04.2020
5110 Clouds 2 1040 93 10000 1.3 81 09:21 08.04.2020
5111 Clouds 3 1040 93 10000 1 0 08:59 08.04.2020
5112 Clouds 3 1040 93 10000 1 0 08:41 08.04.2020
5113 Clouds 3 1040 93 10000 1 0 08:21 08.04.2020
5114 Clouds 4 1041 86 10000 1 0 07:43 08.04.2020
5115 Clouds 4 1041 86 10000 1 0 07:23 08.04.2020
5116 Clouds 6 1041 81 10000 1.5 360 06:48 08.04.2020
5117 Clouds 6 1042 87 10000 1.5 30 05:49 08.04.2020
5118 Fog 6 1041 93 3000 5.7 120 03:34 08.04.2020
5119 Fog 7 1040 81 4000 4.1 40 02:41 08.04.2020
5120 Fog 7 1040 81 4000 4.1 40 02:19 08.04.2020
5121 Thunderstorm 8 1038 70 10000 3.6 30 01:30 08.04.2020
5122 Clouds 8 1038 75 8000 5.7 50 00:57 08.04.2020
5123 Clouds 8 1038 75 8000 5.7 50 00:39 08.04.2020
5124 Clouds 8 1038 75 8000 5.7 50 00:19 08.04.2020
5125 Clouds 9 1038 70 8000 6.7 100 23:39 07.04.2020
5126 Clouds 9 1038 70 8000 6.7 100 23:20 07.04.2020
5127 Clouds 12 1039 71 10000 6.7 110 22:56 07.04.2020
5128 Clouds 12 1039 71 10000 6.7 110 22:38 07.04.2020
5129 Clouds 12 1039 71 10000 6.7 110 22:19 07.04.2020
5130 Thunderstorm 12 1040 54 10000 3.1 20 21:55 07.04.2020
5131 Thunderstorm 12 1040 54 10000 3.1 20 21:37 07.04.2020
5132 Thunderstorm 12 1040 54 10000 3.1 20 21:18 07.04.2020
5133 Thunderstorm 12 1040 66 10000 4.6 100 20:42 07.04.2020
5134 Thunderstorm 12 1040 66 10000 4.6 100 20:21 07.04.2020
5135 Clouds 13 1041 54 10000 2.1 260 19:59 07.04.2020
5136 Clouds 13 1041 54 10000 2.1 260 19:38 07.04.2020
5137 Clouds 13 1041 54 10000 2.1 260 19:38 07.04.2020
5138 Clouds 13 1041 54 10000 2.1 260 19:20 07.04.2020
5139 Clouds 12 1042 62 10000 3.1 270 18:59 07.04.2020
5140 Clouds 12 1042 62 10000 3.1 270 18:41 07.04.2020
5141 Clouds 12 1042 62 10000 3.1 270 18:21 07.04.2020
5142 Clouds 11 1043 71 6000 1 0 17:55 07.04.2020
5143 Clouds 11 1043 71 6000 1 0 17:37 07.04.2020
5144 Clouds 11 1043 71 6000 1 0 17:19 07.04.2020
5145 Clouds 9 1043 76 6000 1 0 16:43 07.04.2020
5146 Clouds 9 1043 76 6000 1 0 16:25 07.04.2020
5147 Clouds 7 1042 87 10000 1 0 15:44 07.04.2020
5148 Clouds 6 1041 87 10000 2.1 50 15:26 07.04.2020
5149 Clouds 6 1041 87 10000 2.1 50 14:55 07.04.2020
5150 Clouds 6 1041 87 10000 2.1 50 14:37 07.04.2020
5151 Clouds 6 1041 87 10000 2.1 50 14:18 07.04.2020
5152 Fog 4 1041 100 4000 2.1 50 13:42 07.04.2020
5153 Fog 4 1041 100 4000 2.1 50 13:19 07.04.2020
5154 Fog 5 1040 100 4000 1 0 12:57 07.04.2020
5155 Fog 5 1040 100 4000 1 0 12:37 07.04.2020
5156 Fog 5 1040 93 4000 2.1 50 12:19 07.04.2020
5157 Fog 5 1040 93 4000 2.1 50 11:56 07.04.2020
5158 Fog 5 1040 93 4000 2.1 50 11:38 07.04.2020
5159 Fog 4 1040 86 4000 1 0 11:19 07.04.2020
5160 Fog 4 1040 86 4000 1 0 10:39 07.04.2020
5161 Fog 4 1040 86 4000 1 0 10:39 07.04.2020
5162 Fog 4 1040 86 4000 1 0 10:39 07.04.2020
5163 Fog 4 1040 86 4000 1 0 10:20 07.04.2020
5164 Clouds 5 1040 86 10000 1 0 09:46 07.04.2020
5165 Clouds 5 1040 86 10000 1 0 09:20 07.04.2020
5166 Clouds 4 1041 93 10000 1 0 08:59 07.04.2020
5167 Clouds 4 1041 93 10000 1 0 08:39 07.04.2020
5168 Clouds 4 1041 93 10000 1 0 08:20 07.04.2020
5169 Clouds 4 1041 86 10000 1 0 07:44 07.04.2020
5170 Clouds 4 1041 86 10000 1 0 07:26 07.04.2020
5171 Clouds 4 1041 80 10000 1.24 60 06:52 07.04.2020
5172 Clouds 4 1041 80 10000 2.5 77 06:25 07.04.2020
5173 Clouds 6 1042 93 10000 1 0 05:48 07.04.2020
5174 Clouds 6 1042 93 10000 1 0 05:23 07.04.2020
5175 Clouds 7 1040 81 10000 1 0 03:34 07.04.2020
5176 Clouds 7 1040 81 10000 1 0 02:59 07.04.2020
5177 Clouds 7 1040 81 10000 1 0 02:33 07.04.2020
5178 Clouds 9 1039 76 10000 2.1 180 01:33 07.04.2020
5179 Clouds 11 1039 57 10000 1 0 00:44 07.04.2020
5180 Clouds 11 1039 57 10000 1 0 00:25 07.04.2020
5181 Clouds 11 1039 57 10000 1 0 23:39 06.04.2020
5182 Clouds 11 1039 57 10000 1 0 23:20 06.04.2020
5183 Rain 8 1039 81 10000 4.1 210 22:41 06.04.2020
5184 Rain 8 1039 81 10000 4.1 210 22:23 06.04.2020
5185 Thunderstorm 9 1040 76 8000 6.2 360 21:59 06.04.2020
5186 Thunderstorm 9 1040 76 8000 6.2 360 21:40 06.04.2020
5187 Thunderstorm 9 1040 76 8000 6.2 360 21:19 06.04.2020
5188 Thunderstorm 13 1040 50 10000 4.6 90 20:56 06.04.2020
5189 Thunderstorm 13 1040 50 10000 4.6 90 20:38 06.04.2020
5190 Clouds 16 1040 36 10000 4.6 90 20:19 06.04.2020
5191 Clouds 16 1040 36 10000 4.6 90 19:54 06.04.2020
5192 Clouds 16 1040 36 10000 4.6 90 19:36 06.04.2020
5193 Clouds 15 1042 41 10000 3.6 100 19:18 06.04.2020
5194 Clouds 15 1042 41 10000 3.6 100 18:41 06.04.2020
5195 Clouds 14 1042 47 10000 2.1 180 18:23 06.04.2020
5196 Clouds 14 1042 47 10000 2.1 180 17:55 06.04.2020
5197 Clouds 14 1042 47 10000 2.1 180 17:37 06.04.2020
5198 Clouds 14 1042 47 10000 2.1 180 17:18 06.04.2020
5199 Clouds 14 1042 47 10000 2.1 180 17:18 06.04.2020
5200 Clouds 12 1043 50 10000 1 0 16:45 06.04.2020
5201 Clouds 12 1043 50 10000 1 0 16:27 06.04.2020
5202 Clouds 7 1042 81 10000 1 50 14:46 06.04.2020
5203 Clouds 7 1042 81 10000 1 50 14:46 06.04.2020
5204 Clouds 7 1042 81 10000 1 50 14:46 06.04.2020
5205 Clouds 7 1042 81 10000 1 50 14:46 06.04.2020
5206 Clouds 7 1042 81 10000 1 50 14:46 06.04.2020
5207 Clouds 6 1041 81 10000 1.5 240 13:44 06.04.2020
5208 Clouds 6 1041 81 10000 1.5 240 13:44 06.04.2020
5209 Clouds 6 1041 81 10000 1.5 240 13:21 06.04.2020
5210 Clouds 6 1041 81 10000 1.5 240 13:21 06.04.2020
5211 Clouds 6 1041 81 10000 1.5 240 13:21 06.04.2020
5212 Clouds 6 1041 81 10000 1.5 240 13:21 06.04.2020
5213 Clouds 5 1040 86 10000 1.5 260 12:28 06.04.2020
5214 Clouds 5 1040 93 10000 1 0 12:02 06.04.2020
5215 Clouds 5 1040 93 10000 1 0 11:40 06.04.2020
5216 Clouds 5 1040 93 10000 1 0 11:40 06.04.2020
5217 Clouds 5 1040 93 10000 1 0 11:39 06.04.2020
5218 Clouds 5 1040 93 10000 1 0 11:39 06.04.2020
5219 Clouds 5 1040 93 10000 1 0 11:39 06.04.2020
5220 Clouds 5 1040 86 10000 0.56 55 10:52 06.04.2020
5221 Clouds 5 1040 86 10000 0.56 55 10:52 06.04.2020
5222 Clouds 5 1040 86 10000 0.56 55 10:52 06.04.2020
5223 Clouds 5 1040 86 10000 0.56 55 10:52 06.04.2020
5224 Clouds 5 1040 86 10000 0.56 55 10:52 06.04.2020
5225 Clouds 6 1040 87 10000 1 0 10:23 06.04.2020
5226 Clouds 6 1040 87 10000 1 0 10:23 06.04.2020
5227 Clouds 6 1040 87 10000 1 0 10:23 06.04.2020
5228 Clouds 6 1040 87 10000 1 0 09:53 06.04.2020
5229 Clouds 6 1040 87 10000 1 0 09:53 06.04.2020
5230 Clouds 6 1040 87 10000 1 0 09:53 06.04.2020
5231 Clouds 6 1040 87 10000 1 0 09:53 06.04.2020
5232 Clouds 6 1040 87 10000 1 0 09:53 06.04.2020
5233 Clouds 6 1040 87 10000 1 0 09:24 06.04.2020
5234 Clouds 5 1040 93 10000 1 0 08:55 06.04.2020
5235 Clouds 5 1040 93 10000 1 0 08:33 06.04.2020
5236 Clouds 5 1040 93 10000 1 0 08:33 06.04.2020
5237 Clouds 8 1040 75 10000 1 0 07:54 06.04.2020
5238 Clouds 8 1041 75 10000 1 0 06:57 06.04.2020
5239 Clouds 8 1041 75 10000 1 0 06:25 06.04.2020
5240 Clouds 9 1041 70 10000 2.1 110 04:50 06.04.2020
5241 Clouds 9 1041 70 10000 2.1 110 04:50 06.04.2020
5242 Clouds 8 1040 75 10000 2.6 60 03:27 06.04.2020
5243 Clouds 8 1039 75 10000 5.1 100 02:44 06.04.2020
5244 Clouds 10 1038 61 10000 4.1 170 01:47 06.04.2020
5245 Clouds 12 1037 46 10000 5.7 210 00:46 06.04.2020
5246 Clouds 12 1037 46 10000 5.7 210 00:24 06.04.2020
5247 Clouds 15 1036 51 10000 3.6 70 23:46 05.04.2020
5248 Clouds 15 1036 51 10000 3.6 70 23:27 05.04.2020
5249 Clouds 15 1036 51 10000 3.6 70 23:27 05.04.2020
5250 Clouds 15 1036 51 10000 3.6 70 23:27 05.04.2020
5251 Clouds 15 1036 51 10000 3.6 70 23:27 05.04.2020
5252 Clouds 15 1036 51 10000 3.6 70 23:27 05.04.2020
5253 Clouds 15 1036 38 10000 3.6 260 22:56 05.04.2020
5254 Clouds 15 1036 38 10000 3.6 260 22:38 05.04.2020
5255 Clouds 15 1036 38 10000 3.6 260 22:38 05.04.2020
5256 Clouds 15 1036 38 10000 3.6 260 22:38 05.04.2020
5257 Clouds 15 1036 38 10000 3.6 260 22:18 05.04.2020
5258 Clouds 16 1037 41 10000 5.1 290 21:47 05.04.2020
5259 Clouds 16 1037 41 10000 5.1 290 21:26 05.04.2020
5260 Clouds 15 1038 47 10000 7.7 250 21:03 05.04.2020
5261 Clouds 15 1038 47 10000 7.7 250 21:03 05.04.2020
5262 Clouds 15 1038 47 10000 7.7 250 21:03 05.04.2020
5263 Clouds 15 1038 47 10000 7.7 250 21:03 05.04.2020
5264 Clouds 15 1038 47 10000 7.7 250 21:03 05.04.2020
5265 Clouds 15 1038 47 10000 7.7 250 20:20 05.04.2020
5266 Clouds 15 1038 47 10000 7.7 250 20:20 05.04.2020
5267 Clouds 14 1038 50 10000 5.1 240 19:38 05.04.2020
5268 Clouds 14 1038 50 10000 5.1 240 19:20 05.04.2020
5269 Clouds 14 1039 17 10000 2.6 240 18:44 05.04.2020
5270 Clouds 14 1039 17 10000 2.6 240 18:44 05.04.2020
5271 Clouds 14 1039 17 10000 2.6 240 18:44 05.04.2020
5272 Clouds 14 1039 17 10000 2.6 240 18:44 05.04.2020
5273 Clouds 14 1039 17 10000 2.6 240 18:44 05.04.2020
5274 Clouds 13 1040 50 10000 1.5 260 17:57 05.04.2020
5275 Clouds 13 1040 50 10000 1.5 260 17:39 05.04.2020
5276 Clouds 13 1040 50 10000 1.5 260 17:20 05.04.2020
5277 Clouds 13 1040 50 10000 1.5 260 17:20 05.04.2020
5278 Clouds 13 1040 50 10000 1.5 260 17:20 05.04.2020
5279 Clouds 13 1040 50 10000 1.5 260 17:20 05.04.2020
5280 Clouds 13 1040 50 10000 1.5 260 17:19 05.04.2020
5281 Clouds 11 1040 66 10000 2.6 230 16:20 05.04.2020
5282 Clouds 9 1039 76 10000 1.7 256 15:52 05.04.2020
5283 Clouds 9 1039 76 10000 1.7 256 15:33 05.04.2020
5284 Clouds 6 1039 93 10000 1 0 14:50 05.04.2020
5285 Clouds 6 1039 93 10000 1 0 14:26 05.04.2020
5286 Clouds 5 1038 80 10000 2.1 10 13:43 05.04.2020
5287 Clouds 5 1037 80 10000 2.1 20 12:49 05.04.2020
5288 Clouds 5 1037 80 10000 2.1 20 12:49 05.04.2020
5289 Clouds 6 1037 81 10000 2.6 10 11:41 05.04.2020
5290 Clouds 6 1037 81 10000 2.6 10 11:21 05.04.2020
5291 Clouds 6 1037 87 10000 2.1 340 10:56 05.04.2020
5292 Clouds 6 1037 87 10000 2.1 340 10:38 05.04.2020
5293 Clouds 6 1037 87 10000 2.1 340 10:38 05.04.2020
5294 Clouds 6 1037 87 10000 2.1 340 10:36 05.04.2020
5295 Clouds 6 1037 87 10000 2.1 340 10:18 05.04.2020
5296 Clouds 5 1038 93 10000 3.1 320 09:42 05.04.2020
5297 Clouds 5 1038 93 10000 3.1 320 09:22 05.04.2020
5298 Clouds 5 1038 93 10000 3.1 320 09:22 05.04.2020
5299 Clouds 5 1038 93 10000 3.1 320 09:22 05.04.2020
5300 Clouds 5 1038 93 10000 3.1 320 09:21 05.04.2020
5301 Clouds 5 1038 93 10000 3.1 320 09:21 05.04.2020
5302 Rain 6 1040 93 4000 4.1 270 07:40 05.04.2020
5303 Rain 7 1039 25 8000 2.6 60 04:36 05.04.2020
5304 Rain 6 1039 25 6000 1 0 03:31 05.04.2020
5305 Rain 7 1037 81 8000 5.7 210 02:51 05.04.2020
5306 Clouds 8 1036 75 10000 7.2 210 01:47 05.04.2020
5307 Clouds 8 1036 75 10000 7.2 210 01:28 05.04.2020
5308 Clouds 13 1034 47 10000 3.6 110 00:44 05.04.2020
5309 Clouds 13 1034 47 10000 3.6 110 00:21 05.04.2020
5310 Clouds 15 1034 41 10000 3.6 90 23:43 04.04.2020
5311 Clouds 15 1034 41 10000 3.6 90 23:23 04.04.2020
5312 Clouds 14 1034 44 10000 4.6 70 22:57 04.04.2020
5313 Clouds 14 1034 44 10000 4.6 70 22:39 04.04.2020
5314 Clouds 14 1034 44 10000 4.6 70 22:21 04.04.2020
5315 Thunderstorm 12 1035 50 10000 7.7 60 21:58 04.04.2020
5316 Thunderstorm 12 1035 50 10000 7.7 60 21:39 04.04.2020
5317 Thunderstorm 12 1035 50 10000 7.7 60 21:19 04.04.2020
5318 Thunderstorm 13 1036 47 10000 5.1 70 20:56 04.04.2020
5319 Thunderstorm 13 1036 47 10000 5.1 70 20:37 04.04.2020
5320 Thunderstorm 13 1037 50 10000 4.1 50 20:19 04.04.2020
5321 Thunderstorm 13 1037 50 10000 4.1 50 19:55 04.04.2020
5322 Thunderstorm 13 1037 50 10000 4.1 50 19:36 04.04.2020
5323 Thunderstorm 13 1037 50 10000 4.1 50 19:36 04.04.2020
5324 Thunderstorm 13 1037 50 10000 4.1 50 19:18 04.04.2020
5325 Clouds 16 1038 41 10000 2.6 240 18:54 04.04.2020
5326 Clouds 16 1038 41 10000 2.6 240 18:36 04.04.2020
5327 Clouds 16 1038 41 10000 2.6 240 18:18 04.04.2020
5328 Clouds 13 1039 54 10000 1 0 17:39 04.04.2020
5329 Clouds 13 1039 54 10000 1 0 17:20 04.04.2020
5330 Clouds 12 1039 62 10000 2.6 260 16:46 04.04.2020
5331 Clouds 12 1039 62 10000 2.6 260 16:27 04.04.2020
5332 Clouds 10 1038 66 10000 1 0 15:59 04.04.2020
5333 Clouds 10 1038 66 10000 1 0 15:39 04.04.2020
5334 Clouds 10 1038 66 10000 1 0 15:20 04.04.2020
5335 Clouds 7 1038 93 6000 1 0 14:56 04.04.2020
5336 Clouds 7 1038 93 6000 1 0 14:37 04.04.2020
5337 Clouds 7 1038 93 6000 1 0 14:18 04.04.2020
5338 Fog 5 1037 93 4000 2.1 80 13:42 04.04.2020
5339 Fog 5 1037 93 4000 2.1 80 13:22 04.04.2020
5340 Fog 5 1037 93 4000 2.1 80 13:22 04.04.2020
5341 Fog 5 1037 100 4000 2.6 70 12:58 04.04.2020
5342 Fog 5 1037 100 4000 2.6 70 12:40 04.04.2020
5343 Fog 5 1037 100 4000 2.6 70 12:21 04.04.2020
5344 Fog 6 1037 100 4000 1.38 316 11:42 04.04.2020
5345 Fog 6 1037 100 4000 1.38 316 11:23 04.04.2020
5346 Fog 6 1037 93 4000 2.6 70 10:59 04.04.2020
5347 Fog 6 1037 93 4000 2.6 70 10:41 04.04.2020
5348 Fog 6 1037 93 4000 2.6 70 10:23 04.04.2020
5349 Fog 5 1037 93 4000 2.1 80 09:57 04.04.2020
5350 Fog 5 1037 93 4000 2.1 80 09:39 04.04.2020
5351 Fog 5 1037 93 4000 2.1 80 09:21 04.04.2020
5352 Fog 7 1038 93 4000 2.6 120 08:45 04.04.2020
5353 Fog 7 1038 93 4000 2.6 120 08:25 04.04.2020
5354 Fog 7 1038 93 4000 3.1 90 07:59 04.04.2020
5355 Fog 7 1038 93 4000 3.1 90 07:40 04.04.2020
5356 Fog 7 1038 93 4000 3.1 90 07:21 04.04.2020
5357 Fog 7 1039 87 4000 2.6 80 06:40 04.04.2020
5358 Clouds 7 1039 93 10000 1 0 05:52 04.04.2020
5359 Clouds 7 1039 93 10000 1 0 05:52 04.04.2020
5360 Clouds 7 1039 93 10000 1 0 05:33 04.04.2020
5361 Clouds 8 1039 81 10000 2.1 80 04:34 04.04.2020
5362 Clouds 10 1038 76 10000 2.1 70 03:57 04.04.2020
5363 Clouds 10 1038 76 10000 2.1 70 03:37 04.04.2020
5364 Clouds 10 1037 66 10000 2.1 70 02:48 04.04.2020
5365 Clouds 10 1037 66 10000 2.1 70 02:29 04.04.2020
5366 Clouds 12 1036 58 10000 1 0 01:46 04.04.2020
5367 Clouds 12 1036 58 10000 1 0 01:20 04.04.2020
5368 Thunderstorm 12 1036 54 10000 3.1 110 00:43 04.04.2020
5369 Thunderstorm 12 1036 54 10000 3.1 110 00:23 04.04.2020
5370 Thunderstorm 14 1036 50 10000 4.6 110 23:38 03.04.2020
5371 Thunderstorm 14 1036 50 10000 4.6 110 23:19 03.04.2020
5372 Clouds 15 1036 44 10000 2.1 90 22:41 03.04.2020
5373 Clouds 15 1036 44 10000 2.1 90 22:20 03.04.2020
5374 Clouds 17 1037 36 10000 1 0 21:59 03.04.2020
5375 Clouds 17 1037 36 10000 1 0 21:40 03.04.2020
5376 Clouds 17 1037 36 10000 1 0 21:21 03.04.2020
5377 Clouds 15 1038 44 10000 1.5 100 20:56 03.04.2020
5378 Clouds 15 1038 44 10000 1.5 100 20:36 03.04.2020
5379 Clouds 15 1038 44 10000 1.5 100 20:18 03.04.2020
5380 Clouds 14 1040 47 10000 2.6 140 19:55 03.04.2020
5381 Clouds 14 1040 47 10000 2.6 140 19:36 03.04.2020
5382 Clouds 14 1040 47 10000 2.6 140 19:18 03.04.2020
5383 Clouds 14 1041 50 10000 2.1 150 18:57 03.04.2020
5384 Clouds 14 1041 50 10000 2.1 150 18:39 03.04.2020
5385 Clouds 14 1041 50 10000 2.1 150 18:39 03.04.2020
5386 Clouds 14 1041 50 10000 2.1 150 18:21 03.04.2020
5387 Clouds 13 1042 54 10000 2.6 80 17:41 03.04.2020
5388 Clouds 13 1042 54 10000 2.6 80 17:19 03.04.2020
5389 Clouds 10 1042 71 10000 3.6 140 16:55 03.04.2020
5390 Clouds 10 1042 71 10000 3.6 140 16:36 03.04.2020
5391 Clouds 10 1042 71 10000 3.6 140 16:18 03.04.2020
5392 Clouds 10 1041 61 10000 1 0 15:41 03.04.2020
5393 Clouds 10 1041 61 10000 1 0 15:22 03.04.2020
5394 Clouds 10 1041 61 10000 1 0 14:58 03.04.2020
5395 Clouds 8 1023 26 0 1.2 41 14:40 03.04.2020
5396 Fog 5 1041 100 4000 4.1 110 14:21 03.04.2020
5397 Fog 5 1041 100 4000 4.1 110 13:46 03.04.2020
5398 Fog 5 1041 100 4000 4.1 110 13:27 03.04.2020
5399 Fog 5 1041 100 500 5.1 130 12:57 03.04.2020
5400 Fog 5 1041 100 500 5.1 130 12:39 03.04.2020
5401 Fog 5 1041 100 500 5.1 130 12:18 03.04.2020
5402 Fog 5 1040 93 4000 4.6 120 11:55 03.04.2020
5403 Fog 5 1040 93 4000 4.6 120 11:55 03.04.2020
5404 Fog 5 1040 93 4000 4.6 120 11:37 03.04.2020
5405 Fog 5 1040 93 4000 4.6 120 11:18 03.04.2020
5406 Fog 6 1040 93 4000 3.6 110 10:56 03.04.2020
5407 Fog 6 1040 93 4000 3.6 110 10:37 03.04.2020
5408 Fog 6 1040 93 4000 3.6 110 10:18 03.04.2020
5409 Fog 6 1041 93 4000 5.1 100 09:55 03.04.2020
5410 Fog 6 1041 93 4000 5.1 100 09:37 03.04.2020
5411 Fog 6 1041 93 4000 5.1 100 09:18 03.04.2020
5412 Clouds 7 1041 81 10000 3.6 110 08:43 03.04.2020
5413 Clouds 7 1041 81 10000 3.6 110 08:22 03.04.2020
5414 Clouds 8 1041 65 10000 4.6 90 07:50 03.04.2020
5415 Clouds 8 1041 65 10000 4.6 90 07:32 03.04.2020
5416 Clouds 8 1042 65 10000 4.1 40 06:55 03.04.2020
5417 Clouds 8 1042 65 10000 4.1 40 06:25 03.04.2020
5418 Clouds 8 1042 65 10000 7.7 80 05:42 03.04.2020
5419 Clouds 9 1040 70 10000 3.6 70 03:47 03.04.2020
5420 Clouds 9 1040 70 10000 3.6 70 03:29 03.04.2020
5421 Clouds 9 1040 66 10000 3.1 80 02:29 03.04.2020
5422 Clouds 11 1039 57 10000 5.1 110 01:24 03.04.2020
5423 Clouds 15 1038 25 10000 4.1 80 00:41 03.04.2020
5424 Clouds 15 1038 19 10000 4.1 80 00:20 03.04.2020
5425 Clouds 15 1038 33 10000 3.1 70 23:42 02.04.2020
5426 Clouds 15 1038 33 10000 3.1 70 23:42 02.04.2020
5427 Clouds 15 1038 33 10000 3.1 70 23:23 02.04.2020
5428 Clouds 16 1039 31 10000 6.2 40 22:59 02.04.2020
5429 Clouds 16 1039 31 10000 6.2 40 22:41 02.04.2020
5430 -273 0 0 0 0 0 22:20 02.04.2020
5431 Clouds 17 1040 19 10000 7.2 40 21:54 02.04.2020
5432 Clouds 17 1040 19 10000 7.2 40 21:36 02.04.2020
5433 Clouds 17 1040 18 10000 7.2 40 21:18 02.04.2020
5434 Clouds 17 1041 33 10000 5.1 90 20:42 02.04.2020
5435 Clouds 17 1041 33 10000 5.1 90 20:22 02.04.2020
5436 Clouds 16 1041 38 10000 4.6 70 19:45 02.04.2020
5437 Clouds 16 1041 38 10000 4.6 70 19:21 02.04.2020
5438 Clouds 15 1042 44 10000 4.6 80 19:00 02.04.2020
5439 Clouds 15 1042 44 10000 4.6 80 18:41 02.04.2020
5440 Clouds 15 1042 44 10000 4.6 80 18:21 02.04.2020
5441 Clouds 14 1043 50 10000 3.6 100 17:57 02.04.2020
5442 Clouds 14 1043 50 10000 3.6 100 17:39 02.04.2020
5443 Clouds 14 1043 50 10000 3.6 100 17:20 02.04.2020
5444 Clouds 13 1043 54 10000 2.6 70 16:56 02.04.2020
5445 Clouds 13 1043 54 10000 2.6 70 16:37 02.04.2020
5446 Clouds 13 1043 54 10000 2.6 70 16:19 02.04.2020
5447 Clouds 11 1043 62 10000 2.1 50 15:45 02.04.2020
5448 Clouds 11 1043 62 10000 2.1 50 15:22 02.04.2020
5449 Clouds 7 1042 81 10000 1 0 14:59 02.04.2020
5450 Clouds 7 1042 81 10000 1 0 14:40 02.04.2020
5451 Clouds 7 1042 81 10000 1 0 14:20 02.04.2020
5452 Clouds 4 1041 93 10000 1.5 60 13:58 02.04.2020
5453 Clouds 4 1041 93 10000 1.5 60 13:38 02.04.2020
5454 Clouds 6 1041 87 10000 3.6 110 13:20 02.04.2020
5455 Clouds 6 1041 87 10000 3.6 110 12:56 02.04.2020
5456 Clouds 6 1041 87 10000 3.6 110 12:37 02.04.2020
5457 Fog 6 1041 100 3000 2.6 140 12:19 02.04.2020
5458 Fog 6 1041 100 3000 2.6 140 11:56 02.04.2020
5459 Fog 6 1041 100 3000 2.6 140 11:37 02.04.2020
5460 Fog 6 1041 100 3000 2.6 140 11:37 02.04.2020
5461 Fog 6 1041 100 3000 2.6 140 11:18 02.04.2020
5462 Fog 6 1040 93 4000 3.1 80 10:54 02.04.2020
5463 Fog 6 1040 93 4000 3.1 80 10:36 02.04.2020
5464 Fog 6 1040 93 4000 3.1 80 10:36 02.04.2020
5465 Fog 6 1040 93 4000 3.1 80 10:18 02.04.2020
5466 Mist 6 1040 100 2500 2.6 90 09:42 02.04.2020
5467 Mist 6 1040 100 2500 2.6 90 09:24 02.04.2020
5468 Fog 6 1040 93 4000 1 0 08:58 02.04.2020
5469 Fog 6 1040 93 4000 1 0 08:39 02.04.2020
5470 Fog 6 1040 93 4000 1 0 08:19 02.04.2020
5471 Fog 6 1041 93 4000 1 0 07:42 02.04.2020
5472 Fog 6 1041 93 4000 1 0 07:19 02.04.2020
5473 Fog 6 1041 93 4000 2.6 60 06:46 02.04.2020
5474 Clouds 7 1041 93 10000 2.6 120 06:20 02.04.2020
5475 Clouds 7 1041 93 10000 2.6 120 05:42 02.04.2020
5476 Clouds 9 1038 76 10000 3.1 80 02:59 02.04.2020
5477 Clouds 10 1037 61 10000 3.6 40 01:30 02.04.2020
5478 Clouds 14 1037 44 10000 5.1 100 00:42 02.04.2020
5479 Clouds 14 1037 44 10000 5.1 100 00:24 02.04.2020
5480 Clouds 14 1038 47 10000 5.7 70 23:41 01.04.2020
5481 Clouds 14 1038 47 10000 5.7 70 23:20 01.04.2020
5482 Clouds 15 1037 44 10000 6.2 130 22:58 01.04.2020
5483 Clouds 15 1037 44 10000 6.2 130 22:58 01.04.2020
5484 Clouds 15 1037 44 10000 6.2 130 22:39 01.04.2020
5485 Clouds 15 1037 44 10000 6.2 130 22:21 01.04.2020
5486 Clouds 16 1038 44 10000 4.6 120 21:42 01.04.2020
5487 Clouds 16 1038 44 10000 4.6 120 21:22 01.04.2020
5488 Clouds 14 1039 54 10000 5.1 120 20:58 01.04.2020
5489 Clouds 14 1039 54 10000 5.1 120 20:58 01.04.2020
5490 Clouds 14 1039 54 10000 5.1 120 20:40 01.04.2020
5491 Clouds 14 1039 54 10000 5.1 120 20:21 01.04.2020
5492 Clouds 14 1040 54 10000 4.1 130 19:59 01.04.2020
5493 Clouds 14 1040 54 10000 4.1 130 19:41 01.04.2020
5494 Clouds 14 1040 54 10000 4.1 130 19:20 01.04.2020
5495 Rain 14 1015 18 0 3.1 76 18:44 01.04.2020
5496 Clouds 11 1041 71 10000 3.1 130 18:26 01.04.2020
5497 Clouds 11 1041 71 10000 3.1 130 17:58 01.04.2020
5498 Clouds 11 1041 71 10000 3.1 130 17:38 01.04.2020
5499 Clouds 11 1041 71 10000 3.1 130 17:19 01.04.2020
5500 Clouds 10 1041 71 10000 3.6 120 16:58 01.04.2020
5501 Clouds 10 1041 71 10000 3.6 120 16:58 01.04.2020
5502 Clouds 10 1041 71 10000 3.6 120 16:39 01.04.2020
5503 Clouds 10 1041 71 10000 3.6 120 16:21 01.04.2020
5504 Clouds 9 1041 70 6000 2.1 100 15:57 01.04.2020
5505 Clouds 9 1041 70 6000 2.1 100 15:57 01.04.2020
5506 Clouds 9 1041 70 6000 2.1 100 15:38 01.04.2020
5507 Clouds 9 1041 70 6000 2.1 100 15:18 01.04.2020
5508 Fog 6 1041 93 4000 2.1 140 14:55 01.04.2020
5509 Fog 6 1041 93 4000 2.1 140 14:55 01.04.2020
5510 Fog 6 1041 93 4000 2.1 140 14:36 01.04.2020
5511 Fog 6 1041 93 4000 2.1 140 14:18 01.04.2020
5512 Fog 4 1040 93 4000 1 0 13:55 01.04.2020
5513 Fog 4 1040 93 4000 1 0 13:36 01.04.2020
5514 Fog 4 1040 93 4000 1 0 13:18 01.04.2020
5515 Clouds 4 1039 86 10000 1.71 61 12:42 01.04.2020
5516 Clouds 4 1039 86 10000 1.71 61 12:23 01.04.2020
5517 Clouds 5 1039 86 10000 1 0 11:59 01.04.2020
5518 Clouds 6 1019 27 0 1.9 67 11:39 01.04.2020
5519 Clouds 5 1038 93 10000 1 0 11:20 01.04.2020
5520 Clouds 5 1038 93 10000 1 0 10:41 01.04.2020
5521 Clouds 5 1038 93 10000 1 0 10:22 01.04.2020
5522 Clouds 6 1038 87 10000 1 0 09:59 01.04.2020
5523 Clouds 6 1038 87 10000 1 0 09:40 01.04.2020
5524 Clouds 6 1038 87 10000 1 0 09:20 01.04.2020
5525 Rain 6 1039 93 4000 7.2 100 08:56 01.04.2020
5526 Rain 6 1039 93 4000 7.2 100 08:37 01.04.2020
5527 Rain 6 1039 93 4000 7.2 100 08:18 01.04.2020
5528 Rain 7 1040 93 4000 6.2 120 07:41 01.04.2020
5529 Fog 6 1040 93 4000 3.6 90 07:19 01.04.2020
5530 Fog 6 1040 93 4000 3.6 90 06:43 01.04.2020
5531 Fog 6 1040 93 4000 3.6 90 06:21 01.04.2020
5532 Fog 6 1039 93 4000 3.1 70 05:41 01.04.2020
5533 Clouds 7 1039 87 10000 2.1 110 03:57 01.04.2020
5534 Clouds 7 1039 87 10000 2.1 110 03:19 01.04.2020
5535 Clouds 7 1038 87 10000 2.1 70 02:36 01.04.2020
5536 Clouds 9 1038 76 10000 3.1 100 01:53 01.04.2020
5537 Clouds 9 1038 76 10000 3.1 100 01:25 01.04.2020
5538 Clouds 12 1037 66 10000 4.1 110 00:47 01.04.2020
5539 Clouds 12 1037 66 10000 4.1 110 00:22 01.04.2020
5540 Clouds 14 1037 54 10000 3.6 90 23:57 31.03.2020
5541 Clouds 14 1037 54 10000 3.6 90 23:57 31.03.2020
5542 Clouds 14 1037 54 10000 3.6 90 23:38 31.03.2020
5543 Clouds 14 1037 54 10000 3.6 90 23:19 31.03.2020
5544 Clouds 14 1037 54 10000 4.1 100 22:41 31.03.2020
5545 Clouds 14 1037 54 10000 4.1 100 22:21 31.03.2020
5546 Clouds 14 1038 54 10000 5.7 90 21:58 31.03.2020
5547 Clouds 14 1038 54 10000 5.7 90 21:40 31.03.2020
5548 Clouds 14 1038 54 10000 5.7 90 21:21 31.03.2020
5549 Clouds 13 1039 58 10000 4.6 70 20:57 31.03.2020
5550 Clouds 13 1039 58 10000 4.6 70 20:57 31.03.2020
5551 Clouds 13 1039 58 10000 4.6 70 20:37 31.03.2020
5552 Clouds 13 1039 58 10000 4.6 70 20:19 31.03.2020
5553 Clouds 13 1040 58 10000 4.1 60 19:55 31.03.2020
5554 Clouds 13 1040 58 10000 4.1 60 19:37 31.03.2020
5555 Clouds 13 1040 58 10000 4.6 70 19:18 31.03.2020
5556 Clouds 13 1040 58 10000 4.6 70 18:43 31.03.2020
5557 Clouds 11 1041 66 10000 3.6 50 18:20 31.03.2020
5558 Clouds 11 1041 66 10000 3.6 50 17:56 31.03.2020
5559 Clouds 11 1041 66 10000 3.6 50 17:56 31.03.2020
5560 Clouds 11 1041 66 10000 3.6 50 17:38 31.03.2020
5561 Clouds 11 1041 66 10000 3.6 50 17:38 31.03.2020
5562 Clouds 11 1041 66 10000 3.6 50 17:20 31.03.2020
5563 Clouds 10 1041 71 10000 1 0 16:42 31.03.2020
5564 Clouds 10 1041 71 10000 1 0 16:20 31.03.2020
5565 Clouds 7 1040 87 10000 2.1 30 15:59 31.03.2020
5566 Clouds 7 1040 87 10000 2.1 30 15:41 31.03.2020
5567 Clouds 7 1040 87 10000 2.1 30 15:23 31.03.2020
5568 Rain 6 1040 93 6000 3.6 90 14:59 31.03.2020
5569 Rain 6 1040 93 6000 3.6 90 14:40 31.03.2020
5570 Rain 6 1040 93 6000 3.6 90 14:21 31.03.2020
5571 Rain 6 1039 93 4000 3.1 120 13:54 31.03.2020
5572 Rain 6 1039 93 4000 3.1 120 13:36 31.03.2020
5573 Rain 6 1039 93 4000 3.1 120 13:18 31.03.2020
5574 Rain 6 1038 93 4000 4.1 120 12:42 31.03.2020
5575 Rain 6 1038 93 4000 4.1 120 12:20 31.03.2020
5576 Clouds 6 1038 93 10000 2.1 60 11:55 31.03.2020
5577 Clouds 7 1019 28 0 2.14 74 11:36 31.03.2020
5578 Clouds 6 1038 93 10000 3.6 70 11:18 31.03.2020
5579 Clouds 6 1038 93 10000 3.6 70 10:54 31.03.2020
5580 Clouds 6 1038 93 10000 3.6 70 10:36 31.03.2020
5581 Clouds 6 1038 93 10000 3.6 70 10:18 31.03.2020
5582 Clouds 7 1038 87 10000 3.1 70 09:42 31.03.2020
5583 Clouds 7 1038 87 10000 3.1 70 09:24 31.03.2020
5584 Rain 7 1039 93 4000 4.1 110 08:57 31.03.2020
5585 Rain 7 1039 93 4000 4.1 110 08:39 31.03.2020
5586 Rain 7 1039 93 4000 4.1 110 08:19 31.03.2020
5587 Fog 7 1039 93 4000 4.1 110 07:56 31.03.2020
5588 Fog 7 1039 93 4000 4.1 110 07:56 31.03.2020
5589 Fog 7 1039 93 4000 4.1 110 07:38 31.03.2020
5590 Fog 7 1039 93 4000 4.1 110 07:19 31.03.2020
5591 Fog 7 1039 93 4000 4.6 80 06:46 31.03.2020
5592 Fog 7 1039 93 4000 4.6 80 06:20 31.03.2020
5593 Clouds 7 1039 93 10000 5.7 100 05:39 31.03.2020
5594 Clouds 7 1039 87 10000 3.6 70 03:34 31.03.2020
5595 Clouds 10 1037 66 10000 5.1 100 01:59 31.03.2020
5596 Clouds 10 1037 66 10000 5.1 100 01:40 31.03.2020
5597 Clouds 13 1037 54 10000 5.1 120 00:47 31.03.2020
5598 Clouds 13 1037 54 10000 5.1 120 00:25 31.03.2020
5599 Clouds 14 1037 50 10000 5.1 110 23:42 30.03.2020
5600 Clouds 14 1037 50 10000 4.1 100 23:20 30.03.2020
5601 Clouds 14 1037 50 10000 4.1 100 22:59 30.03.2020
5602 Clouds 14 1037 50 10000 4.1 100 22:39 30.03.2020
5603 Clouds 14 1037 50 10000 4.1 100 22:21 30.03.2020
5604 Clouds 15 1038 47 10000 4.1 100 21:58 30.03.2020
5605 Clouds 15 1038 47 10000 4.1 100 21:39 30.03.2020
5606 Clouds 15 1038 47 10000 4.1 100 21:39 30.03.2020
5607 Clouds 15 1038 47 10000 4.1 100 21:21 30.03.2020
5608 Clouds 14 1039 54 10000 5.1 80 20:59 30.03.2020
5609 Clouds 14 1039 54 10000 5.1 80 20:39 30.03.2020
5610 Clouds 14 1039 54 10000 5.1 80 20:20 30.03.2020
5611 Clouds 13 1041 54 10000 4.1 90 19:57 30.03.2020
5612 Clouds 13 1041 54 10000 4.1 90 19:39 30.03.2020
5613 Clouds 13 1041 54 10000 4.1 90 19:20 30.03.2020
5614 Clouds 12 1042 62 10000 4.1 90 18:43 30.03.2020
5615 Clouds 12 1042 62 10000 4.1 90 18:25 30.03.2020
5616 Clouds 11 1042 62 10000 4.6 90 17:58 30.03.2020
5617 Clouds 11 1042 62 10000 4.6 90 17:39 30.03.2020
5618 Clouds 11 1042 62 10000 4.6 90 17:39 30.03.2020
5619 Clouds 11 1042 62 10000 4.6 90 17:20 30.03.2020
5620 Clouds 10 1042 71 10000 3.1 80 16:58 30.03.2020
5621 Clouds 10 1042 71 10000 3.1 80 16:39 30.03.2020
5622 Clouds 10 1042 71 10000 3.1 80 16:20 30.03.2020
5623 Clouds 10 1042 71 10000 3.1 80 16:20 30.03.2020
5624 Clouds 7 1042 87 10000 2.1 80 15:55 30.03.2020
5625 Clouds 7 1042 87 10000 2.1 80 15:37 30.03.2020
5626 Clouds 7 1042 87 10000 2.1 80 15:19 30.03.2020
5627 Fog 6 1041 93 4000 4.1 90 14:55 30.03.2020
5628 Fog 6 1041 93 4000 4.1 90 14:37 30.03.2020
5629 Fog 6 1041 93 4000 4.1 90 14:18 30.03.2020
5630 Fog 5 1040 93 4000 2.1 330 13:54 30.03.2020
5631 Fog 5 1040 93 4000 2.1 330 13:36 30.03.2020
5632 Fog 5 1040 93 4000 2.1 330 13:36 30.03.2020
5633 Fog 5 1040 93 4000 2.1 330 13:18 30.03.2020
5634 Fog 4 1038 93 4000 3.1 80 12:41 30.03.2020
5635 Fog 4 1038 93 4000 3.1 80 12:20 30.03.2020
5636 Fog 3 1038 93 4000 3.1 80 11:57 30.03.2020
5637 Fog 3 1038 93 4000 3.1 80 11:39 30.03.2020
5638 Fog 3 1038 93 4000 3.1 80 11:21 30.03.2020
5639 Fog 3 1038 93 4000 2.1 90 10:41 30.03.2020
5640 Fog 3 1038 93 4000 2.1 90 10:22 30.03.2020
5641 Fog 4 1039 93 4000 2.6 100 09:57 30.03.2020
5642 Fog 4 1039 93 4000 2.6 100 09:57 30.03.2020
5643 Fog 4 1039 93 4000 2.6 100 09:38 30.03.2020
5644 Fog 6 1039 93 4000 3.1 100 09:19 30.03.2020
5645 Fog 6 1039 93 4000 3.1 100 08:42 30.03.2020
5646 Fog 6 1039 93 4000 3.1 100 08:22 30.03.2020
5647 Clouds 7 1040 75 10000 5.1 80 07:50 30.03.2020
5648 Clouds 7 1040 81 10000 3.6 80 07:31 30.03.2020
5649 Clouds 7 1040 81 10000 3.6 80 06:57 30.03.2020
5650 Clouds 7 1040 81 10000 3.6 80 06:33 30.03.2020
5651 Clouds 7 1040 81 10000 5.1 90 05:54 30.03.2020
5652 Clouds 7 1040 81 10000 5.1 90 05:22 30.03.2020
5653 Clouds 7 1039 87 10000 4.6 80 04:23 30.03.2020
5654 Clouds 8 1039 65 10000 4.1 100 03:44 30.03.2020
5655 Clouds 10 1038 53 10000 4.1 60 02:39 30.03.2020
5656 Clouds 10 1037 61 10000 4.1 70 01:44 30.03.2020
5657 Clouds 14 1036 50 10000 6.2 110 00:49 30.03.2020
5658 Clouds 14 1036 50 10000 6.2 110 00:22 30.03.2020
5659 Clouds 15 1036 47 10000 6.7 130 23:42 29.03.2020
5660 Clouds 15 1036 51 10000 6.7 100 23:23 29.03.2020
5661 Clouds 15 1036 51 10000 6.7 100 22:57 29.03.2020
5662 Clouds 15 1036 51 10000 6.7 100 22:38 29.03.2020
5663 Clouds 15 1036 51 10000 6.7 100 22:19 29.03.2020
5664 Clouds 16 1037 48 10000 5.1 100 21:55 29.03.2020
5665 Clouds 16 1037 48 10000 5.1 100 21:36 29.03.2020
5666 Clouds 16 1037 48 10000 5.1 100 21:36 29.03.2020
5667 Clouds 16 1037 48 10000 5.1 100 21:18 29.03.2020
5668 Clouds 16 1037 48 8000 6.7 110 20:54 29.03.2020
5669 Clouds 16 1037 48 8000 6.7 110 20:36 29.03.2020
5670 Clouds 16 1037 48 8000 6.7 110 20:18 29.03.2020
5671 Clouds 16 1038 48 10000 6.2 120 19:42 29.03.2020
5672 Clouds 16 1038 48 10000 6.2 120 19:24 29.03.2020
5673 Clouds 14 1039 58 10000 6.7 120 18:57 29.03.2020
5674 Clouds 14 1039 58 10000 6.7 120 18:39 29.03.2020
5675 Clouds 30 1015 70 10000 4.1 350 18:20 29.03.2020
5676 Clouds 30 1015 70 10000 4.1 350 17:57 29.03.2020
5677 Clouds 30 1015 70 10000 4.1 350 17:39 29.03.2020
5678 Clouds 30 1015 70 10000 4.1 350 17:20 29.03.2020
5679 Clouds 10 1040 76 10000 5.1 110 16:57 29.03.2020
5680 Clouds 10 1040 76 10000 5.1 110 16:39 29.03.2020
5681 Clouds 10 1040 76 10000 5.1 110 16:20 29.03.2020
5682 Clouds 10 1039 76 8000 4.1 110 15:43 29.03.2020
5683 Clouds 10 1039 76 8000 4.1 110 15:25 29.03.2020
5684 Clouds 7 1038 87 6000 1 0 14:59 29.03.2020
5685 Clouds 7 1038 87 6000 1 0 14:40 29.03.2020
5686 Clouds 7 1038 87 6000 1 0 14:20 29.03.2020
5687 Fog 5 1037 100 4000 1 0 13:58 29.03.2020
5688 Fog 5 1037 100 4000 1 0 13:40 29.03.2020
5689 Fog 5 1037 100 4000 1 0 13:21 29.03.2020
5690 Fog 5 1037 93 4000 1.5 90 12:57 29.03.2020
5691 Fog 5 1037 93 4000 1.5 90 12:38 29.03.2020
5692 Fog 2 1036 100 4000 1 0 12:19 29.03.2020
5693 Fog 2 1036 100 4000 1 0 11:55 29.03.2020
5694 Fog 2 1036 100 4000 1 0 11:37 29.03.2020
5695 Fog 2 1036 100 4000 1 0 11:19 29.03.2020
5696 Fog 4 1036 100 4000 2.1 10 10:38 29.03.2020
5697 Fog 4 1036 100 4000 2.1 10 10:19 29.03.2020
5698 Fog 4 1036 100 4000 1 0 09:41 29.03.2020
5699 Fog 4 1036 100 4000 1 0 09:22 29.03.2020
5700 Fog 5 1037 93 4000 1 0 08:56 29.03.2020
5701 Fog 5 1037 93 4000 1 0 08:38 29.03.2020
5702 Fog 5 1037 93 4000 1 0 08:19 29.03.2020
5703 Fog 5 1037 100 4000 1.5 80 07:42 29.03.2020
5704 Fog 5 1037 100 4000 1.5 80 07:21 29.03.2020
5705 Fog 5 1037 86 4000 1.5 70 05:50 29.03.2020
5706 Clouds 7 1037 81 10000 3.6 60 04:29 29.03.2020
5707 Clouds 7 1036 81 10000 4.1 70 03:31 29.03.2020
5708 Clouds 8 1035 75 10000 4.1 70 01:51 29.03.2020
5709 Clouds 8 1035 75 10000 4.1 70 01:23 29.03.2020
5710 Clouds 10 1034 66 10000 4.1 70 00:58 29.03.2020
5711 Clouds 10 1034 66 10000 4.1 70 00:33 29.03.2020
5712 Clouds 12 1033 58 10000 5.7 70 23:57 28.03.2020
5713 Clouds 12 1033 58 10000 5.7 70 23:39 28.03.2020
5714 Clouds 13 1033 54 10000 4.1 60 23:19 28.03.2020
5715 Clouds 13 1033 54 10000 4.1 60 22:41 28.03.2020
5716 Clouds 13 1033 54 10000 4.1 60 22:22 28.03.2020
5717 Clouds 12 1034 66 10000 4.6 80 21:56 28.03.2020
5718 Clouds 12 1034 66 10000 4.6 80 21:37 28.03.2020
5719 Clouds 12 1034 66 10000 4.6 80 21:18 28.03.2020
5720 Clouds 13 1035 62 10000 4.6 80 20:42 28.03.2020
5721 Clouds 13 1035 62 10000 4.6 80 20:24 28.03.2020
5722 Clouds 14 1035 58 10000 4.6 80 19:58 28.03.2020
5723 Clouds 14 1035 58 10000 4.6 80 19:39 28.03.2020
5724 Clouds 14 1035 58 10000 4.6 80 19:21 28.03.2020
5725 Clouds 13 1036 62 10000 3.1 130 18:58 28.03.2020
5726 Clouds 13 1036 62 10000 3.1 130 18:39 28.03.2020
5727 Clouds 13 1036 62 10000 3.1 130 18:19 28.03.2020
5728 Clouds 13 1037 62 10000 3.1 140 17:39 28.03.2020
5729 Clouds 13 1037 62 10000 3.1 140 17:20 28.03.2020
5730 Clouds 12 1037 66 10000 3.6 90 16:55 28.03.2020
5731 Clouds 12 1037 66 10000 3.6 90 16:37 28.03.2020
5732 Clouds 12 1037 66 10000 3.6 90 16:18 28.03.2020
5733 Clouds 10 1037 76 6000 3.6 80 15:39 28.03.2020
5734 Clouds 10 1037 76 6000 3.6 80 15:19 28.03.2020
5735 Clouds 8 1037 81 6000 3.6 90 14:55 28.03.2020
5736 Clouds 8 1037 81 6000 3.6 90 14:37 28.03.2020
5737 Clouds 8 1037 81 6000 3.6 90 14:18 28.03.2020
5738 Fog 7 1036 87 4000 3.6 90 13:38 28.03.2020
5739 Fog 7 1036 87 4000 3.6 90 13:20 28.03.2020
5740 Fog 6 1035 93 4000 2.1 70 12:39 28.03.2020
5741 Fog 6 1035 93 4000 2.1 70 12:21 28.03.2020
5742 Fog 6 1034 93 3000 3.6 100 11:42 28.03.2020
5743 Fog 6 1034 93 3000 3.6 100 11:23 28.03.2020
5744 Fog 5 1034 100 4000 3.1 90 10:56 28.03.2020
5745 Fog 5 1034 100 4000 3.1 90 10:38 28.03.2020
5746 Fog 5 1034 100 4000 3.1 90 10:18 28.03.2020
5747 Fog 5 1034 93 4000 2.6 80 09:41 28.03.2020
5748 Fog 5 1034 93 4000 2.6 80 09:23 28.03.2020
5749 Clouds 3 1034 93 10000 2.1 100 08:46 28.03.2020
5750 Clouds 3 1034 93 10000 2.1 100 08:27 28.03.2020
5751 Fog 5 1034 93 4000 2.1 30 07:59 28.03.2020
5752 Fog 5 1034 93 4000 2.1 30 07:41 28.03.2020
5753 Fog 6 1035 93 4000 2.1 80 06:55 28.03.2020
5754 Fog 6 1035 93 4000 2.1 80 06:32 28.03.2020
5755 Fog 7 1036 93 4000 1 0 05:40 28.03.2020
5756 Fog 7 1036 93 4000 1 0 05:19 28.03.2020
5757 Fog 7 1035 93 3000 2.6 130 04:39 28.03.2020
5758 Clouds 8 1034 87 10000 2.1 90 02:55 28.03.2020
5759 Clouds 8 1034 81 10000 3.1 80 01:48 28.03.2020
5760 Clouds 8 1034 81 10000 3.1 80 01:24 28.03.2020
5761 Clouds 9 1033 76 10000 2.6 60 00:52 28.03.2020
5762 Clouds 9 1033 76 10000 2.6 60 00:28 28.03.2020
5763 Thunderstorm 9 1034 70 10000 3.1 180 23:44 27.03.2020
5764 Thunderstorm 9 1034 70 10000 3.1 180 23:26 27.03.2020
5765 Thunderstorm 11 1033 57 10000 4.1 270 22:57 27.03.2020
5766 Thunderstorm 11 1033 57 10000 5.1 270 22:39 27.03.2020
5767 Thunderstorm 11 1033 57 10000 5.1 270 22:21 27.03.2020
5768 Clouds 15 1032 44 10000 5.1 90 21:58 27.03.2020
5769 Clouds 15 1032 44 10000 5.1 90 21:40 27.03.2020
5770 Clouds 15 1032 44 10000 5.1 90 21:22 27.03.2020
5771 Clouds 14 1033 50 10000 3.6 60 20:57 27.03.2020
5772 Clouds 14 1033 50 10000 3.6 60 20:38 27.03.2020
5773 Clouds 14 1033 50 10000 3.6 60 20:19 27.03.2020
5774 Clouds 15 1034 51 10000 3.1 110 19:44 27.03.2020
5775 Clouds 15 1034 51 10000 3.1 110 19:23 27.03.2020
5776 Clouds 14 1035 58 10000 3.6 150 18:57 27.03.2020
5777 Clouds 14 1035 58 10000 3.6 150 18:39 27.03.2020
5778 Clouds 14 1035 58 10000 3.6 150 18:20 27.03.2020
5779 Clouds 12 1036 66 10000 3.6 130 17:41 27.03.2020
5780 Clouds 10 1036 71 10000 1 0 17:21 27.03.2020
5781 Clouds 10 1036 71 10000 1 0 16:57 27.03.2020
5782 Clouds 10 1036 71 10000 1 0 16:39 27.03.2020
5783 Clouds 10 1036 71 10000 1 0 16:20 27.03.2020
5784 Clouds 9 1036 76 6000 1 0 15:42 27.03.2020
5785 Clouds 9 1036 76 6000 1 0 15:24 27.03.2020
5786 Clouds 7 1036 87 6000 2.1 120 14:48 27.03.2020
5787 Clouds 7 1036 87 6000 2.1 120 14:27 27.03.2020
5788 Fog 6 1035 93 4000 4.1 100 13:58 27.03.2020
5789 Fog 6 1035 93 4000 4.1 100 13:40 27.03.2020
5790 Fog 6 1035 93 4000 4.1 100 13:21 27.03.2020
5791 Fog 5 1034 100 4000 3.1 70 12:57 27.03.2020
5792 Fog 5 1034 100 4000 3.1 70 12:38 27.03.2020
5793 Fog 5 1034 100 4000 3.1 70 12:18 27.03.2020
5794 Fog 5 1034 100 3000 2.1 90 11:41 27.03.2020
5795 Fog 3 1034 100 3000 2.1 70 11:23 27.03.2020
5796 Fog 3 1034 100 3000 2.1 70 10:55 27.03.2020
5797 Fog 3 1034 100 3000 2.1 70 10:37 27.03.2020
5798 Fog 3 1034 100 3000 2.1 70 10:37 27.03.2020
5799 Fog 3 1034 100 3000 2.1 70 10:18 27.03.2020
5800 Fog 3 1034 100 4000 1 0 09:56 27.03.2020
5801 Fog 3 1034 100 4000 1 0 09:37 27.03.2020
5802 Fog 3 1034 100 4000 1 0 09:18 27.03.2020
5803 Fog 3 1034 100 4000 0.35 278 08:55 27.03.2020
5804 Fog 3 1034 100 4000 0.35 278 08:37 27.03.2020
5805 Fog 3 1034 100 4000 1.65 42 08:18 27.03.2020
5806 Clouds 5 1034 93 10000 1.5 40 07:49 27.03.2020
5807 Clouds 5 1034 93 10000 1.5 40 07:23 27.03.2020
5808 Clouds 5 1035 86 10000 2.1 90 06:46 27.03.2020
5809 Clouds 5 1035 86 10000 2.1 90 06:27 27.03.2020
5810 Clouds 8 1036 87 10000 2.6 110 04:21 27.03.2020
5811 Thunderstorm 9 1036 81 10000 5.1 130 02:25 27.03.2020
5812 Thunderstorm 9 1035 81 10000 6.2 100 01:22 27.03.2020
5813 Clouds 10 1035 76 10000 2.6 90 00:47 27.03.2020
5814 Clouds 10 1035 76 10000 2.6 90 00:23 27.03.2020
5815 Clouds 12 1034 62 10000 2.1 70 23:42 26.03.2020
5816 Clouds 13 1033 62 10000 4.6 110 23:19 26.03.2020
5817 Clouds 13 1033 62 10000 4.6 110 22:58 26.03.2020
5818 Clouds 13 1033 62 10000 4.6 110 22:58 26.03.2020
5819 Clouds 13 1033 62 10000 4.6 110 22:37 26.03.2020
5820 Clouds 13 1033 62 10000 4.6 110 22:18 26.03.2020
5821 Clouds 14 1033 47 10000 3.6 340 21:40 26.03.2020
5822 Clouds 14 1033 47 10000 3.6 340 21:22 26.03.2020
5823 Clouds 13 1034 50 10000 3.1 290 20:59 26.03.2020
5824 Clouds 13 1034 50 10000 3.1 290 20:40 26.03.2020
5825 Clouds 13 1034 50 10000 3.1 290 20:22 26.03.2020
5826 Clouds 15 1035 41 10000 5.1 80 19:58 26.03.2020
5827 Clouds 15 1035 41 10000 5.1 80 19:40 26.03.2020
5828 Clouds 15 1035 41 10000 5.1 80 19:21 26.03.2020
5829 Thunderstorm 16 1036 48 10000 6.2 100 18:58 26.03.2020
5830 Thunderstorm 16 1036 48 10000 6.2 100 18:40 26.03.2020
5831 Thunderstorm 15 1037 54 10000 4.6 110 18:21 26.03.2020
5832 Thunderstorm 15 1037 54 10000 4.6 110 17:45 26.03.2020
5833 Clouds 12 1037 66 10000 4.1 120 17:20 26.03.2020
5834 Clouds 12 1037 66 10000 4.1 120 16:57 26.03.2020
5835 Clouds 12 1037 66 10000 4.1 120 16:38 26.03.2020
5836 Clouds 12 1037 66 10000 4.1 120 16:38 26.03.2020
5837 Clouds 12 1037 66 10000 4.1 120 16:19 26.03.2020
5838 Clouds 12 1037 71 10000 2.6 140 15:54 26.03.2020
5839 Clouds 12 1037 71 10000 2.6 140 15:36 26.03.2020
5840 Clouds 12 1037 71 10000 2.6 140 15:18 26.03.2020
5841 Clouds 10 1037 76 10000 2.1 100 14:42 26.03.2020
5842 Clouds 10 1037 76 10000 2.1 100 14:24 26.03.2020
5843 Fog 7 1037 100 4000 2.6 80 13:54 26.03.2020
5844 Fog 7 1037 100 4000 2.6 80 13:36 26.03.2020
5845 Fog 7 1037 100 4000 2.6 80 13:18 26.03.2020
5846 Fog 6 1036 100 3000 3.6 90 12:38 26.03.2020
5847 Fog 6 1036 100 4000 2.6 80 12:20 26.03.2020
5848 Fog 6 1036 100 4000 2.6 80 11:46 26.03.2020
5849 Fog 6 1036 100 4000 2.6 80 11:22 26.03.2020
5850 Fog 6 1035 100 4000 3.1 70 10:56 26.03.2020
5851 Fog 6 1035 100 4000 3.1 70 10:38 26.03.2020
5852 Fog 6 1035 100 4000 3.1 70 10:19 26.03.2020
5853 Fog 4 1035 100 4000 2.1 100 09:44 26.03.2020
5854 -273 0 0 0 0 0 09:20 26.03.2020
5855 Fog 6 1035 93 4000 2.1 70 08:56 26.03.2020
5856 Fog 6 1035 93 4000 2.1 70 08:37 26.03.2020
5857 Fog 6 1035 93 4000 2.1 70 08:18 26.03.2020
5858 Fog 7 1036 93 3000 2.6 90 07:44 26.03.2020
5859 Fog 7 1036 93 3000 2.6 90 07:21 26.03.2020
5860 Fog 8 1037 93 4000 3.1 90 06:56 26.03.2020
5861 Fog 8 1037 100 4000 3.6 70 05:59 26.03.2020
5862 Fog 8 1037 93 4000 2.1 80 04:33 26.03.2020
5863 Fog 8 1037 93 4000 3.1 70 03:44 26.03.2020
5864 Clouds 10 1036 76 10000 3.1 90 02:55 26.03.2020
5865 Clouds 11 1035 71 10000 2.6 90 01:50 26.03.2020
5866 Clouds 13 1035 58 10000 2.6 150 00:52 26.03.2020
5867 Clouds 14 1034 54 10000 4.1 310 23:59 25.03.2020
5868 Clouds 14 1034 54 10000 4.1 310 23:40 25.03.2020
5869 Clouds 14 1034 54 10000 4.1 310 23:20 25.03.2020
5870 Clouds 14 1034 50 10000 6.2 310 22:39 25.03.2020
5871 Clouds 14 1034 50 10000 6.2 310 22:20 25.03.2020
5872 Clouds 19 1034 21 10000 4.1 90 21:56 25.03.2020
5873 Clouds 19 1034 21 10000 4.1 90 21:37 25.03.2020
5874 Clouds 19 1034 21 10000 4.1 90 21:19 25.03.2020
5875 Clouds 18 1035 36 10000 5.7 140 20:40 25.03.2020
5876 Clouds 18 1035 36 10000 5.7 140 20:20 25.03.2020
5877 Clouds 18 1036 36 10000 5.1 170 19:59 25.03.2020
5878 Clouds 18 1036 36 10000 5.1 170 19:41 25.03.2020
5879 Clouds 18 1036 36 10000 5.1 170 19:21 25.03.2020
5880 Clouds 16 1037 48 10000 2.1 110 18:56 25.03.2020
5881 Clouds 16 1037 48 10000 2.1 110 18:37 25.03.2020
5882 Clouds 16 1037 48 10000 2.1 110 18:37 25.03.2020
5883 Clouds 16 1038 48 10000 2.6 100 18:19 25.03.2020
5884 Clouds 16 1038 48 10000 2.6 100 17:42 25.03.2020
5885 Clouds 13 1039 62 10000 2.1 270 17:23 25.03.2020
5886 Clouds 13 1039 62 10000 2.1 270 16:59 25.03.2020
5887 Clouds 13 1039 62 10000 2.1 270 16:41 25.03.2020
5888 Clouds 13 1039 62 10000 2.1 270 16:21 25.03.2020
5889 Clouds 13 1039 66 10000 3.1 200 15:44 25.03.2020
5890 Clouds 13 1039 66 10000 3.1 200 15:21 25.03.2020
5891 Clouds 11 1039 71 10000 1 0 14:59 25.03.2020
5892 Clouds 11 1039 71 10000 1 0 14:40 25.03.2020
5893 Clouds 11 1039 71 10000 1 0 14:20 25.03.2020
5894 Clouds 8 1039 93 6000 2.6 90 13:45 25.03.2020
5895 Clouds 8 1039 93 6000 2.6 90 13:25 25.03.2020
5896 Fog 6 1038 100 4000 1 0 12:40 25.03.2020
5897 Fog 6 1038 100 4000 1 0 12:21 25.03.2020
5898 Fog 4 1037 100 3000 2.1 70 11:59 25.03.2020
5899 Fog 4 1037 100 3000 2.1 70 11:41 25.03.2020
5900 Fog 4 1037 100 3000 2.1 70 11:21 25.03.2020
5901 Fog 4 1037 100 3000 2.1 70 11:21 25.03.2020
5902 Fog 5 1037 93 4000 1.5 70 10:58 25.03.2020
5903 Fog 5 1037 93 4000 1.5 70 10:40 25.03.2020
5904 Fog 5 1037 93 4000 1.5 70 10:18 25.03.2020
5905 Fog 6 1037 100 4000 2.1 80 09:56 25.03.2020
5906 Fog 6 1037 100 4000 2.1 80 09:38 25.03.2020
5907 Fog 6 1037 100 4000 2.1 80 09:19 25.03.2020
5908 Fog 6 1038 100 4000 2.1 80 08:41 25.03.2020
5909 Fog 6 1038 100 4000 2.1 80 08:23 25.03.2020
5910 Fog 5 1038 100 4000 2.6 70 07:55 25.03.2020
5911 Fog 5 1038 100 4000 2.6 70 07:36 25.03.2020
5912 Fog 5 1038 100 4000 2.6 70 07:18 25.03.2020
5913 Fog 7 1039 100 4000 1 0 06:41 25.03.2020
5914 Fog 7 1039 100 4000 1 0 06:22 25.03.2020
5915 Fog 7 1039 93 4000 1 0 05:47 25.03.2020
5916 Clouds 7 1039 87 10000 2.1 80 04:42 25.03.2020
5917 Clouds 8 1039 87 10000 2.1 70 03:57 25.03.2020
5918 Clouds 8 1039 87 10000 2.1 70 03:30 25.03.2020
5919 Clouds 10 1037 61 10000 3.1 70 01:40 25.03.2020
5920 Clouds 12 1037 54 10000 4.6 60 00:50 25.03.2020
5921 Clouds 12 1037 54 10000 4.6 60 00:27 25.03.2020
5922 Clouds 15 1036 44 10000 4.1 110 23:54 24.03.2020
5923 Clouds 15 1036 44 10000 4.1 110 23:28 24.03.2020
5924 Clouds 16 1036 44 10000 3.6 70 22:58 24.03.2020
5925 Clouds 16 1036 44 10000 3.6 70 22:38 24.03.2020
5926 Clouds 16 1036 44 10000 3.6 70 22:20 24.03.2020
5927 Rain 14 1010 20 0 2.76 44 21:58 24.03.2020
5928 Rain 14 1010 20 0 2.76 44 21:39 24.03.2020
5929 Clouds 17 1038 39 10000 4.1 130 21:18 24.03.2020
5930 Clouds 17 1038 39 10000 4.1 130 20:57 24.03.2020
5931 Clouds 17 1038 39 10000 4.1 130 20:39 24.03.2020
5932 Clouds 17 1038 39 10000 4.1 130 20:21 24.03.2020
5933 Clouds 17 1039 45 10000 4.1 70 19:45 24.03.2020
5934 Clouds 17 1039 45 10000 4.1 70 19:20 24.03.2020
5935 Clouds 15 1040 47 10000 4.1 150 18:56 24.03.2020
5936 Clouds 15 1040 47 10000 4.1 150 18:37 24.03.2020
5937 Clouds 14 1041 50 10000 3.1 230 18:19 24.03.2020
5938 Clouds 14 1041 50 10000 3.1 230 17:43 24.03.2020
5939 Clouds 14 1041 50 10000 3.1 230 17:24 24.03.2020
5940 Clouds 14 1042 50 10000 1 0 16:59 24.03.2020
5941 Clouds 14 1042 50 10000 1 0 16:41 24.03.2020
5942 Clouds 14 1042 50 10000 1 0 16:23 24.03.2020
5943 Clouds 14 1042 50 10000 1 0 16:23 24.03.2020
5944 Clouds 11 1042 66 10000 3.1 300 15:59 24.03.2020
5945 Clouds 11 1042 66 10000 3.1 300 15:39 24.03.2020
5946 Clouds 11 1042 66 10000 3.1 300 15:21 24.03.2020
5947 Clouds 11 1042 66 10000 3.1 300 15:21 24.03.2020
5948 Clouds 11 1042 66 10000 3.1 300 15:21 24.03.2020
5949 Clouds 10 1042 71 6000 1 0 14:43 24.03.2020
5950 Clouds 10 1042 71 6000 1 0 14:21 24.03.2020
5951 Clouds 8 1041 81 6000 1.5 130 13:55 24.03.2020
5952 Clouds 8 1041 81 6000 1.5 130 13:36 24.03.2020
5953 Clouds 8 1041 81 6000 1.5 130 13:18 24.03.2020
5954 Clouds 7 1040 87 10000 1.5 120 12:41 24.03.2020
5955 Clouds 7 1040 87 10000 1.5 120 12:41 24.03.2020
5956 Clouds 7 1040 87 10000 1.5 120 12:22 24.03.2020
5957 Fog 6 1039 93 4000 1 0 11:41 24.03.2020
5958 Fog 6 1039 93 4000 2.6 90 11:20 24.03.2020
5959 Fog 6 1039 93 4000 2.6 90 10:55 24.03.2020
5960 Fog 6 1039 93 4000 2.6 90 10:36 24.03.2020
5961 Fog 6 1039 93 4000 2.6 90 10:18 24.03.2020
5962 Clouds 3 1018 85 0 2.06 21 09:43 24.03.2020
5963 Fog 6 1039 100 2000 2.1 110 09:24 24.03.2020
5964 Fog 6 1039 100 2000 2.1 110 08:40 24.03.2020
5965 Fog 6 1039 100 2000 2.1 110 08:21 24.03.2020
5966 Fog 6 1039 93 3000 3.6 70 07:51 24.03.2020
5967 Fog 6 1039 93 3000 3.6 70 07:25 24.03.2020
5968 Fog 6 1040 93 4000 4.6 80 06:59 24.03.2020
5969 Clouds 4 1019 84 0 2.33 28 06:33 24.03.2020
5970 Fog 6 1040 93 4000 2.6 80 05:30 24.03.2020
5971 Clouds 6 1041 93 10000 2.6 70 04:41 24.03.2020
5972 Clouds 6 1041 93 10000 2.6 80 03:19 24.03.2020
5973 Clouds 9 1040 81 10000 3.1 90 01:50 24.03.2020
5974 Clouds 10 1039 71 10000 4.1 120 00:51 24.03.2020
5975 Clouds 10 1039 71 10000 4.1 120 00:26 24.03.2020
5976 Clouds 12 1038 66 10000 5.1 110 23:49 23.03.2020
5977 Clouds 12 1038 66 10000 5.1 110 23:29 23.03.2020
5978 Clouds 13 1038 58 10000 4.6 120 22:58 23.03.2020
5979 Clouds 13 1038 58 10000 4.6 120 22:39 23.03.2020
5980 Clouds 13 1038 58 10000 4.6 120 22:21 23.03.2020
5981 Clouds 14 1038 50 10000 4.6 100 21:44 23.03.2020
5982 Clouds 14 1038 50 10000 4.6 100 21:21 23.03.2020
5983 Clouds 16 1038 44 10000 4.1 90 20:58 23.03.2020
5984 Clouds 16 1038 44 10000 4.1 90 20:58 23.03.2020
5985 Clouds 16 1038 44 10000 4.1 90 20:40 23.03.2020
5986 Clouds 16 1038 44 10000 4.1 90 20:22 23.03.2020
5987 Clouds 16 1040 44 10000 5.1 100 19:54 23.03.2020
5988 Clouds 16 1040 44 10000 5.1 100 19:36 23.03.2020
5989 Clouds 16 1040 44 10000 5.1 100 19:18 23.03.2020
5990 Clouds 16 1041 44 10000 5.7 90 18:42 23.03.2020
5991 Clouds 15 1041 47 10000 5.7 80 18:23 23.03.2020
5992 Clouds 15 1041 47 10000 5.7 80 17:56 23.03.2020
5993 Clouds 15 1041 47 10000 5.7 80 17:56 23.03.2020
5994 Clouds 15 1041 47 10000 5.7 80 17:38 23.03.2020
5995 Rain 9 1021 70 0 2.7 60 17:18 23.03.2020
5996 Rain 9 1021 70 0 2.7 60 16:43 23.03.2020
5997 Clouds 11 1042 71 10000 3.6 140 16:25 23.03.2020
5998 Clouds 11 1042 71 10000 3.6 140 15:43 23.03.2020
5999 Clouds 11 1042 71 10000 3.6 140 15:21 23.03.2020
6000 Clouds 9 1042 76 6000 2.1 100 14:57 23.03.2020
6001 Clouds 9 1042 76 6000 2.1 100 14:37 23.03.2020
6002 Clouds 9 1042 76 6000 2.1 100 14:18 23.03.2020
6003 Fog 5 1041 100 4000 1 0 13:41 23.03.2020
6004 Fog 5 1041 100 4000 1 0 13:22 23.03.2020
6005 Fog 4 1040 100 3000 1 0 12:58 23.03.2020
6006 Fog 4 1040 100 3000 1 0 12:58 23.03.2020
6007 Fog 4 1040 100 3000 1 0 12:40 23.03.2020
6008 Fog 4 1040 100 3000 1 0 12:21 23.03.2020
6009 Mist 4 1039 100 1500 1 0 11:42 23.03.2020
6010 Mist 4 1039 100 1500 1 0 11:42 23.03.2020
6011 Mist 4 1039 100 1500 1 0 11:21 23.03.2020
6012 Fog 3 1038 93 4000 1 0 10:58 23.03.2020
6013 Fog 3 1038 93 4000 1 0 10:39 23.03.2020
6014 Fog 3 1038 93 4000 1 0 10:21 23.03.2020
6015 Fog 4 1038 93 4000 2.76 47 09:48 23.03.2020
6016 Fog 4 1038 93 4000 2.76 47 09:21 23.03.2020
6017 Fog 4 1038 93 4000 2.76 47 09:21 23.03.2020
6018 Fog 3 1038 93 4000 1.5 90 08:58 23.03.2020
6019 Fog 3 1038 93 4000 1.5 90 08:37 23.03.2020
6020 Fog 3 1038 93 4000 1.5 90 08:19 23.03.2020
6021 Fog 5 1039 100 4000 2.6 80 07:47 23.03.2020
6022 Fog 5 1039 100 4000 2.6 80 07:29 23.03.2020
6023 Fog 7 1040 93 4000 3.6 100 06:52 23.03.2020
6024 Fog 7 1040 93 4000 3.1 90 05:55 23.03.2020
6025 Fog 7 1040 93 4000 3.1 90 05:29 23.03.2020
6026 Fog 7 1039 93 4000 3.6 80 03:41 23.03.2020
6027 Clouds 8 1038 87 10000 3.1 90 02:29 23.03.2020
6028 Clouds 9 1037 87 10000 4.1 100 01:34 23.03.2020
6029 Clouds 10 1037 66 10000 4.1 80 00:40 23.03.2020
6030 Clouds 11 1036 71 10000 2.6 40 23:53 22.03.2020
6031 Clouds 11 1036 71 10000 2.6 40 23:26 22.03.2020
6032 Clouds 11 1036 71 10000 2.6 40 23:26 22.03.2020
6033 Thunderstorm 11 1036 76 10000 3.6 50 22:47 22.03.2020
6034 Thunderstorm 11 1036 76 10000 3.6 50 22:26 22.03.2020
6035 Thunderstorm 14 1035 58 10000 3.6 120 21:57 22.03.2020
6036 Thunderstorm 14 1035 58 10000 3.6 120 21:57 22.03.2020
6037 Thunderstorm 14 1035 58 10000 3.6 120 21:39 22.03.2020
6038 Thunderstorm 14 1035 58 10000 3.6 120 21:20 22.03.2020
6039 Clouds 14 1036 62 10000 4.1 130 20:54 22.03.2020
6040 Clouds 14 1036 62 10000 4.1 130 20:36 22.03.2020
6041 Clouds 14 1036 62 10000 4.1 130 20:18 22.03.2020
6042 Thunderstorm 15 1037 54 10000 5.1 120 19:54 22.03.2020
6043 Thunderstorm 15 1037 54 10000 5.1 120 19:36 22.03.2020
6044 Thunderstorm 15 1037 54 10000 5.1 120 19:18 22.03.2020
6045 Thunderstorm 15 1037 54 10000 5.1 120 18:41 22.03.2020
6046 Thunderstorm 15 1037 54 10000 5.1 120 18:22 22.03.2020
6047 Thunderstorm 15 1037 54 10000 5.1 120 18:22 22.03.2020
6048 Clouds 14 1038 58 10000 4.6 130 17:59 22.03.2020
6049 Clouds 14 1038 58 10000 4.6 130 17:39 22.03.2020
6050 Clouds 14 1038 58 10000 4.6 130 17:39 22.03.2020
6051 Clouds 13 1039 62 10000 4.1 100 17:21 22.03.2020
6052 Clouds 13 1039 62 10000 4.1 100 16:58 22.03.2020
6053 Clouds 13 1039 62 10000 4.1 100 16:40 22.03.2020
6054 Clouds 13 1039 62 10000 4.1 100 16:21 22.03.2020
6055 Clouds 10 1039 71 10000 3.6 130 15:57 22.03.2020
6056 Clouds 10 1039 71 10000 3.6 130 15:39 22.03.2020
6057 Clouds 9 1038 76 10000 3.1 110 14:47 22.03.2020
6058 Clouds 9 1038 76 10000 3.1 110 14:19 22.03.2020
6059 Clouds 7 1038 87 6000 1 0 13:56 22.03.2020
6060 Clouds 7 1038 87 6000 1 0 13:37 22.03.2020
6061 Clouds 7 1038 87 6000 1 0 13:19 22.03.2020
6062 Fog 5 1037 93 4000 2.1 70 12:43 22.03.2020
6063 Fog 5 1037 93 4000 2.1 70 12:20 22.03.2020
6064 Fog 7 1036 93 4000 2.1 80 11:56 22.03.2020
6065 Fog 7 1036 93 4000 2.1 80 11:37 22.03.2020
6066 Fog 7 1036 93 4000 2.1 80 11:19 22.03.2020
6067 Fog 7 1036 87 4000 2.1 70 10:43 22.03.2020
6068 Fog 7 1036 87 4000 2.1 70 10:23 22.03.2020
6069 Fog 6 1035 93 4000 3.6 90 09:48 22.03.2020
6070 Fog 6 1035 93 4000 3.6 90 09:29 22.03.2020
6071 Fog 6 1035 100 4000 3.6 80 08:54 22.03.2020
6072 Fog 6 1035 100 4000 3.6 80 08:54 22.03.2020
6073 Rain 5 1016 97 0 1.24 111 08:36 22.03.2020
6074 Fog 7 1036 93 4000 4.1 80 08:18 22.03.2020
6075 Fog 7 1036 93 4000 4.1 80 07:41 22.03.2020
6076 Fog 7 1036 93 3000 3.6 80 07:18 22.03.2020
6077 Fog 7 1037 100 3000 3.6 90 05:54 22.03.2020
6078 Fog 8 1037 93 2500 4.1 90 04:39 22.03.2020
6079 Clouds 9 1036 81 10000 4.1 50 02:34 22.03.2020
6080 Clouds 9 1036 76 10000 1 0 01:19 22.03.2020
6081 Clouds 9 1035 76 10000 3.1 240 00:34 22.03.2020
6082 Thunderstorm 10 1034 66 10000 3.6 290 23:47 21.03.2020
6083 Clouds 12 1034 58 10000 3.1 60 23:23 21.03.2020
6084 Clouds 12 1034 58 10000 3.1 60 22:59 21.03.2020
6085 Clouds 12 1034 58 10000 3.1 60 22:38 21.03.2020
6086 Clouds 12 1034 58 10000 3.1 60 22:20 21.03.2020
6087 Clouds 13 1034 58 10000 5.1 70 21:58 21.03.2020
6088 Clouds 13 1034 58 10000 5.1 70 21:38 21.03.2020
6089 Clouds 13 1034 58 10000 5.1 70 21:20 21.03.2020
6090 Clouds 14 1034 58 10000 6.2 90 20:43 21.03.2020
6091 Clouds 14 1034 58 10000 6.2 90 20:22 21.03.2020
6092 Clouds 13 1035 62 10000 6.2 100 19:55 21.03.2020
6093 Clouds 13 1035 62 10000 6.2 100 19:37 21.03.2020
6094 Clouds 13 1035 62 10000 6.2 100 19:18 21.03.2020
6095 Clouds 11 1036 71 10000 6.2 110 18:41 21.03.2020
6096 Clouds 11 1036 71 10000 6.2 110 18:21 21.03.2020
6097 Clouds 11 1036 71 10000 6.2 110 17:59 21.03.2020
6098 Clouds 11 1037 71 10000 6.2 110 17:41 21.03.2020
6099 Clouds 11 1037 71 10000 6.2 110 17:22 21.03.2020
6100 Clouds 9 1037 76 10000 5.1 130 16:42 21.03.2020
6101 Clouds 9 1037 76 10000 5.1 130 16:24 21.03.2020
6102 Clouds 8 1038 81 6000 4.1 130 15:59 21.03.2020
6103 Clouds 8 1038 81 6000 4.1 130 15:40 21.03.2020
6104 Clouds 8 1038 81 6000 4.1 130 15:22 21.03.2020
6105 Clouds 7 1037 87 6000 4.1 120 14:57 21.03.2020
6106 Clouds 7 1037 87 6000 4.1 120 14:38 21.03.2020
6107 Clouds 7 1037 87 6000 4.1 120 14:38 21.03.2020
6108 Clouds 7 1037 87 6000 4.1 120 14:19 21.03.2020
6109 Fog 6 1036 93 4000 2.6 120 13:58 21.03.2020
6110 Fog 6 1036 93 4000 2.6 120 13:39 21.03.2020
6111 Fog 6 1036 93 4000 2.6 120 13:21 21.03.2020
6112 Fog 6 1035 93 4000 2.1 110 12:55 21.03.2020
6113 Fog 6 1035 93 4000 2.1 110 12:36 21.03.2020
6114 Fog 6 1035 93 4000 2.6 120 12:18 21.03.2020
6115 Fog 6 1035 93 4000 2.6 120 11:55 21.03.2020
6116 Fog 6 1035 93 4000 2.6 120 11:37 21.03.2020
6117 Fog 6 1034 93 4000 2.6 80 11:18 21.03.2020
6118 Fog 6 1034 93 4000 2.6 80 10:55 21.03.2020
6119 Fog 6 1034 93 4000 2.6 80 10:37 21.03.2020
6120 Fog 6 1034 93 4000 2.6 80 10:18 21.03.2020
6121 Fog 6 1035 93 4000 3.1 100 09:40 21.03.2020
6122 Fog 6 1035 93 4000 3.1 100 09:21 21.03.2020
6123 Fog 6 1035 93 4000 2.6 120 08:56 21.03.2020
6124 Fog 6 1035 93 4000 2.6 120 08:38 21.03.2020
6125 Fog 6 1035 93 4000 2.6 120 08:20 21.03.2020
6126 Fog 6 1035 93 4000 2.1 110 07:39 21.03.2020
6127 Fog 6 1035 93 4000 2.1 110 07:20 21.03.2020
6128 Fog 6 1035 93 4000 2.1 110 07:20 21.03.2020
6129 Clouds 6 1036 93 10000 2.1 80 06:45 21.03.2020
6130 Clouds 6 1036 93 10000 2.1 80 06:25 21.03.2020
6131 Clouds 6 1037 93 10000 2.6 80 05:41 21.03.2020
6132 Rain 6 1037 93 8000 3.6 60 04:34 21.03.2020
6133 Clouds 6 1037 100 10000 3.1 270 02:37 21.03.2020
6134 Clouds 7 1036 87 10000 5.1 220 01:49 21.03.2020
6135 Clouds 7 1036 87 10000 5.1 220 01:26 21.03.2020
6136 Clouds 9 1035 81 8000 4.6 150 00:43 21.03.2020
6137 Clouds 9 1034 81 10000 2.6 70 00:23 21.03.2020
6138 Clouds 9 1034 81 10000 2.6 70 23:44 20.03.2020
6139 Clouds 9 1034 81 10000 2.6 70 23:22 20.03.2020
6140 Clouds 10 1034 76 10000 4.1 70 22:44 20.03.2020
6141 Clouds 10 1034 76 10000 4.1 70 22:44 20.03.2020
6142 Clouds 10 1034 76 10000 4.1 70 22:25 20.03.2020
6143 Clouds 11 1034 62 10000 1 0 21:59 20.03.2020
6144 Clouds 11 1034 62 10000 1 0 21:40 20.03.2020
6145 Clouds 11 1034 62 10000 1 0 21:20 20.03.2020
6146 Clouds 11 1035 62 10000 4.6 10 20:59 20.03.2020
6147 Clouds 11 1035 62 10000 4.6 10 20:41 20.03.2020
6148 Clouds 11 1035 62 10000 4.6 10 20:20 20.03.2020
6149 Clouds 11 1036 62 10000 4.6 30 19:48 20.03.2020
6150 Clouds 11 1036 62 10000 4.6 30 19:21 20.03.2020
6151 Clouds 13 1037 62 10000 1 0 18:58 20.03.2020
6152 Clouds 13 1037 62 10000 1 0 18:38 20.03.2020
6153 Clouds 12 1037 62 10000 2.1 280 18:20 20.03.2020
6154 Clouds 12 1037 62 10000 2.1 280 18:20 20.03.2020
6155 Clouds 12 1037 62 10000 2.1 280 17:56 20.03.2020
6156 Clouds 12 1037 62 10000 2.1 280 17:37 20.03.2020
6157 Clouds 10 1038 76 10000 1 0 17:19 20.03.2020
6158 Clouds 10 1038 76 10000 1 0 16:41 20.03.2020
6159 Clouds 10 1038 76 10000 1 0 16:21 20.03.2020
6160 Clouds 9 1038 87 6000 2.1 150 15:45 20.03.2020
6161 Clouds 9 1038 87 6000 2.1 150 15:23 20.03.2020
6162 Clouds 8 1038 87 6000 1 0 14:59 20.03.2020
6163 Clouds 8 1038 87 6000 1 0 14:59 20.03.2020
6164 Clouds 8 1038 87 6000 1 0 14:41 20.03.2020
6165 Clouds 8 1038 87 6000 1 0 14:20 20.03.2020
6166 Clouds 7 1037 93 10000 1 0 13:48 20.03.2020
6167 Clouds 7 1037 93 10000 1 0 13:24 20.03.2020
6168 Clouds 7 1037 93 10000 1 0 13:24 20.03.2020
6169 Clouds 5 1037 100 10000 1.5 80 12:58 20.03.2020
6170 Clouds 5 1037 100 10000 1.5 80 12:38 20.03.2020
6171 Clouds 5 1037 100 10000 1.5 80 12:19 20.03.2020
6172 Clouds 5 1036 93 10000 1.5 40 11:39 20.03.2020
6173 Clouds 5 1036 100 10000 1 0 11:20 20.03.2020
6174 Clouds 5 1036 100 10000 1 0 10:54 20.03.2020
6175 Clouds 5 1036 100 10000 1 0 10:36 20.03.2020
6176 Clouds 5 1036 100 10000 1 0 10:18 20.03.2020
6177 Clouds 4 1036 100 10000 1 0 09:44 20.03.2020
6178 Clouds 4 1036 100 10000 1 0 09:20 20.03.2020
6179 Clouds 3 1037 100 10000 1 0 08:43 20.03.2020
6180 Clouds 3 1037 100 10000 1 0 08:23 20.03.2020
6181 Clouds 4 1037 93 10000 1 0 07:57 20.03.2020
6182 Clouds 4 1037 93 10000 1 0 07:38 20.03.2020
6183 Clouds 4 1037 93 10000 1 0 07:19 20.03.2020
6184 Clouds 5 1038 93 10000 1 0 06:42 20.03.2020
6185 Clouds 6 1039 93 10000 2.6 40 05:57 20.03.2020
6186 Clouds 7 1039 87 10000 1.5 340 04:27 20.03.2020
6187 Thunderstorm 7 1039 87 8000 3.1 220 02:43 20.03.2020
6188 Clouds 8 1037 93 10000 3.1 110 01:50 20.03.2020
6189 Clouds 9 1036 87 10000 3.6 110 00:38 20.03.2020
6190 Clouds 9 1036 87 10000 3.6 110 23:55 19.03.2020
6191 Clouds 10 1036 81 10000 2.6 110 23:36 19.03.2020
6192 Clouds 12 1035 76 10000 2.1 180 23:18 19.03.2020
6193 Clouds 12 1035 76 10000 2.1 180 22:38 19.03.2020
6194 Clouds 12 1035 76 10000 2.1 180 22:20 19.03.2020
6195 Clouds 13 1035 58 10000 1 0 21:56 19.03.2020
6196 Clouds 13 1035 58 10000 1 0 21:37 19.03.2020
6197 Clouds 13 1035 58 10000 1 0 21:18 19.03.2020
6198 Rain 10 1037 71 10000 1 0 20:42 19.03.2020
6199 Rain 10 1037 71 10000 1 0 20:23 19.03.2020
6200 Thunderstorm 12 1037 76 10000 5.1 100 19:57 19.03.2020
6201 Thunderstorm 12 1037 76 10000 5.1 100 19:38 19.03.2020
6202 Thunderstorm 12 1037 76 10000 5.1 100 19:19 19.03.2020
6203 Rain 12 1038 76 10000 2.1 110 18:56 19.03.2020
6204 Rain 12 1038 76 10000 2.1 110 18:38 19.03.2020
6205 Rain 12 1038 76 10000 2.1 110 18:19 19.03.2020
6206 Clouds 13 1039 66 10000 3.1 90 17:41 19.03.2020
6207 Clouds 13 1040 71 10000 2.1 80 17:19 19.03.2020
6208 Clouds 13 1040 71 10000 2.1 80 16:45 19.03.2020
6209 Clouds 13 1040 71 10000 2.1 80 16:24 19.03.2020
6210 Clouds 12 1040 66 10000 2.1 100 15:54 19.03.2020
6211 Clouds 12 1040 66 10000 2.1 100 15:36 19.03.2020
6212 Clouds 10 1040 81 10000 3.6 110 15:18 19.03.2020
6213 Clouds 10 1040 81 10000 3.6 110 14:42 19.03.2020
6214 Clouds 10 1040 81 10000 3.6 110 14:21 19.03.2020
6215 Fog 7 1040 93 4000 1.5 70 13:41 19.03.2020
6216 Clouds 5 1039 100 10000 1 0 13:19 19.03.2020
6217 Clouds 5 1039 100 10000 1 0 12:57 19.03.2020
6218 Clouds 5 1039 100 10000 1 0 12:39 19.03.2020
6219 -273 0 0 0 0 0 12:20 19.03.2020
6220 Clouds 4 1038 100 10000 0.77 77 11:42 19.03.2020
6221 Clouds 6 1038 87 10000 2.6 50 11:23 19.03.2020
6222 Clouds 6 1038 87 10000 2.6 50 10:57 19.03.2020
6223 Clouds 6 1038 87 10000 2.6 50 10:37 19.03.2020
6224 Clouds 6 1038 87 10000 2.6 50 10:18 19.03.2020
6225 Fog 6 1038 100 4000 3.6 80 09:44 19.03.2020
6226 Fog 6 1038 100 4000 3.6 80 09:26 19.03.2020
6227 Clouds 6 1038 100 10000 0.34 59 08:57 19.03.2020
6228 Clouds 6 1038 100 10000 0.34 59 08:38 19.03.2020
6229 Clouds 6 1038 100 10000 2.01 27 08:18 19.03.2020
6230 Thunderstorm 6 1039 100 7000 3.1 210 07:43 19.03.2020
6231 Thunderstorm 6 1039 100 7000 3.1 210 07:22 19.03.2020
6232 Fog 8 1039 93 3000 1 0 06:29 19.03.2020
6233 Fog 7 1040 100 4000 1 0 05:25 19.03.2020
6234 Fog 6 1039 100 3000 2.1 60 04:51 19.03.2020
6235 Fog 6 1039 100 3000 2.1 60 04:22 19.03.2020
6236 Clouds 7 1038 93 10000 2.6 90 02:33 19.03.2020
6237 Clouds 9 1036 81 10000 1 0 00:53 19.03.2020
6238 Clouds 11 1036 66 10000 1 0 00:20 19.03.2020
6239 Clouds 11 1036 66 10000 1 0 23:44 18.03.2020
6240 Clouds 11 1036 66 10000 1 0 23:26 18.03.2020
6241 Clouds 11 1036 66 10000 2.6 50 22:43 18.03.2020
6242 Clouds 11 1036 66 10000 2.6 50 22:23 18.03.2020
6243 Clouds 10 1037 71 10000 1 0 21:58 18.03.2020
6244 Clouds 10 1037 71 10000 1 0 21:40 18.03.2020
6245 Clouds 10 1037 71 10000 1 0 21:20 18.03.2020
6246 Clouds 9 1038 81 8000 3.1 290 20:55 18.03.2020
6247 Clouds 9 1038 81 8000 3.1 290 20:37 18.03.2020
6248 Clouds 9 1038 81 8000 3.1 290 20:19 18.03.2020
6249 Thunderstorm 11 1038 66 10000 3.6 70 19:41 18.03.2020
6250 Thunderstorm 11 1038 66 10000 3.6 70 19:21 18.03.2020
6251 Thunderstorm 11 1038 66 10000 3.6 70 19:21 18.03.2020
6252 Clouds 13 1038 62 10000 3.1 100 18:58 18.03.2020
6253 Clouds 13 1038 62 10000 3.1 100 18:58 18.03.2020
6254 Clouds 13 1038 62 10000 3.1 100 18:39 18.03.2020
6255 Clouds 13 1038 62 10000 3.1 100 18:19 18.03.2020
6256 Clouds 13 1038 62 10000 3.1 100 18:19 18.03.2020
6257 Clouds 13 1038 62 10000 3.1 100 17:55 18.03.2020
6258 Clouds 14 1039 58 10000 3.1 120 17:37 18.03.2020
6259 Clouds 12 1040 66 10000 4.1 90 17:19 18.03.2020
6260 Clouds 12 1040 66 10000 4.1 90 16:42 18.03.2020
6261 Clouds 12 1040 66 10000 4.1 90 16:21 18.03.2020
6262 Clouds 10 1040 76 6000 3.1 150 15:57 18.03.2020
6263 Clouds 10 1040 76 6000 3.1 150 15:38 18.03.2020
6264 Clouds 10 1040 76 6000 3.1 150 15:20 18.03.2020
6265 Fog 9 1039 87 4000 2.6 100 14:42 18.03.2020
6266 Fog 9 1039 87 4000 2.6 100 14:21 18.03.2020
6267 Fog 7 1038 93 4000 2.1 60 13:42 18.03.2020
6268 Fog 7 1038 93 4000 2.1 60 13:19 18.03.2020
6269 Fog 6 1038 100 3000 3.1 70 12:55 18.03.2020
6270 Fog 6 1038 100 3000 3.1 70 12:37 18.03.2020
6271 Fog 6 1038 93 4000 2.1 70 12:18 18.03.2020
6272 Fog 6 1038 93 4000 2.1 70 11:38 18.03.2020
6273 Fog 7 1037 93 4000 3.1 100 11:19 18.03.2020
6274 Fog 7 1037 93 4000 3.1 100 10:57 18.03.2020
6275 Fog 7 1037 93 4000 3.1 100 10:37 18.03.2020
6276 Fog 7 1037 93 4000 3.1 100 10:19 18.03.2020
6277 Fog 7 1037 87 4000 3.1 120 09:42 18.03.2020
6278 Fog 7 1037 87 4000 3.1 120 09:23 18.03.2020
6279 Fog 7 1037 93 4000 3.1 110 08:55 18.03.2020
6280 Fog 7 1037 93 4000 3.1 110 08:37 18.03.2020
6281 Fog 7 1037 93 4000 3.1 110 08:19 18.03.2020
6282 Fog 7 1038 93 4000 2.1 110 07:41 18.03.2020
6283 Fog 7 1038 93 4000 2.1 110 07:23 18.03.2020
6284 Fog 8 1038 87 4000 2.1 200 06:43 18.03.2020
6285 Clouds 4 1018 86 0 1.71 42 05:53 18.03.2020
6286 Fog 8 1039 100 4000 2.6 80 05:19 18.03.2020
6287 Fog 8 1038 93 4000 1.5 60 03:53 18.03.2020
6288 Fog 8 1038 100 4000 2.1 70 02:37 18.03.2020
6289 Clouds 8 1037 87 10000 2.1 110 01:46 18.03.2020
6290 Clouds 9 1036 81 10000 2.1 100 01:20 18.03.2020
6291 Clouds 9 1036 81 10000 2.1 100 00:23 18.03.2020
6292 Clouds 10 1036 76 10000 3.1 110 23:43 17.03.2020
6293 Clouds 12 1036 62 10000 2.6 40 23:23 17.03.2020
6294 Clouds 12 1036 62 10000 2.6 40 22:47 17.03.2020
6295 Clouds 12 1036 62 10000 2.6 40 22:28 17.03.2020
6296 Clouds 12 1036 62 10000 3.6 310 21:57 17.03.2020
6297 Clouds 12 1036 62 10000 3.6 310 21:37 17.03.2020
6298 Clouds 12 1036 62 10000 3.6 310 21:19 17.03.2020
6299 Clouds 13 1036 58 10000 3.6 360 20:38 17.03.2020
6300 Clouds 13 1036 58 10000 3.6 360 20:20 17.03.2020
6301 Clouds 13 1037 62 10000 5.1 80 19:42 17.03.2020
6302 Clouds 13 1038 66 10000 4.6 80 19:22 17.03.2020
6303 Clouds 13 1038 66 10000 4.6 80 18:59 17.03.2020
6304 Clouds 13 1038 66 10000 4.6 80 18:40 17.03.2020
6305 Clouds 13 1038 66 10000 4.6 80 18:22 17.03.2020
6306 Clouds 13 1039 66 10000 4.1 80 17:59 17.03.2020
6307 Clouds 13 1039 66 10000 4.1 80 17:39 17.03.2020
6308 Clouds 13 1039 66 10000 4.1 80 17:20 17.03.2020
6309 Clouds 12 1039 71 8000 3.6 70 16:43 17.03.2020
6310 Clouds 12 1039 71 8000 3.6 70 16:19 17.03.2020
6311 Clouds 10 1039 71 6000 3.1 100 15:48 17.03.2020
6312 Clouds 10 1039 71 6000 3.1 100 15:23 17.03.2020
6313 Clouds 8 1039 87 6000 2.1 100 14:49 17.03.2020
6314 Clouds 8 1039 87 6000 2.1 100 14:31 17.03.2020
6315 Clouds 6 1038 93 6000 3.1 70 13:59 17.03.2020
6316 Clouds 6 1038 93 6000 3.1 70 13:41 17.03.2020
6317 Clouds 6 1038 93 6000 3.1 70 13:22 17.03.2020
6318 Fog 6 1037 93 4000 3.1 110 12:47 17.03.2020
6319 Fog 6 1037 93 4000 3.1 110 12:25 17.03.2020
6320 Fog 7 1037 87 4000 4.1 90 11:57 17.03.2020
6321 Fog 7 1037 87 4000 4.1 90 11:39 17.03.2020
6322 Fog 6 1036 93 4000 2.6 80 11:20 17.03.2020
6323 Fog 6 1036 93 4000 2.6 80 10:54 17.03.2020
6324 Fog 6 1036 93 4000 2.6 80 10:36 17.03.2020
6325 Fog 6 1036 93 4000 2.6 80 10:18 17.03.2020
6326 Fog 6 1036 93 4000 2.6 70 09:44 17.03.2020
6327 Fog 6 1036 93 4000 2.6 70 09:20 17.03.2020
6328 Clouds 6 1037 93 10000 1 0 08:51 17.03.2020
6329 Clouds 6 1037 93 10000 1 0 08:24 17.03.2020
6330 Clouds 6 1038 87 10000 2.1 100 07:58 17.03.2020
6331 Clouds 6 1038 87 10000 2.1 100 07:40 17.03.2020
6332 Clouds 6 1038 87 10000 2.1 100 07:19 17.03.2020
6333 Clouds 6 1039 93 10000 2.6 120 06:41 17.03.2020
6334 Clouds 6 1039 93 10000 1 0 06:19 17.03.2020
6335 Rain 6 1040 93 10000 4.1 210 04:51 17.03.2020
6336 Clouds 6 1040 87 10000 5.7 230 03:26 17.03.2020
6337 Fog 8 1037 93 4000 2.6 110 01:49 17.03.2020
6338 Fog 8 1037 93 4000 2.6 110 01:29 17.03.2020
6339 Clouds 9 1036 87 10000 3.1 90 00:50 17.03.2020
6340 Clouds 10 1035 76 10000 3.6 90 23:51 16.03.2020
6341 Clouds 10 1035 76 10000 3.6 90 23:33 16.03.2020
6342 Clouds 12 1035 71 10000 5.1 100 22:45 16.03.2020
6343 Clouds 12 1035 71 10000 5.1 100 22:45 16.03.2020
6344 Clouds 12 1035 71 10000 5.1 100 22:26 16.03.2020
6345 Clouds 13 1036 58 10000 2.1 360 21:59 16.03.2020
6346 Clouds 13 1036 58 10000 2.1 360 21:41 16.03.2020
6347 Clouds 13 1036 58 10000 2.1 360 21:23 16.03.2020
6348 Clouds 11 1036 62 10000 2.6 10 20:57 16.03.2020
6349 Clouds 11 1036 62 10000 2.6 10 20:38 16.03.2020
6350 Clouds 11 1036 62 10000 2.6 10 20:19 16.03.2020
6351 Rain 7 1037 93 9000 2.1 20 19:42 16.03.2020
6352 Rain 7 1037 93 9000 2.1 20 19:22 16.03.2020
6353 Thunderstorm 6 1038 87 6000 5.7 360 18:56 16.03.2020
6354 Thunderstorm 6 1038 87 6000 5.7 360 18:37 16.03.2020
6355 Thunderstorm 10 1038 87 10000 4.1 80 18:18 16.03.2020
6356 Clouds 11 1038 71 10000 5.1 120 17:42 16.03.2020
6357 Clouds 11 1038 71 10000 5.1 120 17:22 16.03.2020
6358 Clouds 13 1039 58 10000 2.1 240 16:46 16.03.2020
6359 Clouds 13 1039 58 10000 2.1 240 16:27 16.03.2020
6360 Clouds 12 1039 66 10000 2.1 90 15:56 16.03.2020
6361 Clouds 12 1039 66 10000 2.1 90 15:37 16.03.2020
6362 Clouds 12 1039 66 10000 2.1 90 15:18 16.03.2020
6363 Clouds 9 1039 81 6000 3.6 90 14:39 16.03.2020
6364 Clouds 9 1039 81 6000 3.6 90 14:19 16.03.2020
6365 Fog 7 1039 93 4000 3.1 80 13:41 16.03.2020
6366 Fog 7 1039 93 4000 3.1 80 13:22 16.03.2020
6367 Fog 6 1038 100 2500 3.1 80 12:45 16.03.2020
6368 Fog 6 1038 100 2500 3.1 80 12:26 16.03.2020
6369 Fog 7 1038 93 4000 3.1 70 11:56 16.03.2020
6370 Fog 7 1038 93 4000 3.1 70 11:37 16.03.2020
6371 Fog 7 1038 93 4000 1 0 11:18 16.03.2020
6372 Fog 7 1038 93 4000 1 0 10:40 16.03.2020
6373 Fog 7 1038 93 4000 1 0 10:19 16.03.2020
6374 Fog 7 1038 93 4000 1 0 09:42 16.03.2020
6375 Fog 7 1038 93 4000 1 0 09:24 16.03.2020
6376 Mist 7 1038 93 4000 3.6 180 08:53 16.03.2020
6377 Mist 7 1038 93 4000 3.6 180 08:25 16.03.2020
6378 Fog 8 1039 93 4000 1 0 07:49 16.03.2020
6379 Fog 8 1039 93 4000 1 0 07:25 16.03.2020
6380 Fog 8 1039 93 4000 3.1 120 06:54 16.03.2020
6381 Fog 8 1039 93 4000 3.1 120 06:25 16.03.2020
6382 Fog 8 1040 100 4000 3.6 80 04:55 16.03.2020
6383 Clouds 6 1038 93 10000 1.5 110 02:42 16.03.2020
6384 Clouds 9 1037 87 10000 2.1 70 00:52 16.03.2020
6385 Clouds 9 1037 87 10000 2.1 70 00:33 16.03.2020
6386 Clouds 11 1036 71 10000 1 0 23:46 15.03.2020
6387 Clouds 11 1036 71 10000 1 0 23:20 15.03.2020
6388 Clouds 12 1037 62 10000 3.1 240 22:43 15.03.2020
6389 Clouds 12 1037 62 10000 3.1 240 22:23 15.03.2020
6390 Clouds 11 1037 66 10000 2.6 150 21:58 15.03.2020
6391 Clouds 11 1037 66 10000 2.6 150 21:38 15.03.2020
6392 Clouds 11 1037 66 10000 2.6 150 21:18 15.03.2020
6393 Clouds 12 1038 62 8000 4.1 300 20:42 15.03.2020
6394 Clouds 12 1038 62 8000 4.1 300 20:20 15.03.2020
6395 Thunderstorm 11 1038 66 10000 2.1 330 19:58 15.03.2020
6396 Thunderstorm 11 1038 66 10000 2.1 330 19:38 15.03.2020
6397 Thunderstorm 11 1038 66 10000 2.1 330 19:19 15.03.2020
6398 Clouds 13 1040 62 10000 2.6 100 18:55 15.03.2020
6399 Clouds 13 1040 62 10000 2.6 100 18:37 15.03.2020
6400 Clouds 13 1040 62 10000 2.6 100 18:19 15.03.2020
6401 Clouds 12 1041 71 10000 2.6 110 17:41 15.03.2020
6402 Clouds 12 1041 71 10000 2.6 110 17:21 15.03.2020
6403 Clouds 11 1041 71 10000 3.1 120 16:58 15.03.2020
6404 Clouds 11 1041 71 10000 3.1 120 16:58 15.03.2020
6405 Clouds 11 1041 71 10000 3.1 120 16:38 15.03.2020
6406 Clouds 11 1041 71 10000 3.1 120 16:19 15.03.2020
6407 Clouds 8 1042 87 6000 2.6 130 15:45 15.03.2020
6408 Clouds 8 1042 87 6000 2.6 130 15:27 15.03.2020
6409 Rain 6 1041 100 3000 5.1 130 14:57 15.03.2020
6410 Rain 6 1041 100 3000 5.1 130 14:38 15.03.2020
6411 Rain 6 1041 100 3000 5.1 130 14:18 15.03.2020
6412 Rain 6 1041 100 3000 5.1 130 14:18 15.03.2020
6413 Rain 7 1041 87 2500 2.6 140 13:42 15.03.2020
6414 Fog 8 1041 87 4000 1 0 13:23 15.03.2020
6415 Fog 7 1040 93 4000 2.07 71 12:59 15.03.2020
6416 Fog 7 1040 93 4000 2.07 71 12:39 15.03.2020
6417 Fog 7 1040 93 4000 2.07 71 12:21 15.03.2020
6418 Clouds 7 1040 81 10000 2.07 71 11:43 15.03.2020
6419 Fog 7 1039 87 4000 1 0 11:24 15.03.2020
6420 Fog 7 1039 87 4000 1 0 10:57 15.03.2020
6421 Fog 7 1039 87 4000 1 0 10:38 15.03.2020
6422 Fog 7 1039 87 4000 1 0 10:20 15.03.2020
6423 Fog 8 1038 87 4000 1 0 09:42 15.03.2020
6424 Fog 8 1038 87 4000 1 0 09:22 15.03.2020
6425 Fog 8 1039 93 4000 2.6 100 08:55 15.03.2020
6426 Fog 8 1039 93 4000 2.6 100 08:36 15.03.2020
6427 Fog 8 1039 93 4000 2.6 100 08:18 15.03.2020
6428 Fog 8 1040 87 4000 2.1 140 07:44 15.03.2020
6429 Clouds 8 1040 81 10000 2.6 80 06:54 15.03.2020
6430 Clouds 8 1040 81 10000 2.6 80 06:24 15.03.2020
6431 Clouds 8 1040 70 10000 5.1 10 05:21 15.03.2020
6432 Clouds 9 1040 61 10000 8.2 360 04:43 15.03.2020
6433 Clouds 9 1040 61 10000 8.2 360 04:25 15.03.2020
6434 Clouds 9 1040 87 10000 3.6 90 03:54 15.03.2020
6435 Clouds 9 1039 81 10000 2.6 120 02:44 15.03.2020
6436 Clouds 9 1038 70 10000 1 0 01:35 15.03.2020
6437 Clouds 11 1037 62 10000 3.1 270 00:46 15.03.2020
6438 Clouds 11 1037 62 10000 3.1 270 00:27 15.03.2020
6439 Clouds 14 1037 50 10000 1 0 23:55 14.03.2020
6440 Clouds 14 1037 50 10000 1 0 23:37 14.03.2020
6441 Clouds 14 1037 50 10000 1 0 23:18 14.03.2020
6442 Clouds 14 1037 50 10000 2.6 20 22:42 14.03.2020
6443 Clouds 14 1037 50 10000 2.6 20 22:23 14.03.2020
6444 Clouds 14 1038 47 10000 2.6 50 21:56 14.03.2020
6445 Clouds 14 1038 47 10000 2.6 50 21:36 14.03.2020
6446 Clouds 14 1038 47 10000 2.6 50 21:18 14.03.2020
6447 Rain 12 1039 62 8000 2.6 310 20:58 14.03.2020
6448 Rain 12 1039 62 8000 2.6 310 20:40 14.03.2020
6449 Rain 12 1039 62 8000 2.6 310 20:19 14.03.2020
6450 Rain 10 1040 66 8000 4.6 340 19:43 14.03.2020
6451 Rain 10 1040 66 8000 4.6 340 19:25 14.03.2020
6452 Clouds 13 1040 58 10000 4.1 110 18:42 14.03.2020
6453 Clouds 13 1040 58 10000 4.1 110 18:24 14.03.2020
6454 Clouds 13 1040 58 10000 4.1 110 17:56 14.03.2020
6455 Clouds 12 1041 58 10000 3.6 140 17:38 14.03.2020
6456 Clouds 11 1042 66 10000 1 0 17:20 14.03.2020
6457 Clouds 11 1042 66 10000 1 0 16:41 14.03.2020
6458 Clouds 11 1042 66 10000 1 0 16:23 14.03.2020
6459 Clouds 10 1042 66 10000 2.1 130 15:56 14.03.2020
6460 Clouds 10 1042 66 10000 2.1 130 15:26 14.03.2020
6461 Clouds 9 1042 76 6000 1 0 14:55 14.03.2020
6462 Clouds 9 1042 76 6000 1 0 14:36 14.03.2020
6463 Clouds 9 1042 76 6000 1 0 14:18 14.03.2020
6464 Fog 7 1041 87 4000 1 0 13:42 14.03.2020
6465 Fog 7 1041 87 4000 1 0 13:23 14.03.2020
6466 Fog 6 1040 93 4000 2.1 120 12:47 14.03.2020
6467 Fog 6 1040 93 4000 2.1 120 12:27 14.03.2020
6468 Fog 6 1040 93 4000 2.1 120 11:57 14.03.2020
6469 Fog 6 1040 93 4000 2.6 110 11:38 14.03.2020
6470 Fog 6 1040 87 4000 3.1 20 11:20 14.03.2020
6471 Fog 6 1040 87 4000 3.1 20 11:20 14.03.2020
6472 Fog 6 1040 87 4000 3.1 20 10:45 14.03.2020
6473 Fog 6 1040 87 4000 3.1 20 10:27 14.03.2020
6474 Fog 6 1040 100 4000 2.6 90 09:57 14.03.2020
6475 Fog 6 1040 100 4000 2.6 90 09:39 14.03.2020
6476 Fog 6 1040 100 4000 2.6 90 09:39 14.03.2020
6477 Fog 6 1040 100 4000 2.6 90 09:19 14.03.2020
6478 Fog 6 1040 93 4000 2.1 120 08:42 14.03.2020
6479 Fog 6 1040 93 4000 2.1 120 08:21 14.03.2020
6480 Fog 5 1040 100 4000 2.1 70 07:39 14.03.2020
6481 Fog 5 1040 100 4000 2.1 70 07:20 14.03.2020
6482 Fog 5 1040 93 4000 1 0 06:41 14.03.2020
6483 Clouds 6 1041 93 10000 2.1 260 05:47 14.03.2020
6484 Clouds 6 1041 93 10000 2.1 260 05:47 14.03.2020
6485 Fog 6 1041 100 4000 2.1 90 04:42 14.03.2020
6486 Fog 6 1040 93 4000 2.1 90 03:24 14.03.2020
6487 Clouds 7 1039 87 10000 2.6 80 02:25 14.03.2020
6488 Clouds 10 1037 76 10000 4.6 100 00:57 14.03.2020
6489 Clouds 11 1037 71 10000 5.1 100 23:51 13.03.2020
6490 Clouds 11 1037 71 10000 5.1 100 23:30 13.03.2020
6491 Clouds 13 1036 58 10000 5.1 110 22:52 13.03.2020
6492 Clouds 13 1036 58 10000 5.1 110 22:52 13.03.2020
6493 Clouds 13 1036 58 10000 5.1 110 22:26 13.03.2020
6494 Clouds 15 1037 51 10000 3.6 100 21:44 13.03.2020
6495 Clouds 15 1037 51 10000 5.1 100 21:22 13.03.2020
6496 Clouds 15 1037 51 10000 5.1 100 20:59 13.03.2020
6497 Clouds 15 1037 51 10000 5.1 100 20:41 13.03.2020
6498 Clouds 15 1037 51 10000 5.1 100 20:21 13.03.2020
6499 Clouds 14 1039 54 10000 6.7 90 19:48 13.03.2020
6500 Clouds 14 1039 54 10000 6.7 90 19:30 13.03.2020
6501 Clouds 14 1040 54 10000 6.2 90 18:49 13.03.2020
6502 Clouds 14 1040 54 10000 6.2 90 18:31 13.03.2020
6503 Clouds 14 1040 54 10000 6.2 90 17:57 13.03.2020
6504 Clouds 13 1041 62 10000 7.2 80 17:39 13.03.2020
6505 Clouds 13 1041 62 10000 7.2 80 17:20 13.03.2020
6506 Clouds 12 1041 58 10000 6.2 70 16:42 13.03.2020
6507 Clouds 12 1041 58 10000 6.2 70 16:24 13.03.2020
6508 Clouds 10 1041 71 8000 5.1 100 15:58 13.03.2020
6509 Clouds 10 1041 71 8000 5.1 100 15:38 13.03.2020
6510 Clouds 10 1041 71 8000 5.1 100 15:20 13.03.2020
6511 Clouds 7 1040 87 6000 4.1 100 14:41 13.03.2020
6512 Clouds 7 1040 87 6000 4.1 100 14:22 13.03.2020
6513 Clouds 6 1040 87 6000 4.1 110 13:57 13.03.2020
6514 Clouds 6 1040 87 6000 4.1 110 13:38 13.03.2020
6515 Clouds 6 1040 87 6000 4.1 110 13:19 13.03.2020
6516 Fog 4 1039 93 4000 3.1 70 12:40 13.03.2020
6517 Fog 4 1039 93 4000 3.1 70 12:22 13.03.2020
6518 Fog 4 1039 93 4000 3.1 70 11:59 13.03.2020
6519 Fog 4 1039 100 4000 4.1 100 11:41 13.03.2020
6520 Fog 4 1039 100 4000 4.1 100 11:41 13.03.2020
6521 Fog 5 1038 93 4000 3.1 90 11:22 13.03.2020
6522 Fog 5 1038 93 4000 3.1 90 10:48 13.03.2020
6523 Fog 5 1038 93 4000 3.1 90 10:28 13.03.2020
6524 Fog 5 1038 93 4000 3.1 90 10:28 13.03.2020
6525 Rain 5 1039 93 8000 3.6 80 09:58 13.03.2020
6526 Rain 5 1039 93 8000 3.6 80 09:39 13.03.2020
6527 Rain 5 1039 93 8000 3.6 80 09:20 13.03.2020
6528 Rain 5 1039 93 7000 3.6 70 08:45 13.03.2020
6529 Rain 5 1039 93 7000 3.6 70 08:22 13.03.2020
6530 Rain 6 1039 87 8000 5.1 80 07:49 13.03.2020
6531 Rain 6 1039 87 8000 5.1 80 07:28 13.03.2020
6532 Rain 6 1039 93 8000 5.1 60 06:47 13.03.2020
6533 Rain 6 1039 93 8000 5.1 60 06:28 13.03.2020
6534 Rain 7 1039 93 8000 6.2 60 05:53 13.03.2020
6535 Clouds 6 1039 93 10000 2.6 80 05:20 13.03.2020
6536 Clouds 6 1039 93 10000 2.6 80 04:37 13.03.2020
6537 Clouds 8 1038 65 10000 5.1 60 03:31 13.03.2020
6538 Clouds 9 1036 66 10000 3.6 80 01:45 13.03.2020
6539 Clouds 9 1036 66 10000 3.6 80 01:18 13.03.2020
6540 Clouds 11 1035 53 10000 3.6 80 00:47 13.03.2020
6541 Clouds 11 1035 53 10000 3.6 80 00:23 13.03.2020
6542 Clouds 13 1034 47 10000 5.1 70 23:47 12.03.2020
6543 Clouds 13 1034 47 10000 5.1 70 23:26 12.03.2020
6544 Clouds 15 1034 41 10000 6.2 80 22:55 12.03.2020
6545 Clouds 15 1034 41 10000 6.2 80 22:37 12.03.2020
6546 Clouds 15 1034 41 10000 6.2 80 22:19 12.03.2020
6547 Clouds 14 1035 47 10000 6.2 100 21:42 12.03.2020
6548 Clouds 14 1035 47 10000 6.2 100 21:24 12.03.2020
6549 Clouds 16 1036 48 10000 6.2 90 20:56 12.03.2020
6550 Clouds 16 1036 48 10000 6.2 90 20:37 12.03.2020
6551 Clouds 16 1036 48 10000 6.2 90 20:18 12.03.2020
6552 Clouds 15 1037 51 10000 6.7 120 19:39 12.03.2020
6553 Clouds 15 1037 51 10000 6.7 120 19:20 12.03.2020
6554 Clouds 15 1037 51 10000 6.7 120 19:20 12.03.2020
6555 Clouds 14 1038 50 10000 5.1 120 18:43 12.03.2020
6556 Clouds 14 1038 50 10000 5.1 120 18:23 12.03.2020
6557 Clouds 13 1039 58 10000 4.6 130 17:56 12.03.2020
6558 Clouds 13 1039 58 10000 4.6 130 17:37 12.03.2020
6559 Clouds 11 1039 66 10000 4.6 120 17:18 12.03.2020
6560 Clouds 11 1039 66 10000 4.6 120 16:43 12.03.2020
6561 Clouds 11 1039 66 10000 4.6 120 16:24 12.03.2020
6562 Clouds 10 1039 71 10000 4.1 110 15:59 12.03.2020
6563 Clouds 10 1039 71 10000 4.1 110 15:39 12.03.2020
6564 Clouds 10 1039 71 10000 4.1 110 15:21 12.03.2020
6565 Clouds 9 1038 76 10000 2.6 120 14:38 12.03.2020
6566 Clouds 9 1038 76 10000 2.6 120 14:19 12.03.2020
6567 Clouds 7 1038 81 6000 2.6 110 13:40 12.03.2020
6568 Clouds 7 1038 81 6000 2.6 110 13:22 12.03.2020
6569 Fog 5 1037 93 3000 3.6 130 12:55 12.03.2020
6570 Fog 5 1037 93 3000 3.6 130 12:37 12.03.2020
6571 Fog 6 1036 87 4000 2.6 50 12:18 12.03.2020
6572 Fog 6 1036 87 4000 2.6 50 11:56 12.03.2020
6573 Fog 6 1036 87 4000 2.6 50 11:37 12.03.2020
6574 Fog 6 1036 93 3000 3.6 120 11:19 12.03.2020
6575 Fog 6 1036 93 3000 3.6 120 10:44 12.03.2020
6576 Fog 6 1036 93 3000 3.6 120 10:26 12.03.2020
6577 Fog 6 1036 87 3000 3.1 110 09:59 12.03.2020
6578 Fog 6 1036 87 3000 3.1 110 09:41 12.03.2020
6579 Fog 6 1036 87 3000 3.1 110 09:23 12.03.2020
6580 Fog 6 1036 93 3000 3.1 110 08:39 12.03.2020
6581 Fog 6 1036 93 3000 3.1 110 08:19 12.03.2020
6582 Fog 6 1037 93 4000 3.1 100 07:48 12.03.2020
6583 Fog 6 1037 93 4000 3.1 100 07:23 12.03.2020
6584 Fog 6 1037 93 4000 3.1 100 06:33 12.03.2020
6585 Fog 5 1037 100 2000 3.6 80 05:36 12.03.2020
6586 Fog 6 1037 93 4000 4.6 90 03:45 12.03.2020
6587 Clouds 6 1036 87 10000 3.1 120 02:19 12.03.2020
6588 Clouds 8 1036 81 10000 3.1 100 01:24 12.03.2020
6589 Clouds 9 1034 76 10000 3.1 100 00:42 12.03.2020
6590 Clouds 10 1035 71 10000 2.6 90 23:59 11.03.2020
6591 Clouds 10 1035 71 10000 2.6 90 23:37 11.03.2020
6592 Clouds 11 1034 62 10000 4.1 80 23:18 11.03.2020
6593 Clouds 11 1034 62 10000 4.1 80 22:41 11.03.2020
6594 Clouds 11 1034 62 10000 4.1 80 22:23 11.03.2020
6595 Clouds 10 1035 66 10000 4.6 110 21:58 11.03.2020
6596 Clouds 10 1035 66 10000 4.6 110 21:39 11.03.2020
6597 Clouds 10 1035 66 10000 4.6 110 21:21 11.03.2020
6598 Rain 8 1036 75 8000 4.6 360 20:56 11.03.2020
6599 Rain 8 1036 75 8000 4.6 360 20:37 11.03.2020
6600 Rain 8 1036 75 8000 4.6 360 20:19 11.03.2020
6601 Clouds 11 1037 62 10000 3.1 220 19:42 11.03.2020
6602 Clouds 11 1037 62 10000 3.1 220 19:24 11.03.2020
6603 Clouds 12 1038 54 10000 1 0 18:57 11.03.2020
6604 Clouds 12 1038 54 10000 1 0 18:37 11.03.2020
6605 Clouds 12 1038 54 10000 1 0 18:18 11.03.2020
6606 Clouds 11 1038 66 10000 1 0 17:54 11.03.2020
6607 Clouds 11 1038 66 10000 1 0 17:36 11.03.2020
6608 Clouds 10 1039 71 10000 1 0 17:18 11.03.2020
6609 Clouds 10 1039 71 10000 1 0 16:41 11.03.2020
6610 Clouds 10 1039 71 10000 1 0 16:19 11.03.2020
6611 Clouds 8 1039 75 6000 3.1 290 15:42 11.03.2020
6612 Clouds 8 1039 75 6000 3.1 290 15:23 11.03.2020
6613 Clouds 7 1039 81 6000 3.1 290 14:46 11.03.2020
6614 Clouds 7 1039 81 6000 3.1 290 14:24 11.03.2020
6615 Clouds 6 1039 81 6000 2.6 320 13:59 11.03.2020
6616 Clouds 6 1039 81 6000 2.6 320 13:40 11.03.2020
6617 Clouds 6 1039 81 6000 2.6 320 13:21 11.03.2020
6618 Clouds 5 1038 86 10000 2.6 300 12:41 11.03.2020
6619 Clouds 5 1038 86 10000 2.6 300 12:21 11.03.2020
6620 Clouds 5 1037 93 10000 1 0 11:57 11.03.2020
6621 Clouds 5 1037 93 10000 1 0 11:39 11.03.2020
6622 Clouds 5 1037 93 10000 1 0 11:19 11.03.2020
6623 Clouds 5 1037 93 10000 1 0 10:46 11.03.2020
6624 Clouds 5 1037 93 10000 1 0 10:19 11.03.2020
6625 Clouds 5 1038 93 10000 1 0 09:54 11.03.2020
6626 Clouds 5 1038 93 10000 1 0 09:36 11.03.2020
6627 Clouds 5 1038 93 10000 1 0 09:18 11.03.2020
6628 Rain 6 1038 93 4000 2.1 70 08:41 11.03.2020
6629 Rain 6 1038 93 4000 2.1 70 08:22 11.03.2020
6630 Rain 6 1039 93 4000 1.5 140 07:45 11.03.2020
6631 Rain 6 1039 93 4000 1.5 140 07:19 11.03.2020
6632 Fog 7 1039 81 4000 1 0 06:48 11.03.2020
6633 Rain 6 1039 81 10000 3.1 70 05:42 11.03.2020
6634 Fog 6 1039 93 4000 5.1 50 04:52 11.03.2020
6635 Clouds 7 1039 93 10000 2.1 80 02:30 11.03.2020
6636 Fog 7 1038 93 4000 1 0 01:30 11.03.2020
6637 Rain 7 1038 93 8000 3.1 220 00:47 11.03.2020
6638 Rain 8 1037 87 8000 4.6 260 00:18 11.03.2020
6639 Rain 8 1037 87 8000 4.6 260 23:40 10.03.2020
6640 Rain 9 1037 76 8000 3.1 280 23:21 10.03.2020
6641 Rain 9 1037 76 8000 3.1 280 22:39 10.03.2020
6642 Rain 9 1037 76 8000 3.1 280 22:20 10.03.2020
6643 Clouds 10 1037 66 10000 4.6 100 21:57 10.03.2020
6644 Clouds 10 1037 66 10000 4.6 100 21:38 10.03.2020
6645 Clouds 10 1037 66 10000 4.6 100 21:20 10.03.2020
6646 Rain 14 1038 54 8000 6.2 80 20:59 10.03.2020
6647 Rain 14 1038 54 8000 6.2 80 20:41 10.03.2020
6648 Rain 14 1038 54 8000 6.2 80 20:18 10.03.2020
6649 Clouds 13 1039 54 10000 5.7 90 19:56 10.03.2020
6650 Clouds 13 1039 54 10000 5.7 90 19:37 10.03.2020
6651 Clouds 13 1039 54 10000 5.7 90 19:19 10.03.2020
6652 Clouds 13 1040 54 10000 6.2 110 18:44 10.03.2020
6653 Clouds 13 1040 54 10000 6.2 110 18:25 10.03.2020
6654 Clouds 11 1041 62 10000 6.2 110 17:57 10.03.2020
6655 Clouds 11 1041 62 10000 6.2 110 17:38 10.03.2020
6656 Clouds 10 1042 66 10000 4.6 110 17:20 10.03.2020
6657 Clouds 10 1042 66 10000 4.6 110 16:39 10.03.2020
6658 Clouds 10 1042 66 10000 4.6 110 16:19 10.03.2020
6659 Clouds 9 1042 70 6000 4.6 100 15:55 10.03.2020
6660 Clouds 9 1042 70 6000 4.6 100 15:55 10.03.2020
6661 Clouds 9 1042 70 6000 4.6 100 15:37 10.03.2020
6662 Clouds 9 1042 70 6000 4.6 100 15:18 10.03.2020
6663 Fog 7 1042 81 3000 3.6 120 14:41 10.03.2020
6664 Fog 7 1042 81 3000 3.6 120 14:20 10.03.2020
6665 Fog 5 1041 93 5000 4.6 90 13:57 10.03.2020
6666 Fog 5 1041 93 5000 4.6 90 13:37 10.03.2020
6667 Fog 5 1041 93 5000 4.6 90 13:19 10.03.2020
6668 Fog 4 1041 100 5000 4.1 110 12:39 10.03.2020
6669 Fog 5 1041 93 500 2.1 120 12:19 10.03.2020
6670 Fog 5 1041 93 500 2.1 120 11:43 10.03.2020
6671 Fog 5 1041 93 500 2.1 120 11:25 10.03.2020
6672 Fog 4 1040 86 4000 1 0 10:59 10.03.2020
6673 Fog 4 1040 86 4000 1 0 10:41 10.03.2020
6674 Fog 4 1040 86 4000 1 0 10:41 10.03.2020
6675 Fog 4 1040 86 4000 1 0 10:22 10.03.2020
6676 Clouds 5 1040 80 10000 2.1 320 09:57 10.03.2020
6677 Clouds 5 1040 80 10000 2.1 320 09:38 10.03.2020
6678 Clouds 5 1040 80 10000 2.1 320 09:18 10.03.2020
6679 Clouds 5 1040 86 10000 5.1 310 08:45 10.03.2020
6680 Clouds 5 1040 86 10000 5.1 310 08:26 10.03.2020
6681 Clouds 6 1041 87 10000 2.6 310 07:49 10.03.2020
6682 Clouds 6 1041 87 10000 2.6 310 07:30 10.03.2020
6683 Clouds 6 1041 75 10000 3.1 300 06:42 10.03.2020
6684 Clouds 4 1042 80 10000 0.68 306 06:23 10.03.2020
6685 Clouds 4 1042 80 10000 0.68 306 05:39 10.03.2020
6686 Clouds 7 1042 75 10000 1 0 04:35 10.03.2020
6687 Clouds 7 1041 75 10000 1 0 03:34 10.03.2020
6688 Clouds 9 1040 66 10000 1.5 230 01:55 10.03.2020
6689 Clouds 9 1038 57 10000 2.6 60 00:53 10.03.2020
6690 Clouds 9 1038 57 10000 2.6 60 00:30 10.03.2020
6691 Clouds 11 1038 53 10000 4.6 40 23:56 09.03.2020
6692 Clouds 11 1038 53 10000 4.6 40 23:37 09.03.2020
6693 Clouds 12 1037 50 10000 6.7 40 23:19 09.03.2020
6694 Clouds 12 1037 50 10000 6.7 40 22:40 09.03.2020
6695 Clouds 12 1037 50 10000 6.7 40 22:21 09.03.2020
6696 Clouds 13 1038 43 10000 5.7 50 21:56 09.03.2020
6697 Clouds 13 1038 43 10000 5.7 50 21:56 09.03.2020
6698 Clouds 13 1038 43 10000 5.7 50 21:38 09.03.2020
6699 Clouds 13 1038 43 10000 5.7 50 21:20 09.03.2020
6700 Clouds 16 1038 38 10000 5.1 90 20:41 09.03.2020
6701 Clouds 16 1038 38 10000 5.1 90 20:23 09.03.2020
6702 Clouds 15 1040 44 10000 5.1 110 19:59 09.03.2020
6703 Clouds 15 1040 44 10000 5.1 110 19:41 09.03.2020
6704 Clouds 15 1040 44 10000 5.1 110 19:20 09.03.2020
6705 Clouds 14 1041 41 10000 5.1 90 18:57 09.03.2020
6706 Clouds 14 1041 41 10000 5.1 90 18:38 09.03.2020
6707 Clouds 11 1042 57 10000 5.1 80 18:18 09.03.2020
6708 Clouds 11 1042 57 10000 5.1 80 17:55 09.03.2020
6709 Clouds 11 1042 57 10000 5.1 80 17:37 09.03.2020
6710 Clouds 11 1042 66 10000 5.7 110 17:19 09.03.2020
6711 Clouds 11 1042 66 10000 5.7 110 16:56 09.03.2020
6712 Rain 8 1019 73 0 3 53 16:37 09.03.2020
6713 Clouds 11 1042 66 8000 5.1 120 16:19 09.03.2020
6714 Clouds 11 1042 66 8000 5.1 120 15:55 09.03.2020
6715 Clouds 11 1042 66 8000 5.1 120 15:37 09.03.2020
6716 Clouds 11 1042 66 8000 5.1 120 15:18 09.03.2020
6717 Clouds 9 1042 76 6000 4.6 90 14:39 09.03.2020
6718 Clouds 9 1042 76 6000 4.6 90 14:20 09.03.2020
6719 Clouds 8 1041 87 6000 3.1 80 13:58 09.03.2020
6720 Clouds 8 1041 87 6000 3.1 80 13:39 09.03.2020
6721 Clouds 8 1041 87 6000 3.1 80 13:20 09.03.2020
6722 Fog 6 1040 93 4000 3.1 110 12:44 09.03.2020
6723 Fog 6 1040 93 4000 3.1 110 12:24 09.03.2020
6724 Fog 4 1040 100 4000 3.6 80 11:58 09.03.2020
6725 Fog 4 1040 100 4000 3.6 80 11:40 09.03.2020
6726 Fog 4 1040 100 4000 3.6 80 11:20 09.03.2020
6727 Fog 6 1039 93 4000 4.1 90 10:55 09.03.2020
6728 Fog 6 1039